<?xml version="1.0" encoding="UTF-8" standalone="no" ?>
<gpx xmlns="http://www.topografix.com/GPX/1/1" xmlns:xsi="http://www.w3.org/2001/XMLSchema-instance" xsi:schemaLocation="http://www.topografix.com/GPX/1/1 http://www.topografix.com/GPX/1/1/gpx.xsd" version="1.1" creator="VisuGPX - https://www.visugpx.com">
  <metadata>
    <name>Parisot / Castanet</name>
  </metadata>
  <trk>
    <name><![CDATA[Parisot / Castanet]]></name>
    <extensions>
      <line xmlns="http://www.topografix.com/GPX/gpx_style/0/2">
        <color>FF0000</color>
        <width>4</width>
      </line>
    </extensions>
    <trkseg>
      <trkpt lat="44.27052" lon="1.86775">
        <ele>382.040158</ele>
        <time>2022-08-07T06:06:06.305Z</time>
      </trkpt>
      <trkpt lat="44.27043" lon="1.86781">
        <ele>382.040158</ele>
        <time>2022-08-07T06:06:21.351Z</time>
      </trkpt>
      <trkpt lat="44.27033" lon="1.86778">
        <ele>382.040158</ele>
        <time>2022-08-07T06:06:26.354Z</time>
      </trkpt>
      <trkpt lat="44.27024" lon="1.86777">
        <ele>382.040158</ele>
        <time>2022-08-07T06:06:31.348Z</time>
      </trkpt>
      <trkpt lat="44.27016" lon="1.86766">
        <ele>382.040158</ele>
        <time>2022-08-07T06:06:35.348Z</time>
      </trkpt>
      <trkpt lat="44.27012" lon="1.86754">
        <ele>382.040158</ele>
        <time>2022-08-07T06:06:38.348Z</time>
      </trkpt>
      <trkpt lat="44.27006" lon="1.8674">
        <ele>382.040158</ele>
        <time>2022-08-07T06:06:42.349Z</time>
      </trkpt>
      <trkpt lat="44.27001" lon="1.86725">
        <ele>382.040158</ele>
        <time>2022-08-07T06:06:46.349Z</time>
      </trkpt>
      <trkpt lat="44.26997" lon="1.86714">
        <ele>382.040158</ele>
        <time>2022-08-07T06:06:49.353Z</time>
      </trkpt>
      <trkpt lat="44.26993" lon="1.86699">
        <ele>381.930958</ele>
        <time>2022-08-07T06:06:53.350Z</time>
      </trkpt>
      <trkpt lat="44.26989" lon="1.86687">
        <ele>381.691107</ele>
        <time>2022-08-07T06:06:56.348Z</time>
      </trkpt>
      <trkpt lat="44.26985" lon="1.86675">
        <ele>381.457142</ele>
        <time>2022-08-07T06:06:59.352Z</time>
      </trkpt>
      <trkpt lat="44.26982" lon="1.86662">
        <ele>381.217748</ele>
        <time>2022-08-07T06:07:02.349Z</time>
      </trkpt>
      <trkpt lat="44.26979" lon="1.8665">
        <ele>380.97233</ele>
        <time>2022-08-07T06:07:05.361Z</time>
      </trkpt>
      <trkpt lat="44.26976" lon="1.86637">
        <ele>380.736182</ele>
        <time>2022-08-07T06:07:08.351Z</time>
      </trkpt>
      <trkpt lat="44.26972" lon="1.86625">
        <ele>380.497215</ele>
        <time>2022-08-07T06:07:11.352Z</time>
      </trkpt>
      <trkpt lat="44.26969" lon="1.86613">
        <ele>380.269506</ele>
        <time>2022-08-07T06:07:14.351Z</time>
      </trkpt>
      <trkpt lat="44.26966" lon="1.86601">
        <ele>380.023523</ele>
        <time>2022-08-07T06:07:17.344Z</time>
      </trkpt>
      <trkpt lat="44.26959" lon="1.86587">
        <ele>379.736658</ele>
        <time>2022-08-07T06:07:21.349Z</time>
      </trkpt>
      <trkpt lat="44.26954" lon="1.86575">
        <ele>379.473703</ele>
        <time>2022-08-07T06:07:25.342Z</time>
      </trkpt>
      <trkpt lat="44.26946" lon="1.86565">
        <ele>379.201753</ele>
        <time>2022-08-07T06:07:29.353Z</time>
      </trkpt>
      <trkpt lat="44.26936" lon="1.86561">
        <ele>378.931066</ele>
        <time>2022-08-07T06:07:33.347Z</time>
      </trkpt>
      <trkpt lat="44.26926" lon="1.86558">
        <ele>378.670892</ele>
        <time>2022-08-07T06:07:37.348Z</time>
      </trkpt>
      <trkpt lat="44.26915" lon="1.86559">
        <ele>378.396353</ele>
        <time>2022-08-07T06:07:41.348Z</time>
      </trkpt>
      <trkpt lat="44.26905" lon="1.86563">
        <ele>378.125431</ele>
        <time>2022-08-07T06:07:45.357Z</time>
      </trkpt>
      <trkpt lat="44.26896" lon="1.86569">
        <ele>377.888044</ele>
        <time>2022-08-07T06:07:48.363Z</time>
      </trkpt>
      <trkpt lat="44.26888" lon="1.8658">
        <ele>377.598922</ele>
        <time>2022-08-07T06:07:52.354Z</time>
      </trkpt>
      <trkpt lat="44.26881" lon="1.86591">
        <ele>378.061629</ele>
        <time>2022-08-07T06:07:56.352Z</time>
      </trkpt>
      <trkpt lat="44.26876" lon="1.86601">
        <ele>378.989366</ele>
        <time>2022-08-07T06:07:59.357Z</time>
      </trkpt>
      <trkpt lat="44.2687" lon="1.86615">
        <ele>380.179894</ele>
        <time>2022-08-07T06:08:03.354Z</time>
      </trkpt>
      <trkpt lat="44.26866" lon="1.86629">
        <ele>381.266643</ele>
        <time>2022-08-07T06:08:07.353Z</time>
      </trkpt>
      <trkpt lat="44.26863" lon="1.86643">
        <ele>382.329587</ele>
        <time>2022-08-07T06:08:11.342Z</time>
      </trkpt>
      <trkpt lat="44.26859" lon="1.86657">
        <ele>383.375574</ele>
        <time>2022-08-07T06:08:15.350Z</time>
      </trkpt>
      <trkpt lat="44.26849" lon="1.8666">
        <ele>384.416616</ele>
        <time>2022-08-07T06:08:20.355Z</time>
      </trkpt>
      <trkpt lat="44.26843" lon="1.86648">
        <ele>385.46238</ele>
        <time>2022-08-07T06:08:25.354Z</time>
      </trkpt>
      <trkpt lat="44.26837" lon="1.86639">
        <ele>386.376405</ele>
        <time>2022-08-07T06:08:30.352Z</time>
      </trkpt>
      <trkpt lat="44.26829" lon="1.8663">
        <ele>387.393095</ele>
        <time>2022-08-07T06:08:36.353Z</time>
      </trkpt>
      <trkpt lat="44.26823" lon="1.86621">
        <ele>388.340485</ele>
        <time>2022-08-07T06:08:41.349Z</time>
      </trkpt>
      <trkpt lat="44.26817" lon="1.86611">
        <ele>389.283003</ele>
        <time>2022-08-07T06:08:45.344Z</time>
      </trkpt>
      <trkpt lat="44.2681" lon="1.86599">
        <ele>390.370423</ele>
        <time>2022-08-07T06:08:50.352Z</time>
      </trkpt>
      <trkpt lat="44.26804" lon="1.86588">
        <ele>391.326572</ele>
        <time>2022-08-07T06:08:55.351Z</time>
      </trkpt>
      <trkpt lat="44.268" lon="1.86577">
        <ele>392.25244</ele>
        <time>2022-08-07T06:09:01.346Z</time>
      </trkpt>
      <trkpt lat="44.26795" lon="1.86566">
        <ele>393.189634</ele>
        <time>2022-08-07T06:09:06.352Z</time>
      </trkpt>
      <trkpt lat="44.2679" lon="1.86555">
        <ele>394.143314</ele>
        <time>2022-08-07T06:09:12.355Z</time>
      </trkpt>
      <trkpt lat="44.26788" lon="1.86543">
        <ele>395.063264</ele>
        <time>2022-08-07T06:09:17.348Z</time>
      </trkpt>
      <trkpt lat="44.26785" lon="1.86529">
        <ele>396.096085</ele>
        <time>2022-08-07T06:09:23.353Z</time>
      </trkpt>
      <trkpt lat="44.26781" lon="1.86515">
        <ele>397.144093</ele>
        <time>2022-08-07T06:09:29.355Z</time>
      </trkpt>
      <trkpt lat="44.26778" lon="1.86501">
        <ele>398.177161</ele>
        <time>2022-08-07T06:09:34.351Z</time>
      </trkpt>
      <trkpt lat="44.26778" lon="1.86486">
        <ele>399.239996</ele>
        <time>2022-08-07T06:09:39.352Z</time>
      </trkpt>
      <trkpt lat="44.26776" lon="1.86474">
        <ele>400.134801</ele>
        <time>2022-08-07T06:09:43.354Z</time>
      </trkpt>
      <trkpt lat="44.26775" lon="1.86462">
        <ele>401.036648</ele>
        <time>2022-08-07T06:09:47.351Z</time>
      </trkpt>
      <trkpt lat="44.26772" lon="1.86448">
        <ele>402.075499</ele>
        <time>2022-08-07T06:09:52.351Z</time>
      </trkpt>
      <trkpt lat="44.26771" lon="1.86435">
        <ele>402.993001</ele>
        <time>2022-08-07T06:09:56.350Z</time>
      </trkpt>
      <trkpt lat="44.26774" lon="1.86422">
        <ele>403.976158</ele>
        <time>2022-08-07T06:10:01.345Z</time>
      </trkpt>
      <trkpt lat="44.26779" lon="1.86411">
        <ele>404.916242</ele>
        <time>2022-08-07T06:10:07.353Z</time>
      </trkpt>
      <trkpt lat="44.26784" lon="1.864">
        <ele>405.849335</ele>
        <time>2022-08-07T06:10:12.355Z</time>
      </trkpt>
      <trkpt lat="44.26789" lon="1.86389">
        <ele>406.780826</ele>
        <time>2022-08-07T06:10:17.356Z</time>
      </trkpt>
      <trkpt lat="44.26795" lon="1.86379">
        <ele>407.683751</ele>
        <time>2022-08-07T06:10:22.355Z</time>
      </trkpt>
      <trkpt lat="44.268" lon="1.86366">
        <ele>408.757642</ele>
        <time>2022-08-07T06:10:28.346Z</time>
      </trkpt>
      <trkpt lat="44.26805" lon="1.86353">
        <ele>409.800296</ele>
        <time>2022-08-07T06:10:33.349Z</time>
      </trkpt>
      <trkpt lat="44.26808" lon="1.86338">
        <ele>410.868224</ele>
        <time>2022-08-07T06:10:38.346Z</time>
      </trkpt>
      <trkpt lat="44.26811" lon="1.86326">
        <ele>411.774224</ele>
        <time>2022-08-07T06:10:43.354Z</time>
      </trkpt>
      <trkpt lat="44.26811" lon="1.86312">
        <ele>412.786459</ele>
        <time>2022-08-07T06:10:50.358Z</time>
      </trkpt>
      <trkpt lat="44.26812" lon="1.86297">
        <ele>414.006231</ele>
        <time>2022-08-07T06:10:57.354Z</time>
      </trkpt>
      <trkpt lat="44.26815" lon="1.86285">
        <ele>415.543281</ele>
        <time>2022-08-07T06:11:01.352Z</time>
      </trkpt>
      <trkpt lat="44.26819" lon="1.86274">
        <ele>417.070895</ele>
        <time>2022-08-07T06:11:05.354Z</time>
      </trkpt>
      <trkpt lat="44.26822" lon="1.86261">
        <ele>418.586744</ele>
        <time>2022-08-07T06:11:11.374Z</time>
      </trkpt>
      <trkpt lat="44.26823" lon="1.86248">
        <ele>420.184567</ele>
        <time>2022-08-07T06:11:18.352Z</time>
      </trkpt>
      <trkpt lat="44.26823" lon="1.86234">
        <ele>421.82731</ele>
        <time>2022-08-07T06:11:24.355Z</time>
      </trkpt>
      <trkpt lat="44.26825" lon="1.86221">
        <ele>423.511151</ele>
        <time>2022-08-07T06:11:30.354Z</time>
      </trkpt>
      <trkpt lat="44.26828" lon="1.86208">
        <ele>425.178222</ele>
        <time>2022-08-07T06:11:38.353Z</time>
      </trkpt>
      <trkpt lat="44.2683" lon="1.86194">
        <ele>426.7941</ele>
        <time>2022-08-07T06:11:45.357Z</time>
      </trkpt>
      <trkpt lat="44.26834" lon="1.86182">
        <ele>428.337614</ele>
        <time>2022-08-07T06:11:54.350Z</time>
      </trkpt>
      <trkpt lat="44.26841" lon="1.86174">
        <ele>429.886164</ele>
        <time>2022-08-07T06:12:01.349Z</time>
      </trkpt>
      <trkpt lat="44.26848" lon="1.86165">
        <ele>431.472457</ele>
        <time>2022-08-07T06:12:09.350Z</time>
      </trkpt>
      <trkpt lat="44.26851" lon="1.86153">
        <ele>432.977992</ele>
        <time>2022-08-07T06:12:16.352Z</time>
      </trkpt>
      <trkpt lat="44.26855" lon="1.86142">
        <ele>434.536381</ele>
        <time>2022-08-07T06:12:26.356Z</time>
      </trkpt>
      <trkpt lat="44.26862" lon="1.86133">
        <ele>436.089133</ele>
        <time>2022-08-07T06:12:33.362Z</time>
      </trkpt>
      <trkpt lat="44.26869" lon="1.86123">
        <ele>437.77342</ele>
        <time>2022-08-07T06:12:41.352Z</time>
      </trkpt>
      <trkpt lat="44.26875" lon="1.86112">
        <ele>439.350992</ele>
        <time>2022-08-07T06:12:49.348Z</time>
      </trkpt>
      <trkpt lat="44.26881" lon="1.86102">
        <ele>440.946209</ele>
        <time>2022-08-07T06:12:57.362Z</time>
      </trkpt>
      <trkpt lat="44.26888" lon="1.86092">
        <ele>442.633164</ele>
        <time>2022-08-07T06:13:05.354Z</time>
      </trkpt>
      <trkpt lat="44.26896" lon="1.86082">
        <ele>443.863021</ele>
        <time>2022-08-07T06:13:13.360Z</time>
      </trkpt>
      <trkpt lat="44.26905" lon="1.86075">
        <ele>444.328642</ele>
        <time>2022-08-07T06:13:20.348Z</time>
      </trkpt>
      <trkpt lat="44.26913" lon="1.86068">
        <ele>444.796618</ele>
        <time>2022-08-07T06:13:26.342Z</time>
      </trkpt>
      <trkpt lat="44.26923" lon="1.86064">
        <ele>445.244059</ele>
        <time>2022-08-07T06:13:34.353Z</time>
      </trkpt>
      <trkpt lat="44.2693" lon="1.86057">
        <ele>445.672317</ele>
        <time>2022-08-07T06:13:42.351Z</time>
      </trkpt>
      <trkpt lat="44.26934" lon="1.86045">
        <ele>446.0974</ele>
        <time>2022-08-07T06:13:48.354Z</time>
      </trkpt>
      <trkpt lat="44.26935" lon="1.86032">
        <ele>446.511677</ele>
        <time>2022-08-07T06:13:53.349Z</time>
      </trkpt>
      <trkpt lat="44.26938" lon="1.8602">
        <ele>446.946335</ele>
        <time>2022-08-07T06:13:58.352Z</time>
      </trkpt>
      <trkpt lat="44.26941" lon="1.86007">
        <ele>447.392736</ele>
        <time>2022-08-07T06:14:03.355Z</time>
      </trkpt>
      <trkpt lat="44.26944" lon="1.85994">
        <ele>447.831166</ele>
        <time>2022-08-07T06:14:08.353Z</time>
      </trkpt>
      <trkpt lat="44.26946" lon="1.85979">
        <ele>448.334948</ele>
        <time>2022-08-07T06:14:13.353Z</time>
      </trkpt>
      <trkpt lat="44.26949" lon="1.85965">
        <ele>448.823801</ele>
        <time>2022-08-07T06:14:18.356Z</time>
      </trkpt>
      <trkpt lat="44.26954" lon="1.85952">
        <ele>449.302143</ele>
        <time>2022-08-07T06:14:23.352Z</time>
      </trkpt>
      <trkpt lat="44.2696" lon="1.85942">
        <ele>449.729443</ele>
        <time>2022-08-07T06:14:28.357Z</time>
      </trkpt>
      <trkpt lat="44.26965" lon="1.85932">
        <ele>450.14908</ele>
        <time>2022-08-07T06:14:32.350Z</time>
      </trkpt>
      <trkpt lat="44.2697" lon="1.8592">
        <ele>450.594924</ele>
        <time>2022-08-07T06:14:36.353Z</time>
      </trkpt>
      <trkpt lat="44.26973" lon="1.85907">
        <ele>451.020115</ele>
        <time>2022-08-07T06:14:40.354Z</time>
      </trkpt>
      <trkpt lat="44.26973" lon="1.85893">
        <ele>451.482685</ele>
        <time>2022-08-07T06:14:44.354Z</time>
      </trkpt>
      <trkpt lat="44.26971" lon="1.85881">
        <ele>451.89686</ele>
        <time>2022-08-07T06:14:47.353Z</time>
      </trkpt>
      <trkpt lat="44.26969" lon="1.85864">
        <ele>451.89918</ele>
        <time>2022-08-07T06:14:51.353Z</time>
      </trkpt>
      <trkpt lat="44.26965" lon="1.85849">
        <ele>451.901435</ele>
        <time>2022-08-07T06:14:54.354Z</time>
      </trkpt>
      <trkpt lat="44.26963" lon="1.85834">
        <ele>451.903479</ele>
        <time>2022-08-07T06:14:56.353Z</time>
      </trkpt>
      <trkpt lat="44.26964" lon="1.85816">
        <ele>451.905946</ele>
        <time>2022-08-07T06:14:59.348Z</time>
      </trkpt>
      <trkpt lat="44.26967" lon="1.85799">
        <ele>451.90834</ele>
        <time>2022-08-07T06:15:02.354Z</time>
      </trkpt>
      <trkpt lat="44.2697" lon="1.85785">
        <ele>451.910432</ele>
        <time>2022-08-07T06:15:05.350Z</time>
      </trkpt>
      <trkpt lat="44.26971" lon="1.85772">
        <ele>451.912272</ele>
        <time>2022-08-07T06:15:08.350Z</time>
      </trkpt>
      <trkpt lat="44.26971" lon="1.85758">
        <ele>451.91412</ele>
        <time>2022-08-07T06:15:12.350Z</time>
      </trkpt>
      <trkpt lat="44.26959" lon="1.85742">
        <ele>451.917301</ele>
        <time>2022-08-07T06:15:56.352Z</time>
      </trkpt>
      <trkpt lat="44.26953" lon="1.8573">
        <ele>451.919353</ele>
        <time>2022-08-07T06:16:01.354Z</time>
      </trkpt>
      <trkpt lat="44.26945" lon="1.8572">
        <ele>451.921436</ele>
        <time>2022-08-07T06:16:05.347Z</time>
      </trkpt>
      <trkpt lat="44.26936" lon="1.8571">
        <ele>451.923694</ele>
        <time>2022-08-07T06:16:09.352Z</time>
      </trkpt>
      <trkpt lat="44.26928" lon="1.85702">
        <ele>451.925545</ele>
        <time>2022-08-07T06:16:12.349Z</time>
      </trkpt>
      <trkpt lat="44.26921" lon="1.85693">
        <ele>451.927451</ele>
        <time>2022-08-07T06:16:15.351Z</time>
      </trkpt>
      <trkpt lat="44.26913" lon="1.85684">
        <ele>451.929368</ele>
        <time>2022-08-07T06:16:19.355Z</time>
      </trkpt>
      <trkpt lat="44.26904" lon="1.85682">
        <ele>451.931197</ele>
        <time>2022-08-07T06:16:23.356Z</time>
      </trkpt>
      <trkpt lat="44.26895" lon="1.85689">
        <ele>451.481351</ele>
        <time>2022-08-07T06:16:26.348Z</time>
      </trkpt>
      <trkpt lat="44.26883" lon="1.85694">
        <ele>450.852744</ele>
        <time>2022-08-07T06:16:29.352Z</time>
      </trkpt>
      <trkpt lat="44.26873" lon="1.85698">
        <ele>450.302453</ele>
        <time>2022-08-07T06:16:31.352Z</time>
      </trkpt>
      <trkpt lat="44.26864" lon="1.85702">
        <ele>449.827689</ele>
        <time>2022-08-07T06:16:33.355Z</time>
      </trkpt>
      <trkpt lat="44.26854" lon="1.85707">
        <ele>449.302413</ele>
        <time>2022-08-07T06:16:35.356Z</time>
      </trkpt>
      <trkpt lat="44.26843" lon="1.85713">
        <ele>448.686991</ele>
        <time>2022-08-07T06:16:37.352Z</time>
      </trkpt>
      <trkpt lat="44.2683" lon="1.85721">
        <ele>447.974562</ele>
        <time>2022-08-07T06:16:39.354Z</time>
      </trkpt>
      <trkpt lat="44.26818" lon="1.85732">
        <ele>447.222792</ele>
        <time>2022-08-07T06:16:41.355Z</time>
      </trkpt>
      <trkpt lat="44.26804" lon="1.85744">
        <ele>446.387964</ele>
        <time>2022-08-07T06:16:43.353Z</time>
      </trkpt>
      <trkpt lat="44.26789" lon="1.85757">
        <ele>445.512878</ele>
        <time>2022-08-07T06:16:45.350Z</time>
      </trkpt>
      <trkpt lat="44.26782" lon="1.85764">
        <ele>445.044178</ele>
        <time>2022-08-07T06:16:46.352Z</time>
      </trkpt>
      <trkpt lat="44.26768" lon="1.85779">
        <ele>444.150904</ele>
        <time>2022-08-07T06:16:48.350Z</time>
      </trkpt>
      <trkpt lat="44.26758" lon="1.85787">
        <ele>443.597493</ele>
        <time>2022-08-07T06:16:49.356Z</time>
      </trkpt>
      <trkpt lat="44.2675" lon="1.85794">
        <ele>443.088883</ele>
        <time>2022-08-07T06:16:50.350Z</time>
      </trkpt>
      <trkpt lat="44.26735" lon="1.85805">
        <ele>441.940072</ele>
        <time>2022-08-07T06:16:52.355Z</time>
      </trkpt>
      <trkpt lat="44.26726" lon="1.85809">
        <ele>441.19522</ele>
        <time>2022-08-07T06:16:53.356Z</time>
      </trkpt>
      <trkpt lat="44.26717" lon="1.85811">
        <ele>440.493879</ele>
        <time>2022-08-07T06:16:54.352Z</time>
      </trkpt>
      <trkpt lat="44.26705" lon="1.85795">
        <ele>439.206194</ele>
        <time>2022-08-07T06:16:56.351Z</time>
      </trkpt>
      <trkpt lat="44.26696" lon="1.85777">
        <ele>437.992421</ele>
        <time>2022-08-07T06:16:58.356Z</time>
      </trkpt>
      <trkpt lat="44.26688" lon="1.85756">
        <ele>436.668378</ele>
        <time>2022-08-07T06:17:00.356Z</time>
      </trkpt>
      <trkpt lat="44.26684" lon="1.85745">
        <ele>435.960091</ele>
        <time>2022-08-07T06:17:01.352Z</time>
      </trkpt>
      <trkpt lat="44.26679" lon="1.85734">
        <ele>435.245274</ele>
        <time>2022-08-07T06:17:02.353Z</time>
      </trkpt>
      <trkpt lat="44.26664" lon="1.85722">
        <ele>433.886096</ele>
        <time>2022-08-07T06:17:04.352Z</time>
      </trkpt>
      <trkpt lat="44.26648" lon="1.85716">
        <ele>432.594626</ele>
        <time>2022-08-07T06:17:06.350Z</time>
      </trkpt>
      <trkpt lat="44.26633" lon="1.85715">
        <ele>431.405984</ele>
        <time>2022-08-07T06:17:08.347Z</time>
      </trkpt>
      <trkpt lat="44.26618" lon="1.85715">
        <ele>430.258261</ele>
        <time>2022-08-07T06:17:10.350Z</time>
      </trkpt>
      <trkpt lat="44.26603" lon="1.85715">
        <ele>429.063694</ele>
        <time>2022-08-07T06:17:12.350Z</time>
      </trkpt>
      <trkpt lat="44.2659" lon="1.85714">
        <ele>428.782021</ele>
        <time>2022-08-07T06:17:14.352Z</time>
      </trkpt>
      <trkpt lat="44.26579" lon="1.85711">
        <ele>428.876653</ele>
        <time>2022-08-07T06:17:16.347Z</time>
      </trkpt>
      <trkpt lat="44.2657" lon="1.85701">
        <ele>428.965277</ele>
        <time>2022-08-07T06:17:18.355Z</time>
      </trkpt>
      <trkpt lat="44.26566" lon="1.85688">
        <ele>429.047038</ele>
        <time>2022-08-07T06:17:21.351Z</time>
      </trkpt>
      <trkpt lat="44.26559" lon="1.85679">
        <ele>429.125434</ele>
        <time>2022-08-07T06:17:24.350Z</time>
      </trkpt>
      <trkpt lat="44.26549" lon="1.85674">
        <ele>429.209989</ele>
        <time>2022-08-07T06:17:27.363Z</time>
      </trkpt>
      <trkpt lat="44.26539" lon="1.85675">
        <ele>429.298675</ele>
        <time>2022-08-07T06:17:29.353Z</time>
      </trkpt>
      <trkpt lat="44.26526" lon="1.85678">
        <ele>429.40462</ele>
        <time>2022-08-07T06:17:31.355Z</time>
      </trkpt>
      <trkpt lat="44.26513" lon="1.85676">
        <ele>429.511546</ele>
        <time>2022-08-07T06:17:33.345Z</time>
      </trkpt>
      <trkpt lat="44.26499" lon="1.85675">
        <ele>429.625922</ele>
        <time>2022-08-07T06:17:35.352Z</time>
      </trkpt>
      <trkpt lat="44.26485" lon="1.85672">
        <ele>429.74096</ele>
        <time>2022-08-07T06:17:38.358Z</time>
      </trkpt>
      <trkpt lat="44.26474" lon="1.85671">
        <ele>429.827899</ele>
        <time>2022-08-07T06:17:42.357Z</time>
      </trkpt>
      <trkpt lat="44.26463" lon="1.85668">
        <ele>429.926432</ele>
        <time>2022-08-07T06:17:46.342Z</time>
      </trkpt>
      <trkpt lat="44.26456" lon="1.85658">
        <ele>430.003634</ele>
        <time>2022-08-07T06:17:50.362Z</time>
      </trkpt>
      <trkpt lat="44.26448" lon="1.85654">
        <ele>430.080454</ele>
        <time>2022-08-07T06:17:54.354Z</time>
      </trkpt>
      <trkpt lat="44.26445" lon="1.8564">
        <ele>430.162958</ele>
        <time>2022-08-07T06:17:59.349Z</time>
      </trkpt>
      <trkpt lat="44.26435" lon="1.85633">
        <ele>430.165414</ele>
        <time>2022-08-07T06:18:03.346Z</time>
      </trkpt>
      <trkpt lat="44.26425" lon="1.85636">
        <ele>430.135257</ele>
        <time>2022-08-07T06:18:07.343Z</time>
      </trkpt>
      <trkpt lat="44.26414" lon="1.8564">
        <ele>430.104282</ele>
        <time>2022-08-07T06:18:12.348Z</time>
      </trkpt>
      <trkpt lat="44.26406" lon="1.8565">
        <ele>430.074368</ele>
        <time>2022-08-07T06:18:16.350Z</time>
      </trkpt>
      <trkpt lat="44.26403" lon="1.85667">
        <ele>430.040221</ele>
        <time>2022-08-07T06:18:20.353Z</time>
      </trkpt>
      <trkpt lat="44.26398" lon="1.8568">
        <ele>430.009579</ele>
        <time>2022-08-07T06:18:23.347Z</time>
      </trkpt>
      <trkpt lat="44.26395" lon="1.85694">
        <ele>429.980462</ele>
        <time>2022-08-07T06:18:26.347Z</time>
      </trkpt>
      <trkpt lat="44.26399" lon="1.85708">
        <ele>429.950697</ele>
        <time>2022-08-07T06:18:30.349Z</time>
      </trkpt>
      <trkpt lat="44.26403" lon="1.85721">
        <ele>429.921249</ele>
        <time>2022-08-07T06:18:34.352Z</time>
      </trkpt>
      <trkpt lat="44.26396" lon="1.85732">
        <ele>429.891322</ele>
        <time>2022-08-07T06:18:38.352Z</time>
      </trkpt>
      <trkpt lat="44.26385" lon="1.85731">
        <ele>429.858553</ele>
        <time>2022-08-07T06:18:42.347Z</time>
      </trkpt>
      <trkpt lat="44.26379" lon="1.85741">
        <ele>429.832228</ele>
        <time>2022-08-07T06:18:45.348Z</time>
      </trkpt>
      <trkpt lat="44.26381" lon="1.85754">
        <ele>429.804615</ele>
        <time>2022-08-07T06:18:47.347Z</time>
      </trkpt>
      <trkpt lat="44.2638" lon="1.85769">
        <ele>429.774487</ele>
        <time>2022-08-07T06:18:50.354Z</time>
      </trkpt>
      <trkpt lat="44.2639" lon="1.85774">
        <ele>429.743428</ele>
        <time>2022-08-07T06:18:53.353Z</time>
      </trkpt>
      <trkpt lat="44.26403" lon="1.85772">
        <ele>429.707363</ele>
        <time>2022-08-07T06:18:56.355Z</time>
      </trkpt>
      <trkpt lat="44.26413" lon="1.85772">
        <ele>429.652262</ele>
        <time>2022-08-07T06:18:58.357Z</time>
      </trkpt>
      <trkpt lat="44.26424" lon="1.85767">
        <ele>428.53786</ele>
        <time>2022-08-07T06:19:03.360Z</time>
      </trkpt>
      <trkpt lat="44.26428" lon="1.8578">
        <ele>427.568945</ele>
        <time>2022-08-07T06:19:06.356Z</time>
      </trkpt>
      <trkpt lat="44.26431" lon="1.85792">
        <ele>426.661633</ele>
        <time>2022-08-07T06:19:08.355Z</time>
      </trkpt>
      <trkpt lat="44.26435" lon="1.85804">
        <ele>425.7663</ele>
        <time>2022-08-07T06:19:10.350Z</time>
      </trkpt>
      <trkpt lat="44.2644" lon="1.85815">
        <ele>424.885728</ele>
        <time>2022-08-07T06:19:12.358Z</time>
      </trkpt>
      <trkpt lat="44.26449" lon="1.85824">
        <ele>423.794012</ele>
        <time>2022-08-07T06:19:15.361Z</time>
      </trkpt>
      <trkpt lat="44.26462" lon="1.85829">
        <ele>422.581439</ele>
        <time>2022-08-07T06:19:18.342Z</time>
      </trkpt>
      <trkpt lat="44.26468" lon="1.8584">
        <ele>421.583296</ele>
        <time>2022-08-07T06:19:19.350Z</time>
      </trkpt>
      <trkpt lat="44.26474" lon="1.85853">
        <ele>420.492948</ele>
        <time>2022-08-07T06:19:21.352Z</time>
      </trkpt>
      <trkpt lat="44.26477" lon="1.85865">
        <ele>419.60766</ele>
        <time>2022-08-07T06:19:23.352Z</time>
      </trkpt>
      <trkpt lat="44.26481" lon="1.85883">
        <ele>418.384732</ele>
        <time>2022-08-07T06:19:26.357Z</time>
      </trkpt>
      <trkpt lat="44.26482" lon="1.85895">
        <ele>417.516837</ele>
        <time>2022-08-07T06:19:28.354Z</time>
      </trkpt>
      <trkpt lat="44.26483" lon="1.85916">
        <ele>416.103462</ele>
        <time>2022-08-07T06:19:31.354Z</time>
      </trkpt>
      <trkpt lat="44.26479" lon="1.85929">
        <ele>415.105674</ele>
        <time>2022-08-07T06:19:33.352Z</time>
      </trkpt>
      <trkpt lat="44.26474" lon="1.85941">
        <ele>414.159744</ele>
        <time>2022-08-07T06:19:35.356Z</time>
      </trkpt>
      <trkpt lat="44.26462" lon="1.8595">
        <ele>412.854043</ele>
        <time>2022-08-07T06:19:37.366Z</time>
      </trkpt>
      <trkpt lat="44.26453" lon="1.85952">
        <ele>412.220584</ele>
        <time>2022-08-07T06:19:39.354Z</time>
      </trkpt>
      <trkpt lat="44.26445" lon="1.85962">
        <ele>411.822058</ele>
        <time>2022-08-07T06:19:43.355Z</time>
      </trkpt>
      <trkpt lat="44.26451" lon="1.85971">
        <ele>411.452112</ele>
        <time>2022-08-07T06:19:47.352Z</time>
      </trkpt>
      <trkpt lat="44.26459" lon="1.8598">
        <ele>411.040335</ele>
        <time>2022-08-07T06:19:50.349Z</time>
      </trkpt>
      <trkpt lat="44.26468" lon="1.85986">
        <ele>410.651296</ele>
        <time>2022-08-07T06:19:54.355Z</time>
      </trkpt>
      <trkpt lat="44.26478" lon="1.8599">
        <ele>410.25537</ele>
        <time>2022-08-07T06:19:58.352Z</time>
      </trkpt>
      <trkpt lat="44.26488" lon="1.85991">
        <ele>409.845966</ele>
        <time>2022-08-07T06:20:02.352Z</time>
      </trkpt>
      <trkpt lat="44.26497" lon="1.85989">
        <ele>409.477942</ele>
        <time>2022-08-07T06:20:05.347Z</time>
      </trkpt>
      <trkpt lat="44.26509" lon="1.85986">
        <ele>409.005173</ele>
        <time>2022-08-07T06:20:09.357Z</time>
      </trkpt>
      <trkpt lat="44.26519" lon="1.8598">
        <ele>408.567215</ele>
        <time>2022-08-07T06:20:13.349Z</time>
      </trkpt>
      <trkpt lat="44.26531" lon="1.85978">
        <ele>408.100417</ele>
        <time>2022-08-07T06:20:17.352Z</time>
      </trkpt>
      <trkpt lat="44.2654" lon="1.85978">
        <ele>407.722947</ele>
        <time>2022-08-07T06:20:20.363Z</time>
      </trkpt>
      <trkpt lat="44.26551" lon="1.85981">
        <ele>407.280394</ele>
        <time>2022-08-07T06:20:24.351Z</time>
      </trkpt>
      <trkpt lat="44.26555" lon="1.85997">
        <ele>406.802231</ele>
        <time>2022-08-07T06:20:26.357Z</time>
      </trkpt>
      <trkpt lat="44.26555" lon="1.86014">
        <ele>406.312774</ele>
        <time>2022-08-07T06:20:29.349Z</time>
      </trkpt>
      <trkpt lat="44.26554" lon="1.86028">
        <ele>405.909996</ele>
        <time>2022-08-07T06:20:32.353Z</time>
      </trkpt>
      <trkpt lat="44.26554" lon="1.86046">
        <ele>405.406236</ele>
        <time>2022-08-07T06:20:35.355Z</time>
      </trkpt>
      <trkpt lat="44.26565" lon="1.86054">
        <ele>404.554564</ele>
        <time>2022-08-07T06:20:38.359Z</time>
      </trkpt>
      <trkpt lat="44.26577" lon="1.86059">
        <ele>403.544077</ele>
        <time>2022-08-07T06:20:40.353Z</time>
      </trkpt>
      <trkpt lat="44.2659" lon="1.86065">
        <ele>402.437135</ele>
        <time>2022-08-07T06:20:42.355Z</time>
      </trkpt>
      <trkpt lat="44.26599" lon="1.86075">
        <ele>401.490682</ele>
        <time>2022-08-07T06:20:44.352Z</time>
      </trkpt>
      <trkpt lat="44.26608" lon="1.86081">
        <ele>400.656846</ele>
        <time>2022-08-07T06:20:46.353Z</time>
      </trkpt>
      <trkpt lat="44.26616" lon="1.86086">
        <ele>399.917385</ele>
        <time>2022-08-07T06:20:48.356Z</time>
      </trkpt>
      <trkpt lat="44.26628" lon="1.86091">
        <ele>398.913192</ele>
        <time>2022-08-07T06:20:50.357Z</time>
      </trkpt>
      <trkpt lat="44.26639" lon="1.86093">
        <ele>398.011896</ele>
        <time>2022-08-07T06:20:52.354Z</time>
      </trkpt>
      <trkpt lat="44.26649" lon="1.86095">
        <ele>397.209468</ele>
        <time>2022-08-07T06:20:54.357Z</time>
      </trkpt>
      <trkpt lat="44.2666" lon="1.86093">
        <ele>396.299223</ele>
        <time>2022-08-07T06:20:57.358Z</time>
      </trkpt>
      <trkpt lat="44.2667" lon="1.86094">
        <ele>395.427877</ele>
        <time>2022-08-07T06:21:02.353Z</time>
      </trkpt>
      <trkpt lat="44.26675" lon="1.86107">
        <ele>394.59494</ele>
        <time>2022-08-07T06:21:06.352Z</time>
      </trkpt>
      <trkpt lat="44.26677" lon="1.8612">
        <ele>393.790195</ele>
        <time>2022-08-07T06:21:11.354Z</time>
      </trkpt>
      <trkpt lat="44.26682" lon="1.86135">
        <ele>392.847919</ele>
        <time>2022-08-07T06:21:15.356Z</time>
      </trkpt>
      <trkpt lat="44.26687" lon="1.86147">
        <ele>392.016683</ele>
        <time>2022-08-07T06:21:18.357Z</time>
      </trkpt>
      <trkpt lat="44.26694" lon="1.86167">
        <ele>390.729456</ele>
        <time>2022-08-07T06:21:21.355Z</time>
      </trkpt>
      <trkpt lat="44.26698" lon="1.86186">
        <ele>390.796334</ele>
        <time>2022-08-07T06:21:24.353Z</time>
      </trkpt>
      <trkpt lat="44.26704" lon="1.862">
        <ele>391.070863</ele>
        <time>2022-08-07T06:21:26.351Z</time>
      </trkpt>
      <trkpt lat="44.26709" lon="1.86213">
        <ele>391.306463</ele>
        <time>2022-08-07T06:21:28.354Z</time>
      </trkpt>
      <trkpt lat="44.26713" lon="1.86226">
        <ele>391.533976</ele>
        <time>2022-08-07T06:21:30.358Z</time>
      </trkpt>
      <trkpt lat="44.26719" lon="1.86238">
        <ele>391.765728</ele>
        <time>2022-08-07T06:21:33.349Z</time>
      </trkpt>
      <trkpt lat="44.26724" lon="1.86251">
        <ele>391.99529</ele>
        <time>2022-08-07T06:21:35.355Z</time>
      </trkpt>
      <trkpt lat="44.26727" lon="1.86263">
        <ele>392.213231</ele>
        <time>2022-08-07T06:21:37.352Z</time>
      </trkpt>
      <trkpt lat="44.26732" lon="1.86278">
        <ele>392.471554</ele>
        <time>2022-08-07T06:21:40.352Z</time>
      </trkpt>
      <trkpt lat="44.26737" lon="1.86293">
        <ele>392.74346</ele>
        <time>2022-08-07T06:21:43.351Z</time>
      </trkpt>
      <trkpt lat="44.26743" lon="1.86308">
        <ele>393.022977</ele>
        <time>2022-08-07T06:21:47.351Z</time>
      </trkpt>
      <trkpt lat="44.26745" lon="1.86321">
        <ele>393.229954</ele>
        <time>2022-08-07T06:21:50.353Z</time>
      </trkpt>
      <trkpt lat="44.26747" lon="1.86333">
        <ele>393.434052</ele>
        <time>2022-08-07T06:21:53.351Z</time>
      </trkpt>
      <trkpt lat="44.26748" lon="1.86347">
        <ele>393.661537</ele>
        <time>2022-08-07T06:21:57.351Z</time>
      </trkpt>
      <trkpt lat="44.26751" lon="1.86362">
        <ele>393.911031</ele>
        <time>2022-08-07T06:22:01.352Z</time>
      </trkpt>
      <trkpt lat="44.26755" lon="1.86375">
        <ele>394.135801</ele>
        <time>2022-08-07T06:22:05.349Z</time>
      </trkpt>
      <trkpt lat="44.26758" lon="1.86389">
        <ele>394.381233</ele>
        <time>2022-08-07T06:22:09.351Z</time>
      </trkpt>
      <trkpt lat="44.2676" lon="1.86404">
        <ele>394.531092</ele>
        <time>2022-08-07T06:22:13.349Z</time>
      </trkpt>
      <trkpt lat="44.26764" lon="1.86417">
        <ele>394.044226</ele>
        <time>2022-08-07T06:22:17.354Z</time>
      </trkpt>
      <trkpt lat="44.26765" lon="1.8643">
        <ele>393.597051</ele>
        <time>2022-08-07T06:22:21.350Z</time>
      </trkpt>
      <trkpt lat="44.26758" lon="1.86445">
        <ele>393.019709</ele>
        <time>2022-08-07T06:22:25.361Z</time>
      </trkpt>
      <trkpt lat="44.26754" lon="1.86456">
        <ele>392.596642</ele>
        <time>2022-08-07T06:22:26.355Z</time>
      </trkpt>
      <trkpt lat="44.26744" lon="1.86471">
        <ele>391.919421</ele>
        <time>2022-08-07T06:22:28.355Z</time>
      </trkpt>
      <trkpt lat="44.26732" lon="1.86488">
        <ele>391.096192</ele>
        <time>2022-08-07T06:22:30.352Z</time>
      </trkpt>
      <trkpt lat="44.26718" lon="1.86508">
        <ele>390.181067</ele>
        <time>2022-08-07T06:22:32.349Z</time>
      </trkpt>
      <trkpt lat="44.26712" lon="1.86518">
        <ele>389.726987</ele>
        <time>2022-08-07T06:22:33.355Z</time>
      </trkpt>
      <trkpt lat="44.26705" lon="1.86527">
        <ele>389.304293</ele>
        <time>2022-08-07T06:22:34.358Z</time>
      </trkpt>
      <trkpt lat="44.26694" lon="1.86541">
        <ele>388.597902</ele>
        <time>2022-08-07T06:22:36.351Z</time>
      </trkpt>
      <trkpt lat="44.26684" lon="1.86555">
        <ele>387.937048</ele>
        <time>2022-08-07T06:22:38.355Z</time>
      </trkpt>
      <trkpt lat="44.26671" lon="1.86567">
        <ele>387.228656</ele>
        <time>2022-08-07T06:22:40.771Z</time>
      </trkpt>
      <trkpt lat="44.26656" lon="1.86579">
        <ele>386.432064</ele>
        <time>2022-08-07T06:22:42.355Z</time>
      </trkpt>
      <trkpt lat="44.26642" lon="1.8659">
        <ele>386.072724</ele>
        <time>2022-08-07T06:22:44.345Z</time>
      </trkpt>
      <trkpt lat="44.26626" lon="1.866">
        <ele>385.879588</ele>
        <time>2022-08-07T06:22:46.354Z</time>
      </trkpt>
      <trkpt lat="44.2661" lon="1.8661">
        <ele>385.686078</ele>
        <time>2022-08-07T06:22:48.357Z</time>
      </trkpt>
      <trkpt lat="44.26592" lon="1.86619">
        <ele>385.48756</ele>
        <time>2022-08-07T06:22:50.353Z</time>
      </trkpt>
      <trkpt lat="44.26578" lon="1.86624">
        <ele>385.327</ele>
        <time>2022-08-07T06:22:52.355Z</time>
      </trkpt>
      <trkpt lat="44.26567" lon="1.86624">
        <ele>385.214217</ele>
        <time>2022-08-07T06:22:54.352Z</time>
      </trkpt>
      <trkpt lat="44.26557" lon="1.86628">
        <ele>385.104332</ele>
        <time>2022-08-07T06:22:59.352Z</time>
      </trkpt>
      <trkpt lat="44.26547" lon="1.86632">
        <ele>384.993195</ele>
        <time>2022-08-07T06:23:03.354Z</time>
      </trkpt>
      <trkpt lat="44.26539" lon="1.86636">
        <ele>384.894912</ele>
        <time>2022-08-07T06:23:06.357Z</time>
      </trkpt>
      <trkpt lat="44.2653" lon="1.8664">
        <ele>384.796795</ele>
        <time>2022-08-07T06:23:09.348Z</time>
      </trkpt>
      <trkpt lat="44.2652" lon="1.86644">
        <ele>384.687126</ele>
        <time>2022-08-07T06:23:12.352Z</time>
      </trkpt>
      <trkpt lat="44.2651" lon="1.86649">
        <ele>384.567674</ele>
        <time>2022-08-07T06:23:15.352Z</time>
      </trkpt>
      <trkpt lat="44.265" lon="1.86656">
        <ele>384.450471</ele>
        <time>2022-08-07T06:23:18.355Z</time>
      </trkpt>
      <trkpt lat="44.26489" lon="1.86663">
        <ele>384.327102</ele>
        <time>2022-08-07T06:23:21.352Z</time>
      </trkpt>
      <trkpt lat="44.2648" lon="1.86671">
        <ele>384.205121</ele>
        <time>2022-08-07T06:23:24.355Z</time>
      </trkpt>
      <trkpt lat="44.26471" lon="1.86678">
        <ele>384.089499</ele>
        <time>2022-08-07T06:23:27.812Z</time>
      </trkpt>
      <trkpt lat="44.26461" lon="1.86683">
        <ele>383.977264</ele>
        <time>2022-08-07T06:23:30.354Z</time>
      </trkpt>
      <trkpt lat="44.26451" lon="1.86687">
        <ele>383.872308</ele>
        <time>2022-08-07T06:23:33.350Z</time>
      </trkpt>
      <trkpt lat="44.26441" lon="1.86691">
        <ele>383.758413</ele>
        <time>2022-08-07T06:23:36.354Z</time>
      </trkpt>
      <trkpt lat="44.26431" lon="1.86694">
        <ele>383.639232</ele>
        <time>2022-08-07T06:23:39.356Z</time>
      </trkpt>
      <trkpt lat="44.2642" lon="1.86698">
        <ele>383.524258</ele>
        <time>2022-08-07T06:23:42.354Z</time>
      </trkpt>
      <trkpt lat="44.26411" lon="1.86702">
        <ele>383.418954</ele>
        <time>2022-08-07T06:23:45.358Z</time>
      </trkpt>
      <trkpt lat="44.26402" lon="1.86704">
        <ele>383.314921</ele>
        <time>2022-08-07T06:23:48.353Z</time>
      </trkpt>
      <trkpt lat="44.26391" lon="1.86698">
        <ele>383.190174</ele>
        <time>2022-08-07T06:23:51.355Z</time>
      </trkpt>
      <trkpt lat="44.26387" lon="1.86682">
        <ele>383.05584</ele>
        <time>2022-08-07T06:23:54.353Z</time>
      </trkpt>
      <trkpt lat="44.26388" lon="1.86669">
        <ele>382.954316</ele>
        <time>2022-08-07T06:23:56.565Z</time>
      </trkpt>
      <trkpt lat="44.26388" lon="1.86656">
        <ele>382.850901</ele>
        <time>2022-08-07T06:23:58.350Z</time>
      </trkpt>
      <trkpt lat="44.26387" lon="1.86639">
        <ele>382.721519</ele>
        <time>2022-08-07T06:24:01.356Z</time>
      </trkpt>
      <trkpt lat="44.26386" lon="1.86626">
        <ele>382.623715</ele>
        <time>2022-08-07T06:24:03.358Z</time>
      </trkpt>
      <trkpt lat="44.26385" lon="1.86608">
        <ele>382.479218</ele>
        <time>2022-08-07T06:24:06.372Z</time>
      </trkpt>
      <trkpt lat="44.26385" lon="1.86595">
        <ele>382.378262</ele>
        <time>2022-08-07T06:24:08.354Z</time>
      </trkpt>
      <trkpt lat="44.26383" lon="1.86581">
        <ele>382.199354</ele>
        <time>2022-08-07T06:24:10.354Z</time>
      </trkpt>
      <trkpt lat="44.26382" lon="1.86567">
        <ele>381.925427</ele>
        <time>2022-08-07T06:24:12.354Z</time>
      </trkpt>
      <trkpt lat="44.26382" lon="1.86552">
        <ele>381.624061</ele>
        <time>2022-08-07T06:24:14.356Z</time>
      </trkpt>
      <trkpt lat="44.26381" lon="1.86536">
        <ele>381.316905</ele>
        <time>2022-08-07T06:24:16.351Z</time>
      </trkpt>
      <trkpt lat="44.26382" lon="1.86521">
        <ele>381.011466</ele>
        <time>2022-08-07T06:24:18.356Z</time>
      </trkpt>
      <trkpt lat="44.2638" lon="1.86505">
        <ele>380.692523</ele>
        <time>2022-08-07T06:24:20.355Z</time>
      </trkpt>
      <trkpt lat="44.2638" lon="1.86492">
        <ele>380.43489</ele>
        <time>2022-08-07T06:24:22.361Z</time>
      </trkpt>
      <trkpt lat="44.2638" lon="1.86478">
        <ele>380.161452</ele>
        <time>2022-08-07T06:24:24.358Z</time>
      </trkpt>
      <trkpt lat="44.26379" lon="1.86465">
        <ele>379.901662</ele>
        <time>2022-08-07T06:24:27.355Z</time>
      </trkpt>
      <trkpt lat="44.26368" lon="1.8646">
        <ele>379.58545</ele>
        <time>2022-08-07T06:24:31.353Z</time>
      </trkpt>
      <trkpt lat="44.26359" lon="1.8646">
        <ele>379.322008</ele>
        <time>2022-08-07T06:24:34.356Z</time>
      </trkpt>
      <trkpt lat="44.2635" lon="1.86461">
        <ele>379.06946</ele>
        <time>2022-08-07T06:24:37.356Z</time>
      </trkpt>
      <trkpt lat="44.2634" lon="1.8646">
        <ele>378.803671</ele>
        <time>2022-08-07T06:24:40.358Z</time>
      </trkpt>
      <trkpt lat="44.2633" lon="1.86459">
        <ele>378.531118</ele>
        <time>2022-08-07T06:24:43.348Z</time>
      </trkpt>
      <trkpt lat="44.2632" lon="1.86457">
        <ele>378.230637</ele>
        <time>2022-08-07T06:24:46.347Z</time>
      </trkpt>
      <trkpt lat="44.2631" lon="1.86457">
        <ele>377.951172</ele>
        <time>2022-08-07T06:24:49.354Z</time>
      </trkpt>
      <trkpt lat="44.263" lon="1.86457">
        <ele>377.68556</ele>
        <time>2022-08-07T06:24:52.357Z</time>
      </trkpt>
      <trkpt lat="44.2629" lon="1.86456">
        <ele>377.400149</ele>
        <time>2022-08-07T06:24:55.355Z</time>
      </trkpt>
      <trkpt lat="44.2628" lon="1.86456">
        <ele>377.338045</ele>
        <time>2022-08-07T06:24:58.354Z</time>
      </trkpt>
      <trkpt lat="44.26269" lon="1.86456">
        <ele>377.342427</ele>
        <time>2022-08-07T06:25:01.346Z</time>
      </trkpt>
      <trkpt lat="44.26259" lon="1.86457">
        <ele>377.346493</ele>
        <time>2022-08-07T06:25:04.356Z</time>
      </trkpt>
      <trkpt lat="44.26249" lon="1.86456">
        <ele>377.350368</ele>
        <time>2022-08-07T06:25:07.357Z</time>
      </trkpt>
      <trkpt lat="44.26239" lon="1.86454">
        <ele>377.354256</ele>
        <time>2022-08-07T06:25:10.350Z</time>
      </trkpt>
      <trkpt lat="44.26228" lon="1.86456">
        <ele>377.35858</ele>
        <time>2022-08-07T06:25:14.353Z</time>
      </trkpt>
      <trkpt lat="44.26218" lon="1.86456">
        <ele>377.362764</ele>
        <time>2022-08-07T06:25:18.355Z</time>
      </trkpt>
      <trkpt lat="44.26207" lon="1.86457">
        <ele>377.366923</ele>
        <time>2022-08-07T06:25:22.353Z</time>
      </trkpt>
      <trkpt lat="44.26198" lon="1.86455">
        <ele>377.370508</ele>
        <time>2022-08-07T06:25:26.350Z</time>
      </trkpt>
      <trkpt lat="44.26187" lon="1.86462">
        <ele>377.375186</ele>
        <time>2022-08-07T06:25:30.352Z</time>
      </trkpt>
      <trkpt lat="44.2618" lon="1.86469">
        <ele>377.378747</ele>
        <time>2022-08-07T06:25:33.352Z</time>
      </trkpt>
      <trkpt lat="44.26171" lon="1.86477">
        <ele>377.382734</ele>
        <time>2022-08-07T06:25:36.350Z</time>
      </trkpt>
      <trkpt lat="44.26162" lon="1.86483">
        <ele>377.386878</ele>
        <time>2022-08-07T06:25:39.351Z</time>
      </trkpt>
      <trkpt lat="44.26154" lon="1.86491">
        <ele>377.390814</ele>
        <time>2022-08-07T06:25:42.353Z</time>
      </trkpt>
      <trkpt lat="44.26145" lon="1.86497">
        <ele>377.394556</ele>
        <time>2022-08-07T06:25:45.354Z</time>
      </trkpt>
      <trkpt lat="44.26135" lon="1.86505">
        <ele>377.399186</ele>
        <time>2022-08-07T06:25:49.353Z</time>
      </trkpt>
      <trkpt lat="44.26125" lon="1.86513">
        <ele>377.403682</ele>
        <time>2022-08-07T06:25:53.354Z</time>
      </trkpt>
      <trkpt lat="44.26116" lon="1.86522">
        <ele>377.348483</ele>
        <time>2022-08-07T06:25:57.350Z</time>
      </trkpt>
      <trkpt lat="44.26108" lon="1.86532">
        <ele>377.223483</ele>
        <time>2022-08-07T06:26:01.355Z</time>
      </trkpt>
      <trkpt lat="44.26099" lon="1.86539">
        <ele>377.097226</ele>
        <time>2022-08-07T06:26:05.346Z</time>
      </trkpt>
      <trkpt lat="44.2609" lon="1.8653">
        <ele>376.965476</ele>
        <time>2022-08-07T06:26:09.358Z</time>
      </trkpt>
      <trkpt lat="44.26085" lon="1.86517">
        <ele>376.834975</ele>
        <time>2022-08-07T06:26:13.351Z</time>
      </trkpt>
      <trkpt lat="44.2608" lon="1.86504">
        <ele>376.715269</ele>
        <time>2022-08-07T06:26:16.352Z</time>
      </trkpt>
      <trkpt lat="44.26076" lon="1.86492">
        <ele>376.595141</ele>
        <time>2022-08-07T06:26:19.355Z</time>
      </trkpt>
      <trkpt lat="44.26071" lon="1.8648">
        <ele>376.477415</ele>
        <time>2022-08-07T06:26:22.356Z</time>
      </trkpt>
      <trkpt lat="44.26067" lon="1.86467">
        <ele>376.352606</ele>
        <time>2022-08-07T06:26:25.352Z</time>
      </trkpt>
      <trkpt lat="44.26062" lon="1.86454">
        <ele>376.229637</ele>
        <time>2022-08-07T06:26:28.357Z</time>
      </trkpt>
      <trkpt lat="44.26057" lon="1.86441">
        <ele>376.103668</ele>
        <time>2022-08-07T06:26:31.354Z</time>
      </trkpt>
      <trkpt lat="44.26049" lon="1.86428">
        <ele>375.958151</ele>
        <time>2022-08-07T06:26:34.357Z</time>
      </trkpt>
      <trkpt lat="44.26039" lon="1.86418">
        <ele>375.805755</ele>
        <time>2022-08-07T06:26:37.353Z</time>
      </trkpt>
      <trkpt lat="44.26026" lon="1.86416">
        <ele>375.650557</ele>
        <time>2022-08-07T06:26:40.355Z</time>
      </trkpt>
      <trkpt lat="44.26017" lon="1.86419">
        <ele>375.541361</ele>
        <time>2022-08-07T06:26:42.357Z</time>
      </trkpt>
      <trkpt lat="44.26007" lon="1.8642">
        <ele>375.417823</ele>
        <time>2022-08-07T06:26:44.358Z</time>
      </trkpt>
      <trkpt lat="44.25995" lon="1.86419">
        <ele>375.283473</ele>
        <time>2022-08-07T06:26:46.353Z</time>
      </trkpt>
      <trkpt lat="44.25983" lon="1.86417">
        <ele>375.085256</ele>
        <time>2022-08-07T06:26:48.356Z</time>
      </trkpt>
      <trkpt lat="44.25968" lon="1.86415">
        <ele>374.848553</ele>
        <time>2022-08-07T06:26:50.357Z</time>
      </trkpt>
      <trkpt lat="44.25953" lon="1.86409">
        <ele>374.582628</ele>
        <time>2022-08-07T06:26:52.356Z</time>
      </trkpt>
      <trkpt lat="44.25936" lon="1.86409">
        <ele>374.304871</ele>
        <time>2022-08-07T06:26:54.355Z</time>
      </trkpt>
      <trkpt lat="44.2592" lon="1.86407">
        <ele>374.042865</ele>
        <time>2022-08-07T06:26:56.356Z</time>
      </trkpt>
      <trkpt lat="44.25904" lon="1.86403">
        <ele>373.777011</ele>
        <time>2022-08-07T06:26:58.351Z</time>
      </trkpt>
      <trkpt lat="44.25889" lon="1.86402">
        <ele>373.522261</ele>
        <time>2022-08-07T06:27:00.358Z</time>
      </trkpt>
      <trkpt lat="44.25874" lon="1.86401">
        <ele>373.270137</ele>
        <time>2022-08-07T06:27:02.355Z</time>
      </trkpt>
      <trkpt lat="44.25859" lon="1.86399">
        <ele>373.023235</ele>
        <time>2022-08-07T06:27:04.353Z</time>
      </trkpt>
      <trkpt lat="44.25844" lon="1.86396">
        <ele>372.776545</ele>
        <time>2022-08-07T06:27:06.352Z</time>
      </trkpt>
      <trkpt lat="44.2583" lon="1.86395">
        <ele>372.54593</ele>
        <time>2022-08-07T06:27:08.357Z</time>
      </trkpt>
      <trkpt lat="44.25816" lon="1.86393">
        <ele>372.318895</ele>
        <time>2022-08-07T06:27:10.353Z</time>
      </trkpt>
      <trkpt lat="44.25804" lon="1.86393">
        <ele>372.077832</ele>
        <time>2022-08-07T06:27:12.350Z</time>
      </trkpt>
      <trkpt lat="44.25793" lon="1.86393">
        <ele>371.84298</ele>
        <time>2022-08-07T06:27:14.353Z</time>
      </trkpt>
      <trkpt lat="44.25781" lon="1.86391">
        <ele>371.600508</ele>
        <time>2022-08-07T06:27:16.362Z</time>
      </trkpt>
      <trkpt lat="44.2577" lon="1.8639">
        <ele>371.369563</ele>
        <time>2022-08-07T06:27:18.352Z</time>
      </trkpt>
      <trkpt lat="44.25759" lon="1.86388">
        <ele>371.136969</ele>
        <time>2022-08-07T06:27:20.357Z</time>
      </trkpt>
      <trkpt lat="44.25749" lon="1.86387">
        <ele>370.925981</ele>
        <time>2022-08-07T06:27:22.351Z</time>
      </trkpt>
      <trkpt lat="44.25739" lon="1.86384">
        <ele>370.730888</ele>
        <time>2022-08-07T06:27:24.358Z</time>
      </trkpt>
      <trkpt lat="44.25728" lon="1.86383">
        <ele>370.502567</ele>
        <time>2022-08-07T06:27:26.351Z</time>
      </trkpt>
      <trkpt lat="44.25718" lon="1.86381">
        <ele>370.285424</ele>
        <time>2022-08-07T06:27:28.354Z</time>
      </trkpt>
      <trkpt lat="44.25709" lon="1.8638">
        <ele>370.095444</ele>
        <time>2022-08-07T06:27:30.357Z</time>
      </trkpt>
      <trkpt lat="44.25699" lon="1.86379">
        <ele>369.903053</ele>
        <time>2022-08-07T06:27:32.358Z</time>
      </trkpt>
      <trkpt lat="44.25687" lon="1.86374">
        <ele>369.639969</ele>
        <time>2022-08-07T06:27:35.352Z</time>
      </trkpt>
      <trkpt lat="44.25677" lon="1.86372">
        <ele>369.44026</ele>
        <time>2022-08-07T06:27:37.349Z</time>
      </trkpt>
      <trkpt lat="44.25664" lon="1.86367">
        <ele>369.163635</ele>
        <time>2022-08-07T06:27:40.355Z</time>
      </trkpt>
      <trkpt lat="44.25651" lon="1.86363">
        <ele>368.881052</ele>
        <time>2022-08-07T06:27:43.356Z</time>
      </trkpt>
      <trkpt lat="44.25638" lon="1.86358">
        <ele>368.59915</ele>
        <time>2022-08-07T06:27:46.353Z</time>
      </trkpt>
      <trkpt lat="44.25626" lon="1.86357">
        <ele>368.796741</ele>
        <time>2022-08-07T06:27:49.352Z</time>
      </trkpt>
      <trkpt lat="44.25617" lon="1.86354">
        <ele>369.008797</ele>
        <time>2022-08-07T06:27:51.357Z</time>
      </trkpt>
      <trkpt lat="44.25607" lon="1.86353">
        <ele>369.24278</ele>
        <time>2022-08-07T06:27:54.358Z</time>
      </trkpt>
      <trkpt lat="44.25595" lon="1.86352">
        <ele>369.506533</ele>
        <time>2022-08-07T06:27:57.348Z</time>
      </trkpt>
      <trkpt lat="44.25582" lon="1.86349">
        <ele>369.792862</ele>
        <time>2022-08-07T06:28:00.355Z</time>
      </trkpt>
      <trkpt lat="44.25569" lon="1.86347">
        <ele>370.089945</ele>
        <time>2022-08-07T06:28:03.354Z</time>
      </trkpt>
      <trkpt lat="44.25558" lon="1.86346">
        <ele>370.337759</ele>
        <time>2022-08-07T06:28:06.357Z</time>
      </trkpt>
      <trkpt lat="44.25547" lon="1.86346">
        <ele>370.597874</ele>
        <time>2022-08-07T06:28:09.362Z</time>
      </trkpt>
      <trkpt lat="44.25536" lon="1.86345">
        <ele>370.84684</ele>
        <time>2022-08-07T06:28:13.351Z</time>
      </trkpt>
      <trkpt lat="44.25524" lon="1.86346">
        <ele>371.103059</ele>
        <time>2022-08-07T06:28:17.356Z</time>
      </trkpt>
      <trkpt lat="44.25514" lon="1.86347">
        <ele>371.327646</ele>
        <time>2022-08-07T06:28:20.356Z</time>
      </trkpt>
      <trkpt lat="44.25504" lon="1.86348">
        <ele>371.554926</ele>
        <time>2022-08-07T06:28:23.361Z</time>
      </trkpt>
      <trkpt lat="44.25494" lon="1.8635">
        <ele>371.779215</ele>
        <time>2022-08-07T06:28:26.357Z</time>
      </trkpt>
      <trkpt lat="44.25484" lon="1.86351">
        <ele>372.016974</ele>
        <time>2022-08-07T06:28:29.346Z</time>
      </trkpt>
      <trkpt lat="44.25473" lon="1.86352">
        <ele>372.246943</ele>
        <time>2022-08-07T06:28:32.357Z</time>
      </trkpt>
      <trkpt lat="44.25464" lon="1.86355">
        <ele>372.452695</ele>
        <time>2022-08-07T06:28:35.352Z</time>
      </trkpt>
      <trkpt lat="44.25455" lon="1.86363">
        <ele>372.798113</ele>
        <time>2022-08-07T06:28:39.358Z</time>
      </trkpt>
      <trkpt lat="44.25447" lon="1.86373">
        <ele>373.23755</ele>
        <time>2022-08-07T06:28:43.352Z</time>
      </trkpt>
      <trkpt lat="44.2544" lon="1.86381">
        <ele>373.621982</ele>
        <time>2022-08-07T06:28:46.356Z</time>
      </trkpt>
      <trkpt lat="44.25432" lon="1.86391">
        <ele>374.063462</ele>
        <time>2022-08-07T06:28:50.352Z</time>
      </trkpt>
      <trkpt lat="44.25423" lon="1.86401">
        <ele>374.547476</ele>
        <time>2022-08-07T06:28:54.353Z</time>
      </trkpt>
      <trkpt lat="44.25416" lon="1.8641">
        <ele>374.962649</ele>
        <time>2022-08-07T06:28:57.356Z</time>
      </trkpt>
      <trkpt lat="44.25409" lon="1.86419">
        <ele>375.346971</ele>
        <time>2022-08-07T06:29:00.354Z</time>
      </trkpt>
      <trkpt lat="44.25402" lon="1.86426">
        <ele>375.726245</ele>
        <time>2022-08-07T06:29:03.353Z</time>
      </trkpt>
      <trkpt lat="44.25395" lon="1.86435">
        <ele>376.108598</ele>
        <time>2022-08-07T06:29:06.354Z</time>
      </trkpt>
      <trkpt lat="44.25385" lon="1.86443">
        <ele>376.590716</ele>
        <time>2022-08-07T06:29:10.354Z</time>
      </trkpt>
      <trkpt lat="44.25377" lon="1.86451">
        <ele>377.00966</ele>
        <time>2022-08-07T06:29:14.359Z</time>
      </trkpt>
      <trkpt lat="44.25368" lon="1.86459">
        <ele>377.442023</ele>
        <time>2022-08-07T06:29:18.354Z</time>
      </trkpt>
      <trkpt lat="44.2536" lon="1.86468">
        <ele>377.89813</ele>
        <time>2022-08-07T06:29:22.352Z</time>
      </trkpt>
      <trkpt lat="44.25351" lon="1.86478">
        <ele>378.363286</ele>
        <time>2022-08-07T06:29:26.358Z</time>
      </trkpt>
      <trkpt lat="44.25342" lon="1.86483">
        <ele>378.780775</ele>
        <time>2022-08-07T06:29:30.357Z</time>
      </trkpt>
      <trkpt lat="44.25331" lon="1.86486">
        <ele>379.236216</ele>
        <time>2022-08-07T06:29:34.361Z</time>
      </trkpt>
      <trkpt lat="44.25322" lon="1.86488">
        <ele>379.625567</ele>
        <time>2022-08-07T06:29:38.361Z</time>
      </trkpt>
      <trkpt lat="44.25312" lon="1.86492">
        <ele>380.04933</ele>
        <time>2022-08-07T06:29:42.353Z</time>
      </trkpt>
      <trkpt lat="44.25302" lon="1.86496">
        <ele>380.725841</ele>
        <time>2022-08-07T06:29:46.356Z</time>
      </trkpt>
      <trkpt lat="44.25293" lon="1.86499">
        <ele>381.415494</ele>
        <time>2022-08-07T06:29:50.358Z</time>
      </trkpt>
      <trkpt lat="44.25282" lon="1.86502">
        <ele>382.207678</ele>
        <time>2022-08-07T06:29:54.354Z</time>
      </trkpt>
      <trkpt lat="44.25273" lon="1.86505">
        <ele>382.889239</ele>
        <time>2022-08-07T06:29:58.355Z</time>
      </trkpt>
      <trkpt lat="44.25262" lon="1.86508">
        <ele>383.691526</ele>
        <time>2022-08-07T06:30:03.356Z</time>
      </trkpt>
      <trkpt lat="44.25253" lon="1.86508">
        <ele>384.337317</ele>
        <time>2022-08-07T06:30:07.353Z</time>
      </trkpt>
      <trkpt lat="44.25242" lon="1.86507">
        <ele>385.093674</ele>
        <time>2022-08-07T06:30:12.353Z</time>
      </trkpt>
      <trkpt lat="44.25233" lon="1.86506">
        <ele>385.769105</ele>
        <time>2022-08-07T06:30:16.355Z</time>
      </trkpt>
      <trkpt lat="44.25222" lon="1.86506">
        <ele>386.515612</ele>
        <time>2022-08-07T06:30:20.356Z</time>
      </trkpt>
      <trkpt lat="44.25211" lon="1.86507">
        <ele>387.327455</ele>
        <time>2022-08-07T06:30:25.358Z</time>
      </trkpt>
      <trkpt lat="44.25199" lon="1.86504">
        <ele>388.186275</ele>
        <time>2022-08-07T06:30:29.353Z</time>
      </trkpt>
      <trkpt lat="44.25189" lon="1.86502">
        <ele>388.90301</ele>
        <time>2022-08-07T06:30:33.358Z</time>
      </trkpt>
      <trkpt lat="44.2518" lon="1.86496">
        <ele>389.620859</ele>
        <time>2022-08-07T06:30:37.357Z</time>
      </trkpt>
      <trkpt lat="44.25171" lon="1.8649">
        <ele>390.386627</ele>
        <time>2022-08-07T06:30:42.354Z</time>
      </trkpt>
      <trkpt lat="44.25161" lon="1.86487">
        <ele>391.127546</ele>
        <time>2022-08-07T06:30:46.355Z</time>
      </trkpt>
      <trkpt lat="44.2515" lon="1.86485">
        <ele>391.867335</ele>
        <time>2022-08-07T06:30:50.358Z</time>
      </trkpt>
      <trkpt lat="44.25141" lon="1.86481">
        <ele>392.590673</ele>
        <time>2022-08-07T06:30:54.354Z</time>
      </trkpt>
      <trkpt lat="44.25133" lon="1.86474">
        <ele>393.105255</ele>
        <time>2022-08-07T06:30:58.359Z</time>
      </trkpt>
      <trkpt lat="44.25126" lon="1.86465">
        <ele>393.240184</ele>
        <time>2022-08-07T06:31:02.356Z</time>
      </trkpt>
      <trkpt lat="44.25118" lon="1.86456">
        <ele>393.382144</ele>
        <time>2022-08-07T06:31:06.356Z</time>
      </trkpt>
      <trkpt lat="44.2511" lon="1.86447">
        <ele>393.52733</ele>
        <time>2022-08-07T06:31:10.354Z</time>
      </trkpt>
      <trkpt lat="44.251" lon="1.8644">
        <ele>393.679349</ele>
        <time>2022-08-07T06:31:14.354Z</time>
      </trkpt>
      <trkpt lat="44.2509" lon="1.86434">
        <ele>393.841272</ele>
        <time>2022-08-07T06:31:18.354Z</time>
      </trkpt>
      <trkpt lat="44.2508" lon="1.86428">
        <ele>393.998859</ele>
        <time>2022-08-07T06:31:22.356Z</time>
      </trkpt>
      <trkpt lat="44.25071" lon="1.8642">
        <ele>394.144142</ele>
        <time>2022-08-07T06:31:26.358Z</time>
      </trkpt>
      <trkpt lat="44.25064" lon="1.86409">
        <ele>394.299636</ele>
        <time>2022-08-07T06:31:31.354Z</time>
      </trkpt>
      <trkpt lat="44.25062" lon="1.86394">
        <ele>394.448178</ele>
        <time>2022-08-07T06:31:37.354Z</time>
      </trkpt>
      <trkpt lat="44.25068" lon="1.86383">
        <ele>394.586302</ele>
        <time>2022-08-07T06:31:41.356Z</time>
      </trkpt>
      <trkpt lat="44.25074" lon="1.86371">
        <ele>394.744349</ele>
        <time>2022-08-07T06:31:46.358Z</time>
      </trkpt>
      <trkpt lat="44.2508" lon="1.8636">
        <ele>394.880004</ele>
        <time>2022-08-07T06:31:50.355Z</time>
      </trkpt>
      <trkpt lat="44.25088" lon="1.8635">
        <ele>395.039298</ele>
        <time>2022-08-07T06:31:54.350Z</time>
      </trkpt>
      <trkpt lat="44.25094" lon="1.86338">
        <ele>395.188181</ele>
        <time>2022-08-07T06:31:58.358Z</time>
      </trkpt>
      <trkpt lat="44.25099" lon="1.86321">
        <ele>395.370277</ele>
        <time>2022-08-07T06:32:01.355Z</time>
      </trkpt>
      <trkpt lat="44.25103" lon="1.86303">
        <ele>395.566443</ele>
        <time>2022-08-07T06:32:04.352Z</time>
      </trkpt>
      <trkpt lat="44.25104" lon="1.86283">
        <ele>395.373856</ele>
        <time>2022-08-07T06:32:06.352Z</time>
      </trkpt>
      <trkpt lat="44.25101" lon="1.8627">
        <ele>395.108672</ele>
        <time>2022-08-07T06:32:08.359Z</time>
      </trkpt>
      <trkpt lat="44.251" lon="1.86254">
        <ele>394.798747</ele>
        <time>2022-08-07T06:32:10.355Z</time>
      </trkpt>
      <trkpt lat="44.25101" lon="1.86238">
        <ele>394.484981</ele>
        <time>2022-08-07T06:32:13.352Z</time>
      </trkpt>
      <trkpt lat="44.25104" lon="1.86224">
        <ele>394.199028</ele>
        <time>2022-08-07T06:32:16.356Z</time>
      </trkpt>
      <trkpt lat="44.25109" lon="1.86211">
        <ele>393.923727</ele>
        <time>2022-08-07T06:32:20.356Z</time>
      </trkpt>
      <trkpt lat="44.25118" lon="1.86201">
        <ele>393.614101</ele>
        <time>2022-08-07T06:32:24.353Z</time>
      </trkpt>
      <trkpt lat="44.25126" lon="1.86196">
        <ele>393.368263</ele>
        <time>2022-08-07T06:32:27.357Z</time>
      </trkpt>
      <trkpt lat="44.25137" lon="1.86188">
        <ele>393.055654</ele>
        <time>2022-08-07T06:32:30.356Z</time>
      </trkpt>
      <trkpt lat="44.25144" lon="1.86176">
        <ele>392.738716</ele>
        <time>2022-08-07T06:32:34.356Z</time>
      </trkpt>
      <trkpt lat="44.25147" lon="1.8616">
        <ele>392.436301</ele>
        <time>2022-08-07T06:32:38.355Z</time>
      </trkpt>
      <trkpt lat="44.25149" lon="1.86145">
        <ele>392.133887</ele>
        <time>2022-08-07T06:32:41.355Z</time>
      </trkpt>
      <trkpt lat="44.25152" lon="1.86132">
        <ele>391.874137</ele>
        <time>2022-08-07T06:32:43.357Z</time>
      </trkpt>
      <trkpt lat="44.25156" lon="1.86115">
        <ele>391.531787</ele>
        <time>2022-08-07T06:32:46.356Z</time>
      </trkpt>
      <trkpt lat="44.25159" lon="1.86103">
        <ele>391.277359</ele>
        <time>2022-08-07T06:32:48.355Z</time>
      </trkpt>
      <trkpt lat="44.2516" lon="1.86085">
        <ele>390.93466</ele>
        <time>2022-08-07T06:32:50.355Z</time>
      </trkpt>
      <trkpt lat="44.25162" lon="1.8607">
        <ele>390.56366</ele>
        <time>2022-08-07T06:32:52.356Z</time>
      </trkpt>
      <trkpt lat="44.25166" lon="1.86053">
        <ele>390.044997</ele>
        <time>2022-08-07T06:32:55.358Z</time>
      </trkpt>
      <trkpt lat="44.25169" lon="1.86039">
        <ele>389.608338</ele>
        <time>2022-08-07T06:32:58.354Z</time>
      </trkpt>
      <trkpt lat="44.2517" lon="1.86025">
        <ele>389.192197</ele>
        <time>2022-08-07T06:33:01.350Z</time>
      </trkpt>
      <trkpt lat="44.25168" lon="1.8601">
        <ele>388.768359</ele>
        <time>2022-08-07T06:33:04.353Z</time>
      </trkpt>
      <trkpt lat="44.25167" lon="1.85997">
        <ele>388.383782</ele>
        <time>2022-08-07T06:33:08.353Z</time>
      </trkpt>
      <trkpt lat="44.25166" lon="1.85985">
        <ele>388.01506</ele>
        <time>2022-08-07T06:33:11.350Z</time>
      </trkpt>
      <trkpt lat="44.25164" lon="1.8597">
        <ele>387.575829</ele>
        <time>2022-08-07T06:33:15.352Z</time>
      </trkpt>
      <trkpt lat="44.25163" lon="1.85955">
        <ele>387.136012</ele>
        <time>2022-08-07T06:33:18.356Z</time>
      </trkpt>
      <trkpt lat="44.2516" lon="1.8594">
        <ele>386.696541</ele>
        <time>2022-08-07T06:33:21.353Z</time>
      </trkpt>
      <trkpt lat="44.25159" lon="1.85927">
        <ele>386.289122</ele>
        <time>2022-08-07T06:33:24.355Z</time>
      </trkpt>
      <trkpt lat="44.25156" lon="1.85913">
        <ele>385.883855</ele>
        <time>2022-08-07T06:33:27.353Z</time>
      </trkpt>
      <trkpt lat="44.25153" lon="1.85898">
        <ele>385.414076</ele>
        <time>2022-08-07T06:33:30.361Z</time>
      </trkpt>
      <trkpt lat="44.2515" lon="1.85881">
        <ele>384.914533</ele>
        <time>2022-08-07T06:33:33.356Z</time>
      </trkpt>
      <trkpt lat="44.25144" lon="1.85862">
        <ele>384.306661</ele>
        <time>2022-08-07T06:33:36.355Z</time>
      </trkpt>
      <trkpt lat="44.25137" lon="1.85847">
        <ele>383.784864</ele>
        <time>2022-08-07T06:33:39.353Z</time>
      </trkpt>
      <trkpt lat="44.25133" lon="1.85835">
        <ele>383.469195</ele>
        <time>2022-08-07T06:33:41.351Z</time>
      </trkpt>
      <trkpt lat="44.25127" lon="1.85825">
        <ele>383.450071</ele>
        <time>2022-08-07T06:33:43.357Z</time>
      </trkpt>
      <trkpt lat="44.25121" lon="1.85809">
        <ele>383.422064</ele>
        <time>2022-08-07T06:33:46.356Z</time>
      </trkpt>
      <trkpt lat="44.25114" lon="1.85793">
        <ele>383.392521</ele>
        <time>2022-08-07T06:33:49.344Z</time>
      </trkpt>
      <trkpt lat="44.25106" lon="1.85782">
        <ele>383.370556</ele>
        <time>2022-08-07T06:33:51.360Z</time>
      </trkpt>
      <trkpt lat="44.25099" lon="1.85768">
        <ele>383.343855</ele>
        <time>2022-08-07T06:33:54.354Z</time>
      </trkpt>
      <trkpt lat="44.25091" lon="1.85755">
        <ele>383.318052</ele>
        <time>2022-08-07T06:33:57.352Z</time>
      </trkpt>
      <trkpt lat="44.25082" lon="1.85751">
        <ele>383.298799</ele>
        <time>2022-08-07T06:34:00.355Z</time>
      </trkpt>
      <trkpt lat="44.25071" lon="1.85751">
        <ele>383.275321</ele>
        <time>2022-08-07T06:34:04.355Z</time>
      </trkpt>
      <trkpt lat="44.2506" lon="1.85752">
        <ele>383.250953</ele>
        <time>2022-08-07T06:34:08.358Z</time>
      </trkpt>
      <trkpt lat="44.25049" lon="1.85753">
        <ele>383.227193</ele>
        <time>2022-08-07T06:34:12.357Z</time>
      </trkpt>
      <trkpt lat="44.25039" lon="1.85756">
        <ele>383.206794</ele>
        <time>2022-08-07T06:34:15.361Z</time>
      </trkpt>
      <trkpt lat="44.25029" lon="1.85756">
        <ele>383.185644</ele>
        <time>2022-08-07T06:34:18.352Z</time>
      </trkpt>
      <trkpt lat="44.25019" lon="1.85759">
        <ele>383.164412</ele>
        <time>2022-08-07T06:34:22.359Z</time>
      </trkpt>
      <trkpt lat="44.25006" lon="1.85759">
        <ele>383.136937</ele>
        <time>2022-08-07T06:34:26.361Z</time>
      </trkpt>
      <trkpt lat="44.24996" lon="1.85761">
        <ele>383.115151</ele>
        <time>2022-08-07T06:34:29.359Z</time>
      </trkpt>
      <trkpt lat="44.24984" lon="1.85765">
        <ele>383.017848</ele>
        <time>2022-08-07T06:34:32.358Z</time>
      </trkpt>
      <trkpt lat="44.24973" lon="1.85767">
        <ele>382.535252</ele>
        <time>2022-08-07T06:34:34.364Z</time>
      </trkpt>
      <trkpt lat="44.24963" lon="1.8577">
        <ele>382.112605</ele>
        <time>2022-08-07T06:34:36.351Z</time>
      </trkpt>
      <trkpt lat="44.24953" lon="1.85772">
        <ele>381.672056</ele>
        <time>2022-08-07T06:34:38.350Z</time>
      </trkpt>
      <trkpt lat="44.24939" lon="1.85774">
        <ele>381.095944</ele>
        <time>2022-08-07T06:34:40.354Z</time>
      </trkpt>
      <trkpt lat="44.24928" lon="1.85777">
        <ele>380.606044</ele>
        <time>2022-08-07T06:34:42.360Z</time>
      </trkpt>
      <trkpt lat="44.24919" lon="1.85783">
        <ele>380.178754</ele>
        <time>2022-08-07T06:34:44.359Z</time>
      </trkpt>
      <trkpt lat="44.24908" lon="1.85788">
        <ele>379.685412</ele>
        <time>2022-08-07T06:34:46.363Z</time>
      </trkpt>
      <trkpt lat="44.24899" lon="1.85792">
        <ele>379.264661</ele>
        <time>2022-08-07T06:34:48.356Z</time>
      </trkpt>
      <trkpt lat="44.2489" lon="1.85797">
        <ele>378.868904</ele>
        <time>2022-08-07T06:34:50.354Z</time>
      </trkpt>
      <trkpt lat="44.24881" lon="1.85803">
        <ele>378.434056</ele>
        <time>2022-08-07T06:34:52.354Z</time>
      </trkpt>
      <trkpt lat="44.24871" lon="1.85809">
        <ele>377.99145</ele>
        <time>2022-08-07T06:34:54.353Z</time>
      </trkpt>
      <trkpt lat="44.2486" lon="1.85812">
        <ele>377.512137</ele>
        <time>2022-08-07T06:34:56.354Z</time>
      </trkpt>
      <trkpt lat="44.24851" lon="1.85814">
        <ele>377.116373</ele>
        <time>2022-08-07T06:34:58.354Z</time>
      </trkpt>
      <trkpt lat="44.24841" lon="1.85819">
        <ele>376.678446</ele>
        <time>2022-08-07T06:35:00.354Z</time>
      </trkpt>
      <trkpt lat="44.24829" lon="1.85823">
        <ele>376.158871</ele>
        <time>2022-08-07T06:35:02.353Z</time>
      </trkpt>
      <trkpt lat="44.24816" lon="1.85828">
        <ele>375.584969</ele>
        <time>2022-08-07T06:35:04.357Z</time>
      </trkpt>
      <trkpt lat="44.24803" lon="1.85832">
        <ele>374.320801</ele>
        <time>2022-08-07T06:35:06.351Z</time>
      </trkpt>
      <trkpt lat="44.24791" lon="1.85836">
        <ele>372.843603</ele>
        <time>2022-08-07T06:35:08.356Z</time>
      </trkpt>
      <trkpt lat="44.24779" lon="1.85836">
        <ele>371.515466</ele>
        <time>2022-08-07T06:35:10.359Z</time>
      </trkpt>
      <trkpt lat="44.24768" lon="1.85836">
        <ele>370.210618</ele>
        <time>2022-08-07T06:35:12.356Z</time>
      </trkpt>
      <trkpt lat="44.24758" lon="1.85832">
        <ele>369.097961</ele>
        <time>2022-08-07T06:35:14.361Z</time>
      </trkpt>
      <trkpt lat="44.24747" lon="1.85826">
        <ele>367.755001</ele>
        <time>2022-08-07T06:35:16.356Z</time>
      </trkpt>
      <trkpt lat="44.24734" lon="1.85821">
        <ele>366.24243</ele>
        <time>2022-08-07T06:35:18.361Z</time>
      </trkpt>
      <trkpt lat="44.2472" lon="1.85816">
        <ele>364.595491</ele>
        <time>2022-08-07T06:35:20.358Z</time>
      </trkpt>
      <trkpt lat="44.24709" lon="1.85814">
        <ele>363.288576</ele>
        <time>2022-08-07T06:35:22.354Z</time>
      </trkpt>
      <trkpt lat="44.24697" lon="1.85813">
        <ele>361.910273</ele>
        <time>2022-08-07T06:35:24.351Z</time>
      </trkpt>
      <trkpt lat="44.24687" lon="1.85814">
        <ele>360.782033</ele>
        <time>2022-08-07T06:35:26.355Z</time>
      </trkpt>
      <trkpt lat="44.24677" lon="1.85814">
        <ele>359.669354</ele>
        <time>2022-08-07T06:35:29.355Z</time>
      </trkpt>
      <trkpt lat="44.24667" lon="1.85813">
        <ele>358.536585</ele>
        <time>2022-08-07T06:35:33.351Z</time>
      </trkpt>
      <trkpt lat="44.24658" lon="1.8581">
        <ele>357.493783</ele>
        <time>2022-08-07T06:35:38.356Z</time>
      </trkpt>
      <trkpt lat="44.24649" lon="1.85812">
        <ele>356.47342</ele>
        <time>2022-08-07T06:36:03.352Z</time>
      </trkpt>
      <trkpt lat="44.24648" lon="1.85824">
        <ele>355.448356</ele>
        <time>2022-08-07T06:36:09.352Z</time>
      </trkpt>
      <trkpt lat="44.24648" lon="1.8584">
        <ele>353.972474</ele>
        <time>2022-08-07T06:36:14.355Z</time>
      </trkpt>
      <trkpt lat="44.24649" lon="1.85859">
        <ele>352.184436</ele>
        <time>2022-08-07T06:36:16.361Z</time>
      </trkpt>
      <trkpt lat="44.24652" lon="1.85872">
        <ele>350.898459</ele>
        <time>2022-08-07T06:36:18.354Z</time>
      </trkpt>
      <trkpt lat="44.24656" lon="1.85887">
        <ele>349.331524</ele>
        <time>2022-08-07T06:36:21.356Z</time>
      </trkpt>
      <trkpt lat="44.2466" lon="1.85899">
        <ele>348.028425</ele>
        <time>2022-08-07T06:36:23.353Z</time>
      </trkpt>
      <trkpt lat="44.24666" lon="1.85915">
        <ele>346.29268</ele>
        <time>2022-08-07T06:36:26.354Z</time>
      </trkpt>
      <trkpt lat="44.24671" lon="1.85933">
        <ele>344.473793</ele>
        <time>2022-08-07T06:36:29.351Z</time>
      </trkpt>
      <trkpt lat="44.24673" lon="1.85949">
        <ele>342.911277</ele>
        <time>2022-08-07T06:36:32.356Z</time>
      </trkpt>
      <trkpt lat="44.24678" lon="1.85968">
        <ele>340.967045</ele>
        <time>2022-08-07T06:36:35.352Z</time>
      </trkpt>
      <trkpt lat="44.24681" lon="1.85985">
        <ele>339.201228</ele>
        <time>2022-08-07T06:36:38.354Z</time>
      </trkpt>
      <trkpt lat="44.24685" lon="1.86003">
        <ele>337.392536</ele>
        <time>2022-08-07T06:36:41.351Z</time>
      </trkpt>
      <trkpt lat="44.24688" lon="1.86018">
        <ele>335.87871</ele>
        <time>2022-08-07T06:36:44.348Z</time>
      </trkpt>
      <trkpt lat="44.24692" lon="1.8603">
        <ele>334.659096</ele>
        <time>2022-08-07T06:36:46.361Z</time>
      </trkpt>
      <trkpt lat="44.24695" lon="1.86044">
        <ele>333.242216</ele>
        <time>2022-08-07T06:36:49.359Z</time>
      </trkpt>
      <trkpt lat="44.24699" lon="1.86056">
        <ele>331.995992</ele>
        <time>2022-08-07T06:36:52.361Z</time>
      </trkpt>
      <trkpt lat="44.24704" lon="1.86068">
        <ele>330.934912</ele>
        <time>2022-08-07T06:36:55.354Z</time>
      </trkpt>
      <trkpt lat="44.24708" lon="1.8608">
        <ele>331.885797</ele>
        <time>2022-08-07T06:36:59.354Z</time>
      </trkpt>
      <trkpt lat="44.24699" lon="1.86084">
        <ele>332.860137</ele>
        <time>2022-08-07T06:37:06.350Z</time>
      </trkpt>
      <trkpt lat="44.24689" lon="1.86078">
        <ele>333.926418</ele>
        <time>2022-08-07T06:37:11.352Z</time>
      </trkpt>
      <trkpt lat="44.24685" lon="1.8609">
        <ele>334.843358</ele>
        <time>2022-08-07T06:37:18.349Z</time>
      </trkpt>
      <trkpt lat="44.24674" lon="1.86088">
        <ele>335.872409</ele>
        <time>2022-08-07T06:37:22.354Z</time>
      </trkpt>
      <trkpt lat="44.24663" lon="1.86088">
        <ele>336.953465</ele>
        <time>2022-08-07T06:37:27.353Z</time>
      </trkpt>
      <trkpt lat="44.24654" lon="1.86088">
        <ele>337.88719</ele>
        <time>2022-08-07T06:37:30.352Z</time>
      </trkpt>
      <trkpt lat="44.24644" lon="1.86084">
        <ele>338.913463</ele>
        <time>2022-08-07T06:37:36.353Z</time>
      </trkpt>
      <trkpt lat="44.24635" lon="1.8608">
        <ele>339.802112</ele>
        <time>2022-08-07T06:37:42.352Z</time>
      </trkpt>
      <trkpt lat="44.24626" lon="1.86073">
        <ele>340.833027</ele>
        <time>2022-08-07T06:37:47.352Z</time>
      </trkpt>
      <trkpt lat="44.24617" lon="1.86072">
        <ele>341.7193</ele>
        <time>2022-08-07T06:37:51.353Z</time>
      </trkpt>
      <trkpt lat="44.24608" lon="1.8607">
        <ele>342.634334</ele>
        <time>2022-08-07T06:37:56.352Z</time>
      </trkpt>
      <trkpt lat="44.24598" lon="1.86069">
        <ele>343.642293</ele>
        <time>2022-08-07T06:38:03.353Z</time>
      </trkpt>
      <trkpt lat="44.24589" lon="1.86063">
        <ele>344.53375</ele>
        <time>2022-08-07T06:38:10.353Z</time>
      </trkpt>
      <trkpt lat="44.2458" lon="1.86061">
        <ele>345.43293</ele>
        <time>2022-08-07T06:38:17.355Z</time>
      </trkpt>
      <trkpt lat="44.24572" lon="1.86054">
        <ele>346.424842</ele>
        <time>2022-08-07T06:38:24.354Z</time>
      </trkpt>
      <trkpt lat="44.24566" lon="1.86043">
        <ele>347.392591</ele>
        <time>2022-08-07T06:38:30.352Z</time>
      </trkpt>
      <trkpt lat="44.24559" lon="1.86034">
        <ele>348.330309</ele>
        <time>2022-08-07T06:38:37.354Z</time>
      </trkpt>
      <trkpt lat="44.2455" lon="1.86024">
        <ele>349.585975</ele>
        <time>2022-08-07T06:38:46.352Z</time>
      </trkpt>
      <trkpt lat="44.24542" lon="1.86019">
        <ele>350.663182</ele>
        <time>2022-08-07T06:38:54.355Z</time>
      </trkpt>
      <trkpt lat="44.24532" lon="1.86015">
        <ele>351.861677</ele>
        <time>2022-08-07T06:39:02.354Z</time>
      </trkpt>
      <trkpt lat="44.24523" lon="1.86014">
        <ele>352.906449</ele>
        <time>2022-08-07T06:39:09.360Z</time>
      </trkpt>
      <trkpt lat="44.24514" lon="1.86012">
        <ele>353.975312</ele>
        <time>2022-08-07T06:39:18.352Z</time>
      </trkpt>
      <trkpt lat="44.24505" lon="1.86009">
        <ele>355.012899</ele>
        <time>2022-08-07T06:39:26.356Z</time>
      </trkpt>
      <trkpt lat="44.24495" lon="1.86009">
        <ele>356.158555</ele>
        <time>2022-08-07T06:39:34.355Z</time>
      </trkpt>
      <trkpt lat="44.24485" lon="1.86005">
        <ele>357.315552</ele>
        <time>2022-08-07T06:39:41.351Z</time>
      </trkpt>
      <trkpt lat="44.24476" lon="1.86002">
        <ele>358.38117</ele>
        <time>2022-08-07T06:39:49.351Z</time>
      </trkpt>
      <trkpt lat="44.24467" lon="1.86001">
        <ele>359.470956</ele>
        <time>2022-08-07T06:39:58.356Z</time>
      </trkpt>
      <trkpt lat="44.24457" lon="1.86">
        <ele>360.611806</ele>
        <time>2022-08-07T06:40:06.361Z</time>
      </trkpt>
      <trkpt lat="44.24448" lon="1.86002">
        <ele>361.664024</ele>
        <time>2022-08-07T06:40:14.352Z</time>
      </trkpt>
      <trkpt lat="44.24441" lon="1.86011">
        <ele>362.833569</ele>
        <time>2022-08-07T06:40:23.356Z</time>
      </trkpt>
      <trkpt lat="44.24431" lon="1.86015">
        <ele>364.008369</ele>
        <time>2022-08-07T06:40:30.356Z</time>
      </trkpt>
      <trkpt lat="44.24422" lon="1.86022">
        <ele>365.209165</ele>
        <time>2022-08-07T06:40:36.355Z</time>
      </trkpt>
      <trkpt lat="44.24413" lon="1.86027">
        <ele>366.288691</ele>
        <time>2022-08-07T06:40:41.352Z</time>
      </trkpt>
      <trkpt lat="44.24405" lon="1.86035">
        <ele>367.396243</ele>
        <time>2022-08-07T06:40:47.356Z</time>
      </trkpt>
      <trkpt lat="44.24397" lon="1.86042">
        <ele>368.551112</ele>
        <time>2022-08-07T06:40:53.356Z</time>
      </trkpt>
      <trkpt lat="44.24389" lon="1.86052">
        <ele>369.479357</ele>
        <time>2022-08-07T06:40:59.354Z</time>
      </trkpt>
      <trkpt lat="44.24398" lon="1.86057">
        <ele>369.922713</ele>
        <time>2022-08-07T06:41:15.356Z</time>
      </trkpt>
      <trkpt lat="44.24408" lon="1.86057">
        <ele>370.38433</ele>
        <time>2022-08-07T06:41:24.355Z</time>
      </trkpt>
      <trkpt lat="44.24417" lon="1.86058">
        <ele>370.811676</ele>
        <time>2022-08-07T06:41:31.354Z</time>
      </trkpt>
      <trkpt lat="44.24427" lon="1.86059">
        <ele>371.250569</ele>
        <time>2022-08-07T06:41:39.356Z</time>
      </trkpt>
      <trkpt lat="44.24436" lon="1.86058">
        <ele>371.66787</ele>
        <time>2022-08-07T06:41:48.357Z</time>
      </trkpt>
      <trkpt lat="44.24447" lon="1.86057">
        <ele>372.152243</ele>
        <time>2022-08-07T06:41:55.359Z</time>
      </trkpt>
      <trkpt lat="44.24457" lon="1.86059">
        <ele>372.613771</ele>
        <time>2022-08-07T06:42:01.354Z</time>
      </trkpt>
      <trkpt lat="44.24467" lon="1.86059">
        <ele>373.061508</ele>
        <time>2022-08-07T06:42:07.357Z</time>
      </trkpt>
      <trkpt lat="44.24476" lon="1.86064">
        <ele>373.524208</ele>
        <time>2022-08-07T06:42:13.349Z</time>
      </trkpt>
      <trkpt lat="44.24485" lon="1.86072">
        <ele>374.000164</ele>
        <time>2022-08-07T06:42:20.356Z</time>
      </trkpt>
      <trkpt lat="44.24492" lon="1.8608">
        <ele>374.433388</ele>
        <time>2022-08-07T06:42:25.357Z</time>
      </trkpt>
      <trkpt lat="44.24501" lon="1.8609">
        <ele>374.930392</ele>
        <time>2022-08-07T06:42:31.359Z</time>
      </trkpt>
      <trkpt lat="44.24508" lon="1.86099">
        <ele>375.377778</ele>
        <time>2022-08-07T06:42:36.357Z</time>
      </trkpt>
      <trkpt lat="44.24516" lon="1.8611">
        <ele>375.893346</ele>
        <time>2022-08-07T06:42:42.355Z</time>
      </trkpt>
      <trkpt lat="44.24523" lon="1.86121">
        <ele>376.365094</ele>
        <time>2022-08-07T06:42:46.358Z</time>
      </trkpt>
      <trkpt lat="44.24528" lon="1.86134">
        <ele>376.872514</ele>
        <time>2022-08-07T06:42:50.357Z</time>
      </trkpt>
      <trkpt lat="44.24535" lon="1.86147">
        <ele>377.38441</ele>
        <time>2022-08-07T06:42:53.353Z</time>
      </trkpt>
      <trkpt lat="44.24541" lon="1.86158">
        <ele>377.376682</ele>
        <time>2022-08-07T06:42:57.358Z</time>
      </trkpt>
      <trkpt lat="44.24548" lon="1.86171">
        <ele>377.153704</ele>
        <time>2022-08-07T06:43:01.351Z</time>
      </trkpt>
      <trkpt lat="44.24554" lon="1.86182">
        <ele>376.957784</ele>
        <time>2022-08-07T06:43:04.358Z</time>
      </trkpt>
      <trkpt lat="44.2456" lon="1.86194">
        <ele>376.753975</ele>
        <time>2022-08-07T06:43:08.355Z</time>
      </trkpt>
      <trkpt lat="44.24567" lon="1.86206">
        <ele>376.54</ele>
        <time>2022-08-07T06:43:12.360Z</time>
      </trkpt>
      <trkpt lat="44.24573" lon="1.86219">
        <ele>376.325003</ele>
        <time>2022-08-07T06:43:17.352Z</time>
      </trkpt>
      <trkpt lat="44.2458" lon="1.86228">
        <ele>376.144054</ele>
        <time>2022-08-07T06:43:20.356Z</time>
      </trkpt>
      <trkpt lat="44.24588" lon="1.86241">
        <ele>375.912807</ele>
        <time>2022-08-07T06:43:24.355Z</time>
      </trkpt>
      <trkpt lat="44.24594" lon="1.8625">
        <ele>375.728806</ele>
        <time>2022-08-07T06:43:27.353Z</time>
      </trkpt>
      <trkpt lat="44.24602" lon="1.86261">
        <ele>375.510714</ele>
        <time>2022-08-07T06:43:31.360Z</time>
      </trkpt>
      <trkpt lat="44.24611" lon="1.8627">
        <ele>375.290818</ele>
        <time>2022-08-07T06:43:35.353Z</time>
      </trkpt>
      <trkpt lat="44.2462" lon="1.8628">
        <ele>375.069886</ele>
        <time>2022-08-07T06:43:39.361Z</time>
      </trkpt>
      <trkpt lat="44.2463" lon="1.86291">
        <ele>374.826605</ele>
        <time>2022-08-07T06:43:42.354Z</time>
      </trkpt>
      <trkpt lat="44.24641" lon="1.86302">
        <ele>374.573072</ele>
        <time>2022-08-07T06:43:44.359Z</time>
      </trkpt>
      <trkpt lat="44.24649" lon="1.86315">
        <ele>374.320039</ele>
        <time>2022-08-07T06:43:47.358Z</time>
      </trkpt>
      <trkpt lat="44.24657" lon="1.86325">
        <ele>374.118059</ele>
        <time>2022-08-07T06:43:49.348Z</time>
      </trkpt>
      <trkpt lat="44.24665" lon="1.86337">
        <ele>374.292893</ele>
        <time>2022-08-07T06:43:52.353Z</time>
      </trkpt>
      <trkpt lat="44.24674" lon="1.86348">
        <ele>374.818839</ele>
        <time>2022-08-07T06:43:57.352Z</time>
      </trkpt>
      <trkpt lat="44.24684" lon="1.86358">
        <ele>375.348996</ele>
        <time>2022-08-07T06:44:00.353Z</time>
      </trkpt>
      <trkpt lat="44.24691" lon="1.86374">
        <ele>375.908022</ele>
        <time>2022-08-07T06:44:04.358Z</time>
      </trkpt>
      <trkpt lat="44.24699" lon="1.86385">
        <ele>376.384837</ele>
        <time>2022-08-07T06:44:07.357Z</time>
      </trkpt>
      <trkpt lat="44.24711" lon="1.86401">
        <ele>377.07638</ele>
        <time>2022-08-07T06:44:09.352Z</time>
      </trkpt>
      <trkpt lat="44.24718" lon="1.86411">
        <ele>377.527654</ele>
        <time>2022-08-07T06:44:11.355Z</time>
      </trkpt>
      <trkpt lat="44.24727" lon="1.86422">
        <ele>378.053787</ele>
        <time>2022-08-07T06:44:13.358Z</time>
      </trkpt>
      <trkpt lat="44.24736" lon="1.86433">
        <ele>378.532685</ele>
        <time>2022-08-07T06:44:15.356Z</time>
      </trkpt>
      <trkpt lat="44.24743" lon="1.86447">
        <ele>379.071702</ele>
        <time>2022-08-07T06:44:18.351Z</time>
      </trkpt>
      <trkpt lat="44.24749" lon="1.86463">
        <ele>379.619943</ele>
        <time>2022-08-07T06:44:22.359Z</time>
      </trkpt>
      <trkpt lat="44.24754" lon="1.86476">
        <ele>380.083119</ele>
        <time>2022-08-07T06:44:26.354Z</time>
      </trkpt>
      <trkpt lat="44.2476" lon="1.86488">
        <ele>380.50745</ele>
        <time>2022-08-07T06:44:33.357Z</time>
      </trkpt>
      <trkpt lat="44.24767" lon="1.865">
        <ele>380.964117</ele>
        <time>2022-08-07T06:44:40.358Z</time>
      </trkpt>
      <trkpt lat="44.24772" lon="1.86511">
        <ele>381.390986</ele>
        <time>2022-08-07T06:44:48.358Z</time>
      </trkpt>
      <trkpt lat="44.24778" lon="1.86521">
        <ele>381.816498</ele>
        <time>2022-08-07T06:44:55.356Z</time>
      </trkpt>
      <trkpt lat="44.24781" lon="1.86533">
        <ele>382.350336</ele>
        <time>2022-08-07T06:45:02.355Z</time>
      </trkpt>
      <trkpt lat="44.24788" lon="1.86553">
        <ele>383.263487</ele>
        <time>2022-08-07T06:46:17.355Z</time>
      </trkpt>
      <trkpt lat="44.24795" lon="1.86563">
        <ele>383.852948</ele>
        <time>2022-08-07T06:47:53.361Z</time>
      </trkpt>
      <trkpt lat="44.24803" lon="1.86572">
        <ele>384.44671</ele>
        <time>2022-08-07T06:48:00.357Z</time>
      </trkpt>
      <trkpt lat="44.24811" lon="1.86579">
        <ele>385.038138</ele>
        <time>2022-08-07T06:48:06.355Z</time>
      </trkpt>
      <trkpt lat="44.2482" lon="1.86586">
        <ele>385.641434</ele>
        <time>2022-08-07T06:48:11.362Z</time>
      </trkpt>
      <trkpt lat="44.24828" lon="1.86592">
        <ele>386.185943</ele>
        <time>2022-08-07T06:48:15.355Z</time>
      </trkpt>
      <trkpt lat="44.24837" lon="1.86598">
        <ele>386.753242</ele>
        <time>2022-08-07T06:48:20.363Z</time>
      </trkpt>
      <trkpt lat="44.24844" lon="1.86606">
        <ele>387.32579</ele>
        <time>2022-08-07T06:48:24.357Z</time>
      </trkpt>
      <trkpt lat="44.24853" lon="1.86615">
        <ele>387.938709</ele>
        <time>2022-08-07T06:48:28.357Z</time>
      </trkpt>
      <trkpt lat="44.24861" lon="1.86624">
        <ele>388.559021</ele>
        <time>2022-08-07T06:48:32.362Z</time>
      </trkpt>
      <trkpt lat="44.24871" lon="1.86633">
        <ele>389.25173</ele>
        <time>2022-08-07T06:48:36.365Z</time>
      </trkpt>
      <trkpt lat="44.2488" lon="1.86638">
        <ele>389.801414</ele>
        <time>2022-08-07T06:48:40.360Z</time>
      </trkpt>
      <trkpt lat="44.24888" lon="1.86647">
        <ele>390.402512</ele>
        <time>2022-08-07T06:48:44.354Z</time>
      </trkpt>
      <trkpt lat="44.24895" lon="1.86658">
        <ele>391.032578</ele>
        <time>2022-08-07T06:48:48.359Z</time>
      </trkpt>
      <trkpt lat="44.24904" lon="1.86667">
        <ele>391.670782</ele>
        <time>2022-08-07T06:48:52.360Z</time>
      </trkpt>
      <trkpt lat="44.24912" lon="1.86674">
        <ele>392.221477</ele>
        <time>2022-08-07T06:48:56.360Z</time>
      </trkpt>
      <trkpt lat="44.2492" lon="1.86686">
        <ele>392.346965</ele>
        <time>2022-08-07T06:49:00.353Z</time>
      </trkpt>
      <trkpt lat="44.24928" lon="1.86696">
        <ele>392.415652</ele>
        <time>2022-08-07T06:49:03.359Z</time>
      </trkpt>
      <trkpt lat="44.24936" lon="1.86705">
        <ele>392.484644</ele>
        <time>2022-08-07T06:49:06.359Z</time>
      </trkpt>
      <trkpt lat="44.24944" lon="1.86713">
        <ele>392.548039</ele>
        <time>2022-08-07T06:49:09.354Z</time>
      </trkpt>
      <trkpt lat="44.24953" lon="1.86722">
        <ele>392.62614</ele>
        <time>2022-08-07T06:49:12.360Z</time>
      </trkpt>
      <trkpt lat="44.24961" lon="1.8673">
        <ele>392.687355</ele>
        <time>2022-08-07T06:49:14.364Z</time>
      </trkpt>
      <trkpt lat="44.24969" lon="1.86737">
        <ele>392.751562</ele>
        <time>2022-08-07T06:49:16.355Z</time>
      </trkpt>
      <trkpt lat="44.24979" lon="1.86746">
        <ele>392.831128</ele>
        <time>2022-08-07T06:49:19.360Z</time>
      </trkpt>
      <trkpt lat="44.24986" lon="1.86754">
        <ele>392.894576</ele>
        <time>2022-08-07T06:49:22.357Z</time>
      </trkpt>
      <trkpt lat="44.24995" lon="1.86763">
        <ele>392.967488</ele>
        <time>2022-08-07T06:49:25.355Z</time>
      </trkpt>
      <trkpt lat="44.25004" lon="1.86771">
        <ele>393.034775</ele>
        <time>2022-08-07T06:49:29.358Z</time>
      </trkpt>
      <trkpt lat="44.25014" lon="1.86774">
        <ele>393.100483</ele>
        <time>2022-08-07T06:49:33.353Z</time>
      </trkpt>
      <trkpt lat="44.25026" lon="1.86777">
        <ele>393.181516</ele>
        <time>2022-08-07T06:49:37.361Z</time>
      </trkpt>
      <trkpt lat="44.25036" lon="1.86779">
        <ele>393.252118</ele>
        <time>2022-08-07T06:49:40.358Z</time>
      </trkpt>
      <trkpt lat="44.25049" lon="1.86784">
        <ele>393.338661</ele>
        <time>2022-08-07T06:49:42.363Z</time>
      </trkpt>
      <trkpt lat="44.25059" lon="1.86795">
        <ele>393.424671</ele>
        <time>2022-08-07T06:49:45.356Z</time>
      </trkpt>
      <trkpt lat="44.25062" lon="1.86809">
        <ele>393.644469</ele>
        <time>2022-08-07T06:49:48.354Z</time>
      </trkpt>
      <trkpt lat="44.25064" lon="1.86823">
        <ele>394.035748</ele>
        <time>2022-08-07T06:49:52.361Z</time>
      </trkpt>
      <trkpt lat="44.25064" lon="1.86837">
        <ele>394.4302</ele>
        <time>2022-08-07T06:49:56.356Z</time>
      </trkpt>
      <trkpt lat="44.25066" lon="1.8685">
        <ele>394.812594</ele>
        <time>2022-08-07T06:50:00.356Z</time>
      </trkpt>
      <trkpt lat="44.25071" lon="1.86862">
        <ele>395.204081</ele>
        <time>2022-08-07T06:50:05.354Z</time>
      </trkpt>
      <trkpt lat="44.25076" lon="1.86875">
        <ele>395.64101</ele>
        <time>2022-08-07T06:50:10.357Z</time>
      </trkpt>
      <trkpt lat="44.25081" lon="1.86887">
        <ele>396.001825</ele>
        <time>2022-08-07T06:50:14.357Z</time>
      </trkpt>
      <trkpt lat="44.25087" lon="1.86897">
        <ele>396.385134</ele>
        <time>2022-08-07T06:50:19.357Z</time>
      </trkpt>
      <trkpt lat="44.25094" lon="1.86906">
        <ele>396.780189</ele>
        <time>2022-08-07T06:50:25.358Z</time>
      </trkpt>
      <trkpt lat="44.25101" lon="1.86918">
        <ele>397.202525</ele>
        <time>2022-08-07T06:50:30.365Z</time>
      </trkpt>
      <trkpt lat="44.25093" lon="1.86925">
        <ele>397.567652</ele>
        <time>2022-08-07T06:50:40.360Z</time>
      </trkpt>
      <trkpt lat="44.25083" lon="1.86922">
        <ele>397.989597</ele>
        <time>2022-08-07T06:50:46.367Z</time>
      </trkpt>
      <trkpt lat="44.25072" lon="1.86922">
        <ele>398.429384</ele>
        <time>2022-08-07T06:50:51.358Z</time>
      </trkpt>
      <trkpt lat="44.2506" lon="1.86922">
        <ele>398.876939</ele>
        <time>2022-08-07T06:50:56.355Z</time>
      </trkpt>
      <trkpt lat="44.25051" lon="1.86924">
        <ele>399.248838</ele>
        <time>2022-08-07T06:50:59.357Z</time>
      </trkpt>
      <trkpt lat="44.2504" lon="1.86926">
        <ele>399.680695</ele>
        <time>2022-08-07T06:51:02.356Z</time>
      </trkpt>
      <trkpt lat="44.25031" lon="1.86929">
        <ele>400.070483</ele>
        <time>2022-08-07T06:51:05.360Z</time>
      </trkpt>
      <trkpt lat="44.25019" lon="1.86931">
        <ele>400.54116</ele>
        <time>2022-08-07T06:51:09.352Z</time>
      </trkpt>
      <trkpt lat="44.2501" lon="1.86933">
        <ele>400.682749</ele>
        <time>2022-08-07T06:51:12.357Z</time>
      </trkpt>
      <trkpt lat="44.25001" lon="1.86935">
        <ele>400.801069</ele>
        <time>2022-08-07T06:51:15.354Z</time>
      </trkpt>
      <trkpt lat="44.24989" lon="1.86937">
        <ele>400.940422</ele>
        <time>2022-08-07T06:51:19.351Z</time>
      </trkpt>
      <trkpt lat="44.24979" lon="1.86939">
        <ele>401.072699</ele>
        <time>2022-08-07T06:51:23.358Z</time>
      </trkpt>
      <trkpt lat="44.24968" lon="1.86941">
        <ele>401.21634</ele>
        <time>2022-08-07T06:51:27.355Z</time>
      </trkpt>
      <trkpt lat="44.24957" lon="1.86944">
        <ele>401.34628</ele>
        <time>2022-08-07T06:51:31.354Z</time>
      </trkpt>
      <trkpt lat="44.24948" lon="1.86946">
        <ele>401.46529</ele>
        <time>2022-08-07T06:51:35.362Z</time>
      </trkpt>
      <trkpt lat="44.24937" lon="1.86947">
        <ele>401.600727</ele>
        <time>2022-08-07T06:51:39.358Z</time>
      </trkpt>
      <trkpt lat="44.24927" lon="1.86951">
        <ele>401.73215</ele>
        <time>2022-08-07T06:51:43.359Z</time>
      </trkpt>
      <trkpt lat="44.24917" lon="1.86954">
        <ele>401.854019</ele>
        <time>2022-08-07T06:51:47.355Z</time>
      </trkpt>
      <trkpt lat="44.24907" lon="1.86959">
        <ele>401.98903</ele>
        <time>2022-08-07T06:51:51.357Z</time>
      </trkpt>
      <trkpt lat="44.24898" lon="1.86964">
        <ele>402.114549</ele>
        <time>2022-08-07T06:51:55.354Z</time>
      </trkpt>
      <trkpt lat="44.24889" lon="1.8697">
        <ele>402.232217</ele>
        <time>2022-08-07T06:51:59.362Z</time>
      </trkpt>
      <trkpt lat="44.2488" lon="1.86976">
        <ele>402.361165</ele>
        <time>2022-08-07T06:52:03.361Z</time>
      </trkpt>
      <trkpt lat="44.24871" lon="1.86982">
        <ele>402.485158</ele>
        <time>2022-08-07T06:52:07.362Z</time>
      </trkpt>
      <trkpt lat="44.24861" lon="1.86987">
        <ele>402.619389</ele>
        <time>2022-08-07T06:52:11.357Z</time>
      </trkpt>
      <trkpt lat="44.24851" lon="1.86991">
        <ele>402.749112</ele>
        <time>2022-08-07T06:52:15.361Z</time>
      </trkpt>
      <trkpt lat="44.24839" lon="1.86993">
        <ele>402.706484</ele>
        <time>2022-08-07T06:52:20.358Z</time>
      </trkpt>
      <trkpt lat="44.24829" lon="1.86998">
        <ele>402.488009</ele>
        <time>2022-08-07T06:52:24.362Z</time>
      </trkpt>
      <trkpt lat="44.24821" lon="1.87004">
        <ele>402.287276</ele>
        <time>2022-08-07T06:52:27.361Z</time>
      </trkpt>
      <trkpt lat="44.24811" lon="1.8701">
        <ele>402.046185</ele>
        <time>2022-08-07T06:52:30.360Z</time>
      </trkpt>
      <trkpt lat="44.24801" lon="1.87018">
        <ele>401.809437</ele>
        <time>2022-08-07T06:52:32.357Z</time>
      </trkpt>
      <trkpt lat="44.24791" lon="1.87022">
        <ele>401.59506</ele>
        <time>2022-08-07T06:52:34.356Z</time>
      </trkpt>
      <trkpt lat="44.24783" lon="1.87029">
        <ele>401.391584</ele>
        <time>2022-08-07T06:52:36.356Z</time>
      </trkpt>
      <trkpt lat="44.24773" lon="1.87037">
        <ele>401.15255</ele>
        <time>2022-08-07T06:52:39.357Z</time>
      </trkpt>
      <trkpt lat="44.24763" lon="1.87043">
        <ele>400.924893</ele>
        <time>2022-08-07T06:52:42.358Z</time>
      </trkpt>
      <trkpt lat="44.24752" lon="1.87051">
        <ele>400.661032</ele>
        <time>2022-08-07T06:52:46.362Z</time>
      </trkpt>
      <trkpt lat="44.24743" lon="1.87058">
        <ele>400.437257</ele>
        <time>2022-08-07T06:52:49.361Z</time>
      </trkpt>
      <trkpt lat="44.24729" lon="1.87065">
        <ele>400.116246</ele>
        <time>2022-08-07T06:52:52.359Z</time>
      </trkpt>
      <trkpt lat="44.24718" lon="1.87072">
        <ele>399.860319</ele>
        <time>2022-08-07T06:52:54.360Z</time>
      </trkpt>
      <trkpt lat="44.24708" lon="1.87079">
        <ele>399.62173</ele>
        <time>2022-08-07T06:52:56.359Z</time>
      </trkpt>
      <trkpt lat="44.24694" lon="1.87087">
        <ele>399.312635</ele>
        <time>2022-08-07T06:52:58.359Z</time>
      </trkpt>
      <trkpt lat="44.24685" lon="1.87099">
        <ele>399.040826</ele>
        <time>2022-08-07T06:53:00.358Z</time>
      </trkpt>
      <trkpt lat="44.24677" lon="1.87112">
        <ele>398.834461</ele>
        <time>2022-08-07T06:53:02.355Z</time>
      </trkpt>
      <trkpt lat="44.24668" lon="1.87126">
        <ele>398.631377</ele>
        <time>2022-08-07T06:53:04.361Z</time>
      </trkpt>
      <trkpt lat="44.24657" lon="1.87139">
        <ele>398.392587</ele>
        <time>2022-08-07T06:53:06.367Z</time>
      </trkpt>
      <trkpt lat="44.24643" lon="1.87154">
        <ele>398.118381</ele>
        <time>2022-08-07T06:53:08.356Z</time>
      </trkpt>
      <trkpt lat="44.24634" lon="1.8716">
        <ele>397.957747</ele>
        <time>2022-08-07T06:53:09.361Z</time>
      </trkpt>
      <trkpt lat="44.24626" lon="1.87165">
        <ele>397.809717</ele>
        <time>2022-08-07T06:53:10.355Z</time>
      </trkpt>
      <trkpt lat="44.24617" lon="1.87169">
        <ele>397.664275</ele>
        <time>2022-08-07T06:53:11.358Z</time>
      </trkpt>
      <trkpt lat="44.246" lon="1.87174">
        <ele>397.392241</ele>
        <time>2022-08-07T06:53:13.361Z</time>
      </trkpt>
      <trkpt lat="44.24586" lon="1.87174">
        <ele>397.157703</ele>
        <time>2022-08-07T06:53:15.353Z</time>
      </trkpt>
      <trkpt lat="44.24575" lon="1.87176">
        <ele>396.985752</ele>
        <time>2022-08-07T06:53:17.352Z</time>
      </trkpt>
      <trkpt lat="44.24562" lon="1.87179">
        <ele>396.774309</ele>
        <time>2022-08-07T06:53:20.360Z</time>
      </trkpt>
      <trkpt lat="44.24553" lon="1.8718">
        <ele>396.628241</ele>
        <time>2022-08-07T06:53:23.357Z</time>
      </trkpt>
      <trkpt lat="44.24543" lon="1.8718">
        <ele>396.470252</ele>
        <time>2022-08-07T06:53:27.361Z</time>
      </trkpt>
      <trkpt lat="44.24534" lon="1.87175">
        <ele>396.312056</ele>
        <time>2022-08-07T06:53:30.357Z</time>
      </trkpt>
      <trkpt lat="44.24522" lon="1.87169">
        <ele>396.215141</ele>
        <time>2022-08-07T06:53:34.356Z</time>
      </trkpt>
      <trkpt lat="44.24513" lon="1.87167">
        <ele>396.691588</ele>
        <time>2022-08-07T06:53:37.358Z</time>
      </trkpt>
      <trkpt lat="44.24503" lon="1.87167">
        <ele>397.177934</ele>
        <time>2022-08-07T06:53:41.355Z</time>
      </trkpt>
      <trkpt lat="44.24495" lon="1.87173">
        <ele>397.66369</ele>
        <time>2022-08-07T06:53:46.360Z</time>
      </trkpt>
      <trkpt lat="44.24486" lon="1.87176">
        <ele>398.122082</ele>
        <time>2022-08-07T06:53:50.366Z</time>
      </trkpt>
      <trkpt lat="44.24477" lon="1.87179">
        <ele>398.619318</ele>
        <time>2022-08-07T06:53:54.359Z</time>
      </trkpt>
      <trkpt lat="44.24468" lon="1.87184">
        <ele>399.097453</ele>
        <time>2022-08-07T06:53:59.362Z</time>
      </trkpt>
      <trkpt lat="44.24459" lon="1.87192">
        <ele>399.632839</ele>
        <time>2022-08-07T06:54:05.355Z</time>
      </trkpt>
      <trkpt lat="44.24451" lon="1.872">
        <ele>400.132257</ele>
        <time>2022-08-07T06:54:10.365Z</time>
      </trkpt>
      <trkpt lat="44.24442" lon="1.87206">
        <ele>400.668887</ele>
        <time>2022-08-07T06:54:14.359Z</time>
      </trkpt>
      <trkpt lat="44.24431" lon="1.87206">
        <ele>401.216723</ele>
        <time>2022-08-07T06:54:19.359Z</time>
      </trkpt>
      <trkpt lat="44.2442" lon="1.87212">
        <ele>401.798936</ele>
        <time>2022-08-07T06:54:24.359Z</time>
      </trkpt>
      <trkpt lat="44.24411" lon="1.87215">
        <ele>402.280081</ele>
        <time>2022-08-07T06:54:28.363Z</time>
      </trkpt>
      <trkpt lat="44.24401" lon="1.87217">
        <ele>402.800651</ele>
        <time>2022-08-07T06:54:32.360Z</time>
      </trkpt>
      <trkpt lat="44.24391" lon="1.87217">
        <ele>403.327827</ele>
        <time>2022-08-07T06:54:36.362Z</time>
      </trkpt>
      <trkpt lat="44.24382" lon="1.87219">
        <ele>403.817477</ele>
        <time>2022-08-07T06:54:40.361Z</time>
      </trkpt>
      <trkpt lat="44.24371" lon="1.87222">
        <ele>404.366658</ele>
        <time>2022-08-07T06:54:44.363Z</time>
      </trkpt>
      <trkpt lat="44.24361" lon="1.87228">
        <ele>404.912786</ele>
        <time>2022-08-07T06:54:48.368Z</time>
      </trkpt>
      <trkpt lat="44.24352" lon="1.87232">
        <ele>405.429262</ele>
        <time>2022-08-07T06:54:52.358Z</time>
      </trkpt>
      <trkpt lat="44.24342" lon="1.87237">
        <ele>406.267414</ele>
        <time>2022-08-07T06:54:56.359Z</time>
      </trkpt>
      <trkpt lat="44.24333" lon="1.87242">
        <ele>407.082161</ele>
        <time>2022-08-07T06:55:00.360Z</time>
      </trkpt>
      <trkpt lat="44.24323" lon="1.87247">
        <ele>407.882645</ele>
        <time>2022-08-07T06:55:03.367Z</time>
      </trkpt>
      <trkpt lat="44.24313" lon="1.87248">
        <ele>408.698055</ele>
        <time>2022-08-07T06:55:07.362Z</time>
      </trkpt>
      <trkpt lat="44.24303" lon="1.87244">
        <ele>409.547267</ele>
        <time>2022-08-07T06:55:12.367Z</time>
      </trkpt>
      <trkpt lat="44.24292" lon="1.87243">
        <ele>410.433724</ele>
        <time>2022-08-07T06:55:17.356Z</time>
      </trkpt>
      <trkpt lat="44.24283" lon="1.87244">
        <ele>411.184107</ele>
        <time>2022-08-07T06:55:21.360Z</time>
      </trkpt>
      <trkpt lat="44.24273" lon="1.87242">
        <ele>411.9797</ele>
        <time>2022-08-07T06:55:26.360Z</time>
      </trkpt>
      <trkpt lat="44.24262" lon="1.8724">
        <ele>412.841365</ele>
        <time>2022-08-07T06:55:30.362Z</time>
      </trkpt>
      <trkpt lat="44.24252" lon="1.87232">
        <ele>413.798217</ele>
        <time>2022-08-07T06:55:34.361Z</time>
      </trkpt>
      <trkpt lat="44.24243" lon="1.87225">
        <ele>414.584532</ele>
        <time>2022-08-07T06:55:38.360Z</time>
      </trkpt>
      <trkpt lat="44.24234" lon="1.87217">
        <ele>415.487584</ele>
        <time>2022-08-07T06:55:43.356Z</time>
      </trkpt>
      <trkpt lat="44.24224" lon="1.87211">
        <ele>416.345109</ele>
        <time>2022-08-07T06:55:47.355Z</time>
      </trkpt>
      <trkpt lat="44.24215" lon="1.87205">
        <ele>417.113819</ele>
        <time>2022-08-07T06:55:50.361Z</time>
      </trkpt>
      <trkpt lat="44.24206" lon="1.872">
        <ele>417.904658</ele>
        <time>2022-08-07T06:55:53.360Z</time>
      </trkpt>
      <trkpt lat="44.24196" lon="1.87198">
        <ele>418.744633</ele>
        <time>2022-08-07T06:55:58.355Z</time>
      </trkpt>
      <trkpt lat="44.24187" lon="1.87206">
        <ele>419.563139</ele>
        <time>2022-08-07T06:56:03.363Z</time>
      </trkpt>
      <trkpt lat="44.24184" lon="1.8722">
        <ele>419.23796</ele>
        <time>2022-08-07T06:56:08.361Z</time>
      </trkpt>
      <trkpt lat="44.24186" lon="1.87233">
        <ele>418.644632</ele>
        <time>2022-08-07T06:56:12.358Z</time>
      </trkpt>
      <trkpt lat="44.24187" lon="1.87245">
        <ele>418.03955</ele>
        <time>2022-08-07T06:56:15.365Z</time>
      </trkpt>
      <trkpt lat="44.24187" lon="1.8726">
        <ele>417.376557</ele>
        <time>2022-08-07T06:56:18.360Z</time>
      </trkpt>
      <trkpt lat="44.24191" lon="1.87279">
        <ele>416.436131</ele>
        <time>2022-08-07T06:56:21.358Z</time>
      </trkpt>
      <trkpt lat="44.24196" lon="1.87294">
        <ele>415.672865</ele>
        <time>2022-08-07T06:56:23.360Z</time>
      </trkpt>
      <trkpt lat="44.24199" lon="1.87309">
        <ele>414.954522</ele>
        <time>2022-08-07T06:56:25.358Z</time>
      </trkpt>
      <trkpt lat="44.24198" lon="1.87325">
        <ele>414.217602</ele>
        <time>2022-08-07T06:56:27.359Z</time>
      </trkpt>
      <trkpt lat="44.24194" lon="1.8734">
        <ele>413.450635</ele>
        <time>2022-08-07T06:56:29.356Z</time>
      </trkpt>
      <trkpt lat="44.24188" lon="1.87357">
        <ele>412.58097</ele>
        <time>2022-08-07T06:56:31.361Z</time>
      </trkpt>
      <trkpt lat="44.24184" lon="1.87372">
        <ele>411.797317</ele>
        <time>2022-08-07T06:56:33.362Z</time>
      </trkpt>
      <trkpt lat="44.24182" lon="1.87389">
        <ele>411.029589</ele>
        <time>2022-08-07T06:56:35.359Z</time>
      </trkpt>
      <trkpt lat="44.24182" lon="1.87405">
        <ele>410.27834</ele>
        <time>2022-08-07T06:56:37.356Z</time>
      </trkpt>
      <trkpt lat="44.24179" lon="1.87419">
        <ele>409.587382</ele>
        <time>2022-08-07T06:56:39.360Z</time>
      </trkpt>
      <trkpt lat="44.24175" lon="1.87432">
        <ele>408.90422</ele>
        <time>2022-08-07T06:56:41.359Z</time>
      </trkpt>
      <trkpt lat="44.24174" lon="1.87445">
        <ele>408.311653</ele>
        <time>2022-08-07T06:56:43.361Z</time>
      </trkpt>
      <trkpt lat="44.24175" lon="1.87458">
        <ele>408.139674</ele>
        <time>2022-08-07T06:56:45.355Z</time>
      </trkpt>
      <trkpt lat="44.24174" lon="1.87471">
        <ele>408.292607</ele>
        <time>2022-08-07T06:56:47.355Z</time>
      </trkpt>
      <trkpt lat="44.24173" lon="1.87485">
        <ele>408.46519</ele>
        <time>2022-08-07T06:56:49.360Z</time>
      </trkpt>
      <trkpt lat="44.24171" lon="1.87498">
        <ele>408.620633</ele>
        <time>2022-08-07T06:56:51.357Z</time>
      </trkpt>
      <trkpt lat="44.24169" lon="1.87515">
        <ele>408.830752</ele>
        <time>2022-08-07T06:56:54.364Z</time>
      </trkpt>
      <trkpt lat="44.24168" lon="1.87528">
        <ele>408.995486</ele>
        <time>2022-08-07T06:56:57.355Z</time>
      </trkpt>
      <trkpt lat="44.24169" lon="1.87543">
        <ele>409.171546</ele>
        <time>2022-08-07T06:57:00.362Z</time>
      </trkpt>
      <trkpt lat="44.24171" lon="1.87556">
        <ele>409.330438</ele>
        <time>2022-08-07T06:57:03.359Z</time>
      </trkpt>
      <trkpt lat="44.2417" lon="1.87569">
        <ele>409.485871</ele>
        <time>2022-08-07T06:57:06.364Z</time>
      </trkpt>
      <trkpt lat="44.2417" lon="1.87582">
        <ele>409.643954</ele>
        <time>2022-08-07T06:57:09.353Z</time>
      </trkpt>
      <trkpt lat="44.24169" lon="1.87594">
        <ele>409.794588</ele>
        <time>2022-08-07T06:57:12.357Z</time>
      </trkpt>
      <trkpt lat="44.24168" lon="1.87607">
        <ele>409.946681</ele>
        <time>2022-08-07T06:57:15.359Z</time>
      </trkpt>
      <trkpt lat="44.24167" lon="1.8762">
        <ele>410.103431</ele>
        <time>2022-08-07T06:57:18.355Z</time>
      </trkpt>
      <trkpt lat="44.24166" lon="1.87633">
        <ele>410.260845</ele>
        <time>2022-08-07T06:57:21.358Z</time>
      </trkpt>
      <trkpt lat="44.24165" lon="1.87646">
        <ele>410.417254</ele>
        <time>2022-08-07T06:57:24.359Z</time>
      </trkpt>
      <trkpt lat="44.24163" lon="1.87662">
        <ele>410.617862</ele>
        <time>2022-08-07T06:57:28.356Z</time>
      </trkpt>
      <trkpt lat="44.24164" lon="1.87678">
        <ele>410.810426</ele>
        <time>2022-08-07T06:57:32.363Z</time>
      </trkpt>
      <trkpt lat="44.24163" lon="1.87694">
        <ele>410.998364</ele>
        <time>2022-08-07T06:57:36.362Z</time>
      </trkpt>
      <trkpt lat="44.24162" lon="1.87708">
        <ele>411.351215</ele>
        <time>2022-08-07T06:57:40.360Z</time>
      </trkpt>
      <trkpt lat="44.24163" lon="1.87724">
        <ele>411.872454</ele>
        <time>2022-08-07T06:57:44.357Z</time>
      </trkpt>
      <trkpt lat="44.24163" lon="1.87738">
        <ele>412.372735</ele>
        <time>2022-08-07T06:57:48.359Z</time>
      </trkpt>
      <trkpt lat="44.24161" lon="1.87752">
        <ele>412.858172</ele>
        <time>2022-08-07T06:57:52.358Z</time>
      </trkpt>
      <trkpt lat="44.24159" lon="1.87767">
        <ele>413.353308</ele>
        <time>2022-08-07T06:57:56.372Z</time>
      </trkpt>
      <trkpt lat="44.24158" lon="1.87782">
        <ele>413.857962</ele>
        <time>2022-08-07T06:58:00.358Z</time>
      </trkpt>
      <trkpt lat="44.24158" lon="1.87797">
        <ele>414.385213</ele>
        <time>2022-08-07T06:58:04.356Z</time>
      </trkpt>
      <trkpt lat="44.24157" lon="1.87814">
        <ele>414.933923</ele>
        <time>2022-08-07T06:58:08.356Z</time>
      </trkpt>
      <trkpt lat="44.24155" lon="1.87829">
        <ele>415.44718</ele>
        <time>2022-08-07T06:58:12.362Z</time>
      </trkpt>
      <trkpt lat="44.24153" lon="1.87843">
        <ele>415.940269</ele>
        <time>2022-08-07T06:58:16.360Z</time>
      </trkpt>
      <trkpt lat="44.24151" lon="1.87858">
        <ele>416.453526</ele>
        <time>2022-08-07T06:58:20.357Z</time>
      </trkpt>
      <trkpt lat="44.24149" lon="1.87873">
        <ele>416.966783</ele>
        <time>2022-08-07T06:58:24.359Z</time>
      </trkpt>
      <trkpt lat="44.24148" lon="1.87888">
        <ele>417.502091</ele>
        <time>2022-08-07T06:58:28.354Z</time>
      </trkpt>
      <trkpt lat="44.24146" lon="1.87901">
        <ele>417.930438</ele>
        <time>2022-08-07T06:58:32.060Z</time>
      </trkpt>
      <trkpt lat="44.24145" lon="1.87913">
        <ele>418.355524</ele>
        <time>2022-08-07T06:58:34.358Z</time>
      </trkpt>
      <trkpt lat="44.24144" lon="1.87929">
        <ele>418.892162</ele>
        <time>2022-08-07T06:58:38.358Z</time>
      </trkpt>
      <trkpt lat="44.24142" lon="1.87942">
        <ele>419.315707</ele>
        <time>2022-08-07T06:58:41.352Z</time>
      </trkpt>
      <trkpt lat="44.24141" lon="1.87958">
        <ele>419.656873</ele>
        <time>2022-08-07T06:58:45.355Z</time>
      </trkpt>
      <trkpt lat="44.24139" lon="1.87971">
        <ele>419.792526</ele>
        <time>2022-08-07T06:58:48.357Z</time>
      </trkpt>
      <trkpt lat="44.24134" lon="1.87986">
        <ele>419.96747</ele>
        <time>2022-08-07T06:58:52.362Z</time>
      </trkpt>
      <trkpt lat="44.24131" lon="1.87999">
        <ele>420.108221</ele>
        <time>2022-08-07T06:58:55.362Z</time>
      </trkpt>
      <trkpt lat="44.24127" lon="1.88014">
        <ele>420.266175</ele>
        <time>2022-08-07T06:58:59.357Z</time>
      </trkpt>
      <trkpt lat="44.24131" lon="1.88034">
        <ele>420.48229</ele>
        <time>2022-08-07T06:59:06.677Z</time>
      </trkpt>
      <trkpt lat="44.24139" lon="1.88043">
        <ele>420.634602</ele>
        <time>2022-08-07T06:59:10.361Z</time>
      </trkpt>
      <trkpt lat="44.24148" lon="1.88052">
        <ele>420.790878</ele>
        <time>2022-08-07T06:59:15.356Z</time>
      </trkpt>
      <trkpt lat="44.24157" lon="1.88058">
        <ele>420.942071</ele>
        <time>2022-08-07T06:59:20.359Z</time>
      </trkpt>
      <trkpt lat="44.24167" lon="1.88065">
        <ele>421.099375</ele>
        <time>2022-08-07T06:59:24.356Z</time>
      </trkpt>
      <trkpt lat="44.24176" lon="1.88072">
        <ele>421.255758</ele>
        <time>2022-08-07T06:59:28.355Z</time>
      </trkpt>
      <trkpt lat="44.24186" lon="1.88078">
        <ele>421.407904</ele>
        <time>2022-08-07T06:59:32.359Z</time>
      </trkpt>
      <trkpt lat="44.24195" lon="1.88085">
        <ele>421.563388</ele>
        <time>2022-08-07T06:59:35.362Z</time>
      </trkpt>
      <trkpt lat="44.24205" lon="1.88089">
        <ele>421.709966</ele>
        <time>2022-08-07T06:59:38.356Z</time>
      </trkpt>
      <trkpt lat="44.24216" lon="1.88092">
        <ele>421.870184</ele>
        <time>2022-08-07T06:59:42.359Z</time>
      </trkpt>
      <trkpt lat="44.24227" lon="1.88097">
        <ele>422.037984</ele>
        <time>2022-08-07T06:59:46.360Z</time>
      </trkpt>
      <trkpt lat="44.24239" lon="1.881">
        <ele>422.200399</ele>
        <time>2022-08-07T06:59:50.356Z</time>
      </trkpt>
      <trkpt lat="44.24248" lon="1.88101">
        <ele>422.30392</ele>
        <time>2022-08-07T06:59:53.357Z</time>
      </trkpt>
      <trkpt lat="44.24259" lon="1.88102">
        <ele>422.419282</ele>
        <time>2022-08-07T06:59:56.358Z</time>
      </trkpt>
      <trkpt lat="44.2427" lon="1.88103">
        <ele>422.543651</ele>
        <time>2022-08-07T06:59:59.358Z</time>
      </trkpt>
      <trkpt lat="44.24281" lon="1.88104">
        <ele>422.663365</ele>
        <time>2022-08-07T07:00:02.345Z</time>
      </trkpt>
      <trkpt lat="44.24292" lon="1.88104">
        <ele>422.785204</ele>
        <time>2022-08-07T07:00:05.356Z</time>
      </trkpt>
      <trkpt lat="44.24302" lon="1.88104">
        <ele>422.897145</ele>
        <time>2022-08-07T07:00:08.358Z</time>
      </trkpt>
      <trkpt lat="44.24312" lon="1.88104">
        <ele>422.999256</ele>
        <time>2022-08-07T07:00:11.362Z</time>
      </trkpt>
      <trkpt lat="44.24323" lon="1.88105">
        <ele>423.1201</ele>
        <time>2022-08-07T07:00:14.355Z</time>
      </trkpt>
      <trkpt lat="44.24334" lon="1.88108">
        <ele>423.249996</ele>
        <time>2022-08-07T07:00:17.356Z</time>
      </trkpt>
      <trkpt lat="44.24348" lon="1.88114">
        <ele>423.406524</ele>
        <time>2022-08-07T07:00:20.356Z</time>
      </trkpt>
      <trkpt lat="44.24359" lon="1.88118">
        <ele>423.532944</ele>
        <time>2022-08-07T07:00:23.361Z</time>
      </trkpt>
      <trkpt lat="44.2437" lon="1.88123">
        <ele>423.666098</ele>
        <time>2022-08-07T07:00:26.362Z</time>
      </trkpt>
      <trkpt lat="44.24382" lon="1.8813">
        <ele>423.809132</ele>
        <time>2022-08-07T07:00:29.365Z</time>
      </trkpt>
      <trkpt lat="44.24392" lon="1.88138">
        <ele>423.933713</ele>
        <time>2022-08-07T07:00:32.357Z</time>
      </trkpt>
      <trkpt lat="44.24402" lon="1.88145">
        <ele>424.055786</ele>
        <time>2022-08-07T07:00:35.356Z</time>
      </trkpt>
      <trkpt lat="44.24414" lon="1.88153">
        <ele>424.235351</ele>
        <time>2022-08-07T07:00:38.356Z</time>
      </trkpt>
      <trkpt lat="44.24425" lon="1.88161">
        <ele>424.480994</ele>
        <time>2022-08-07T07:00:41.357Z</time>
      </trkpt>
      <trkpt lat="44.24436" lon="1.88168">
        <ele>424.713804</ele>
        <time>2022-08-07T07:00:44.358Z</time>
      </trkpt>
      <trkpt lat="44.24447" lon="1.88175">
        <ele>424.943619</ele>
        <time>2022-08-07T07:00:47.362Z</time>
      </trkpt>
      <trkpt lat="44.24457" lon="1.88182">
        <ele>425.170609</ele>
        <time>2022-08-07T07:00:50.355Z</time>
      </trkpt>
      <trkpt lat="44.24468" lon="1.88189">
        <ele>425.404039</ele>
        <time>2022-08-07T07:00:53.356Z</time>
      </trkpt>
      <trkpt lat="44.24478" lon="1.88197">
        <ele>425.625266</ele>
        <time>2022-08-07T07:00:56.358Z</time>
      </trkpt>
      <trkpt lat="44.24489" lon="1.88204">
        <ele>425.847127</ele>
        <time>2022-08-07T07:00:59.356Z</time>
      </trkpt>
      <trkpt lat="44.24499" lon="1.88212">
        <ele>426.075401</ele>
        <time>2022-08-07T07:01:02.360Z</time>
      </trkpt>
      <trkpt lat="44.2451" lon="1.88218">
        <ele>426.30131</ele>
        <time>2022-08-07T07:01:05.355Z</time>
      </trkpt>
      <trkpt lat="44.24521" lon="1.88223">
        <ele>426.530458</ele>
        <time>2022-08-07T07:01:08.357Z</time>
      </trkpt>
      <trkpt lat="44.24533" lon="1.88229">
        <ele>426.769174</ele>
        <time>2022-08-07T07:01:11.360Z</time>
      </trkpt>
      <trkpt lat="44.24544" lon="1.88236">
        <ele>427.000256</ele>
        <time>2022-08-07T07:01:14.359Z</time>
      </trkpt>
      <trkpt lat="44.24555" lon="1.88242">
        <ele>427.234355</ele>
        <time>2022-08-07T07:01:17.359Z</time>
      </trkpt>
      <trkpt lat="44.24565" lon="1.88247">
        <ele>427.441648</ele>
        <time>2022-08-07T07:01:20.362Z</time>
      </trkpt>
      <trkpt lat="44.24575" lon="1.88253">
        <ele>427.531344</ele>
        <time>2022-08-07T07:01:23.359Z</time>
      </trkpt>
      <trkpt lat="44.24586" lon="1.8826">
        <ele>427.172679</ele>
        <time>2022-08-07T07:01:26.361Z</time>
      </trkpt>
      <trkpt lat="44.24596" lon="1.88268">
        <ele>426.816391</ele>
        <time>2022-08-07T07:01:29.360Z</time>
      </trkpt>
      <trkpt lat="44.24606" lon="1.88275">
        <ele>426.457606</ele>
        <time>2022-08-07T07:01:32.359Z</time>
      </trkpt>
      <trkpt lat="44.24615" lon="1.88281">
        <ele>426.140232</ele>
        <time>2022-08-07T07:01:35.360Z</time>
      </trkpt>
      <trkpt lat="44.24625" lon="1.88291">
        <ele>425.760928</ele>
        <time>2022-08-07T07:01:38.355Z</time>
      </trkpt>
      <trkpt lat="44.24635" lon="1.88305">
        <ele>425.318508</ele>
        <time>2022-08-07T07:01:41.353Z</time>
      </trkpt>
      <trkpt lat="44.24642" lon="1.88314">
        <ele>425.018296</ele>
        <time>2022-08-07T07:01:43.359Z</time>
      </trkpt>
      <trkpt lat="44.2465" lon="1.88327">
        <ele>424.640563</ele>
        <time>2022-08-07T07:01:46.359Z</time>
      </trkpt>
      <trkpt lat="44.24643" lon="1.88336">
        <ele>424.324884</ele>
        <time>2022-08-07T07:01:49.358Z</time>
      </trkpt>
      <trkpt lat="44.24632" lon="1.88344">
        <ele>423.931623</ele>
        <time>2022-08-07T07:01:52.362Z</time>
      </trkpt>
      <trkpt lat="44.24623" lon="1.8835">
        <ele>423.642525</ele>
        <time>2022-08-07T07:01:54.359Z</time>
      </trkpt>
      <trkpt lat="44.24612" lon="1.88358">
        <ele>423.23476</ele>
        <time>2022-08-07T07:01:57.365Z</time>
      </trkpt>
      <trkpt lat="44.24603" lon="1.88364">
        <ele>422.92694</ele>
        <time>2022-08-07T07:01:59.357Z</time>
      </trkpt>
      <trkpt lat="44.24594" lon="1.8837">
        <ele>422.637536</ele>
        <time>2022-08-07T07:02:01.362Z</time>
      </trkpt>
      <trkpt lat="44.24585" lon="1.88375">
        <ele>422.313095</ele>
        <time>2022-08-07T07:02:03.359Z</time>
      </trkpt>
      <trkpt lat="44.24576" lon="1.88382">
        <ele>422.010591</ele>
        <time>2022-08-07T07:02:05.355Z</time>
      </trkpt>
      <trkpt lat="44.24569" lon="1.88391">
        <ele>421.911298</ele>
        <time>2022-08-07T07:02:07.360Z</time>
      </trkpt>
      <trkpt lat="44.24561" lon="1.88399">
        <ele>421.808456</ele>
        <time>2022-08-07T07:02:09.357Z</time>
      </trkpt>
      <trkpt lat="44.24551" lon="1.88408">
        <ele>421.699971</ele>
        <time>2022-08-07T07:02:11.361Z</time>
      </trkpt>
      <trkpt lat="44.24543" lon="1.88418">
        <ele>421.588363</ele>
        <time>2022-08-07T07:02:13.358Z</time>
      </trkpt>
      <trkpt lat="44.24532" lon="1.88426">
        <ele>421.473442</ele>
        <time>2022-08-07T07:02:15.364Z</time>
      </trkpt>
      <trkpt lat="44.24524" lon="1.88435">
        <ele>421.371353</ele>
        <time>2022-08-07T07:02:17.365Z</time>
      </trkpt>
      <trkpt lat="44.24516" lon="1.88443">
        <ele>421.272146</ele>
        <time>2022-08-07T07:02:19.360Z</time>
      </trkpt>
      <trkpt lat="44.24505" lon="1.8845">
        <ele>421.150473</ele>
        <time>2022-08-07T07:02:22.358Z</time>
      </trkpt>
      <trkpt lat="44.24495" lon="1.88458">
        <ele>421.040884</ele>
        <time>2022-08-07T07:02:25.361Z</time>
      </trkpt>
      <trkpt lat="44.24485" lon="1.88464">
        <ele>420.931378</ele>
        <time>2022-08-07T07:02:28.357Z</time>
      </trkpt>
      <trkpt lat="44.24475" lon="1.88468">
        <ele>420.835867</ele>
        <time>2022-08-07T07:02:31.365Z</time>
      </trkpt>
      <trkpt lat="44.24465" lon="1.88478">
        <ele>420.710851</ele>
        <time>2022-08-07T07:02:35.366Z</time>
      </trkpt>
      <trkpt lat="44.24453" lon="1.88486">
        <ele>420.584157</ele>
        <time>2022-08-07T07:02:38.362Z</time>
      </trkpt>
      <trkpt lat="44.24444" lon="1.88493">
        <ele>420.478903</ele>
        <time>2022-08-07T07:02:41.358Z</time>
      </trkpt>
      <trkpt lat="44.24436" lon="1.88503">
        <ele>420.37281</ele>
        <time>2022-08-07T07:02:44.359Z</time>
      </trkpt>
      <trkpt lat="44.24429" lon="1.88512">
        <ele>420.27581</ele>
        <time>2022-08-07T07:02:47.365Z</time>
      </trkpt>
      <trkpt lat="44.24419" lon="1.8852">
        <ele>419.921147</ele>
        <time>2022-08-07T07:02:50.362Z</time>
      </trkpt>
      <trkpt lat="44.24406" lon="1.88528">
        <ele>419.338449</ele>
        <time>2022-08-07T07:02:53.360Z</time>
      </trkpt>
      <trkpt lat="44.24394" lon="1.88535">
        <ele>418.768151</ele>
        <time>2022-08-07T07:02:56.527Z</time>
      </trkpt>
      <trkpt lat="44.24384" lon="1.88536">
        <ele>418.380284</ele>
        <time>2022-08-07T07:02:58.524Z</time>
      </trkpt>
      <trkpt lat="44.24376" lon="1.88542">
        <ele>417.985288</ele>
        <time>2022-08-07T07:03:01.810Z</time>
      </trkpt>
      <trkpt lat="44.24371" lon="1.88558">
        <ele>417.476434</ele>
        <time>2022-08-07T07:03:04.810Z</time>
      </trkpt>
      <trkpt lat="44.24369" lon="1.88577">
        <ele>416.898831</ele>
        <time>2022-08-07T07:03:07.809Z</time>
      </trkpt>
      <trkpt lat="44.24368" lon="1.88593">
        <ele>416.402756</ele>
        <time>2022-08-07T07:03:09.806Z</time>
      </trkpt>
      <trkpt lat="44.24368" lon="1.88609">
        <ele>415.927285</ele>
        <time>2022-08-07T07:03:11.813Z</time>
      </trkpt>
      <trkpt lat="44.24367" lon="1.88626">
        <ele>415.400409</ele>
        <time>2022-08-07T07:03:13.807Z</time>
      </trkpt>
      <trkpt lat="44.24367" lon="1.88641">
        <ele>414.94903</ele>
        <time>2022-08-07T07:03:15.812Z</time>
      </trkpt>
      <trkpt lat="44.24369" lon="1.88654">
        <ele>414.555069</ele>
        <time>2022-08-07T07:03:17.892Z</time>
      </trkpt>
      <trkpt lat="44.24371" lon="1.88667">
        <ele>414.153679</ele>
        <time>2022-08-07T07:03:19.064Z</time>
      </trkpt>
      <trkpt lat="44.24369" lon="1.88682">
        <ele>413.719736</ele>
        <time>2022-08-07T07:03:20.614Z</time>
      </trkpt>
      <trkpt lat="44.2436" lon="1.88694">
        <ele>413.189793</ele>
        <time>2022-08-07T07:03:24.127Z</time>
      </trkpt>
      <trkpt lat="44.24349" lon="1.88696">
        <ele>412.742364</ele>
        <time>2022-08-07T07:03:27.135Z</time>
      </trkpt>
      <trkpt lat="44.24337" lon="1.88695">
        <ele>411.231538</ele>
        <time>2022-08-07T07:03:30.131Z</time>
      </trkpt>
      <trkpt lat="44.24326" lon="1.88691">
        <ele>409.618559</ele>
        <time>2022-08-07T07:03:33.129Z</time>
      </trkpt>
      <trkpt lat="44.24313" lon="1.88689">
        <ele>407.931497</ele>
        <time>2022-08-07T07:03:36.128Z</time>
      </trkpt>
      <trkpt lat="44.24304" lon="1.88689">
        <ele>406.587612</ele>
        <time>2022-08-07T07:03:38.126Z</time>
      </trkpt>
      <trkpt lat="44.24292" lon="1.88688">
        <ele>404.983768</ele>
        <time>2022-08-07T07:03:40.127Z</time>
      </trkpt>
      <trkpt lat="44.24283" lon="1.88689">
        <ele>403.735742</ele>
        <time>2022-08-07T07:03:42.130Z</time>
      </trkpt>
      <trkpt lat="44.24273" lon="1.88687">
        <ele>402.390565</ele>
        <time>2022-08-07T07:03:44.130Z</time>
      </trkpt>
      <trkpt lat="44.24262" lon="1.88682">
        <ele>400.756482</ele>
        <time>2022-08-07T07:03:47.130Z</time>
      </trkpt>
      <trkpt lat="44.2425" lon="1.88679">
        <ele>399.149519</ele>
        <time>2022-08-07T07:03:50.127Z</time>
      </trkpt>
      <trkpt lat="44.24241" lon="1.88677">
        <ele>397.851632</ele>
        <time>2022-08-07T07:03:52.125Z</time>
      </trkpt>
      <trkpt lat="44.24233" lon="1.8867">
        <ele>396.568941</ele>
        <time>2022-08-07T07:03:55.128Z</time>
      </trkpt>
      <trkpt lat="44.24223" lon="1.88667">
        <ele>395.234165</ele>
        <time>2022-08-07T07:04:14.130Z</time>
      </trkpt>
      <trkpt lat="44.24216" lon="1.8868">
        <ele>393.677154</ele>
        <time>2022-08-07T07:04:20.122Z</time>
      </trkpt>
      <trkpt lat="44.24207" lon="1.88676">
        <ele>392.373551</ele>
        <time>2022-08-07T07:04:24.119Z</time>
      </trkpt>
      <trkpt lat="44.24206" lon="1.88663">
        <ele>391.109898</ele>
        <time>2022-08-07T07:04:37.128Z</time>
      </trkpt>
      <trkpt lat="44.24198" lon="1.88672">
        <ele>389.676875</ele>
        <time>2022-08-07T07:05:21.131Z</time>
      </trkpt>
      <trkpt lat="44.24202" lon="1.88686">
        <ele>388.266</ele>
        <time>2022-08-07T07:05:27.123Z</time>
      </trkpt>
      <trkpt lat="44.24206" lon="1.88698">
        <ele>386.841171</ele>
        <time>2022-08-07T07:05:32.112Z</time>
      </trkpt>
      <trkpt lat="44.24211" lon="1.8871">
        <ele>385.305688</ele>
        <time>2022-08-07T07:05:36.126Z</time>
      </trkpt>
      <trkpt lat="44.24216" lon="1.88722">
        <ele>383.768704</ele>
        <time>2022-08-07T07:05:42.125Z</time>
      </trkpt>
      <trkpt lat="44.24221" lon="1.88735">
        <ele>382.205351</ele>
        <time>2022-08-07T07:05:48.132Z</time>
      </trkpt>
      <trkpt lat="44.24229" lon="1.88746">
        <ele>380.602006</ele>
        <time>2022-08-07T07:05:54.126Z</time>
      </trkpt>
      <trkpt lat="44.24234" lon="1.88758">
        <ele>379.108764</ele>
        <time>2022-08-07T07:06:00.126Z</time>
      </trkpt>
      <trkpt lat="44.24244" lon="1.88761">
        <ele>377.636803</ele>
        <time>2022-08-07T07:06:05.126Z</time>
      </trkpt>
      <trkpt lat="44.24252" lon="1.88768">
        <ele>376.286881</ele>
        <time>2022-08-07T07:06:10.122Z</time>
      </trkpt>
      <trkpt lat="44.2426" lon="1.88774">
        <ele>374.853402</ele>
        <time>2022-08-07T07:06:15.125Z</time>
      </trkpt>
      <trkpt lat="44.24269" lon="1.88779">
        <ele>373.428374</ele>
        <time>2022-08-07T07:06:20.125Z</time>
      </trkpt>
      <trkpt lat="44.24278" lon="1.88784">
        <ele>371.997096</ele>
        <time>2022-08-07T07:06:26.123Z</time>
      </trkpt>
      <trkpt lat="44.24269" lon="1.8879">
        <ele>370.56104</ele>
        <time>2022-08-07T07:06:35.126Z</time>
      </trkpt>
      <trkpt lat="44.2426" lon="1.88792">
        <ele>369.141381</ele>
        <time>2022-08-07T07:06:39.126Z</time>
      </trkpt>
      <trkpt lat="44.2425" lon="1.88791">
        <ele>367.739802</ele>
        <time>2022-08-07T07:06:45.125Z</time>
      </trkpt>
      <trkpt lat="44.24243" lon="1.88798">
        <ele>366.392155</ele>
        <time>2022-08-07T07:07:05.123Z</time>
      </trkpt>
      <trkpt lat="44.24232" lon="1.88795">
        <ele>364.801881</ele>
        <time>2022-08-07T07:07:10.122Z</time>
      </trkpt>
      <trkpt lat="44.24222" lon="1.88791">
        <ele>363.223789</ele>
        <time>2022-08-07T07:07:14.124Z</time>
      </trkpt>
      <trkpt lat="44.24213" lon="1.88789">
        <ele>361.804129</ele>
        <time>2022-08-07T07:07:17.123Z</time>
      </trkpt>
      <trkpt lat="44.24202" lon="1.88784">
        <ele>360.684212</ele>
        <time>2022-08-07T07:07:21.126Z</time>
      </trkpt>
      <trkpt lat="44.24196" lon="1.88775">
        <ele>359.965175</ele>
        <time>2022-08-07T07:07:27.125Z</time>
      </trkpt>
      <trkpt lat="44.24186" lon="1.88771">
        <ele>359.174921</ele>
        <time>2022-08-07T07:07:32.125Z</time>
      </trkpt>
      <trkpt lat="44.24175" lon="1.88765">
        <ele>358.25504</ele>
        <time>2022-08-07T07:07:35.128Z</time>
      </trkpt>
      <trkpt lat="44.24166" lon="1.88758">
        <ele>357.46543</ele>
        <time>2022-08-07T07:07:38.124Z</time>
      </trkpt>
      <trkpt lat="44.24157" lon="1.88753">
        <ele>356.664048</ele>
        <time>2022-08-07T07:07:42.126Z</time>
      </trkpt>
      <trkpt lat="44.24146" lon="1.88747">
        <ele>355.776589</ele>
        <time>2022-08-07T07:07:46.130Z</time>
      </trkpt>
      <trkpt lat="44.24137" lon="1.88741">
        <ele>354.981386</ele>
        <time>2022-08-07T07:07:50.124Z</time>
      </trkpt>
      <trkpt lat="44.24128" lon="1.88734">
        <ele>354.1079</ele>
        <time>2022-08-07T07:07:54.133Z</time>
      </trkpt>
      <trkpt lat="44.2412" lon="1.88726">
        <ele>353.373311</ele>
        <time>2022-08-07T07:07:58.128Z</time>
      </trkpt>
      <trkpt lat="44.24112" lon="1.88719">
        <ele>352.620851</ele>
        <time>2022-08-07T07:08:02.123Z</time>
      </trkpt>
      <trkpt lat="44.24105" lon="1.8871">
        <ele>351.890406</ele>
        <time>2022-08-07T07:08:06.123Z</time>
      </trkpt>
      <trkpt lat="44.24099" lon="1.88699">
        <ele>351.087423</ele>
        <time>2022-08-07T07:08:13.124Z</time>
      </trkpt>
      <trkpt lat="44.24093" lon="1.88687">
        <ele>350.220328</ele>
        <time>2022-08-07T07:08:18.125Z</time>
      </trkpt>
      <trkpt lat="44.24089" lon="1.88674">
        <ele>349.467487</ele>
        <time>2022-08-07T07:08:22.123Z</time>
      </trkpt>
      <trkpt lat="44.24087" lon="1.88661">
        <ele>348.735536</ele>
        <time>2022-08-07T07:08:26.124Z</time>
      </trkpt>
      <trkpt lat="44.24081" lon="1.88653">
        <ele>348.006968</ele>
        <time>2022-08-07T07:08:31.123Z</time>
      </trkpt>
      <trkpt lat="44.24072" lon="1.88641">
        <ele>347.073805</ele>
        <time>2022-08-07T07:08:36.127Z</time>
      </trkpt>
      <trkpt lat="44.2406" lon="1.88633">
        <ele>346.119414</ele>
        <time>2022-08-07T07:08:40.124Z</time>
      </trkpt>
      <trkpt lat="44.24048" lon="1.88628">
        <ele>345.273249</ele>
        <time>2022-08-07T07:08:43.128Z</time>
      </trkpt>
      <trkpt lat="44.24038" lon="1.88622">
        <ele>344.480545</ele>
        <time>2022-08-07T07:08:46.123Z</time>
      </trkpt>
      <trkpt lat="44.24029" lon="1.88616">
        <ele>343.798263</ele>
        <time>2022-08-07T07:08:49.124Z</time>
      </trkpt>
      <trkpt lat="44.24019" lon="1.88612">
        <ele>343.134765</ele>
        <time>2022-08-07T07:08:52.126Z</time>
      </trkpt>
      <trkpt lat="44.24008" lon="1.8861">
        <ele>342.364404</ele>
        <time>2022-08-07T07:08:55.129Z</time>
      </trkpt>
      <trkpt lat="44.23999" lon="1.88609">
        <ele>341.72448</ele>
        <time>2022-08-07T07:09:04.122Z</time>
      </trkpt>
      <trkpt lat="44.23993" lon="1.886">
        <ele>341.072345</ele>
        <time>2022-08-07T07:09:13.128Z</time>
      </trkpt>
      <trkpt lat="44.23989" lon="1.88589">
        <ele>340.436862</ele>
        <time>2022-08-07T07:09:26.126Z</time>
      </trkpt>
      <trkpt lat="44.23982" lon="1.88579">
        <ele>339.769322</ele>
        <time>2022-08-07T07:09:35.125Z</time>
      </trkpt>
      <trkpt lat="44.23975" lon="1.88566">
        <ele>338.989392</ele>
        <time>2022-08-07T07:09:48.127Z</time>
      </trkpt>
      <trkpt lat="44.23971" lon="1.88554">
        <ele>338.311396</ele>
        <time>2022-08-07T07:09:52.125Z</time>
      </trkpt>
      <trkpt lat="44.23965" lon="1.88541">
        <ele>337.550596</ele>
        <time>2022-08-07T07:09:56.123Z</time>
      </trkpt>
      <trkpt lat="44.23959" lon="1.88528">
        <ele>336.796535</ele>
        <time>2022-08-07T07:09:59.122Z</time>
      </trkpt>
      <trkpt lat="44.23952" lon="1.88518">
        <ele>336.11954</ele>
        <time>2022-08-07T07:10:02.124Z</time>
      </trkpt>
      <trkpt lat="44.23945" lon="1.88509">
        <ele>335.450707</ele>
        <time>2022-08-07T07:10:09.125Z</time>
      </trkpt>
      <trkpt lat="44.23936" lon="1.88502">
        <ele>334.7443</ele>
        <time>2022-08-07T07:10:16.120Z</time>
      </trkpt>
      <trkpt lat="44.23929" lon="1.88496">
        <ele>334.904815</ele>
        <time>2022-08-07T07:10:22.125Z</time>
      </trkpt>
      <trkpt lat="44.2392" lon="1.88493">
        <ele>335.312874</ele>
        <time>2022-08-07T07:10:34.120Z</time>
      </trkpt>
      <trkpt lat="44.23911" lon="1.88497">
        <ele>335.720607</ele>
        <time>2022-08-07T07:10:53.124Z</time>
      </trkpt>
      <trkpt lat="44.23902" lon="1.88495">
        <ele>336.13009</ele>
        <time>2022-08-07T07:11:04.127Z</time>
      </trkpt>
      <trkpt lat="44.23893" lon="1.88495">
        <ele>336.541779</ele>
        <time>2022-08-07T07:11:10.128Z</time>
      </trkpt>
      <trkpt lat="44.23884" lon="1.88493">
        <ele>336.947184</ele>
        <time>2022-08-07T07:11:15.124Z</time>
      </trkpt>
      <trkpt lat="44.23875" lon="1.88485">
        <ele>337.42772</ele>
        <time>2022-08-07T07:11:19.123Z</time>
      </trkpt>
      <trkpt lat="44.23865" lon="1.88483">
        <ele>337.87426</ele>
        <time>2022-08-07T07:11:23.124Z</time>
      </trkpt>
      <trkpt lat="44.23855" lon="1.88481">
        <ele>338.320397</ele>
        <time>2022-08-07T07:11:29.124Z</time>
      </trkpt>
      <trkpt lat="44.23842" lon="1.88482">
        <ele>338.901992</ele>
        <time>2022-08-07T07:11:33.122Z</time>
      </trkpt>
      <trkpt lat="44.23833" lon="1.88482">
        <ele>339.327009</ele>
        <time>2022-08-07T07:11:37.121Z</time>
      </trkpt>
      <trkpt lat="44.23824" lon="1.8848">
        <ele>339.733665</ele>
        <time>2022-08-07T07:11:40.125Z</time>
      </trkpt>
      <trkpt lat="44.23814" lon="1.88481">
        <ele>340.142495</ele>
        <time>2022-08-07T07:11:44.135Z</time>
      </trkpt>
      <trkpt lat="44.23804" lon="1.88485">
        <ele>340.620684</ele>
        <time>2022-08-07T07:11:50.125Z</time>
      </trkpt>
      <trkpt lat="44.23803" lon="1.88497">
        <ele>341.022465</ele>
        <time>2022-08-07T07:12:00.123Z</time>
      </trkpt>
      <trkpt lat="44.23811" lon="1.88506">
        <ele>341.453156</ele>
        <time>2022-08-07T07:12:20.121Z</time>
      </trkpt>
      <trkpt lat="44.23821" lon="1.88509">
        <ele>341.900572</ele>
        <time>2022-08-07T07:12:29.123Z</time>
      </trkpt>
      <trkpt lat="44.2383" lon="1.88507">
        <ele>342.339613</ele>
        <time>2022-08-07T07:12:39.124Z</time>
      </trkpt>
      <trkpt lat="44.23839" lon="1.88516">
        <ele>342.781792</ele>
        <time>2022-08-07T07:12:45.128Z</time>
      </trkpt>
      <trkpt lat="44.23847" lon="1.88522">
        <ele>343.135528</ele>
        <time>2022-08-07T07:12:50.124Z</time>
      </trkpt>
      <trkpt lat="44.23854" lon="1.88529">
        <ele>343.490355</ele>
        <time>2022-08-07T07:12:54.148Z</time>
      </trkpt>
      <trkpt lat="44.23862" lon="1.88536">
        <ele>343.839623</ele>
        <time>2022-08-07T07:13:00.127Z</time>
      </trkpt>
      <trkpt lat="44.23871" lon="1.88541">
        <ele>344.216145</ele>
        <time>2022-08-07T07:13:06.131Z</time>
      </trkpt>
      <trkpt lat="44.23879" lon="1.88547">
        <ele>344.567868</ele>
        <time>2022-08-07T07:13:10.127Z</time>
      </trkpt>
      <trkpt lat="44.23888" lon="1.88554">
        <ele>344.9534</ele>
        <time>2022-08-07T07:13:17.128Z</time>
      </trkpt>
      <trkpt lat="44.23897" lon="1.88564">
        <ele>345.386034</ele>
        <time>2022-08-07T07:13:21.125Z</time>
      </trkpt>
      <trkpt lat="44.23904" lon="1.88575">
        <ele>345.782782</ele>
        <time>2022-08-07T07:13:27.124Z</time>
      </trkpt>
      <trkpt lat="44.23912" lon="1.88583">
        <ele>346.167446</ele>
        <time>2022-08-07T07:13:33.123Z</time>
      </trkpt>
      <trkpt lat="44.23919" lon="1.88592">
        <ele>346.544391</ele>
        <time>2022-08-07T07:13:42.139Z</time>
      </trkpt>
      <trkpt lat="44.23926" lon="1.886">
        <ele>346.887862</ele>
        <time>2022-08-07T07:13:47.136Z</time>
      </trkpt>
      <trkpt lat="44.23935" lon="1.88606">
        <ele>347.253086</ele>
        <time>2022-08-07T07:13:52.124Z</time>
      </trkpt>
      <trkpt lat="44.23942" lon="1.88615">
        <ele>347.629453</ele>
        <time>2022-08-07T07:13:57.131Z</time>
      </trkpt>
      <trkpt lat="44.23949" lon="1.88624">
        <ele>347.977325</ele>
        <time>2022-08-07T07:14:01.121Z</time>
      </trkpt>
      <trkpt lat="44.23955" lon="1.88634">
        <ele>348.328885</ele>
        <time>2022-08-07T07:14:07.128Z</time>
      </trkpt>
      <trkpt lat="44.23964" lon="1.88641">
        <ele>348.750144</ele>
        <time>2022-08-07T07:14:14.133Z</time>
      </trkpt>
      <trkpt lat="44.23972" lon="1.88651">
        <ele>349.160603</ele>
        <time>2022-08-07T07:14:19.126Z</time>
      </trkpt>
      <trkpt lat="44.2398" lon="1.88659">
        <ele>349.52697</ele>
        <time>2022-08-07T07:14:23.128Z</time>
      </trkpt>
      <trkpt lat="44.23987" lon="1.88668">
        <ele>350.049396</ele>
        <time>2022-08-07T07:14:28.126Z</time>
      </trkpt>
      <trkpt lat="44.23994" lon="1.88678">
        <ele>350.574745</ele>
        <time>2022-08-07T07:14:31.153Z</time>
      </trkpt>
      <trkpt lat="44.24001" lon="1.88689">
        <ele>351.10076</ele>
        <time>2022-08-07T07:14:34.137Z</time>
      </trkpt>
      <trkpt lat="44.24006" lon="1.88701">
        <ele>351.638061</ele>
        <time>2022-08-07T07:14:38.128Z</time>
      </trkpt>
      <trkpt lat="44.24012" lon="1.88712">
        <ele>352.160225</ele>
        <time>2022-08-07T07:14:41.132Z</time>
      </trkpt>
      <trkpt lat="44.24018" lon="1.88724">
        <ele>352.699098</ele>
        <time>2022-08-07T07:14:45.141Z</time>
      </trkpt>
      <trkpt lat="44.24024" lon="1.88735">
        <ele>353.236498</ele>
        <time>2022-08-07T07:14:48.132Z</time>
      </trkpt>
      <trkpt lat="44.2403" lon="1.88747">
        <ele>353.786776</ele>
        <time>2022-08-07T07:14:52.128Z</time>
      </trkpt>
      <trkpt lat="44.24038" lon="1.88758">
        <ele>354.372378</ele>
        <time>2022-08-07T07:14:56.123Z</time>
      </trkpt>
      <trkpt lat="44.24045" lon="1.88767">
        <ele>354.871261</ele>
        <time>2022-08-07T07:15:00.128Z</time>
      </trkpt>
      <trkpt lat="44.24051" lon="1.88777">
        <ele>355.358305</ele>
        <time>2022-08-07T07:15:04.126Z</time>
      </trkpt>
      <trkpt lat="44.24058" lon="1.88787">
        <ele>355.901819</ele>
        <time>2022-08-07T07:15:08.133Z</time>
      </trkpt>
      <trkpt lat="44.24063" lon="1.88798">
        <ele>356.378628</ele>
        <time>2022-08-07T07:15:12.124Z</time>
      </trkpt>
      <trkpt lat="44.2407" lon="1.88809">
        <ele>356.934834</ele>
        <time>2022-08-07T07:15:16.133Z</time>
      </trkpt>
      <trkpt lat="44.24075" lon="1.88822">
        <ele>357.480757</ele>
        <time>2022-08-07T07:15:21.128Z</time>
      </trkpt>
      <trkpt lat="44.2408" lon="1.88832">
        <ele>357.968974</ele>
        <time>2022-08-07T07:15:26.124Z</time>
      </trkpt>
      <trkpt lat="44.24087" lon="1.88844">
        <ele>358.55343</ele>
        <time>2022-08-07T07:15:32.122Z</time>
      </trkpt>
      <trkpt lat="44.24093" lon="1.88856">
        <ele>359.200665</ele>
        <time>2022-08-07T07:15:36.126Z</time>
      </trkpt>
      <trkpt lat="44.241" lon="1.88867">
        <ele>360.213289</ele>
        <time>2022-08-07T07:15:40.133Z</time>
      </trkpt>
      <trkpt lat="44.24108" lon="1.88876">
        <ele>361.229907</ele>
        <time>2022-08-07T07:15:45.130Z</time>
      </trkpt>
      <trkpt lat="44.24117" lon="1.88881">
        <ele>362.207533</ele>
        <time>2022-08-07T07:15:49.123Z</time>
      </trkpt>
      <trkpt lat="44.24126" lon="1.88887">
        <ele>363.266259</ele>
        <time>2022-08-07T07:15:55.128Z</time>
      </trkpt>
      <trkpt lat="44.24135" lon="1.88894">
        <ele>364.279294</ele>
        <time>2022-08-07T07:15:59.124Z</time>
      </trkpt>
      <trkpt lat="44.24144" lon="1.88901">
        <ele>365.295869</ele>
        <time>2022-08-07T07:16:04.129Z</time>
      </trkpt>
      <trkpt lat="44.24152" lon="1.88911">
        <ele>366.368913</ele>
        <time>2022-08-07T07:16:09.131Z</time>
      </trkpt>
      <trkpt lat="44.2416" lon="1.88919">
        <ele>367.352505</ele>
        <time>2022-08-07T07:16:14.136Z</time>
      </trkpt>
      <trkpt lat="44.24167" lon="1.88929">
        <ele>368.414925</ele>
        <time>2022-08-07T07:16:20.127Z</time>
      </trkpt>
      <trkpt lat="44.24176" lon="1.88936">
        <ele>369.396489</ele>
        <time>2022-08-07T07:16:26.127Z</time>
      </trkpt>
      <trkpt lat="44.24182" lon="1.88946">
        <ele>370.362056</ele>
        <time>2022-08-07T07:16:32.131Z</time>
      </trkpt>
      <trkpt lat="44.24189" lon="1.88957">
        <ele>371.402682</ele>
        <time>2022-08-07T07:16:38.130Z</time>
      </trkpt>
      <trkpt lat="44.24196" lon="1.88966">
        <ele>372.335334</ele>
        <time>2022-08-07T07:16:44.129Z</time>
      </trkpt>
      <trkpt lat="44.24202" lon="1.88974">
        <ele>373.242045</ele>
        <time>2022-08-07T07:16:49.130Z</time>
      </trkpt>
      <trkpt lat="44.24209" lon="1.88984">
        <ele>374.19547</ele>
        <time>2022-08-07T07:16:55.130Z</time>
      </trkpt>
      <trkpt lat="44.24215" lon="1.88995">
        <ele>375.183511</ele>
        <time>2022-08-07T07:17:02.132Z</time>
      </trkpt>
      <trkpt lat="44.24222" lon="1.89004">
        <ele>376.116738</ele>
        <time>2022-08-07T07:17:09.128Z</time>
      </trkpt>
      <trkpt lat="44.24226" lon="1.89016">
        <ele>377.07265</ele>
        <time>2022-08-07T07:17:18.129Z</time>
      </trkpt>
      <trkpt lat="44.24232" lon="1.89026">
        <ele>377.774649</ele>
        <time>2022-08-07T07:17:26.130Z</time>
      </trkpt>
      <trkpt lat="44.24239" lon="1.89035">
        <ele>378.474877</ele>
        <time>2022-08-07T07:17:36.127Z</time>
      </trkpt>
      <trkpt lat="44.24248" lon="1.89042">
        <ele>379.255289</ele>
        <time>2022-08-07T07:17:44.123Z</time>
      </trkpt>
      <trkpt lat="44.24239" lon="1.89046">
        <ele>379.962414</ele>
        <time>2022-08-07T07:17:57.127Z</time>
      </trkpt>
      <trkpt lat="44.2423" lon="1.89044">
        <ele>380.657426</ele>
        <time>2022-08-07T07:18:03.124Z</time>
      </trkpt>
      <trkpt lat="44.24221" lon="1.8904">
        <ele>381.355498</ele>
        <time>2022-08-07T07:18:08.125Z</time>
      </trkpt>
      <trkpt lat="44.24211" lon="1.89036">
        <ele>382.117443</ele>
        <time>2022-08-07T07:18:13.132Z</time>
      </trkpt>
      <trkpt lat="44.24201" lon="1.89033">
        <ele>382.816736</ele>
        <time>2022-08-07T07:18:19.129Z</time>
      </trkpt>
      <trkpt lat="44.24191" lon="1.89029">
        <ele>383.595926</ele>
        <time>2022-08-07T07:18:24.128Z</time>
      </trkpt>
      <trkpt lat="44.24182" lon="1.89025">
        <ele>384.325177</ele>
        <time>2022-08-07T07:18:31.130Z</time>
      </trkpt>
      <trkpt lat="44.24172" lon="1.89019">
        <ele>385.086092</ele>
        <time>2022-08-07T07:18:36.131Z</time>
      </trkpt>
      <trkpt lat="44.24162" lon="1.89016">
        <ele>385.860443</ele>
        <time>2022-08-07T07:18:41.130Z</time>
      </trkpt>
      <trkpt lat="44.24151" lon="1.89012">
        <ele>386.70269</ele>
        <time>2022-08-07T07:18:46.127Z</time>
      </trkpt>
      <trkpt lat="44.24141" lon="1.89012">
        <ele>387.385161</ele>
        <time>2022-08-07T07:18:51.129Z</time>
      </trkpt>
      <trkpt lat="44.24132" lon="1.89017">
        <ele>388.142749</ele>
        <time>2022-08-07T07:18:59.130Z</time>
      </trkpt>
      <trkpt lat="44.24122" lon="1.89022">
        <ele>388.904902</ele>
        <time>2022-08-07T07:19:05.132Z</time>
      </trkpt>
      <trkpt lat="44.24113" lon="1.89031">
        <ele>389.67517</ele>
        <time>2022-08-07T07:19:11.132Z</time>
      </trkpt>
      <trkpt lat="44.24106" lon="1.89039">
        <ele>390.349497</ele>
        <time>2022-08-07T07:19:16.127Z</time>
      </trkpt>
      <trkpt lat="44.241" lon="1.89049">
        <ele>390.94461</ele>
        <time>2022-08-07T07:19:22.134Z</time>
      </trkpt>
      <trkpt lat="44.24092" lon="1.89058">
        <ele>391.616887</ele>
        <time>2022-08-07T07:19:28.129Z</time>
      </trkpt>
      <trkpt lat="44.24085" lon="1.89067">
        <ele>392.228444</ele>
        <time>2022-08-07T07:19:34.128Z</time>
      </trkpt>
      <trkpt lat="44.24079" lon="1.89078">
        <ele>392.846481</ele>
        <time>2022-08-07T07:19:39.127Z</time>
      </trkpt>
      <trkpt lat="44.24072" lon="1.89086">
        <ele>393.454441</ele>
        <time>2022-08-07T07:19:44.129Z</time>
      </trkpt>
      <trkpt lat="44.24062" lon="1.89093">
        <ele>394.117541</ele>
        <time>2022-08-07T07:19:49.129Z</time>
      </trkpt>
      <trkpt lat="44.24053" lon="1.89098">
        <ele>394.784299</ele>
        <time>2022-08-07T07:19:55.129Z</time>
      </trkpt>
      <trkpt lat="44.24043" lon="1.89096">
        <ele>395.436826</ele>
        <time>2022-08-07T07:20:00.125Z</time>
      </trkpt>
      <trkpt lat="44.24033" lon="1.89097">
        <ele>396.077168</ele>
        <time>2022-08-07T07:20:06.126Z</time>
      </trkpt>
      <trkpt lat="44.24023" lon="1.891">
        <ele>396.719284</ele>
        <time>2022-08-07T07:20:12.131Z</time>
      </trkpt>
      <trkpt lat="44.24013" lon="1.89103">
        <ele>397.369698</ele>
        <time>2022-08-07T07:20:17.128Z</time>
      </trkpt>
      <trkpt lat="44.24004" lon="1.89106">
        <ele>397.95609</ele>
        <time>2022-08-07T07:20:21.128Z</time>
      </trkpt>
      <trkpt lat="44.23995" lon="1.89113">
        <ele>398.608646</ele>
        <time>2022-08-07T07:20:26.131Z</time>
      </trkpt>
      <trkpt lat="44.23988" lon="1.89121">
        <ele>399.195594</ele>
        <time>2022-08-07T07:20:31.132Z</time>
      </trkpt>
      <trkpt lat="44.23978" lon="1.89128">
        <ele>399.906838</ele>
        <time>2022-08-07T07:20:37.138Z</time>
      </trkpt>
      <trkpt lat="44.23968" lon="1.89134">
        <ele>400.602108</ele>
        <time>2022-08-07T07:20:42.128Z</time>
      </trkpt>
      <trkpt lat="44.23961" lon="1.89145">
        <ele>401.275673</ele>
        <time>2022-08-07T07:20:47.128Z</time>
      </trkpt>
      <trkpt lat="44.23952" lon="1.89151">
        <ele>401.878228</ele>
        <time>2022-08-07T07:20:52.122Z</time>
      </trkpt>
      <trkpt lat="44.23955" lon="1.89165">
        <ele>402.438794</ele>
        <time>2022-08-07T07:20:58.131Z</time>
      </trkpt>
      <trkpt lat="44.2396" lon="1.89177">
        <ele>402.933613</ele>
        <time>2022-08-07T07:21:03.128Z</time>
      </trkpt>
      <trkpt lat="44.23964" lon="1.8919">
        <ele>403.496307</ele>
        <time>2022-08-07T07:21:08.128Z</time>
      </trkpt>
      <trkpt lat="44.2397" lon="1.89202">
        <ele>404.041105</ele>
        <time>2022-08-07T07:21:13.125Z</time>
      </trkpt>
      <trkpt lat="44.23976" lon="1.89215">
        <ele>404.588804</ele>
        <time>2022-08-07T07:21:18.126Z</time>
      </trkpt>
      <trkpt lat="44.2398" lon="1.89228">
        <ele>405.16141</ele>
        <time>2022-08-07T07:21:23.127Z</time>
      </trkpt>
      <trkpt lat="44.23983" lon="1.89242">
        <ele>405.719446</ele>
        <time>2022-08-07T07:21:28.124Z</time>
      </trkpt>
      <trkpt lat="44.23987" lon="1.89254">
        <ele>406.20115</ele>
        <time>2022-08-07T07:21:32.125Z</time>
      </trkpt>
      <trkpt lat="44.2399" lon="1.89268">
        <ele>406.73497</ele>
        <time>2022-08-07T07:21:37.125Z</time>
      </trkpt>
      <trkpt lat="44.23993" lon="1.89282">
        <ele>407.284142</ele>
        <time>2022-08-07T07:21:42.125Z</time>
      </trkpt>
      <trkpt lat="44.23998" lon="1.89295">
        <ele>407.828442</ele>
        <time>2022-08-07T07:21:47.124Z</time>
      </trkpt>
      <trkpt lat="44.24002" lon="1.89308">
        <ele>408.38983</ele>
        <time>2022-08-07T07:21:52.126Z</time>
      </trkpt>
      <trkpt lat="44.24006" lon="1.89323">
        <ele>408.971254</ele>
        <time>2022-08-07T07:21:57.128Z</time>
      </trkpt>
      <trkpt lat="44.2401" lon="1.89334">
        <ele>409.450289</ele>
        <time>2022-08-07T07:22:01.122Z</time>
      </trkpt>
      <trkpt lat="44.24015" lon="1.89345">
        <ele>409.922463</ele>
        <time>2022-08-07T07:22:05.125Z</time>
      </trkpt>
      <trkpt lat="44.24021" lon="1.89358">
        <ele>410.500462</ele>
        <time>2022-08-07T07:22:10.127Z</time>
      </trkpt>
      <trkpt lat="44.24026" lon="1.89369">
        <ele>411.001163</ele>
        <time>2022-08-07T07:22:15.521Z</time>
      </trkpt>
      <trkpt lat="44.2403" lon="1.89382">
        <ele>411.26686</ele>
        <time>2022-08-07T07:22:20.518Z</time>
      </trkpt>
      <trkpt lat="44.24035" lon="1.89393">
        <ele>411.369082</ele>
        <time>2022-08-07T07:22:25.519Z</time>
      </trkpt>
      <trkpt lat="44.24041" lon="1.89405">
        <ele>411.478921</ele>
        <time>2022-08-07T07:22:30.521Z</time>
      </trkpt>
      <trkpt lat="44.24046" lon="1.89418">
        <ele>411.593706</ele>
        <time>2022-08-07T07:22:35.518Z</time>
      </trkpt>
      <trkpt lat="44.24052" lon="1.89431">
        <ele>411.712606</ele>
        <time>2022-08-07T07:22:40.519Z</time>
      </trkpt>
      <trkpt lat="44.24057" lon="1.89441">
        <ele>411.809269</ele>
        <time>2022-08-07T07:22:44.518Z</time>
      </trkpt>
      <trkpt lat="44.24062" lon="1.89454">
        <ele>411.918458</ele>
        <time>2022-08-07T07:22:48.526Z</time>
      </trkpt>
      <trkpt lat="44.24067" lon="1.89464">
        <ele>412.015161</ele>
        <time>2022-08-07T07:22:51.518Z</time>
      </trkpt>
      <trkpt lat="44.24071" lon="1.89475">
        <ele>412.114305</ele>
        <time>2022-08-07T07:22:54.512Z</time>
      </trkpt>
      <trkpt lat="44.24075" lon="1.89488">
        <ele>412.219749</ele>
        <time>2022-08-07T07:22:57.520Z</time>
      </trkpt>
      <trkpt lat="44.2408" lon="1.89499">
        <ele>412.321964</ele>
        <time>2022-08-07T07:23:00.515Z</time>
      </trkpt>
      <trkpt lat="44.24085" lon="1.89511">
        <ele>412.428753</ele>
        <time>2022-08-07T07:23:03.513Z</time>
      </trkpt>
      <trkpt lat="44.24089" lon="1.89524">
        <ele>412.540804</ele>
        <time>2022-08-07T07:23:06.518Z</time>
      </trkpt>
      <trkpt lat="44.24094" lon="1.89536">
        <ele>412.645719</ele>
        <time>2022-08-07T07:23:09.514Z</time>
      </trkpt>
      <trkpt lat="44.24099" lon="1.89548">
        <ele>412.75098</ele>
        <time>2022-08-07T07:23:12.522Z</time>
      </trkpt>
      <trkpt lat="44.24103" lon="1.89561">
        <ele>412.861758</ele>
        <time>2022-08-07T07:23:15.524Z</time>
      </trkpt>
      <trkpt lat="44.24107" lon="1.89573">
        <ele>412.964406</ele>
        <time>2022-08-07T07:23:18.516Z</time>
      </trkpt>
      <trkpt lat="44.24111" lon="1.89588">
        <ele>413.088749</ele>
        <time>2022-08-07T07:23:22.520Z</time>
      </trkpt>
      <trkpt lat="44.24115" lon="1.89601">
        <ele>413.050722</ele>
        <time>2022-08-07T07:23:26.517Z</time>
      </trkpt>
      <trkpt lat="44.24117" lon="1.89616">
        <ele>412.869018</ele>
        <time>2022-08-07T07:23:30.518Z</time>
      </trkpt>
      <trkpt lat="44.2412" lon="1.8963">
        <ele>412.700795</ele>
        <time>2022-08-07T07:23:33.513Z</time>
      </trkpt>
      <trkpt lat="44.24122" lon="1.89643">
        <ele>412.546935</ele>
        <time>2022-08-07T07:23:36.521Z</time>
      </trkpt>
      <trkpt lat="44.24124" lon="1.89656">
        <ele>412.394204</ele>
        <time>2022-08-07T07:23:39.517Z</time>
      </trkpt>
      <trkpt lat="44.24127" lon="1.8967">
        <ele>412.232432</ele>
        <time>2022-08-07T07:23:42.521Z</time>
      </trkpt>
      <trkpt lat="44.2413" lon="1.89685">
        <ele>412.050616</ele>
        <time>2022-08-07T07:23:45.517Z</time>
      </trkpt>
      <trkpt lat="44.24133" lon="1.89701">
        <ele>411.848727</ele>
        <time>2022-08-07T07:23:48.518Z</time>
      </trkpt>
      <trkpt lat="44.24137" lon="1.8972">
        <ele>411.626</ele>
        <time>2022-08-07T07:23:51.516Z</time>
      </trkpt>
      <trkpt lat="44.2414" lon="1.89733">
        <ele>411.460511</ele>
        <time>2022-08-07T07:23:53.513Z</time>
      </trkpt>
      <trkpt lat="44.24143" lon="1.89746">
        <ele>411.304577</ele>
        <time>2022-08-07T07:23:55.520Z</time>
      </trkpt>
      <trkpt lat="44.24145" lon="1.89759">
        <ele>411.149936</ele>
        <time>2022-08-07T07:23:57.515Z</time>
      </trkpt>
      <trkpt lat="44.24149" lon="1.89773">
        <ele>410.980621</ele>
        <time>2022-08-07T07:23:59.522Z</time>
      </trkpt>
      <trkpt lat="44.24152" lon="1.89785">
        <ele>410.824902</ele>
        <time>2022-08-07T07:24:01.513Z</time>
      </trkpt>
      <trkpt lat="44.24155" lon="1.89798">
        <ele>410.671347</ele>
        <time>2022-08-07T07:24:03.513Z</time>
      </trkpt>
      <trkpt lat="44.24159" lon="1.8981">
        <ele>410.511504</ele>
        <time>2022-08-07T07:24:05.518Z</time>
      </trkpt>
      <trkpt lat="44.24164" lon="1.89822">
        <ele>410.36557</ele>
        <time>2022-08-07T07:24:07.522Z</time>
      </trkpt>
      <trkpt lat="44.24169" lon="1.89837">
        <ele>410.218328</ele>
        <time>2022-08-07T07:24:10.524Z</time>
      </trkpt>
      <trkpt lat="44.24174" lon="1.89853">
        <ele>410.200588</ele>
        <time>2022-08-07T07:24:13.516Z</time>
      </trkpt>
      <trkpt lat="44.24181" lon="1.89866">
        <ele>410.183135</ele>
        <time>2022-08-07T07:24:16.516Z</time>
      </trkpt>
      <trkpt lat="44.24186" lon="1.89881">
        <ele>410.166096</ele>
        <time>2022-08-07T07:24:19.517Z</time>
      </trkpt>
      <trkpt lat="44.24192" lon="1.89894">
        <ele>410.150152</ele>
        <time>2022-08-07T07:24:22.517Z</time>
      </trkpt>
      <trkpt lat="44.24199" lon="1.89908">
        <ele>410.133065</ele>
        <time>2022-08-07T07:24:25.522Z</time>
      </trkpt>
      <trkpt lat="44.24207" lon="1.8992">
        <ele>410.115633</ele>
        <time>2022-08-07T07:24:28.516Z</time>
      </trkpt>
      <trkpt lat="44.24216" lon="1.89932">
        <ele>410.098493</ele>
        <time>2022-08-07T07:24:31.517Z</time>
      </trkpt>
      <trkpt lat="44.24224" lon="1.89942">
        <ele>410.081666</ele>
        <time>2022-08-07T07:24:34.520Z</time>
      </trkpt>
      <trkpt lat="44.24233" lon="1.89952">
        <ele>410.065509</ele>
        <time>2022-08-07T07:24:37.513Z</time>
      </trkpt>
      <trkpt lat="44.24241" lon="1.89962">
        <ele>410.049418</ele>
        <time>2022-08-07T07:24:40.520Z</time>
      </trkpt>
      <trkpt lat="44.2425" lon="1.89972">
        <ele>410.033696</ele>
        <time>2022-08-07T07:24:43.520Z</time>
      </trkpt>
      <trkpt lat="44.24258" lon="1.89981">
        <ele>410.018667</ele>
        <time>2022-08-07T07:24:46.517Z</time>
      </trkpt>
      <trkpt lat="44.24265" lon="1.89989">
        <ele>410.005034</ele>
        <time>2022-08-07T07:24:49.633Z</time>
      </trkpt>
      <trkpt lat="44.24274" lon="1.89995">
        <ele>409.990925</ele>
        <time>2022-08-07T07:24:52.522Z</time>
      </trkpt>
      <trkpt lat="44.24284" lon="1.89999">
        <ele>409.976</ele>
        <time>2022-08-07T07:24:55.519Z</time>
      </trkpt>
      <trkpt lat="44.24294" lon="1.90001">
        <ele>410.012208</ele>
        <time>2022-08-07T07:24:58.518Z</time>
      </trkpt>
      <trkpt lat="44.24304" lon="1.90005">
        <ele>410.311535</ele>
        <time>2022-08-07T07:25:01.515Z</time>
      </trkpt>
      <trkpt lat="44.24314" lon="1.9001">
        <ele>410.624193</ele>
        <time>2022-08-07T07:25:04.520Z</time>
      </trkpt>
      <trkpt lat="44.24324" lon="1.90014">
        <ele>410.922571</ele>
        <time>2022-08-07T07:25:07.521Z</time>
      </trkpt>
      <trkpt lat="44.24334" lon="1.90019">
        <ele>411.225716</ele>
        <time>2022-08-07T07:25:10.520Z</time>
      </trkpt>
      <trkpt lat="44.24343" lon="1.90025">
        <ele>411.519555</ele>
        <time>2022-08-07T07:25:13.520Z</time>
      </trkpt>
      <trkpt lat="44.24353" lon="1.9003">
        <ele>411.815822</ele>
        <time>2022-08-07T07:25:16.518Z</time>
      </trkpt>
      <trkpt lat="44.24363" lon="1.90034">
        <ele>412.11513</ele>
        <time>2022-08-07T07:25:19.534Z</time>
      </trkpt>
      <trkpt lat="44.24373" lon="1.90039">
        <ele>412.422055</ele>
        <time>2022-08-07T07:25:22.519Z</time>
      </trkpt>
      <trkpt lat="44.24383" lon="1.90045">
        <ele>412.741283</ele>
        <time>2022-08-07T07:25:25.516Z</time>
      </trkpt>
      <trkpt lat="44.24394" lon="1.90051">
        <ele>413.077931</ele>
        <time>2022-08-07T07:25:28.519Z</time>
      </trkpt>
      <trkpt lat="44.24405" lon="1.90056">
        <ele>413.431639</ele>
        <time>2022-08-07T07:25:31.524Z</time>
      </trkpt>
      <trkpt lat="44.24417" lon="1.90062">
        <ele>413.800764</ele>
        <time>2022-08-07T07:25:34.520Z</time>
      </trkpt>
      <trkpt lat="44.24429" lon="1.90066">
        <ele>414.1425</ele>
        <time>2022-08-07T07:25:37.520Z</time>
      </trkpt>
      <trkpt lat="44.2444" lon="1.90071">
        <ele>414.488017</ele>
        <time>2022-08-07T07:25:40.515Z</time>
      </trkpt>
      <trkpt lat="44.24449" lon="1.90079">
        <ele>414.793537</ele>
        <time>2022-08-07T07:25:43.520Z</time>
      </trkpt>
      <trkpt lat="44.24456" lon="1.90088">
        <ele>415.080201</ele>
        <time>2022-08-07T07:25:47.523Z</time>
      </trkpt>
      <trkpt lat="44.24462" lon="1.90077">
        <ele>415.005844</ele>
        <time>2022-08-07T07:25:50.522Z</time>
      </trkpt>
      <trkpt lat="44.24467" lon="1.90065">
        <ele>414.71391</ele>
        <time>2022-08-07T07:25:53.522Z</time>
      </trkpt>
      <trkpt lat="44.24474" lon="1.90051">
        <ele>414.366996</ele>
        <time>2022-08-07T07:25:57.523Z</time>
      </trkpt>
      <trkpt lat="44.24479" lon="1.90039">
        <ele>414.072774</ele>
        <time>2022-08-07T07:26:00.520Z</time>
      </trkpt>
      <trkpt lat="44.24483" lon="1.90024">
        <ele>413.749988</ele>
        <time>2022-08-07T07:26:03.521Z</time>
      </trkpt>
      <trkpt lat="44.24484" lon="1.90007">
        <ele>413.393661</ele>
        <time>2022-08-07T07:26:06.521Z</time>
      </trkpt>
      <trkpt lat="44.24481" lon="1.89992">
        <ele>413.07088</ele>
        <time>2022-08-07T07:26:08.519Z</time>
      </trkpt>
      <trkpt lat="44.24479" lon="1.89979">
        <ele>412.792067</ele>
        <time>2022-08-07T07:26:10.520Z</time>
      </trkpt>
      <trkpt lat="44.24478" lon="1.89966">
        <ele>412.520737</ele>
        <time>2022-08-07T07:26:12.518Z</time>
      </trkpt>
      <trkpt lat="44.24475" lon="1.89951">
        <ele>412.217413</ele>
        <time>2022-08-07T07:26:14.520Z</time>
      </trkpt>
      <trkpt lat="44.24474" lon="1.89935">
        <ele>411.876853</ele>
        <time>2022-08-07T07:26:16.518Z</time>
      </trkpt>
      <trkpt lat="44.24473" lon="1.89917">
        <ele>411.514848</ele>
        <time>2022-08-07T07:26:18.522Z</time>
      </trkpt>
      <trkpt lat="44.24472" lon="1.89899">
        <ele>411.135517</ele>
        <time>2022-08-07T07:26:20.521Z</time>
      </trkpt>
      <trkpt lat="44.24471" lon="1.89879">
        <ele>410.721463</ele>
        <time>2022-08-07T07:26:22.521Z</time>
      </trkpt>
      <trkpt lat="44.24468" lon="1.89857">
        <ele>410.268957</ele>
        <time>2022-08-07T07:26:24.520Z</time>
      </trkpt>
      <trkpt lat="44.24466" lon="1.89836">
        <ele>409.643671</ele>
        <time>2022-08-07T07:26:26.522Z</time>
      </trkpt>
      <trkpt lat="44.24464" lon="1.89816">
        <ele>408.762753</ele>
        <time>2022-08-07T07:26:28.521Z</time>
      </trkpt>
      <trkpt lat="44.24462" lon="1.89795">
        <ele>407.869093</ele>
        <time>2022-08-07T07:26:30.519Z</time>
      </trkpt>
      <trkpt lat="44.2446" lon="1.89777">
        <ele>407.072193</ele>
        <time>2022-08-07T07:26:32.520Z</time>
      </trkpt>
      <trkpt lat="44.24457" lon="1.89761">
        <ele>406.360008</ele>
        <time>2022-08-07T07:26:34.518Z</time>
      </trkpt>
      <trkpt lat="44.24453" lon="1.89745">
        <ele>405.632045</ele>
        <time>2022-08-07T07:26:36.523Z</time>
      </trkpt>
      <trkpt lat="44.2445" lon="1.89728">
        <ele>404.918289</ele>
        <time>2022-08-07T07:26:38.520Z</time>
      </trkpt>
      <trkpt lat="44.24448" lon="1.89712">
        <ele>404.22116</ele>
        <time>2022-08-07T07:26:40.517Z</time>
      </trkpt>
      <trkpt lat="44.24444" lon="1.89695">
        <ele>403.46216</ele>
        <time>2022-08-07T07:26:42.514Z</time>
      </trkpt>
      <trkpt lat="44.2444" lon="1.89677">
        <ele>402.638349</ele>
        <time>2022-08-07T07:26:44.522Z</time>
      </trkpt>
      <trkpt lat="44.24436" lon="1.89659">
        <ele>401.853635</ele>
        <time>2022-08-07T07:26:46.524Z</time>
      </trkpt>
      <trkpt lat="44.24432" lon="1.8964">
        <ele>400.995345</ele>
        <time>2022-08-07T07:26:48.518Z</time>
      </trkpt>
      <trkpt lat="44.24428" lon="1.8962">
        <ele>400.078735</ele>
        <time>2022-08-07T07:26:50.519Z</time>
      </trkpt>
      <trkpt lat="44.24423" lon="1.89599">
        <ele>399.189535</ele>
        <time>2022-08-07T07:26:52.525Z</time>
      </trkpt>
      <trkpt lat="44.24417" lon="1.89582">
        <ele>398.502058</ele>
        <time>2022-08-07T07:26:54.524Z</time>
      </trkpt>
      <trkpt lat="44.24414" lon="1.89563">
        <ele>397.824978</ele>
        <time>2022-08-07T07:26:56.521Z</time>
      </trkpt>
      <trkpt lat="44.24413" lon="1.89541">
        <ele>397.053489</ele>
        <time>2022-08-07T07:26:58.516Z</time>
      </trkpt>
      <trkpt lat="44.24412" lon="1.89519">
        <ele>396.297052</ele>
        <time>2022-08-07T07:27:00.516Z</time>
      </trkpt>
      <trkpt lat="44.24411" lon="1.89498">
        <ele>395.557446</ele>
        <time>2022-08-07T07:27:02.520Z</time>
      </trkpt>
      <trkpt lat="44.24411" lon="1.89477">
        <ele>394.819013</ele>
        <time>2022-08-07T07:27:04.547Z</time>
      </trkpt>
      <trkpt lat="44.24409" lon="1.89458">
        <ele>394.127794</ele>
        <time>2022-08-07T07:27:06.266Z</time>
      </trkpt>
      <trkpt lat="44.2441" lon="1.89437">
        <ele>393.384371</ele>
        <time>2022-08-07T07:27:08.267Z</time>
      </trkpt>
      <trkpt lat="44.24409" lon="1.89417">
        <ele>392.687166</ele>
        <time>2022-08-07T07:27:10.231Z</time>
      </trkpt>
      <trkpt lat="44.24407" lon="1.89398">
        <ele>392.007052</ele>
        <time>2022-08-07T07:27:12.236Z</time>
      </trkpt>
      <trkpt lat="44.24406" lon="1.89377">
        <ele>391.266421</ele>
        <time>2022-08-07T07:27:14.241Z</time>
      </trkpt>
      <trkpt lat="44.24403" lon="1.89357">
        <ele>390.563054</ele>
        <time>2022-08-07T07:27:16.236Z</time>
      </trkpt>
      <trkpt lat="44.24402" lon="1.89337">
        <ele>391.343561</ele>
        <time>2022-08-07T07:27:18.231Z</time>
      </trkpt>
      <trkpt lat="44.244" lon="1.89317">
        <ele>392.316341</ele>
        <time>2022-08-07T07:27:20.494Z</time>
      </trkpt>
      <trkpt lat="44.24399" lon="1.893">
        <ele>393.124003</ele>
        <time>2022-08-07T07:27:22.500Z</time>
      </trkpt>
      <trkpt lat="44.24398" lon="1.89282">
        <ele>394.012451</ele>
        <time>2022-08-07T07:27:25.498Z</time>
      </trkpt>
      <trkpt lat="44.24399" lon="1.89269">
        <ele>394.620606</ele>
        <time>2022-08-07T07:27:28.502Z</time>
      </trkpt>
      <trkpt lat="44.24408" lon="1.89273">
        <ele>395.241645</ele>
        <time>2022-08-07T07:28:19.499Z</time>
      </trkpt>
      <trkpt lat="44.24416" lon="1.8928">
        <ele>395.881666</ele>
        <time>2022-08-07T07:28:25.499Z</time>
      </trkpt>
      <trkpt lat="44.24423" lon="1.89289">
        <ele>396.546255</ele>
        <time>2022-08-07T07:28:31.496Z</time>
      </trkpt>
      <trkpt lat="44.24429" lon="1.89298">
        <ele>397.156707</ele>
        <time>2022-08-07T07:28:37.495Z</time>
      </trkpt>
      <trkpt lat="44.24437" lon="1.89309">
        <ele>397.880718</ele>
        <time>2022-08-07T07:28:43.499Z</time>
      </trkpt>
      <trkpt lat="44.24446" lon="1.89317">
        <ele>398.615269</ele>
        <time>2022-08-07T07:28:49.494Z</time>
      </trkpt>
      <trkpt lat="44.24454" lon="1.89322">
        <ele>399.230023</ele>
        <time>2022-08-07T07:28:54.501Z</time>
      </trkpt>
      <trkpt lat="44.24464" lon="1.89328">
        <ele>399.924999</ele>
        <time>2022-08-07T07:29:00.496Z</time>
      </trkpt>
      <trkpt lat="44.24473" lon="1.89334">
        <ele>400.572384</ele>
        <time>2022-08-07T07:29:06.498Z</time>
      </trkpt>
      <trkpt lat="44.24483" lon="1.89338">
        <ele>401.288804</ele>
        <time>2022-08-07T07:29:13.499Z</time>
      </trkpt>
      <trkpt lat="44.24491" lon="1.89343">
        <ele>401.91788</ele>
        <time>2022-08-07T07:29:18.501Z</time>
      </trkpt>
      <trkpt lat="44.245" lon="1.89349">
        <ele>402.595894</ele>
        <time>2022-08-07T07:29:23.499Z</time>
      </trkpt>
      <trkpt lat="44.24509" lon="1.89355">
        <ele>403.37158</ele>
        <time>2022-08-07T07:29:28.499Z</time>
      </trkpt>
      <trkpt lat="44.24518" lon="1.8936">
        <ele>404.141446</ele>
        <time>2022-08-07T07:29:33.499Z</time>
      </trkpt>
      <trkpt lat="44.24526" lon="1.89364">
        <ele>404.880391</ele>
        <time>2022-08-07T07:29:38.498Z</time>
      </trkpt>
      <trkpt lat="44.24536" lon="1.89369">
        <ele>405.688253</ele>
        <time>2022-08-07T07:29:43.498Z</time>
      </trkpt>
      <trkpt lat="44.24545" lon="1.89374">
        <ele>406.482755</ele>
        <time>2022-08-07T07:29:48.493Z</time>
      </trkpt>
      <trkpt lat="44.24553" lon="1.8938">
        <ele>407.240169</ele>
        <time>2022-08-07T07:29:53.497Z</time>
      </trkpt>
      <trkpt lat="44.24562" lon="1.89386">
        <ele>408.037031</ele>
        <time>2022-08-07T07:29:58.498Z</time>
      </trkpt>
      <trkpt lat="44.24572" lon="1.89389">
        <ele>408.857444</ele>
        <time>2022-08-07T07:30:03.495Z</time>
      </trkpt>
      <trkpt lat="44.24583" lon="1.89385">
        <ele>409.759357</ele>
        <time>2022-08-07T07:30:09.500Z</time>
      </trkpt>
      <trkpt lat="44.24593" lon="1.89382">
        <ele>410.574324</ele>
        <time>2022-08-07T07:30:14.497Z</time>
      </trkpt>
      <trkpt lat="44.24602" lon="1.89382">
        <ele>411.378006</ele>
        <time>2022-08-07T07:30:19.495Z</time>
      </trkpt>
      <trkpt lat="44.24613" lon="1.89388">
        <ele>412.287573</ele>
        <time>2022-08-07T07:30:24.498Z</time>
      </trkpt>
      <trkpt lat="44.24621" lon="1.89392">
        <ele>413.017287</ele>
        <time>2022-08-07T07:30:29.502Z</time>
      </trkpt>
      <trkpt lat="44.2463" lon="1.894">
        <ele>413.862714</ele>
        <time>2022-08-07T07:30:34.499Z</time>
      </trkpt>
      <trkpt lat="44.2464" lon="1.89408">
        <ele>414.758636</ele>
        <time>2022-08-07T07:30:39.501Z</time>
      </trkpt>
      <trkpt lat="44.2465" lon="1.8941">
        <ele>415.64883</ele>
        <time>2022-08-07T07:30:44.498Z</time>
      </trkpt>
      <trkpt lat="44.24654" lon="1.89397">
        <ele>416.450252</ele>
        <time>2022-08-07T07:30:48.494Z</time>
      </trkpt>
      <trkpt lat="44.24654" lon="1.89383">
        <ele>417.189785</ele>
        <time>2022-08-07T07:30:53.495Z</time>
      </trkpt>
      <trkpt lat="44.24654" lon="1.89371">
        <ele>416.813322</ele>
        <time>2022-08-07T07:30:57.497Z</time>
      </trkpt>
      <trkpt lat="44.24658" lon="1.89358">
        <ele>416.396334</ele>
        <time>2022-08-07T07:31:02.499Z</time>
      </trkpt>
      <trkpt lat="44.24665" lon="1.89349">
        <ele>415.981791</ele>
        <time>2022-08-07T07:31:06.498Z</time>
      </trkpt>
      <trkpt lat="44.24674" lon="1.89338">
        <ele>415.508039</ele>
        <time>2022-08-07T07:31:10.495Z</time>
      </trkpt>
      <trkpt lat="44.24682" lon="1.89329">
        <ele>415.067053</ele>
        <time>2022-08-07T07:31:13.494Z</time>
      </trkpt>
      <trkpt lat="44.24692" lon="1.89318">
        <ele>414.534238</ele>
        <time>2022-08-07T07:31:16.497Z</time>
      </trkpt>
      <trkpt lat="44.24704" lon="1.89308">
        <ele>413.940623</ele>
        <time>2022-08-07T07:31:19.495Z</time>
      </trkpt>
      <trkpt lat="44.24715" lon="1.893">
        <ele>413.415638</ele>
        <time>2022-08-07T07:31:22.498Z</time>
      </trkpt>
      <trkpt lat="44.24724" lon="1.8929">
        <ele>412.948083</ele>
        <time>2022-08-07T07:31:24.498Z</time>
      </trkpt>
      <trkpt lat="44.24733" lon="1.89284">
        <ele>412.540404</ele>
        <time>2022-08-07T07:31:26.499Z</time>
      </trkpt>
      <trkpt lat="44.24741" lon="1.89277">
        <ele>412.123671</ele>
        <time>2022-08-07T07:31:28.495Z</time>
      </trkpt>
      <trkpt lat="44.24752" lon="1.89268">
        <ele>411.608275</ele>
        <time>2022-08-07T07:31:31.493Z</time>
      </trkpt>
      <trkpt lat="44.24761" lon="1.89262">
        <ele>411.18118</ele>
        <time>2022-08-07T07:31:33.499Z</time>
      </trkpt>
      <trkpt lat="44.24769" lon="1.89254">
        <ele>410.775431</ele>
        <time>2022-08-07T07:31:35.497Z</time>
      </trkpt>
      <trkpt lat="44.24778" lon="1.89247">
        <ele>410.326749</ele>
        <time>2022-08-07T07:31:37.499Z</time>
      </trkpt>
      <trkpt lat="44.24788" lon="1.8924">
        <ele>409.855436</ele>
        <time>2022-08-07T07:31:39.497Z</time>
      </trkpt>
      <trkpt lat="44.24799" lon="1.89233">
        <ele>408.74954</ele>
        <time>2022-08-07T07:31:41.498Z</time>
      </trkpt>
      <trkpt lat="44.24809" lon="1.89224">
        <ele>407.238668</ele>
        <time>2022-08-07T07:31:43.512Z</time>
      </trkpt>
      <trkpt lat="44.2482" lon="1.89216">
        <ele>405.737415</ele>
        <time>2022-08-07T07:31:46.498Z</time>
      </trkpt>
      <trkpt lat="44.24832" lon="1.89207">
        <ele>404.02743</ele>
        <time>2022-08-07T07:31:49.495Z</time>
      </trkpt>
      <trkpt lat="44.24841" lon="1.89195">
        <ele>402.536646</ele>
        <time>2022-08-07T07:31:51.509Z</time>
      </trkpt>
      <trkpt lat="44.24849" lon="1.89182">
        <ele>401.005651</ele>
        <time>2022-08-07T07:31:53.498Z</time>
      </trkpt>
      <trkpt lat="44.24857" lon="1.89169">
        <ele>399.438728</ele>
        <time>2022-08-07T07:31:55.495Z</time>
      </trkpt>
      <trkpt lat="44.24866" lon="1.89157">
        <ele>397.887411</ele>
        <time>2022-08-07T07:31:57.506Z</time>
      </trkpt>
      <trkpt lat="44.24876" lon="1.89145">
        <ele>396.317139</ele>
        <time>2022-08-07T07:31:59.499Z</time>
      </trkpt>
      <trkpt lat="44.24887" lon="1.89129">
        <ele>394.28566</ele>
        <time>2022-08-07T07:32:01.497Z</time>
      </trkpt>
      <trkpt lat="44.24899" lon="1.8911">
        <ele>392.048332</ele>
        <time>2022-08-07T07:32:03.498Z</time>
      </trkpt>
      <trkpt lat="44.24908" lon="1.89097">
        <ele>390.400574</ele>
        <time>2022-08-07T07:32:05.506Z</time>
      </trkpt>
      <trkpt lat="44.24917" lon="1.89087">
        <ele>388.984752</ele>
        <time>2022-08-07T07:32:07.502Z</time>
      </trkpt>
      <trkpt lat="44.24926" lon="1.89073">
        <ele>387.283593</ele>
        <time>2022-08-07T07:32:10.504Z</time>
      </trkpt>
      <trkpt lat="44.24932" lon="1.89058">
        <ele>385.984422</ele>
        <time>2022-08-07T07:32:13.497Z</time>
      </trkpt>
      <trkpt lat="44.24939" lon="1.89047">
        <ele>384.838806</ele>
        <time>2022-08-07T07:32:16.499Z</time>
      </trkpt>
      <trkpt lat="44.24946" lon="1.89038">
        <ele>383.823513</ele>
        <time>2022-08-07T07:32:19.497Z</time>
      </trkpt>
      <trkpt lat="44.24954" lon="1.89029">
        <ele>382.769519</ele>
        <time>2022-08-07T07:32:23.501Z</time>
      </trkpt>
      <trkpt lat="44.24962" lon="1.89017">
        <ele>381.531223</ele>
        <time>2022-08-07T07:32:28.496Z</time>
      </trkpt>
      <trkpt lat="44.24963" lon="1.89005">
        <ele>380.553575</ele>
        <time>2022-08-07T07:32:31.502Z</time>
      </trkpt>
      <trkpt lat="44.24956" lon="1.88995">
        <ele>379.5244</ele>
        <time>2022-08-07T07:32:34.495Z</time>
      </trkpt>
      <trkpt lat="44.24963" lon="1.88986">
        <ele>378.540214</ele>
        <time>2022-08-07T07:32:42.499Z</time>
      </trkpt>
      <trkpt lat="44.24974" lon="1.8899">
        <ele>377.367319</ele>
        <time>2022-08-07T07:32:45.497Z</time>
      </trkpt>
      <trkpt lat="44.24984" lon="1.88996">
        <ele>376.177453</ele>
        <time>2022-08-07T07:32:50.499Z</time>
      </trkpt>
      <trkpt lat="44.24991" lon="1.89006">
        <ele>375.086926</ele>
        <time>2022-08-07T07:32:53.498Z</time>
      </trkpt>
      <trkpt lat="44.24998" lon="1.89017">
        <ele>373.919215</ele>
        <time>2022-08-07T07:32:59.498Z</time>
      </trkpt>
      <trkpt lat="44.25001" lon="1.8903">
        <ele>372.932292</ele>
        <time>2022-08-07T07:33:03.499Z</time>
      </trkpt>
      <trkpt lat="44.25" lon="1.89043">
        <ele>371.944463</ele>
        <time>2022-08-07T07:33:05.497Z</time>
      </trkpt>
      <trkpt lat="44.25005" lon="1.89055">
        <ele>370.878349</ele>
        <time>2022-08-07T07:33:11.497Z</time>
      </trkpt>
      <trkpt lat="44.25017" lon="1.89058">
        <ele>369.525277</ele>
        <time>2022-08-07T07:33:15.499Z</time>
      </trkpt>
      <trkpt lat="44.25025" lon="1.89066">
        <ele>368.505656</ele>
        <time>2022-08-07T07:33:17.497Z</time>
      </trkpt>
      <trkpt lat="44.25034" lon="1.8907">
        <ele>368.575404</ele>
        <time>2022-08-07T07:33:22.498Z</time>
      </trkpt>
      <trkpt lat="44.25037" lon="1.89082">
        <ele>369.199605</ele>
        <time>2022-08-07T07:33:28.498Z</time>
      </trkpt>
      <trkpt lat="44.25038" lon="1.89095">
        <ele>369.844424</ele>
        <time>2022-08-07T07:33:34.497Z</time>
      </trkpt>
      <trkpt lat="44.2504" lon="1.89108">
        <ele>370.47856</ele>
        <time>2022-08-07T07:33:41.495Z</time>
      </trkpt>
      <trkpt lat="44.25042" lon="1.89122">
        <ele>371.142833</ele>
        <time>2022-08-07T07:33:46.502Z</time>
      </trkpt>
      <trkpt lat="44.25044" lon="1.89135">
        <ele>371.819128</ele>
        <time>2022-08-07T07:33:51.499Z</time>
      </trkpt>
      <trkpt lat="44.25047" lon="1.89148">
        <ele>372.482493</ele>
        <time>2022-08-07T07:33:57.498Z</time>
      </trkpt>
      <trkpt lat="44.25052" lon="1.89161">
        <ele>373.203891</ele>
        <time>2022-08-07T07:34:02.498Z</time>
      </trkpt>
      <trkpt lat="44.25059" lon="1.89171">
        <ele>373.856713</ele>
        <time>2022-08-07T07:34:08.499Z</time>
      </trkpt>
      <trkpt lat="44.25064" lon="1.89182">
        <ele>374.519636</ele>
        <time>2022-08-07T07:34:16.499Z</time>
      </trkpt>
      <trkpt lat="44.25069" lon="1.89194">
        <ele>375.179013</ele>
        <time>2022-08-07T07:34:23.496Z</time>
      </trkpt>
      <trkpt lat="44.25074" lon="1.89206">
        <ele>375.842642</ele>
        <time>2022-08-07T07:34:32.499Z</time>
      </trkpt>
      <trkpt lat="44.25078" lon="1.89218">
        <ele>376.479012</ele>
        <time>2022-08-07T07:34:41.498Z</time>
      </trkpt>
      <trkpt lat="44.25084" lon="1.89228">
        <ele>377.099119</ele>
        <time>2022-08-07T07:35:00.496Z</time>
      </trkpt>
      <trkpt lat="44.25088" lon="1.89216">
        <ele>377.784133</ele>
        <time>2022-08-07T07:35:53.502Z</time>
      </trkpt>
      <trkpt lat="44.25098" lon="1.89209">
        <ele>378.484816</ele>
        <time>2022-08-07T07:36:00.498Z</time>
      </trkpt>
      <trkpt lat="44.25107" lon="1.89203">
        <ele>379.164668</ele>
        <time>2022-08-07T07:36:07.501Z</time>
      </trkpt>
      <trkpt lat="44.25116" lon="1.89201">
        <ele>379.810318</ele>
        <time>2022-08-07T07:36:10.501Z</time>
      </trkpt>
      <trkpt lat="44.25128" lon="1.89186">
        <ele>380.650201</ele>
        <time>2022-08-07T07:36:13.497Z</time>
      </trkpt>
      <trkpt lat="44.25137" lon="1.89173">
        <ele>381.177437</ele>
        <time>2022-08-07T07:36:16.500Z</time>
      </trkpt>
      <trkpt lat="44.25145" lon="1.89165">
        <ele>381.568838</ele>
        <time>2022-08-07T07:36:19.497Z</time>
      </trkpt>
      <trkpt lat="44.25153" lon="1.89156">
        <ele>382.001741</ele>
        <time>2022-08-07T07:36:24.499Z</time>
      </trkpt>
      <trkpt lat="44.25163" lon="1.89151">
        <ele>382.419223</ele>
        <time>2022-08-07T07:36:29.496Z</time>
      </trkpt>
      <trkpt lat="44.25171" lon="1.89141">
        <ele>382.843841</ele>
        <time>2022-08-07T07:36:33.499Z</time>
      </trkpt>
      <trkpt lat="44.25178" lon="1.89132">
        <ele>383.230104</ele>
        <time>2022-08-07T07:36:40.499Z</time>
      </trkpt>
      <trkpt lat="44.25187" lon="1.89123">
        <ele>383.694146</ele>
        <time>2022-08-07T07:36:44.503Z</time>
      </trkpt>
      <trkpt lat="44.25197" lon="1.89118">
        <ele>384.107904</ele>
        <time>2022-08-07T07:36:48.511Z</time>
      </trkpt>
      <trkpt lat="44.25206" lon="1.8912">
        <ele>384.474525</ele>
        <time>2022-08-07T07:36:53.501Z</time>
      </trkpt>
      <trkpt lat="44.25215" lon="1.89126">
        <ele>384.883936</ele>
        <time>2022-08-07T07:36:58.499Z</time>
      </trkpt>
      <trkpt lat="44.25221" lon="1.89136">
        <ele>385.247482</ele>
        <time>2022-08-07T07:37:02.499Z</time>
      </trkpt>
      <trkpt lat="44.25218" lon="1.89151">
        <ele>385.691894</ele>
        <time>2022-08-07T07:37:06.496Z</time>
      </trkpt>
      <trkpt lat="44.25214" lon="1.89162">
        <ele>386.066881</ele>
        <time>2022-08-07T07:37:09.500Z</time>
      </trkpt>
      <trkpt lat="44.25211" lon="1.89176">
        <ele>386.485165</ele>
        <time>2022-08-07T07:37:13.499Z</time>
      </trkpt>
      <trkpt lat="44.25204" lon="1.8919">
        <ele>386.944924</ele>
        <time>2022-08-07T07:37:17.498Z</time>
      </trkpt>
      <trkpt lat="44.25199" lon="1.89203">
        <ele>387.385491</ele>
        <time>2022-08-07T07:37:19.501Z</time>
      </trkpt>
      <trkpt lat="44.25193" lon="1.89213">
        <ele>387.309718</ele>
        <time>2022-08-07T07:37:21.499Z</time>
      </trkpt>
      <trkpt lat="44.25188" lon="1.89224">
        <ele>386.649171</ele>
        <time>2022-08-07T07:37:24.496Z</time>
      </trkpt>
      <trkpt lat="44.25183" lon="1.89236">
        <ele>385.983051</ele>
        <time>2022-08-07T07:37:28.498Z</time>
      </trkpt>
      <trkpt lat="44.25176" lon="1.89249">
        <ele>385.183185</ele>
        <time>2022-08-07T07:37:32.496Z</time>
      </trkpt>
      <trkpt lat="44.25168" lon="1.89257">
        <ele>384.541803</ele>
        <time>2022-08-07T07:37:34.511Z</time>
      </trkpt>
      <trkpt lat="44.25161" lon="1.89267">
        <ele>383.890031</ele>
        <time>2022-08-07T07:37:36.504Z</time>
      </trkpt>
      <trkpt lat="44.25154" lon="1.89277">
        <ele>383.199605</ele>
        <time>2022-08-07T07:37:38.502Z</time>
      </trkpt>
      <trkpt lat="44.25146" lon="1.89287">
        <ele>382.455322</ele>
        <time>2022-08-07T07:37:40.507Z</time>
      </trkpt>
      <trkpt lat="44.25136" lon="1.89299">
        <ele>381.555631</ele>
        <time>2022-08-07T07:37:42.508Z</time>
      </trkpt>
      <trkpt lat="44.25127" lon="1.89313">
        <ele>380.608477</ele>
        <time>2022-08-07T07:37:44.503Z</time>
      </trkpt>
      <trkpt lat="44.25121" lon="1.89329">
        <ele>379.77618</ele>
        <time>2022-08-07T07:37:46.500Z</time>
      </trkpt>
      <trkpt lat="44.25118" lon="1.89345">
        <ele>378.962517</ele>
        <time>2022-08-07T07:37:48.501Z</time>
      </trkpt>
      <trkpt lat="44.25117" lon="1.89365">
        <ele>377.991411</ele>
        <time>2022-08-07T07:37:50.498Z</time>
      </trkpt>
      <trkpt lat="44.25119" lon="1.89385">
        <ele>377.014232</ele>
        <time>2022-08-07T07:37:52.503Z</time>
      </trkpt>
      <trkpt lat="44.25121" lon="1.89407">
        <ele>375.923473</ele>
        <time>2022-08-07T07:37:54.500Z</time>
      </trkpt>
      <trkpt lat="44.25123" lon="1.89419">
        <ele>375.350765</ele>
        <time>2022-08-07T07:37:55.506Z</time>
      </trkpt>
      <trkpt lat="44.25128" lon="1.89441">
        <ele>374.918187</ele>
        <time>2022-08-07T07:37:57.496Z</time>
      </trkpt>
      <trkpt lat="44.25131" lon="1.89454">
        <ele>374.670991</ele>
        <time>2022-08-07T07:37:58.499Z</time>
      </trkpt>
      <trkpt lat="44.25134" lon="1.89465">
        <ele>374.431755</ele>
        <time>2022-08-07T07:37:59.501Z</time>
      </trkpt>
      <trkpt lat="44.25142" lon="1.89484">
        <ele>374.025782</ele>
        <time>2022-08-07T07:38:01.494Z</time>
      </trkpt>
      <trkpt lat="44.25146" lon="1.89499">
        <ele>373.73797</ele>
        <time>2022-08-07T07:38:03.503Z</time>
      </trkpt>
      <trkpt lat="44.2515" lon="1.8951">
        <ele>373.49563</ele>
        <time>2022-08-07T07:38:05.495Z</time>
      </trkpt>
      <trkpt lat="44.25156" lon="1.89523">
        <ele>373.210908</ele>
        <time>2022-08-07T07:38:08.497Z</time>
      </trkpt>
      <trkpt lat="44.25165" lon="1.89531">
        <ele>372.911166</ele>
        <time>2022-08-07T07:38:10.495Z</time>
      </trkpt>
      <trkpt lat="44.25173" lon="1.89538">
        <ele>372.663239</ele>
        <time>2022-08-07T07:38:12.514Z</time>
      </trkpt>
      <trkpt lat="44.25181" lon="1.8955">
        <ele>372.363356</ele>
        <time>2022-08-07T07:38:14.503Z</time>
      </trkpt>
      <trkpt lat="44.25188" lon="1.89565">
        <ele>372.025286</ele>
        <time>2022-08-07T07:38:17.503Z</time>
      </trkpt>
      <trkpt lat="44.25191" lon="1.8958">
        <ele>371.737442</ele>
        <time>2022-08-07T07:38:20.506Z</time>
      </trkpt>
      <trkpt lat="44.25193" lon="1.89596">
        <ele>371.421506</ele>
        <time>2022-08-07T07:38:23.502Z</time>
      </trkpt>
      <trkpt lat="44.25197" lon="1.89612">
        <ele>371.107594</ele>
        <time>2022-08-07T07:38:26.496Z</time>
      </trkpt>
      <trkpt lat="44.25202" lon="1.89626">
        <ele>370.815653</ele>
        <time>2022-08-07T07:38:29.501Z</time>
      </trkpt>
      <trkpt lat="44.25203" lon="1.89639">
        <ele>370.715038</ele>
        <time>2022-08-07T07:38:32.501Z</time>
      </trkpt>
      <trkpt lat="44.25208" lon="1.89652">
        <ele>370.902846</ele>
        <time>2022-08-07T07:38:35.502Z</time>
      </trkpt>
      <trkpt lat="44.25215" lon="1.89665">
        <ele>371.098592</ele>
        <time>2022-08-07T07:38:39.494Z</time>
      </trkpt>
      <trkpt lat="44.25224" lon="1.89676">
        <ele>371.313561</ele>
        <time>2022-08-07T07:38:42.501Z</time>
      </trkpt>
      <trkpt lat="44.25232" lon="1.89684">
        <ele>371.478998</ele>
        <time>2022-08-07T07:38:44.497Z</time>
      </trkpt>
      <trkpt lat="44.25242" lon="1.89688">
        <ele>371.671531</ele>
        <time>2022-08-07T07:38:47.498Z</time>
      </trkpt>
      <trkpt lat="44.25251" lon="1.89692">
        <ele>371.839921</ele>
        <time>2022-08-07T07:38:51.501Z</time>
      </trkpt>
      <trkpt lat="44.25263" lon="1.89695">
        <ele>372.055573</ele>
        <time>2022-08-07T07:38:56.498Z</time>
      </trkpt>
      <trkpt lat="44.25273" lon="1.89699">
        <ele>372.235118</ele>
        <time>2022-08-07T07:38:59.502Z</time>
      </trkpt>
      <trkpt lat="44.25281" lon="1.89706">
        <ele>372.406001</ele>
        <time>2022-08-07T07:39:02.491Z</time>
      </trkpt>
      <trkpt lat="44.25289" lon="1.89715">
        <ele>372.58809</ele>
        <time>2022-08-07T07:39:06.497Z</time>
      </trkpt>
      <trkpt lat="44.25298" lon="1.89724">
        <ele>372.774531</ele>
        <time>2022-08-07T07:39:09.497Z</time>
      </trkpt>
      <trkpt lat="44.25308" lon="1.89732">
        <ele>372.983377</ele>
        <time>2022-08-07T07:39:13.501Z</time>
      </trkpt>
      <trkpt lat="44.25319" lon="1.89735">
        <ele>373.18488</ele>
        <time>2022-08-07T07:39:17.497Z</time>
      </trkpt>
      <trkpt lat="44.2533" lon="1.89733">
        <ele>373.384039</ele>
        <time>2022-08-07T07:39:21.499Z</time>
      </trkpt>
      <trkpt lat="44.2534" lon="1.8974">
        <ele>373.574466</ele>
        <time>2022-08-07T07:39:26.500Z</time>
      </trkpt>
      <trkpt lat="44.25348" lon="1.89748">
        <ele>373.740577</ele>
        <time>2022-08-07T07:39:30.502Z</time>
      </trkpt>
      <trkpt lat="44.25357" lon="1.89752">
        <ele>373.903635</ele>
        <time>2022-08-07T07:39:34.502Z</time>
      </trkpt>
      <trkpt lat="44.25368" lon="1.8976">
        <ele>374.079387</ele>
        <time>2022-08-07T07:39:38.503Z</time>
      </trkpt>
      <trkpt lat="44.25374" lon="1.89771">
        <ele>374.224753</ele>
        <time>2022-08-07T07:39:41.499Z</time>
      </trkpt>
      <trkpt lat="44.25383" lon="1.89781">
        <ele>374.387337</ele>
        <time>2022-08-07T07:39:45.503Z</time>
      </trkpt>
      <trkpt lat="44.25392" lon="1.89792">
        <ele>374.562831</ele>
        <time>2022-08-07T07:39:49.503Z</time>
      </trkpt>
      <trkpt lat="44.25398" lon="1.89805">
        <ele>374.729995</ele>
        <time>2022-08-07T07:39:52.501Z</time>
      </trkpt>
      <trkpt lat="44.25404" lon="1.89815">
        <ele>374.860458</ele>
        <time>2022-08-07T07:39:55.497Z</time>
      </trkpt>
      <trkpt lat="44.25413" lon="1.89824">
        <ele>375.024568</ele>
        <time>2022-08-07T07:39:59.504Z</time>
      </trkpt>
      <trkpt lat="44.25422" lon="1.89832">
        <ele>375.17545</ele>
        <time>2022-08-07T07:40:04.496Z</time>
      </trkpt>
      <trkpt lat="44.25429" lon="1.89841">
        <ele>375.32308</ele>
        <time>2022-08-07T07:40:08.502Z</time>
      </trkpt>
      <trkpt lat="44.25435" lon="1.89852">
        <ele>375.466289</ele>
        <time>2022-08-07T07:40:12.503Z</time>
      </trkpt>
      <trkpt lat="44.25442" lon="1.89864">
        <ele>375.619241</ele>
        <time>2022-08-07T07:40:16.499Z</time>
      </trkpt>
      <trkpt lat="44.2545" lon="1.89875">
        <ele>375.781481</ele>
        <time>2022-08-07T07:40:20.499Z</time>
      </trkpt>
      <trkpt lat="44.25454" lon="1.89886">
        <ele>375.91386</ele>
        <time>2022-08-07T07:40:23.503Z</time>
      </trkpt>
      <trkpt lat="44.25459" lon="1.899">
        <ele>376.078695</ele>
        <time>2022-08-07T07:40:27.502Z</time>
      </trkpt>
      <trkpt lat="44.25464" lon="1.89916">
        <ele>376.256055</ele>
        <time>2022-08-07T07:40:31.502Z</time>
      </trkpt>
      <trkpt lat="44.25467" lon="1.8993">
        <ele>376.415541</ele>
        <time>2022-08-07T07:40:35.503Z</time>
      </trkpt>
      <trkpt lat="44.2547" lon="1.89943">
        <ele>376.478457</ele>
        <time>2022-08-07T07:40:38.501Z</time>
      </trkpt>
      <trkpt lat="44.25474" lon="1.89955">
        <ele>376.511214</ele>
        <time>2022-08-07T07:40:42.501Z</time>
      </trkpt>
      <trkpt lat="44.25479" lon="1.89968">
        <ele>376.549595</ele>
        <time>2022-08-07T07:40:46.500Z</time>
      </trkpt>
      <trkpt lat="44.25488" lon="1.89977">
        <ele>376.590635</ele>
        <time>2022-08-07T07:40:50.499Z</time>
      </trkpt>
      <trkpt lat="44.25496" lon="1.89984">
        <ele>376.624312</ele>
        <time>2022-08-07T07:40:53.508Z</time>
      </trkpt>
      <trkpt lat="44.25505" lon="1.89993">
        <ele>376.663246</ele>
        <time>2022-08-07T07:40:58.500Z</time>
      </trkpt>
      <trkpt lat="44.25513" lon="1.90004">
        <ele>376.702747</ele>
        <time>2022-08-07T07:41:01.504Z</time>
      </trkpt>
      <trkpt lat="44.25519" lon="1.90013">
        <ele>376.735605</ele>
        <time>2022-08-07T07:41:04.503Z</time>
      </trkpt>
      <trkpt lat="44.25527" lon="1.9002">
        <ele>376.769283</ele>
        <time>2022-08-07T07:41:07.511Z</time>
      </trkpt>
      <trkpt lat="44.25536" lon="1.90028">
        <ele>376.806184</ele>
        <time>2022-08-07T07:41:10.503Z</time>
      </trkpt>
      <trkpt lat="44.25542" lon="1.90038">
        <ele>376.841395</ele>
        <time>2022-08-07T07:41:13.504Z</time>
      </trkpt>
      <trkpt lat="44.25552" lon="1.90046">
        <ele>376.881205</ele>
        <time>2022-08-07T07:41:17.507Z</time>
      </trkpt>
      <trkpt lat="44.2556" lon="1.90055">
        <ele>376.917313</ele>
        <time>2022-08-07T07:41:20.505Z</time>
      </trkpt>
      <trkpt lat="44.25567" lon="1.90069">
        <ele>376.96191</ele>
        <time>2022-08-07T07:41:23.501Z</time>
      </trkpt>
      <trkpt lat="44.25571" lon="1.90084">
        <ele>377.003556</ele>
        <time>2022-08-07T07:41:26.504Z</time>
      </trkpt>
      <trkpt lat="44.25576" lon="1.90097">
        <ele>377.041438</ele>
        <time>2022-08-07T07:41:29.504Z</time>
      </trkpt>
      <trkpt lat="44.2558" lon="1.90112">
        <ele>377.081565</ele>
        <time>2022-08-07T07:41:33.501Z</time>
      </trkpt>
      <trkpt lat="44.25583" lon="1.90126">
        <ele>377.396499</ele>
        <time>2022-08-07T07:41:37.504Z</time>
      </trkpt>
      <trkpt lat="44.25585" lon="1.90139">
        <ele>377.898798</ele>
        <time>2022-08-07T07:41:40.498Z</time>
      </trkpt>
      <trkpt lat="44.25586" lon="1.90152">
        <ele>378.40444</ele>
        <time>2022-08-07T07:41:43.499Z</time>
      </trkpt>
      <trkpt lat="44.25587" lon="1.90167">
        <ele>378.97817</ele>
        <time>2022-08-07T07:41:46.500Z</time>
      </trkpt>
      <trkpt lat="44.25592" lon="1.90182">
        <ele>379.607738</ele>
        <time>2022-08-07T07:41:50.502Z</time>
      </trkpt>
      <trkpt lat="44.25596" lon="1.90194">
        <ele>380.097045</ele>
        <time>2022-08-07T07:41:53.504Z</time>
      </trkpt>
      <trkpt lat="44.25602" lon="1.90205">
        <ele>380.662065</ele>
        <time>2022-08-07T07:41:57.502Z</time>
      </trkpt>
      <trkpt lat="44.2561" lon="1.90216">
        <ele>381.223961</ele>
        <time>2022-08-07T07:42:01.505Z</time>
      </trkpt>
      <trkpt lat="44.25618" lon="1.90226">
        <ele>381.813291</ele>
        <time>2022-08-07T07:42:05.500Z</time>
      </trkpt>
      <trkpt lat="44.25628" lon="1.90234">
        <ele>382.397143</ele>
        <time>2022-08-07T07:42:09.502Z</time>
      </trkpt>
      <trkpt lat="44.25635" lon="1.90243">
        <ele>382.910917</ele>
        <time>2022-08-07T07:42:14.502Z</time>
      </trkpt>
      <trkpt lat="44.25641" lon="1.90253">
        <ele>383.408187</ele>
        <time>2022-08-07T07:42:18.503Z</time>
      </trkpt>
      <trkpt lat="44.25648" lon="1.90264">
        <ele>383.938918</ele>
        <time>2022-08-07T07:42:22.501Z</time>
      </trkpt>
      <trkpt lat="44.25654" lon="1.90276">
        <ele>384.51258</ele>
        <time>2022-08-07T07:42:26.503Z</time>
      </trkpt>
      <trkpt lat="44.25657" lon="1.90292">
        <ele>385.13239</ele>
        <time>2022-08-07T07:42:30.496Z</time>
      </trkpt>
      <trkpt lat="44.25661" lon="1.90306">
        <ele>385.742762</ele>
        <time>2022-08-07T07:42:33.509Z</time>
      </trkpt>
      <trkpt lat="44.25667" lon="1.90319">
        <ele>386.304051</ele>
        <time>2022-08-07T07:42:36.503Z</time>
      </trkpt>
      <trkpt lat="44.25677" lon="1.9032">
        <ele>386.860682</ele>
        <time>2022-08-07T07:42:41.506Z</time>
      </trkpt>
      <trkpt lat="44.25686" lon="1.90321">
        <ele>387.557681</ele>
        <time>2022-08-07T07:42:48.504Z</time>
      </trkpt>
      <trkpt lat="44.25696" lon="1.90322">
        <ele>388.246549</ele>
        <time>2022-08-07T07:42:54.499Z</time>
      </trkpt>
      <trkpt lat="44.25707" lon="1.9032">
        <ele>388.997827</ele>
        <time>2022-08-07T07:43:01.502Z</time>
      </trkpt>
      <trkpt lat="44.25716" lon="1.90322">
        <ele>389.650133</ele>
        <time>2022-08-07T07:43:10.503Z</time>
      </trkpt>
      <trkpt lat="44.25725" lon="1.90321">
        <ele>390.32456</ele>
        <time>2022-08-07T07:43:18.499Z</time>
      </trkpt>
      <trkpt lat="44.25734" lon="1.90314">
        <ele>391.043403</ele>
        <time>2022-08-07T07:43:26.504Z</time>
      </trkpt>
      <trkpt lat="44.25739" lon="1.90303">
        <ele>391.724579</ele>
        <time>2022-08-07T07:43:32.499Z</time>
      </trkpt>
      <trkpt lat="44.25747" lon="1.90294">
        <ele>392.425673</ele>
        <time>2022-08-07T07:43:39.498Z</time>
      </trkpt>
      <trkpt lat="44.25755" lon="1.90285">
        <ele>393.136604</ele>
        <time>2022-08-07T07:43:44.502Z</time>
      </trkpt>
      <trkpt lat="44.25764" lon="1.90281">
        <ele>393.818224</ele>
        <time>2022-08-07T07:43:49.498Z</time>
      </trkpt>
      <trkpt lat="44.25773" lon="1.90273">
        <ele>394.576871</ele>
        <time>2022-08-07T07:43:53.515Z</time>
      </trkpt>
      <trkpt lat="44.2578" lon="1.90264">
        <ele>395.235576</ele>
        <time>2022-08-07T07:43:59.501Z</time>
      </trkpt>
      <trkpt lat="44.25786" lon="1.90255">
        <ele>395.884996</ele>
        <time>2022-08-07T07:44:04.503Z</time>
      </trkpt>
      <trkpt lat="44.25792" lon="1.90244">
        <ele>396.615134</ele>
        <time>2022-08-07T07:44:10.502Z</time>
      </trkpt>
      <trkpt lat="44.258" lon="1.90234">
        <ele>397.337336</ele>
        <time>2022-08-07T07:44:16.502Z</time>
      </trkpt>
      <trkpt lat="44.25807" lon="1.90224">
        <ele>398.083148</ele>
        <time>2022-08-07T07:44:21.501Z</time>
      </trkpt>
      <trkpt lat="44.25815" lon="1.90216">
        <ele>398.752252</ele>
        <time>2022-08-07T07:44:26.503Z</time>
      </trkpt>
      <trkpt lat="44.25822" lon="1.90205">
        <ele>399.501677</ele>
        <time>2022-08-07T07:44:31.502Z</time>
      </trkpt>
      <trkpt lat="44.25828" lon="1.90196">
        <ele>400.23657</ele>
        <time>2022-08-07T07:44:35.503Z</time>
      </trkpt>
      <trkpt lat="44.25837" lon="1.90188">
        <ele>401.086374</ele>
        <time>2022-08-07T07:44:40.505Z</time>
      </trkpt>
      <trkpt lat="44.25848" lon="1.90188">
        <ele>401.944854</ele>
        <time>2022-08-07T07:44:45.510Z</time>
      </trkpt>
      <trkpt lat="44.25854" lon="1.90199">
        <ele>402.782085</ele>
        <time>2022-08-07T07:44:50.501Z</time>
      </trkpt>
      <trkpt lat="44.25857" lon="1.90212">
        <ele>403.536762</ele>
        <time>2022-08-07T07:44:55.509Z</time>
      </trkpt>
      <trkpt lat="44.25858" lon="1.90226">
        <ele>404.354577</ele>
        <time>2022-08-07T07:45:01.503Z</time>
      </trkpt>
      <trkpt lat="44.25858" lon="1.90239">
        <ele>405.108328</ele>
        <time>2022-08-07T07:45:06.505Z</time>
      </trkpt>
      <trkpt lat="44.25858" lon="1.90253">
        <ele>405.924371</ele>
        <time>2022-08-07T07:45:12.504Z</time>
      </trkpt>
      <trkpt lat="44.2586" lon="1.90268">
        <ele>406.775709</ele>
        <time>2022-08-07T07:45:18.502Z</time>
      </trkpt>
      <trkpt lat="44.25861" lon="1.90282">
        <ele>407.597965</ele>
        <time>2022-08-07T07:45:25.508Z</time>
      </trkpt>
      <trkpt lat="44.25858" lon="1.90296">
        <ele>408.41584</ele>
        <time>2022-08-07T07:45:32.508Z</time>
      </trkpt>
      <trkpt lat="44.25859" lon="1.90309">
        <ele>409.198732</ele>
        <time>2022-08-07T07:45:40.505Z</time>
      </trkpt>
      <trkpt lat="44.25863" lon="1.9032">
        <ele>409.935573</ele>
        <time>2022-08-07T07:45:46.508Z</time>
      </trkpt>
      <trkpt lat="44.25869" lon="1.90332">
        <ele>410.715829</ele>
        <time>2022-08-07T07:45:52.502Z</time>
      </trkpt>
      <trkpt lat="44.25877" lon="1.90338">
        <ele>411.456598</ele>
        <time>2022-08-07T07:45:58.505Z</time>
      </trkpt>
      <trkpt lat="44.25885" lon="1.90346">
        <ele>412.27896</ele>
        <time>2022-08-07T07:46:04.509Z</time>
      </trkpt>
      <trkpt lat="44.25892" lon="1.90356">
        <ele>413.071251</ele>
        <time>2022-08-07T07:46:08.503Z</time>
      </trkpt>
      <trkpt lat="44.259" lon="1.90368">
        <ele>413.807414</ele>
        <time>2022-08-07T07:46:12.503Z</time>
      </trkpt>
      <trkpt lat="44.25906" lon="1.90378">
        <ele>413.830803</ele>
        <time>2022-08-07T07:46:15.502Z</time>
      </trkpt>
      <trkpt lat="44.25913" lon="1.90391">
        <ele>413.861176</ele>
        <time>2022-08-07T07:46:19.500Z</time>
      </trkpt>
      <trkpt lat="44.25918" lon="1.90406">
        <ele>413.890396</ele>
        <time>2022-08-07T07:46:22.504Z</time>
      </trkpt>
      <trkpt lat="44.25922" lon="1.90424">
        <ele>413.923218</ele>
        <time>2022-08-07T07:46:25.503Z</time>
      </trkpt>
      <trkpt lat="44.25923" lon="1.90439">
        <ele>413.950425</ele>
        <time>2022-08-07T07:46:27.502Z</time>
      </trkpt>
      <trkpt lat="44.25926" lon="1.90452">
        <ele>413.975146</ele>
        <time>2022-08-07T07:46:29.501Z</time>
      </trkpt>
      <trkpt lat="44.25926" lon="1.90466">
        <ele>413.999435</ele>
        <time>2022-08-07T07:46:31.500Z</time>
      </trkpt>
      <trkpt lat="44.25931" lon="1.90483">
        <ele>414.031816</ele>
        <time>2022-08-07T07:46:33.504Z</time>
      </trkpt>
      <trkpt lat="44.25934" lon="1.90495">
        <ele>414.055689</ele>
        <time>2022-08-07T07:46:35.505Z</time>
      </trkpt>
      <trkpt lat="44.25938" lon="1.90511">
        <ele>414.085855</ele>
        <time>2022-08-07T07:46:37.503Z</time>
      </trkpt>
      <trkpt lat="44.25941" lon="1.90527">
        <ele>414.115166</ele>
        <time>2022-08-07T07:46:39.510Z</time>
      </trkpt>
      <trkpt lat="44.25942" lon="1.90544">
        <ele>414.145685</ele>
        <time>2022-08-07T07:46:42.504Z</time>
      </trkpt>
      <trkpt lat="44.25944" lon="1.90557">
        <ele>414.169153</ele>
        <time>2022-08-07T07:46:44.509Z</time>
      </trkpt>
      <trkpt lat="44.25944" lon="1.90572">
        <ele>414.195751</ele>
        <time>2022-08-07T07:46:47.504Z</time>
      </trkpt>
      <trkpt lat="44.25945" lon="1.90586">
        <ele>414.22107</ele>
        <time>2022-08-07T07:46:50.515Z</time>
      </trkpt>
      <trkpt lat="44.25945" lon="1.906">
        <ele>414.246423</ele>
        <time>2022-08-07T07:46:53.503Z</time>
      </trkpt>
      <trkpt lat="44.25947" lon="1.90616">
        <ele>414.163719</ele>
        <time>2022-08-07T07:46:56.506Z</time>
      </trkpt>
      <trkpt lat="44.2595" lon="1.90632">
        <ele>414.05904</ele>
        <time>2022-08-07T07:46:59.496Z</time>
      </trkpt>
      <trkpt lat="44.25954" lon="1.90646">
        <ele>413.961065</ele>
        <time>2022-08-07T07:47:02.506Z</time>
      </trkpt>
      <trkpt lat="44.25961" lon="1.90654">
        <ele>413.880042</ele>
        <time>2022-08-07T07:47:05.502Z</time>
      </trkpt>
      <trkpt lat="44.25972" lon="1.90658">
        <ele>413.779437</ele>
        <time>2022-08-07T07:47:09.502Z</time>
      </trkpt>
      <trkpt lat="44.25981" lon="1.9066">
        <ele>413.698184</ele>
        <time>2022-08-07T07:47:28.502Z</time>
      </trkpt>
      <trkpt lat="44.25991" lon="1.90661">
        <ele>413.605239</ele>
        <time>2022-08-07T07:55:58.501Z</time>
      </trkpt>
      <trkpt lat="44.26001" lon="1.90663">
        <ele>413.519659</ele>
        <time>2022-08-07T07:56:03.502Z</time>
      </trkpt>
      <trkpt lat="44.2601" lon="1.90672">
        <ele>413.419971</ele>
        <time>2022-08-07T07:56:07.724Z</time>
      </trkpt>
      <trkpt lat="44.26017" lon="1.90684">
        <ele>413.323754</ele>
        <time>2022-08-07T07:56:10.502Z</time>
      </trkpt>
      <trkpt lat="44.26026" lon="1.90694">
        <ele>413.215776</ele>
        <time>2022-08-07T07:56:13.499Z</time>
      </trkpt>
      <trkpt lat="44.26033" lon="1.90703">
        <ele>413.133013</ele>
        <time>2022-08-07T07:56:16.498Z</time>
      </trkpt>
      <trkpt lat="44.26035" lon="1.90716">
        <ele>413.051343</ele>
        <time>2022-08-07T07:56:20.500Z</time>
      </trkpt>
      <trkpt lat="44.26024" lon="1.90722">
        <ele>412.945848</ele>
        <time>2022-08-07T07:56:22.496Z</time>
      </trkpt>
      <trkpt lat="44.26016" lon="1.90731">
        <ele>412.852149</ele>
        <time>2022-08-07T07:56:25.501Z</time>
      </trkpt>
      <trkpt lat="44.26008" lon="1.90743">
        <ele>412.745569</ele>
        <time>2022-08-07T07:56:28.501Z</time>
      </trkpt>
      <trkpt lat="44.25997" lon="1.90752">
        <ele>412.582892</ele>
        <time>2022-08-07T07:56:31.502Z</time>
      </trkpt>
      <trkpt lat="44.25987" lon="1.90758">
        <ele>411.824203</ele>
        <time>2022-08-07T07:56:35.508Z</time>
      </trkpt>
      <trkpt lat="44.25978" lon="1.90764">
        <ele>411.135254</ele>
        <time>2022-08-07T07:56:38.498Z</time>
      </trkpt>
      <trkpt lat="44.25967" lon="1.90769">
        <ele>410.369939</ele>
        <time>2022-08-07T07:56:41.501Z</time>
      </trkpt>
      <trkpt lat="44.25954" lon="1.90768">
        <ele>409.486455</ele>
        <time>2022-08-07T07:56:44.498Z</time>
      </trkpt>
      <trkpt lat="44.25945" lon="1.9076">
        <ele>408.723227</ele>
        <time>2022-08-07T07:56:46.501Z</time>
      </trkpt>
      <trkpt lat="44.25934" lon="1.90754">
        <ele>407.94804</ele>
        <time>2022-08-07T07:56:48.498Z</time>
      </trkpt>
      <trkpt lat="44.25923" lon="1.90746">
        <ele>407.104643</ele>
        <time>2022-08-07T07:56:50.500Z</time>
      </trkpt>
      <trkpt lat="44.2591" lon="1.90743">
        <ele>406.208442</ele>
        <time>2022-08-07T07:56:52.504Z</time>
      </trkpt>
      <trkpt lat="44.25898" lon="1.90743">
        <ele>405.339739</ele>
        <time>2022-08-07T07:56:54.507Z</time>
      </trkpt>
      <trkpt lat="44.25889" lon="1.90749">
        <ele>404.676187</ele>
        <time>2022-08-07T07:56:56.504Z</time>
      </trkpt>
      <trkpt lat="44.25882" lon="1.90761">
        <ele>403.907204</ele>
        <time>2022-08-07T07:56:59.499Z</time>
      </trkpt>
      <trkpt lat="44.25875" lon="1.90772">
        <ele>403.204457</ele>
        <time>2022-08-07T07:57:03.502Z</time>
      </trkpt>
      <trkpt lat="44.25867" lon="1.90782">
        <ele>402.456513</ele>
        <time>2022-08-07T07:57:07.498Z</time>
      </trkpt>
      <trkpt lat="44.2586" lon="1.90792">
        <ele>401.766639</ele>
        <time>2022-08-07T07:57:13.503Z</time>
      </trkpt>
      <trkpt lat="44.25852" lon="1.90801">
        <ele>401.084894</ele>
        <time>2022-08-07T07:57:17.503Z</time>
      </trkpt>
      <trkpt lat="44.25843" lon="1.9081">
        <ele>400.342297</ele>
        <time>2022-08-07T07:57:21.494Z</time>
      </trkpt>
      <trkpt lat="44.25835" lon="1.90818">
        <ele>400.70971</ele>
        <time>2022-08-07T07:57:25.504Z</time>
      </trkpt>
      <trkpt lat="44.25828" lon="1.90826">
        <ele>401.054771</ele>
        <time>2022-08-07T07:57:28.497Z</time>
      </trkpt>
      <trkpt lat="44.25821" lon="1.90834">
        <ele>401.394878</ele>
        <time>2022-08-07T07:57:31.505Z</time>
      </trkpt>
      <trkpt lat="44.2581" lon="1.90841">
        <ele>401.834445</ele>
        <time>2022-08-07T07:57:35.499Z</time>
      </trkpt>
      <trkpt lat="44.25802" lon="1.90851">
        <ele>402.199178</ele>
        <time>2022-08-07T07:57:38.501Z</time>
      </trkpt>
      <trkpt lat="44.25795" lon="1.9086">
        <ele>402.572954</ele>
        <time>2022-08-07T07:57:41.497Z</time>
      </trkpt>
      <trkpt lat="44.25787" lon="1.9087">
        <ele>402.954805</ele>
        <time>2022-08-07T07:57:44.504Z</time>
      </trkpt>
      <trkpt lat="44.25778" lon="1.90879">
        <ele>403.367394</ele>
        <time>2022-08-07T07:57:48.500Z</time>
      </trkpt>
      <trkpt lat="44.25768" lon="1.90887">
        <ele>403.78434</ele>
        <time>2022-08-07T07:57:52.499Z</time>
      </trkpt>
      <trkpt lat="44.25759" lon="1.90891">
        <ele>404.14238</ele>
        <time>2022-08-07T07:57:55.589Z</time>
      </trkpt>
      <trkpt lat="44.25749" lon="1.90893">
        <ele>404.515054</ele>
        <time>2022-08-07T07:57:59.504Z</time>
      </trkpt>
      <trkpt lat="44.25739" lon="1.90892">
        <ele>404.86286</ele>
        <time>2022-08-07T07:58:03.501Z</time>
      </trkpt>
      <trkpt lat="44.2573" lon="1.90895">
        <ele>405.213784</ele>
        <time>2022-08-07T07:58:07.505Z</time>
      </trkpt>
      <trkpt lat="44.25721" lon="1.90902">
        <ele>405.592171</ele>
        <time>2022-08-07T07:58:13.503Z</time>
      </trkpt>
      <trkpt lat="44.25713" lon="1.9091">
        <ele>405.956599</ele>
        <time>2022-08-07T07:58:19.497Z</time>
      </trkpt>
      <trkpt lat="44.25707" lon="1.9092">
        <ele>406.295252</ele>
        <time>2022-08-07T07:58:32.498Z</time>
      </trkpt>
      <trkpt lat="44.25698" lon="1.90927">
        <ele>406.657707</ele>
        <time>2022-08-07T07:58:43.501Z</time>
      </trkpt>
      <trkpt lat="44.25691" lon="1.90936">
        <ele>407.152388</ele>
        <time>2022-08-07T07:58:50.504Z</time>
      </trkpt>
      <trkpt lat="44.25686" lon="1.90946">
        <ele>408.249957</ele>
        <time>2022-08-07T07:59:04.498Z</time>
      </trkpt>
      <trkpt lat="44.2568" lon="1.90956">
        <ele>409.359967</ele>
        <time>2022-08-07T07:59:10.503Z</time>
      </trkpt>
      <trkpt lat="44.25673" lon="1.90966">
        <ele>410.630885</ele>
        <time>2022-08-07T07:59:16.499Z</time>
      </trkpt>
      <trkpt lat="44.25664" lon="1.90974">
        <ele>411.911074</ele>
        <time>2022-08-07T07:59:22.497Z</time>
      </trkpt>
      <trkpt lat="44.25656" lon="1.90982">
        <ele>413.097231</ele>
        <time>2022-08-07T07:59:29.503Z</time>
      </trkpt>
      <trkpt lat="44.25648" lon="1.90989">
        <ele>414.27154</ele>
        <time>2022-08-07T07:59:38.161Z</time>
      </trkpt>
      <trkpt lat="44.25642" lon="1.90999">
        <ele>415.379268</ele>
        <time>2022-08-07T07:59:52.156Z</time>
      </trkpt>
      <trkpt lat="44.25636" lon="1.91009">
        <ele>416.481902</ele>
        <time>2022-08-07T08:00:07.185Z</time>
      </trkpt>
      <trkpt lat="44.25627" lon="1.91028">
        <ele>418.468148</ele>
        <time>2022-08-07T08:02:02.158Z</time>
      </trkpt>
      <trkpt lat="44.25621" lon="1.91039">
        <ele>419.670384</ele>
        <time>2022-08-07T08:02:14.147Z</time>
      </trkpt>
      <trkpt lat="44.25618" lon="1.91052">
        <ele>420.846296</ele>
        <time>2022-08-07T08:02:20.163Z</time>
      </trkpt>
      <trkpt lat="44.25614" lon="1.91064">
        <ele>422.02074</ele>
        <time>2022-08-07T08:02:29.155Z</time>
      </trkpt>
      <trkpt lat="44.25611" lon="1.91076">
        <ele>423.121646</ele>
        <time>2022-08-07T08:02:43.155Z</time>
      </trkpt>
      <trkpt lat="44.25608" lon="1.91088">
        <ele>424.222553</ele>
        <time>2022-08-07T08:02:56.163Z</time>
      </trkpt>
      <trkpt lat="44.25605" lon="1.91101">
        <ele>425.395202</ele>
        <time>2022-08-07T08:03:17.186Z</time>
      </trkpt>
      <trkpt lat="44.25605" lon="1.91114">
        <ele>426.510428</ele>
        <time>2022-08-07T08:03:25.158Z</time>
      </trkpt>
      <trkpt lat="44.25601" lon="1.91127">
        <ele>427.726019</ele>
        <time>2022-08-07T08:03:32.159Z</time>
      </trkpt>
      <trkpt lat="44.256" lon="1.91141">
        <ele>428.933022</ele>
        <time>2022-08-07T08:03:39.160Z</time>
      </trkpt>
      <trkpt lat="44.25595" lon="1.91154">
        <ele>430.014411</ele>
        <time>2022-08-07T08:03:46.160Z</time>
      </trkpt>
      <trkpt lat="44.2559" lon="1.91164">
        <ele>430.961982</ele>
        <time>2022-08-07T08:03:52.159Z</time>
      </trkpt>
      <trkpt lat="44.25584" lon="1.91174">
        <ele>431.946407</ele>
        <time>2022-08-07T08:04:00.159Z</time>
      </trkpt>
      <trkpt lat="44.25578" lon="1.91185">
        <ele>433.004</ele>
        <time>2022-08-07T08:04:09.155Z</time>
      </trkpt>
      <trkpt lat="44.25571" lon="1.91195">
        <ele>434.013681</ele>
        <time>2022-08-07T08:04:18.157Z</time>
      </trkpt>
      <trkpt lat="44.25564" lon="1.91204">
        <ele>434.995398</ele>
        <time>2022-08-07T08:04:28.427Z</time>
      </trkpt>
      <trkpt lat="44.25555" lon="1.91212">
        <ele>436.144417</ele>
        <time>2022-08-07T08:04:34.428Z</time>
      </trkpt>
      <trkpt lat="44.25546" lon="1.9122">
        <ele>437.24981</ele>
        <time>2022-08-07T08:04:39.427Z</time>
      </trkpt>
      <trkpt lat="44.25538" lon="1.91226">
        <ele>438.236808</ele>
        <time>2022-08-07T08:04:45.422Z</time>
      </trkpt>
      <trkpt lat="44.2553" lon="1.91233">
        <ele>439.188378</ele>
        <time>2022-08-07T08:04:57.426Z</time>
      </trkpt>
      <trkpt lat="44.25524" lon="1.91246">
        <ele>440.417212</ele>
        <time>2022-08-07T08:05:47.426Z</time>
      </trkpt>
      <trkpt lat="44.25519" lon="1.91259">
        <ele>441.491927</ele>
        <time>2022-08-07T08:05:53.427Z</time>
      </trkpt>
      <trkpt lat="44.25517" lon="1.91273">
        <ele>442.552577</ele>
        <time>2022-08-07T08:05:59.427Z</time>
      </trkpt>
      <trkpt lat="44.25513" lon="1.91285">
        <ele>443.543776</ele>
        <time>2022-08-07T08:06:03.426Z</time>
      </trkpt>
      <trkpt lat="44.25511" lon="1.91297">
        <ele>444.509455</ele>
        <time>2022-08-07T08:06:07.427Z</time>
      </trkpt>
      <trkpt lat="44.25512" lon="1.91311">
        <ele>445.527862</ele>
        <time>2022-08-07T08:06:12.423Z</time>
      </trkpt>
      <trkpt lat="44.25515" lon="1.91324">
        <ele>446.540386</ele>
        <time>2022-08-07T08:06:16.430Z</time>
      </trkpt>
      <trkpt lat="44.25518" lon="1.91337">
        <ele>447.624614</ele>
        <time>2022-08-07T08:06:21.420Z</time>
      </trkpt>
      <trkpt lat="44.2552" lon="1.91352">
        <ele>447.982243</ele>
        <time>2022-08-07T08:06:26.426Z</time>
      </trkpt>
      <trkpt lat="44.2552" lon="1.91367">
        <ele>448.333126</ele>
        <time>2022-08-07T08:06:31.426Z</time>
      </trkpt>
      <trkpt lat="44.2552" lon="1.9138">
        <ele>448.649592</ele>
        <time>2022-08-07T08:06:35.421Z</time>
      </trkpt>
      <trkpt lat="44.25519" lon="1.91394">
        <ele>448.954018</ele>
        <time>2022-08-07T08:06:39.427Z</time>
      </trkpt>
      <trkpt lat="44.25519" lon="1.9141">
        <ele>449.330452</ele>
        <time>2022-08-07T08:06:43.425Z</time>
      </trkpt>
      <trkpt lat="44.25519" lon="1.91423">
        <ele>449.63744</ele>
        <time>2022-08-07T08:06:46.427Z</time>
      </trkpt>
      <trkpt lat="44.2552" lon="1.91436">
        <ele>449.936293</ele>
        <time>2022-08-07T08:06:49.426Z</time>
      </trkpt>
      <trkpt lat="44.25521" lon="1.9145">
        <ele>450.253824</ele>
        <time>2022-08-07T08:06:52.426Z</time>
      </trkpt>
      <trkpt lat="44.2552" lon="1.91463">
        <ele>450.561066</ele>
        <time>2022-08-07T08:06:55.629Z</time>
      </trkpt>
      <trkpt lat="44.2552" lon="1.91479">
        <ele>450.932719</ele>
        <time>2022-08-07T08:06:59.430Z</time>
      </trkpt>
      <trkpt lat="44.25519" lon="1.91493">
        <ele>451.249333</ele>
        <time>2022-08-07T08:07:02.436Z</time>
      </trkpt>
      <trkpt lat="44.2552" lon="1.91506">
        <ele>451.551705</ele>
        <time>2022-08-07T08:07:05.426Z</time>
      </trkpt>
      <trkpt lat="44.25519" lon="1.91519">
        <ele>451.84366</ele>
        <time>2022-08-07T08:07:08.421Z</time>
      </trkpt>
      <trkpt lat="44.25518" lon="1.91531">
        <ele>452.135117</ele>
        <time>2022-08-07T08:07:11.425Z</time>
      </trkpt>
      <trkpt lat="44.25518" lon="1.91546">
        <ele>452.467618</ele>
        <time>2022-08-07T08:07:14.428Z</time>
      </trkpt>
      <trkpt lat="44.25519" lon="1.91568">
        <ele>452.984016</ele>
        <time>2022-08-07T08:07:17.422Z</time>
      </trkpt>
      <trkpt lat="44.2552" lon="1.91583">
        <ele>453.341997</ele>
        <time>2022-08-07T08:07:19.423Z</time>
      </trkpt>
      <trkpt lat="44.25519" lon="1.916">
        <ele>453.681634</ele>
        <time>2022-08-07T08:07:21.427Z</time>
      </trkpt>
      <trkpt lat="44.25521" lon="1.91613">
        <ele>453.938154</ele>
        <time>2022-08-07T08:07:23.426Z</time>
      </trkpt>
      <trkpt lat="44.2552" lon="1.91627">
        <ele>454.206065</ele>
        <time>2022-08-07T08:07:26.428Z</time>
      </trkpt>
      <trkpt lat="44.25518" lon="1.9164">
        <ele>454.475047</ele>
        <time>2022-08-07T08:07:30.428Z</time>
      </trkpt>
      <trkpt lat="44.25518" lon="1.91654">
        <ele>454.748136</ele>
        <time>2022-08-07T08:07:34.427Z</time>
      </trkpt>
      <trkpt lat="44.25517" lon="1.91671">
        <ele>455.064938</ele>
        <time>2022-08-07T08:07:38.428Z</time>
      </trkpt>
      <trkpt lat="44.25515" lon="1.91685">
        <ele>455.340153</ele>
        <time>2022-08-07T08:07:41.428Z</time>
      </trkpt>
      <trkpt lat="44.25513" lon="1.91699">
        <ele>455.619114</ele>
        <time>2022-08-07T08:07:44.424Z</time>
      </trkpt>
      <trkpt lat="44.2551" lon="1.91713">
        <ele>455.901895</ele>
        <time>2022-08-07T08:07:47.429Z</time>
      </trkpt>
      <trkpt lat="44.25507" lon="1.91725">
        <ele>456.144544</ele>
        <time>2022-08-07T08:07:50.427Z</time>
      </trkpt>
      <trkpt lat="44.25502" lon="1.91737">
        <ele>456.421</ele>
        <time>2022-08-07T08:07:53.424Z</time>
      </trkpt>
      <trkpt lat="44.25495" lon="1.91746">
        <ele>456.669476</ele>
        <time>2022-08-07T08:07:56.423Z</time>
      </trkpt>
      <trkpt lat="44.25489" lon="1.91755">
        <ele>456.91255</ele>
        <time>2022-08-07T08:07:59.426Z</time>
      </trkpt>
      <trkpt lat="44.25481" lon="1.91765">
        <ele>457.200396</ele>
        <time>2022-08-07T08:08:03.424Z</time>
      </trkpt>
      <trkpt lat="44.25476" lon="1.91777">
        <ele>457.458624</ele>
        <time>2022-08-07T08:08:08.425Z</time>
      </trkpt>
      <trkpt lat="44.25473" lon="1.91788">
        <ele>457.708379</ele>
        <time>2022-08-07T08:08:13.426Z</time>
      </trkpt>
      <trkpt lat="44.25468" lon="1.91802">
        <ele>457.989278</ele>
        <time>2022-08-07T08:08:19.428Z</time>
      </trkpt>
      <trkpt lat="44.25462" lon="1.91812">
        <ele>458.260288</ele>
        <time>2022-08-07T08:08:24.430Z</time>
      </trkpt>
      <trkpt lat="44.25455" lon="1.91822">
        <ele>458.407668</ele>
        <time>2022-08-07T08:08:29.420Z</time>
      </trkpt>
      <trkpt lat="44.25448" lon="1.91833">
        <ele>458.531636</ele>
        <time>2022-08-07T08:08:34.425Z</time>
      </trkpt>
      <trkpt lat="44.25442" lon="1.91843">
        <ele>458.645128</ele>
        <time>2022-08-07T08:08:39.428Z</time>
      </trkpt>
      <trkpt lat="44.25436" lon="1.91854">
        <ele>458.775667</ele>
        <time>2022-08-07T08:08:45.418Z</time>
      </trkpt>
      <trkpt lat="44.25429" lon="1.91865">
        <ele>458.904913</ele>
        <time>2022-08-07T08:08:51.424Z</time>
      </trkpt>
      <trkpt lat="44.25422" lon="1.91873">
        <ele>459.015959</ele>
        <time>2022-08-07T08:08:56.419Z</time>
      </trkpt>
      <trkpt lat="44.25421" lon="1.91887">
        <ele>459.137463</ele>
        <time>2022-08-07T08:09:01.421Z</time>
      </trkpt>
      <trkpt lat="44.25422" lon="1.91902">
        <ele>459.267534</ele>
        <time>2022-08-07T08:09:04.425Z</time>
      </trkpt>
      <trkpt lat="44.25424" lon="1.91917">
        <ele>459.405721</ele>
        <time>2022-08-07T08:09:06.425Z</time>
      </trkpt>
      <trkpt lat="44.25423" lon="1.91935">
        <ele>459.561292</ele>
        <time>2022-08-07T08:09:08.429Z</time>
      </trkpt>
      <trkpt lat="44.25418" lon="1.91953">
        <ele>459.726265</ele>
        <time>2022-08-07T08:09:10.428Z</time>
      </trkpt>
      <trkpt lat="44.25413" lon="1.91973">
        <ele>459.917093</ele>
        <time>2022-08-07T08:09:12.433Z</time>
      </trkpt>
      <trkpt lat="44.25414" lon="1.91995">
        <ele>460.104699</ele>
        <time>2022-08-07T08:09:14.430Z</time>
      </trkpt>
      <trkpt lat="44.25425" lon="1.92013">
        <ele>460.310187</ele>
        <time>2022-08-07T08:09:16.421Z</time>
      </trkpt>
      <trkpt lat="44.25437" lon="1.92025">
        <ele>460.494242</ele>
        <time>2022-08-07T08:09:18.427Z</time>
      </trkpt>
      <trkpt lat="44.25448" lon="1.92035">
        <ele>460.617909</ele>
        <time>2022-08-07T08:09:20.427Z</time>
      </trkpt>
      <trkpt lat="44.25456" lon="1.92045">
        <ele>460.711236</ele>
        <time>2022-08-07T08:09:22.428Z</time>
      </trkpt>
      <trkpt lat="44.25466" lon="1.92058">
        <ele>460.832245</ele>
        <time>2022-08-07T08:09:25.423Z</time>
      </trkpt>
      <trkpt lat="44.25473" lon="1.9207">
        <ele>460.929032</ele>
        <time>2022-08-07T08:09:28.426Z</time>
      </trkpt>
      <trkpt lat="44.25479" lon="1.92081">
        <ele>461.012233</ele>
        <time>2022-08-07T08:09:31.426Z</time>
      </trkpt>
      <trkpt lat="44.25487" lon="1.92092">
        <ele>461.114359</ele>
        <time>2022-08-07T08:09:35.428Z</time>
      </trkpt>
      <trkpt lat="44.25489" lon="1.92104">
        <ele>461.194405</ele>
        <time>2022-08-07T08:09:38.430Z</time>
      </trkpt>
      <trkpt lat="44.25485" lon="1.92117">
        <ele>461.285248</ele>
        <time>2022-08-07T08:09:42.421Z</time>
      </trkpt>
      <trkpt lat="44.25485" lon="1.92132">
        <ele>461.375458</ele>
        <time>2022-08-07T08:09:46.427Z</time>
      </trkpt>
      <trkpt lat="44.25486" lon="1.92145">
        <ele>461.457708</ele>
        <time>2022-08-07T08:09:50.432Z</time>
      </trkpt>
      <trkpt lat="44.25487" lon="1.9216">
        <ele>461.554638</ele>
        <time>2022-08-07T08:09:54.426Z</time>
      </trkpt>
      <trkpt lat="44.25487" lon="1.92175">
        <ele>461.650426</ele>
        <time>2022-08-07T08:09:58.429Z</time>
      </trkpt>
      <trkpt lat="44.2549" lon="1.9219">
        <ele>461.746188</ele>
        <time>2022-08-07T08:10:02.427Z</time>
      </trkpt>
      <trkpt lat="44.25488" lon="1.92206">
        <ele>461.844574</ele>
        <time>2022-08-07T08:10:06.428Z</time>
      </trkpt>
      <trkpt lat="44.25488" lon="1.92221">
        <ele>461.940963</ele>
        <time>2022-08-07T08:10:10.434Z</time>
      </trkpt>
      <trkpt lat="44.25487" lon="1.92234">
        <ele>462.023887</ele>
        <time>2022-08-07T08:10:14.430Z</time>
      </trkpt>
      <trkpt lat="44.25488" lon="1.92247">
        <ele>462.127855</ele>
        <time>2022-08-07T08:10:18.428Z</time>
      </trkpt>
      <trkpt lat="44.25491" lon="1.92261">
        <ele>462.361824</ele>
        <time>2022-08-07T08:10:22.429Z</time>
      </trkpt>
      <trkpt lat="44.25491" lon="1.92275">
        <ele>462.579075</ele>
        <time>2022-08-07T08:10:26.426Z</time>
      </trkpt>
      <trkpt lat="44.25491" lon="1.92292">
        <ele>462.842744</ele>
        <time>2022-08-07T08:10:30.429Z</time>
      </trkpt>
      <trkpt lat="44.25492" lon="1.92306">
        <ele>463.052356</ele>
        <time>2022-08-07T08:10:33.427Z</time>
      </trkpt>
      <trkpt lat="44.25492" lon="1.92319">
        <ele>463.255184</ele>
        <time>2022-08-07T08:10:36.421Z</time>
      </trkpt>
      <trkpt lat="44.2549" lon="1.92333">
        <ele>463.478796</ele>
        <time>2022-08-07T08:10:40.433Z</time>
      </trkpt>
      <trkpt lat="44.25489" lon="1.92347">
        <ele>463.710525</ele>
        <time>2022-08-07T08:10:44.429Z</time>
      </trkpt>
      <trkpt lat="44.25488" lon="1.92361">
        <ele>463.920713</ele>
        <time>2022-08-07T08:10:48.427Z</time>
      </trkpt>
      <trkpt lat="44.25487" lon="1.92375">
        <ele>464.147025</ele>
        <time>2022-08-07T08:10:52.430Z</time>
      </trkpt>
      <trkpt lat="44.25488" lon="1.92391">
        <ele>464.395238</ele>
        <time>2022-08-07T08:10:56.427Z</time>
      </trkpt>
      <trkpt lat="44.25489" lon="1.92404">
        <ele>464.602827</ele>
        <time>2022-08-07T08:11:00.426Z</time>
      </trkpt>
      <trkpt lat="44.25488" lon="1.9242">
        <ele>464.841883</ele>
        <time>2022-08-07T08:11:04.427Z</time>
      </trkpt>
      <trkpt lat="44.25487" lon="1.92433">
        <ele>465.051936</ele>
        <time>2022-08-07T08:11:08.427Z</time>
      </trkpt>
      <trkpt lat="44.25487" lon="1.9245">
        <ele>465.321917</ele>
        <time>2022-08-07T08:11:12.436Z</time>
      </trkpt>
      <trkpt lat="44.25488" lon="1.92465">
        <ele>465.55463</ele>
        <time>2022-08-07T08:11:15.428Z</time>
      </trkpt>
      <trkpt lat="44.25488" lon="1.92479">
        <ele>465.768467</ele>
        <time>2022-08-07T08:11:18.428Z</time>
      </trkpt>
      <trkpt lat="44.25488" lon="1.92493">
        <ele>465.988617</ele>
        <time>2022-08-07T08:11:21.431Z</time>
      </trkpt>
      <trkpt lat="44.25487" lon="1.92508">
        <ele>466.636741</ele>
        <time>2022-08-07T08:11:24.428Z</time>
      </trkpt>
      <trkpt lat="44.25486" lon="1.92524">
        <ele>467.362484</ele>
        <time>2022-08-07T08:11:27.433Z</time>
      </trkpt>
      <trkpt lat="44.25485" lon="1.9254">
        <ele>468.140941</ele>
        <time>2022-08-07T08:11:30.428Z</time>
      </trkpt>
      <trkpt lat="44.25479" lon="1.92552">
        <ele>468.803653</ele>
        <time>2022-08-07T08:11:33.427Z</time>
      </trkpt>
      <trkpt lat="44.25471" lon="1.92561">
        <ele>469.442448</ele>
        <time>2022-08-07T08:11:36.430Z</time>
      </trkpt>
      <trkpt lat="44.25465" lon="1.92572">
        <ele>470.125192</ele>
        <time>2022-08-07T08:11:39.431Z</time>
      </trkpt>
      <trkpt lat="44.25462" lon="1.92588">
        <ele>470.882036</ele>
        <time>2022-08-07T08:11:43.431Z</time>
      </trkpt>
      <trkpt lat="44.25463" lon="1.92602">
        <ele>471.504081</ele>
        <time>2022-08-07T08:11:46.428Z</time>
      </trkpt>
      <trkpt lat="44.25467" lon="1.92615">
        <ele>472.158441</ele>
        <time>2022-08-07T08:11:49.426Z</time>
      </trkpt>
      <trkpt lat="44.25472" lon="1.92625">
        <ele>472.745661</ele>
        <time>2022-08-07T08:11:52.452Z</time>
      </trkpt>
      <trkpt lat="44.25479" lon="1.92638">
        <ele>473.495975</ele>
        <time>2022-08-07T08:11:57.423Z</time>
      </trkpt>
      <trkpt lat="44.25484" lon="1.9265">
        <ele>474.113066</ele>
        <time>2022-08-07T08:12:01.426Z</time>
      </trkpt>
      <trkpt lat="44.25485" lon="1.92663">
        <ele>474.732891</ele>
        <time>2022-08-07T08:12:06.428Z</time>
      </trkpt>
      <trkpt lat="44.25483" lon="1.92677">
        <ele>475.382314</ele>
        <time>2022-08-07T08:12:11.425Z</time>
      </trkpt>
      <trkpt lat="44.2548" lon="1.92688">
        <ele>475.96935</ele>
        <time>2022-08-07T08:12:16.431Z</time>
      </trkpt>
      <trkpt lat="44.25477" lon="1.92702">
        <ele>476.612275</ele>
        <time>2022-08-07T08:12:21.421Z</time>
      </trkpt>
      <trkpt lat="44.25478" lon="1.92717">
        <ele>477.341481</ele>
        <time>2022-08-07T08:12:27.431Z</time>
      </trkpt>
      <trkpt lat="44.25478" lon="1.92731">
        <ele>477.856063</ele>
        <time>2022-08-07T08:12:32.427Z</time>
      </trkpt>
      <trkpt lat="44.25475" lon="1.92745">
        <ele>478.263711</ele>
        <time>2022-08-07T08:12:37.423Z</time>
      </trkpt>
      <trkpt lat="44.25468" lon="1.92757">
        <ele>478.691921</ele>
        <time>2022-08-07T08:12:42.427Z</time>
      </trkpt>
      <trkpt lat="44.25459" lon="1.92764">
        <ele>479.086191</ele>
        <time>2022-08-07T08:12:46.420Z</time>
      </trkpt>
      <trkpt lat="44.25451" lon="1.92773">
        <ele>479.497223</ele>
        <time>2022-08-07T08:12:50.426Z</time>
      </trkpt>
      <trkpt lat="44.25443" lon="1.92785">
        <ele>479.956007</ele>
        <time>2022-08-07T08:12:54.423Z</time>
      </trkpt>
      <trkpt lat="44.25436" lon="1.92798">
        <ele>480.428415</ele>
        <time>2022-08-07T08:12:58.428Z</time>
      </trkpt>
      <trkpt lat="44.2543" lon="1.92811">
        <ele>480.839424</ele>
        <time>2022-08-07T08:13:02.422Z</time>
      </trkpt>
      <trkpt lat="44.25425" lon="1.92822">
        <ele>481.226596</ele>
        <time>2022-08-07T08:13:05.431Z</time>
      </trkpt>
      <trkpt lat="44.25419" lon="1.92833">
        <ele>481.618357</ele>
        <time>2022-08-07T08:13:08.428Z</time>
      </trkpt>
      <trkpt lat="44.25414" lon="1.92844">
        <ele>481.984874</ele>
        <time>2022-08-07T08:13:11.429Z</time>
      </trkpt>
      <trkpt lat="44.25406" lon="1.92857">
        <ele>482.460525</ele>
        <time>2022-08-07T08:13:15.427Z</time>
      </trkpt>
      <trkpt lat="44.25401" lon="1.92867">
        <ele>482.831545</ele>
        <time>2022-08-07T08:13:18.427Z</time>
      </trkpt>
      <trkpt lat="44.25396" lon="1.92878">
        <ele>483.193679</ele>
        <time>2022-08-07T08:13:21.427Z</time>
      </trkpt>
      <trkpt lat="44.2539" lon="1.92891">
        <ele>483.629666</ele>
        <time>2022-08-07T08:13:25.421Z</time>
      </trkpt>
      <trkpt lat="44.25382" lon="1.92902">
        <ele>484.065231</ele>
        <time>2022-08-07T08:13:29.425Z</time>
      </trkpt>
      <trkpt lat="44.25376" lon="1.92914">
        <ele>484.496735</ele>
        <time>2022-08-07T08:13:33.421Z</time>
      </trkpt>
      <trkpt lat="44.2537" lon="1.92927">
        <ele>484.894005</ele>
        <time>2022-08-07T08:13:37.425Z</time>
      </trkpt>
      <trkpt lat="44.25367" lon="1.92939">
        <ele>485.206387</ele>
        <time>2022-08-07T08:13:41.421Z</time>
      </trkpt>
      <trkpt lat="44.25364" lon="1.92951">
        <ele>485.515095</ele>
        <time>2022-08-07T08:13:45.432Z</time>
      </trkpt>
      <trkpt lat="44.2536" lon="1.92964">
        <ele>485.861977</ele>
        <time>2022-08-07T08:13:50.428Z</time>
      </trkpt>
      <trkpt lat="44.25355" lon="1.92978">
        <ele>486.224809</ele>
        <time>2022-08-07T08:13:55.426Z</time>
      </trkpt>
      <trkpt lat="44.2535" lon="1.92989">
        <ele>486.556132</ele>
        <time>2022-08-07T08:13:59.429Z</time>
      </trkpt>
      <trkpt lat="44.25345" lon="1.93">
        <ele>486.860382</ele>
        <time>2022-08-07T08:14:04.427Z</time>
      </trkpt>
      <trkpt lat="44.25341" lon="1.93012">
        <ele>487.167318</ele>
        <time>2022-08-07T08:14:08.425Z</time>
      </trkpt>
      <trkpt lat="44.25337" lon="1.93023">
        <ele>487.472114</ele>
        <time>2022-08-07T08:14:12.430Z</time>
      </trkpt>
      <trkpt lat="44.25332" lon="1.93036">
        <ele>487.832124</ele>
        <time>2022-08-07T08:14:17.426Z</time>
      </trkpt>
      <trkpt lat="44.25327" lon="1.93046">
        <ele>488.144484</ele>
        <time>2022-08-07T08:14:21.423Z</time>
      </trkpt>
      <trkpt lat="44.25321" lon="1.93058">
        <ele>488.468305</ele>
        <time>2022-08-07T08:14:25.426Z</time>
      </trkpt>
      <trkpt lat="44.25319" lon="1.93073">
        <ele>488.835563</ele>
        <time>2022-08-07T08:14:30.425Z</time>
      </trkpt>
      <trkpt lat="44.25325" lon="1.93085">
        <ele>489.198502</ele>
        <time>2022-08-07T08:14:34.433Z</time>
      </trkpt>
      <trkpt lat="44.25335" lon="1.9309">
        <ele>489.531461</ele>
        <time>2022-08-07T08:14:36.425Z</time>
      </trkpt>
      <trkpt lat="44.25344" lon="1.93101">
        <ele>489.945868</ele>
        <time>2022-08-07T08:14:38.429Z</time>
      </trkpt>
      <trkpt lat="44.25353" lon="1.93114">
        <ele>490.393994</ele>
        <time>2022-08-07T08:14:40.430Z</time>
      </trkpt>
      <trkpt lat="44.25365" lon="1.93125">
        <ele>490.696127</ele>
        <time>2022-08-07T08:14:42.425Z</time>
      </trkpt>
      <trkpt lat="44.25381" lon="1.93133">
        <ele>489.571699</ele>
        <time>2022-08-07T08:14:44.430Z</time>
      </trkpt>
      <trkpt lat="44.25396" lon="1.93139">
        <ele>488.458414</ele>
        <time>2022-08-07T08:14:46.427Z</time>
      </trkpt>
      <trkpt lat="44.25413" lon="1.93146">
        <ele>487.242363</ele>
        <time>2022-08-07T08:14:48.427Z</time>
      </trkpt>
      <trkpt lat="44.2543" lon="1.93153">
        <ele>486.049057</ele>
        <time>2022-08-07T08:14:50.432Z</time>
      </trkpt>
      <trkpt lat="44.25439" lon="1.93157">
        <ele>485.422597</ele>
        <time>2022-08-07T08:14:51.430Z</time>
      </trkpt>
      <trkpt lat="44.25447" lon="1.93162">
        <ele>484.786535</ele>
        <time>2022-08-07T08:14:52.426Z</time>
      </trkpt>
      <trkpt lat="44.25465" lon="1.9317">
        <ele>483.543468</ele>
        <time>2022-08-07T08:14:54.427Z</time>
      </trkpt>
      <trkpt lat="44.25474" lon="1.93173">
        <ele>482.911742</ele>
        <time>2022-08-07T08:14:55.429Z</time>
      </trkpt>
      <trkpt lat="44.25491" lon="1.9318">
        <ele>481.6728</ele>
        <time>2022-08-07T08:14:57.427Z</time>
      </trkpt>
      <trkpt lat="44.25501" lon="1.93185">
        <ele>480.962492</ele>
        <time>2022-08-07T08:14:58.426Z</time>
      </trkpt>
      <trkpt lat="44.2551" lon="1.93188">
        <ele>480.325172</ele>
        <time>2022-08-07T08:14:59.426Z</time>
      </trkpt>
      <trkpt lat="44.25519" lon="1.93191">
        <ele>479.666761</ele>
        <time>2022-08-07T08:15:00.423Z</time>
      </trkpt>
      <trkpt lat="44.25529" lon="1.93194">
        <ele>478.992847</ele>
        <time>2022-08-07T08:15:01.432Z</time>
      </trkpt>
      <trkpt lat="44.25548" lon="1.93199">
        <ele>477.623089</ele>
        <time>2022-08-07T08:15:03.436Z</time>
      </trkpt>
      <trkpt lat="44.25558" lon="1.93198">
        <ele>476.930506</ele>
        <time>2022-08-07T08:15:04.430Z</time>
      </trkpt>
      <trkpt lat="44.25569" lon="1.93195">
        <ele>476.147923</ele>
        <time>2022-08-07T08:15:05.429Z</time>
      </trkpt>
      <trkpt lat="44.25581" lon="1.93189">
        <ele>475.285347</ele>
        <time>2022-08-07T08:15:06.429Z</time>
      </trkpt>
      <trkpt lat="44.2559" lon="1.93181">
        <ele>474.525427</ele>
        <time>2022-08-07T08:15:07.428Z</time>
      </trkpt>
      <trkpt lat="44.25599" lon="1.93172">
        <ele>473.748809</ele>
        <time>2022-08-07T08:15:08.423Z</time>
      </trkpt>
      <trkpt lat="44.25607" lon="1.93163">
        <ele>473.016097</ele>
        <time>2022-08-07T08:15:09.423Z</time>
      </trkpt>
      <trkpt lat="44.25615" lon="1.93154">
        <ele>472.344321</ele>
        <time>2022-08-07T08:15:10.429Z</time>
      </trkpt>
      <trkpt lat="44.25625" lon="1.93142">
        <ele>471.376976</ele>
        <time>2022-08-07T08:15:12.426Z</time>
      </trkpt>
      <trkpt lat="44.25634" lon="1.93132">
        <ele>470.593621</ele>
        <time>2022-08-07T08:15:15.425Z</time>
      </trkpt>
      <trkpt lat="44.25636" lon="1.93145">
        <ele>469.952685</ele>
        <time>2022-08-07T08:15:18.427Z</time>
      </trkpt>
      <trkpt lat="44.25635" lon="1.93162">
        <ele>469.09558</ele>
        <time>2022-08-07T08:15:21.424Z</time>
      </trkpt>
      <trkpt lat="44.25633" lon="1.93179">
        <ele>468.225696</ele>
        <time>2022-08-07T08:15:24.430Z</time>
      </trkpt>
      <trkpt lat="44.25632" lon="1.93194">
        <ele>467.457483</ele>
        <time>2022-08-07T08:15:26.426Z</time>
      </trkpt>
      <trkpt lat="44.25631" lon="1.93209">
        <ele>466.729732</ele>
        <time>2022-08-07T08:15:28.430Z</time>
      </trkpt>
      <trkpt lat="44.2563" lon="1.93226">
        <ele>465.837339</ele>
        <time>2022-08-07T08:15:30.429Z</time>
      </trkpt>
      <trkpt lat="44.25625" lon="1.93244">
        <ele>464.740438</ele>
        <time>2022-08-07T08:15:32.430Z</time>
      </trkpt>
      <trkpt lat="44.25622" lon="1.9326">
        <ele>463.782228</ele>
        <time>2022-08-07T08:15:34.431Z</time>
      </trkpt>
      <trkpt lat="44.25614" lon="1.93271">
        <ele>462.843103</ele>
        <time>2022-08-07T08:15:37.433Z</time>
      </trkpt>
      <trkpt lat="44.25605" lon="1.93273">
        <ele>462.082028</ele>
        <time>2022-08-07T08:15:39.425Z</time>
      </trkpt>
      <trkpt lat="44.25592" lon="1.93277">
        <ele>461.046246</ele>
        <time>2022-08-07T08:15:41.423Z</time>
      </trkpt>
      <trkpt lat="44.25581" lon="1.93285">
        <ele>459.997482</ele>
        <time>2022-08-07T08:15:43.422Z</time>
      </trkpt>
      <trkpt lat="44.25571" lon="1.933">
        <ele>458.802191</ele>
        <time>2022-08-07T08:15:45.429Z</time>
      </trkpt>
      <trkpt lat="44.25562" lon="1.93314">
        <ele>457.725103</ele>
        <time>2022-08-07T08:15:47.429Z</time>
      </trkpt>
      <trkpt lat="44.25551" lon="1.93329">
        <ele>456.470565</ele>
        <time>2022-08-07T08:15:49.422Z</time>
      </trkpt>
      <trkpt lat="44.2554" lon="1.9334">
        <ele>455.370063</ele>
        <time>2022-08-07T08:15:51.435Z</time>
      </trkpt>
      <trkpt lat="44.25531" lon="1.93346">
        <ele>454.598377</ele>
        <time>2022-08-07T08:15:53.423Z</time>
      </trkpt>
      <trkpt lat="44.25523" lon="1.93351">
        <ele>453.837928</ele>
        <time>2022-08-07T08:15:55.424Z</time>
      </trkpt>
      <trkpt lat="44.25511" lon="1.93353">
        <ele>452.902503</ele>
        <time>2022-08-07T08:15:57.426Z</time>
      </trkpt>
      <trkpt lat="44.25496" lon="1.93355">
        <ele>451.697741</ele>
        <time>2022-08-07T08:15:59.424Z</time>
      </trkpt>
      <trkpt lat="44.25483" lon="1.93357">
        <ele>451.314559</ele>
        <time>2022-08-07T08:16:02.423Z</time>
      </trkpt>
      <trkpt lat="44.25471" lon="1.93359">
        <ele>451.259427</ele>
        <time>2022-08-07T08:16:04.431Z</time>
      </trkpt>
      <trkpt lat="44.25463" lon="1.93364">
        <ele>451.215972</ele>
        <time>2022-08-07T08:16:06.423Z</time>
      </trkpt>
      <trkpt lat="44.25449" lon="1.93377">
        <ele>451.13544</ele>
        <time>2022-08-07T08:16:08.423Z</time>
      </trkpt>
      <trkpt lat="44.25433" lon="1.93389">
        <ele>451.048151</ele>
        <time>2022-08-07T08:16:10.429Z</time>
      </trkpt>
      <trkpt lat="44.25417" lon="1.934">
        <ele>450.96093</ele>
        <time>2022-08-07T08:16:12.428Z</time>
      </trkpt>
      <trkpt lat="44.25409" lon="1.93407">
        <ele>450.917608</ele>
        <time>2022-08-07T08:16:13.426Z</time>
      </trkpt>
      <trkpt lat="44.25394" lon="1.93417">
        <ele>450.836339</ele>
        <time>2022-08-07T08:16:15.427Z</time>
      </trkpt>
      <trkpt lat="44.25383" lon="1.93427">
        <ele>450.776291</ele>
        <time>2022-08-07T08:16:17.429Z</time>
      </trkpt>
      <trkpt lat="44.25374" lon="1.93438">
        <ele>450.716589</ele>
        <time>2022-08-07T08:16:19.429Z</time>
      </trkpt>
      <trkpt lat="44.25367" lon="1.93446">
        <ele>450.672853</ele>
        <time>2022-08-07T08:16:21.425Z</time>
      </trkpt>
      <trkpt lat="44.25361" lon="1.93458">
        <ele>450.621596</ele>
        <time>2022-08-07T08:16:24.430Z</time>
      </trkpt>
      <trkpt lat="44.25366" lon="1.93469">
        <ele>450.577879</ele>
        <time>2022-08-07T08:16:26.424Z</time>
      </trkpt>
      <trkpt lat="44.25368" lon="1.93484">
        <ele>450.525648</ele>
        <time>2022-08-07T08:16:28.422Z</time>
      </trkpt>
      <trkpt lat="44.25372" lon="1.93501">
        <ele>451.025086</ele>
        <time>2022-08-07T08:16:31.424Z</time>
      </trkpt>
      <trkpt lat="44.25382" lon="1.935">
        <ele>451.792581</ele>
        <time>2022-08-07T08:16:38.425Z</time>
      </trkpt>
      <trkpt lat="44.25392" lon="1.935">
        <ele>452.529871</ele>
        <time>2022-08-07T08:16:45.425Z</time>
      </trkpt>
      <trkpt lat="44.25403" lon="1.93495">
        <ele>453.397606</ele>
        <time>2022-08-07T08:16:53.424Z</time>
      </trkpt>
      <trkpt lat="44.25412" lon="1.93496">
        <ele>454.106268</ele>
        <time>2022-08-07T08:16:58.424Z</time>
      </trkpt>
      <trkpt lat="44.25422" lon="1.93496">
        <ele>454.904443</ele>
        <time>2022-08-07T08:17:05.430Z</time>
      </trkpt>
      <trkpt lat="44.25431" lon="1.93499">
        <ele>455.59493</ele>
        <time>2022-08-07T08:17:09.425Z</time>
      </trkpt>
      <trkpt lat="44.25442" lon="1.93502">
        <ele>456.442263</ele>
        <time>2022-08-07T08:17:15.426Z</time>
      </trkpt>
      <trkpt lat="44.25451" lon="1.93506">
        <ele>457.18008</ele>
        <time>2022-08-07T08:17:20.428Z</time>
      </trkpt>
      <trkpt lat="44.25461" lon="1.93509">
        <ele>457.959978</ele>
        <time>2022-08-07T08:17:28.432Z</time>
      </trkpt>
      <trkpt lat="44.2547" lon="1.93515">
        <ele>458.702203</ele>
        <time>2022-08-07T08:17:35.426Z</time>
      </trkpt>
      <trkpt lat="44.25479" lon="1.93519">
        <ele>459.463095</ele>
        <time>2022-08-07T08:17:43.426Z</time>
      </trkpt>
      <trkpt lat="44.25488" lon="1.93526">
        <ele>460.243307</ele>
        <time>2022-08-07T08:17:50.427Z</time>
      </trkpt>
      <trkpt lat="44.25498" lon="1.9353">
        <ele>461.02953</ele>
        <time>2022-08-07T08:17:57.429Z</time>
      </trkpt>
      <trkpt lat="44.25508" lon="1.93533">
        <ele>461.793236</ele>
        <time>2022-08-07T08:18:05.421Z</time>
      </trkpt>
      <trkpt lat="44.25517" lon="1.93537">
        <ele>462.521527</ele>
        <time>2022-08-07T08:18:14.428Z</time>
      </trkpt>
      <trkpt lat="44.25527" lon="1.93541">
        <ele>463.332573</ele>
        <time>2022-08-07T08:18:20.428Z</time>
      </trkpt>
      <trkpt lat="44.25536" lon="1.93548">
        <ele>464.167472</ele>
        <time>2022-08-07T08:18:26.429Z</time>
      </trkpt>
      <trkpt lat="44.25546" lon="1.93551">
        <ele>464.841368</ele>
        <time>2022-08-07T08:18:30.424Z</time>
      </trkpt>
      <trkpt lat="44.25554" lon="1.93556">
        <ele>465.478646</ele>
        <time>2022-08-07T08:18:35.442Z</time>
      </trkpt>
      <trkpt lat="44.25562" lon="1.93562">
        <ele>466.112409</ele>
        <time>2022-08-07T08:18:40.427Z</time>
      </trkpt>
      <trkpt lat="44.25571" lon="1.9357">
        <ele>466.808855</ele>
        <time>2022-08-07T08:18:47.428Z</time>
      </trkpt>
      <trkpt lat="44.25579" lon="1.93577">
        <ele>467.502694</ele>
        <time>2022-08-07T08:18:55.437Z</time>
      </trkpt>
      <trkpt lat="44.25588" lon="1.93582">
        <ele>468.188115</ele>
        <time>2022-08-07T08:19:02.430Z</time>
      </trkpt>
      <trkpt lat="44.25597" lon="1.93587">
        <ele>468.858802</ele>
        <time>2022-08-07T08:19:09.425Z</time>
      </trkpt>
      <trkpt lat="44.25605" lon="1.93596">
        <ele>469.57698</ele>
        <time>2022-08-07T08:19:17.428Z</time>
      </trkpt>
      <trkpt lat="44.25603" lon="1.93609">
        <ele>470.270952</ele>
        <time>2022-08-07T08:19:25.424Z</time>
      </trkpt>
      <trkpt lat="44.25594" lon="1.93613">
        <ele>470.940515</ele>
        <time>2022-08-07T08:19:36.424Z</time>
      </trkpt>
      <trkpt lat="44.25584" lon="1.93612">
        <ele>471.661439</ele>
        <time>2022-08-07T08:19:43.423Z</time>
      </trkpt>
      <trkpt lat="44.25575" lon="1.93614">
        <ele>472.305966</ele>
        <time>2022-08-07T08:19:49.427Z</time>
      </trkpt>
      <trkpt lat="44.25566" lon="1.93617">
        <ele>472.946123</ele>
        <time>2022-08-07T08:19:54.426Z</time>
      </trkpt>
      <trkpt lat="44.25556" lon="1.93618">
        <ele>473.616262</ele>
        <time>2022-08-07T08:19:59.423Z</time>
      </trkpt>
      <trkpt lat="44.25546" lon="1.93619">
        <ele>474.338484</ele>
        <time>2022-08-07T08:20:05.423Z</time>
      </trkpt>
      <trkpt lat="44.25536" lon="1.93621">
        <ele>475.053486</ele>
        <time>2022-08-07T08:20:11.428Z</time>
      </trkpt>
      <trkpt lat="44.25527" lon="1.93627">
        <ele>475.720022</ele>
        <time>2022-08-07T08:20:18.426Z</time>
      </trkpt>
      <trkpt lat="44.25518" lon="1.93629">
        <ele>476.392073</ele>
        <time>2022-08-07T08:20:24.426Z</time>
      </trkpt>
      <trkpt lat="44.25508" lon="1.93633">
        <ele>477.142004</ele>
        <time>2022-08-07T08:20:29.435Z</time>
      </trkpt>
      <trkpt lat="44.25499" lon="1.93635">
        <ele>478.019211</ele>
        <time>2022-08-07T08:20:35.430Z</time>
      </trkpt>
      <trkpt lat="44.2549" lon="1.93641">
        <ele>478.916069</ele>
        <time>2022-08-07T08:20:41.432Z</time>
      </trkpt>
      <trkpt lat="44.25483" lon="1.93649">
        <ele>479.801028</ele>
        <time>2022-08-07T08:20:47.429Z</time>
      </trkpt>
      <trkpt lat="44.25484" lon="1.93663">
        <ele>480.742579</ele>
        <time>2022-08-07T08:20:55.430Z</time>
      </trkpt>
      <trkpt lat="44.25489" lon="1.93676">
        <ele>481.735423</ele>
        <time>2022-08-07T08:21:03.426Z</time>
      </trkpt>
      <trkpt lat="44.25494" lon="1.93687">
        <ele>482.608035</ele>
        <time>2022-08-07T08:21:09.426Z</time>
      </trkpt>
      <trkpt lat="44.25497" lon="1.937">
        <ele>483.519404</ele>
        <time>2022-08-07T08:21:16.426Z</time>
      </trkpt>
      <trkpt lat="44.25499" lon="1.93714">
        <ele>484.472146</ele>
        <time>2022-08-07T08:21:24.431Z</time>
      </trkpt>
      <trkpt lat="44.25503" lon="1.93726">
        <ele>485.389864</ele>
        <time>2022-08-07T08:21:30.427Z</time>
      </trkpt>
      <trkpt lat="44.25502" lon="1.93739">
        <ele>486.243147</ele>
        <time>2022-08-07T08:21:36.426Z</time>
      </trkpt>
      <trkpt lat="44.25499" lon="1.93753">
        <ele>487.189068</ele>
        <time>2022-08-07T08:21:42.428Z</time>
      </trkpt>
      <trkpt lat="44.25492" lon="1.93763">
        <ele>488.158389</ele>
        <time>2022-08-07T08:21:48.424Z</time>
      </trkpt>
      <trkpt lat="44.25486" lon="1.93773">
        <ele>489.018179</ele>
        <time>2022-08-07T08:21:54.427Z</time>
      </trkpt>
      <trkpt lat="44.25483" lon="1.93785">
        <ele>489.905181</ele>
        <time>2022-08-07T08:22:01.423Z</time>
      </trkpt>
      <trkpt lat="44.25482" lon="1.93799">
        <ele>490.846498</ele>
        <time>2022-08-07T08:22:08.426Z</time>
      </trkpt>
      <trkpt lat="44.25479" lon="1.93812">
        <ele>491.739089</ele>
        <time>2022-08-07T08:22:15.426Z</time>
      </trkpt>
      <trkpt lat="44.25479" lon="1.93825">
        <ele>492.65333</ele>
        <time>2022-08-07T08:22:21.424Z</time>
      </trkpt>
      <trkpt lat="44.25478" lon="1.93839">
        <ele>493.596274</ele>
        <time>2022-08-07T08:22:27.437Z</time>
      </trkpt>
      <trkpt lat="44.25476" lon="1.93851">
        <ele>493.610447</ele>
        <time>2022-08-07T08:22:34.422Z</time>
      </trkpt>
      <trkpt lat="44.25485" lon="1.93855">
        <ele>493.450339</ele>
        <time>2022-08-07T08:22:39.429Z</time>
      </trkpt>
      <trkpt lat="44.25494" lon="1.93855">
        <ele>493.295748</ele>
        <time>2022-08-07T08:22:42.425Z</time>
      </trkpt>
      <trkpt lat="44.25503" lon="1.93863">
        <ele>493.127418</ele>
        <time>2022-08-07T08:22:45.421Z</time>
      </trkpt>
      <trkpt lat="44.2551" lon="1.93871">
        <ele>492.972211</ele>
        <time>2022-08-07T08:22:48.432Z</time>
      </trkpt>
      <trkpt lat="44.25517" lon="1.93883">
        <ele>492.794793</ele>
        <time>2022-08-07T08:22:51.430Z</time>
      </trkpt>
      <trkpt lat="44.25523" lon="1.93893">
        <ele>492.627139</ele>
        <time>2022-08-07T08:22:54.428Z</time>
      </trkpt>
      <trkpt lat="44.2553" lon="1.93904">
        <ele>492.455381</ele>
        <time>2022-08-07T08:22:57.425Z</time>
      </trkpt>
      <trkpt lat="44.25538" lon="1.93916">
        <ele>492.261338</ele>
        <time>2022-08-07T08:23:00.430Z</time>
      </trkpt>
      <trkpt lat="44.25548" lon="1.9393">
        <ele>492.02626</ele>
        <time>2022-08-07T08:23:03.428Z</time>
      </trkpt>
      <trkpt lat="44.25555" lon="1.9394">
        <ele>491.856603</ele>
        <time>2022-08-07T08:23:05.430Z</time>
      </trkpt>
      <trkpt lat="44.25563" lon="1.93951">
        <ele>491.676062</ele>
        <time>2022-08-07T08:23:07.429Z</time>
      </trkpt>
      <trkpt lat="44.25572" lon="1.93966">
        <ele>491.443217</ele>
        <time>2022-08-07T08:23:09.423Z</time>
      </trkpt>
      <trkpt lat="44.25583" lon="1.93982">
        <ele>491.180594</ele>
        <time>2022-08-07T08:23:11.429Z</time>
      </trkpt>
      <trkpt lat="44.25593" lon="1.93997">
        <ele>490.9415</ele>
        <time>2022-08-07T08:23:13.424Z</time>
      </trkpt>
      <trkpt lat="44.25604" lon="1.94012">
        <ele>490.468636</ele>
        <time>2022-08-07T08:23:15.426Z</time>
      </trkpt>
      <trkpt lat="44.25614" lon="1.94028">
        <ele>489.498601</ele>
        <time>2022-08-07T08:23:17.421Z</time>
      </trkpt>
      <trkpt lat="44.25626" lon="1.94043">
        <ele>488.474999</ele>
        <time>2022-08-07T08:23:19.428Z</time>
      </trkpt>
      <trkpt lat="44.25635" lon="1.94055">
        <ele>487.660051</ele>
        <time>2022-08-07T08:23:21.425Z</time>
      </trkpt>
      <trkpt lat="44.25642" lon="1.94064">
        <ele>487.069146</ele>
        <time>2022-08-07T08:23:23.426Z</time>
      </trkpt>
      <trkpt lat="44.25648" lon="1.94079">
        <ele>486.278462</ele>
        <time>2022-08-07T08:23:26.431Z</time>
      </trkpt>
      <trkpt lat="44.2565" lon="1.94094">
        <ele>485.54899</ele>
        <time>2022-08-07T08:23:28.425Z</time>
      </trkpt>
      <trkpt lat="44.25653" lon="1.94113">
        <ele>484.699499</ele>
        <time>2022-08-07T08:23:30.426Z</time>
      </trkpt>
      <trkpt lat="44.25651" lon="1.94128">
        <ele>483.964623</ele>
        <time>2022-08-07T08:23:32.424Z</time>
      </trkpt>
      <trkpt lat="44.25644" lon="1.94145">
        <ele>483.117092</ele>
        <time>2022-08-07T08:23:34.432Z</time>
      </trkpt>
      <trkpt lat="44.25641" lon="1.94162">
        <ele>482.28784</ele>
        <time>2022-08-07T08:23:36.425Z</time>
      </trkpt>
      <trkpt lat="44.25639" lon="1.94182">
        <ele>481.331806</ele>
        <time>2022-08-07T08:23:38.428Z</time>
      </trkpt>
      <trkpt lat="44.25633" lon="1.94194">
        <ele>480.672322</ele>
        <time>2022-08-07T08:23:39.430Z</time>
      </trkpt>
      <trkpt lat="44.25627" lon="1.94204">
        <ele>480.087812</ele>
        <time>2022-08-07T08:23:40.431Z</time>
      </trkpt>
      <trkpt lat="44.25622" lon="1.94222">
        <ele>479.202886</ele>
        <time>2022-08-07T08:23:42.428Z</time>
      </trkpt>
      <trkpt lat="44.2562" lon="1.94237">
        <ele>478.737413</ele>
        <time>2022-08-07T08:23:44.425Z</time>
      </trkpt>
      <trkpt lat="44.25613" lon="1.94256">
        <ele>478.098848</ele>
        <time>2022-08-07T08:23:46.425Z</time>
      </trkpt>
      <trkpt lat="44.25605" lon="1.94276">
        <ele>477.441087</ele>
        <time>2022-08-07T08:23:48.424Z</time>
      </trkpt>
      <trkpt lat="44.25599" lon="1.94298">
        <ele>476.755767</ele>
        <time>2022-08-07T08:23:50.425Z</time>
      </trkpt>
      <trkpt lat="44.25597" lon="1.9431">
        <ele>476.37736</ele>
        <time>2022-08-07T08:23:51.426Z</time>
      </trkpt>
      <trkpt lat="44.25588" lon="1.94327">
        <ele>475.763567</ele>
        <time>2022-08-07T08:23:53.422Z</time>
      </trkpt>
      <trkpt lat="44.25586" lon="1.94342">
        <ele>475.336118</ele>
        <time>2022-08-07T08:23:54.428Z</time>
      </trkpt>
      <trkpt lat="44.25579" lon="1.94363">
        <ele>474.65131</ele>
        <time>2022-08-07T08:23:56.426Z</time>
      </trkpt>
      <trkpt lat="44.25578" lon="1.9438">
        <ele>474.148026</ele>
        <time>2022-08-07T08:23:58.422Z</time>
      </trkpt>
      <trkpt lat="44.2557" lon="1.94396">
        <ele>473.593916</ele>
        <time>2022-08-07T08:24:00.425Z</time>
      </trkpt>
      <trkpt lat="44.25571" lon="1.94411">
        <ele>473.148102</ele>
        <time>2022-08-07T08:24:02.424Z</time>
      </trkpt>
      <trkpt lat="44.25575" lon="1.94426">
        <ele>472.6751</ele>
        <time>2022-08-07T08:24:06.428Z</time>
      </trkpt>
      <trkpt lat="44.25578" lon="1.94439">
        <ele>472.275587</ele>
        <time>2022-08-07T08:24:13.557Z</time>
      </trkpt>
      <trkpt lat="44.25579" lon="1.94453">
        <ele>471.852398</ele>
        <time>2022-08-07T08:24:43.559Z</time>
      </trkpt>
      <trkpt lat="44.25579" lon="1.94467">
        <ele>472.53225</ele>
        <time>2022-08-07T08:24:48.557Z</time>
      </trkpt>
      <trkpt lat="44.25576" lon="1.9448">
        <ele>473.32206</ele>
        <time>2022-08-07T08:24:55.556Z</time>
      </trkpt>
      <trkpt lat="44.25571" lon="1.94491">
        <ele>474.056759</ele>
        <time>2022-08-07T08:25:01.560Z</time>
      </trkpt>
      <trkpt lat="44.2557" lon="1.94505">
        <ele>474.821151</ele>
        <time>2022-08-07T08:25:07.555Z</time>
      </trkpt>
      <trkpt lat="44.25573" lon="1.94518">
        <ele>475.574396</ele>
        <time>2022-08-07T08:25:14.836Z</time>
      </trkpt>
      <trkpt lat="44.25578" lon="1.94507">
        <ele>476.294621</ele>
        <time>2022-08-07T08:25:21.823Z</time>
      </trkpt>
      <trkpt lat="44.25583" lon="1.94497">
        <ele>477.010398</ele>
        <time>2022-08-07T08:25:28.823Z</time>
      </trkpt>
      <trkpt lat="44.25588" lon="1.94485">
        <ele>477.76009</ele>
        <time>2022-08-07T08:25:33.824Z</time>
      </trkpt>
      <trkpt lat="44.25594" lon="1.94473">
        <ele>478.553116</ele>
        <time>2022-08-07T08:25:38.825Z</time>
      </trkpt>
      <trkpt lat="44.25598" lon="1.94461">
        <ele>479.3292</ele>
        <time>2022-08-07T08:25:44.819Z</time>
      </trkpt>
      <trkpt lat="44.25605" lon="1.94451">
        <ele>480.065179</ele>
        <time>2022-08-07T08:25:52.822Z</time>
      </trkpt>
      <trkpt lat="44.25611" lon="1.94442">
        <ele>480.784515</ele>
        <time>2022-08-07T08:25:58.821Z</time>
      </trkpt>
      <trkpt lat="44.25621" lon="1.94436">
        <ele>481.583899</ele>
        <time>2022-08-07T08:26:04.834Z</time>
      </trkpt>
      <trkpt lat="44.25628" lon="1.94426">
        <ele>482.370903</ele>
        <time>2022-08-07T08:26:12.824Z</time>
      </trkpt>
      <trkpt lat="44.25636" lon="1.94419">
        <ele>483.136908</ele>
        <time>2022-08-07T08:26:19.834Z</time>
      </trkpt>
      <trkpt lat="44.25642" lon="1.9441">
        <ele>483.846015</ele>
        <time>2022-08-07T08:26:26.833Z</time>
      </trkpt>
      <trkpt lat="44.25652" lon="1.94403">
        <ele>484.661704</ele>
        <time>2022-08-07T08:26:33.823Z</time>
      </trkpt>
      <trkpt lat="44.25662" lon="1.94402">
        <ele>485.453695</ele>
        <time>2022-08-07T08:26:40.828Z</time>
      </trkpt>
      <trkpt lat="44.25672" lon="1.94397">
        <ele>486.070592</ele>
        <time>2022-08-07T08:26:46.824Z</time>
      </trkpt>
      <trkpt lat="44.25681" lon="1.94392">
        <ele>486.483341</ele>
        <time>2022-08-07T08:26:51.826Z</time>
      </trkpt>
      <trkpt lat="44.25689" lon="1.94385">
        <ele>486.862633</ele>
        <time>2022-08-07T08:26:57.825Z</time>
      </trkpt>
      <trkpt lat="44.25697" lon="1.9438">
        <ele>487.260377</ele>
        <time>2022-08-07T08:27:03.830Z</time>
      </trkpt>
      <trkpt lat="44.25706" lon="1.94375">
        <ele>487.66042</ele>
        <time>2022-08-07T08:27:09.822Z</time>
      </trkpt>
      <trkpt lat="44.25717" lon="1.94373">
        <ele>488.099202</ele>
        <time>2022-08-07T08:27:15.834Z</time>
      </trkpt>
      <trkpt lat="44.25725" lon="1.94368">
        <ele>488.498124</ele>
        <time>2022-08-07T08:27:22.821Z</time>
      </trkpt>
      <trkpt lat="44.25734" lon="1.94361">
        <ele>488.8971</ele>
        <time>2022-08-07T08:27:28.828Z</time>
      </trkpt>
      <trkpt lat="44.25743" lon="1.94355">
        <ele>489.322848</ele>
        <time>2022-08-07T08:27:33.823Z</time>
      </trkpt>
      <trkpt lat="44.25751" lon="1.9435">
        <ele>489.701544</ele>
        <time>2022-08-07T08:27:38.826Z</time>
      </trkpt>
      <trkpt lat="44.25759" lon="1.94345">
        <ele>490.093922</ele>
        <time>2022-08-07T08:27:43.826Z</time>
      </trkpt>
      <trkpt lat="44.25768" lon="1.94337">
        <ele>490.537289</ele>
        <time>2022-08-07T08:27:49.828Z</time>
      </trkpt>
      <trkpt lat="44.25777" lon="1.94331">
        <ele>490.947665</ele>
        <time>2022-08-07T08:27:55.824Z</time>
      </trkpt>
      <trkpt lat="44.25787" lon="1.94327">
        <ele>491.369969</ele>
        <time>2022-08-07T08:28:01.824Z</time>
      </trkpt>
      <trkpt lat="44.25795" lon="1.94321">
        <ele>491.778889</ele>
        <time>2022-08-07T08:28:08.826Z</time>
      </trkpt>
      <trkpt lat="44.25805" lon="1.9432">
        <ele>492.173185</ele>
        <time>2022-08-07T08:28:14.825Z</time>
      </trkpt>
      <trkpt lat="44.25814" lon="1.94316">
        <ele>492.582509</ele>
        <time>2022-08-07T08:28:20.825Z</time>
      </trkpt>
      <trkpt lat="44.25823" lon="1.94313">
        <ele>492.988968</ele>
        <time>2022-08-07T08:28:27.826Z</time>
      </trkpt>
      <trkpt lat="44.25834" lon="1.94312">
        <ele>493.41735</ele>
        <time>2022-08-07T08:28:32.825Z</time>
      </trkpt>
      <trkpt lat="44.25842" lon="1.94319">
        <ele>493.776931</ele>
        <time>2022-08-07T08:28:39.827Z</time>
      </trkpt>
      <trkpt lat="44.25849" lon="1.94329">
        <ele>494.115552</ele>
        <time>2022-08-07T08:28:44.828Z</time>
      </trkpt>
      <trkpt lat="44.25858" lon="1.94338">
        <ele>494.519548</ele>
        <time>2022-08-07T08:28:50.825Z</time>
      </trkpt>
      <trkpt lat="44.25867" lon="1.94346">
        <ele>494.919411</ele>
        <time>2022-08-07T08:28:55.828Z</time>
      </trkpt>
      <trkpt lat="44.25875" lon="1.94353">
        <ele>495.258071</ele>
        <time>2022-08-07T08:28:59.830Z</time>
      </trkpt>
      <trkpt lat="44.25883" lon="1.94363">
        <ele>495.648059</ele>
        <time>2022-08-07T08:29:03.827Z</time>
      </trkpt>
      <trkpt lat="44.25892" lon="1.94374">
        <ele>496.082943</ele>
        <time>2022-08-07T08:29:06.826Z</time>
      </trkpt>
      <trkpt lat="44.25899" lon="1.94386">
        <ele>496.485552</ele>
        <time>2022-08-07T08:29:09.824Z</time>
      </trkpt>
      <trkpt lat="44.25901" lon="1.944">
        <ele>496.86158</ele>
        <time>2022-08-07T08:29:13.822Z</time>
      </trkpt>
      <trkpt lat="44.25903" lon="1.94414">
        <ele>497.239616</ele>
        <time>2022-08-07T08:29:18.820Z</time>
      </trkpt>
      <trkpt lat="44.25905" lon="1.94428">
        <ele>497.599206</ele>
        <time>2022-08-07T08:29:22.827Z</time>
      </trkpt>
      <trkpt lat="44.25908" lon="1.94443">
        <ele>497.993299</ele>
        <time>2022-08-07T08:29:26.830Z</time>
      </trkpt>
      <trkpt lat="44.25912" lon="1.94456">
        <ele>498.37476</ele>
        <time>2022-08-07T08:29:30.826Z</time>
      </trkpt>
      <trkpt lat="44.25916" lon="1.94471">
        <ele>498.793968</ele>
        <time>2022-08-07T08:29:34.823Z</time>
      </trkpt>
      <trkpt lat="44.2592" lon="1.94485">
        <ele>499.183589</ele>
        <time>2022-08-07T08:29:38.827Z</time>
      </trkpt>
      <trkpt lat="44.25923" lon="1.94499">
        <ele>499.546302</ele>
        <time>2022-08-07T08:29:42.827Z</time>
      </trkpt>
      <trkpt lat="44.25924" lon="1.94513">
        <ele>499.916945</ele>
        <time>2022-08-07T08:29:46.830Z</time>
      </trkpt>
      <trkpt lat="44.25926" lon="1.94527">
        <ele>500.105085</ele>
        <time>2022-08-07T08:29:50.828Z</time>
      </trkpt>
      <trkpt lat="44.25927" lon="1.94542">
        <ele>500.30647</ele>
        <time>2022-08-07T08:29:55.828Z</time>
      </trkpt>
      <trkpt lat="44.25928" lon="1.94555">
        <ele>500.478042</ele>
        <time>2022-08-07T08:29:59.835Z</time>
      </trkpt>
      <trkpt lat="44.25927" lon="1.9457">
        <ele>500.687245</ele>
        <time>2022-08-07T08:30:04.828Z</time>
      </trkpt>
      <trkpt lat="44.25924" lon="1.94584">
        <ele>500.886371</ele>
        <time>2022-08-07T08:30:09.825Z</time>
      </trkpt>
      <trkpt lat="44.25921" lon="1.94597">
        <ele>501.057498</ele>
        <time>2022-08-07T08:30:14.828Z</time>
      </trkpt>
      <trkpt lat="44.25919" lon="1.9461">
        <ele>501.244127</ele>
        <time>2022-08-07T08:30:19.829Z</time>
      </trkpt>
      <trkpt lat="44.25916" lon="1.94624">
        <ele>501.433765</ele>
        <time>2022-08-07T08:30:24.831Z</time>
      </trkpt>
      <trkpt lat="44.25917" lon="1.94637">
        <ele>501.615943</ele>
        <time>2022-08-07T08:30:28.826Z</time>
      </trkpt>
      <trkpt lat="44.25919" lon="1.94653">
        <ele>501.833427</ele>
        <time>2022-08-07T08:30:32.827Z</time>
      </trkpt>
      <trkpt lat="44.25922" lon="1.94667">
        <ele>502.030296</ele>
        <time>2022-08-07T08:30:36.825Z</time>
      </trkpt>
      <trkpt lat="44.25927" lon="1.94681">
        <ele>502.235628</ele>
        <time>2022-08-07T08:30:40.831Z</time>
      </trkpt>
      <trkpt lat="44.25933" lon="1.94694">
        <ele>502.437225</ele>
        <time>2022-08-07T08:30:44.829Z</time>
      </trkpt>
      <trkpt lat="44.25937" lon="1.94706">
        <ele>502.61852</ele>
        <time>2022-08-07T08:30:47.825Z</time>
      </trkpt>
      <trkpt lat="44.25941" lon="1.94718">
        <ele>502.789462</ele>
        <time>2022-08-07T08:30:50.831Z</time>
      </trkpt>
      <trkpt lat="44.25942" lon="1.94733">
        <ele>502.98826</ele>
        <time>2022-08-07T08:30:54.829Z</time>
      </trkpt>
      <trkpt lat="44.25941" lon="1.94746">
        <ele>503.164793</ele>
        <time>2022-08-07T08:30:58.826Z</time>
      </trkpt>
      <trkpt lat="44.2594" lon="1.94762">
        <ele>503.493244</ele>
        <time>2022-08-07T08:31:02.827Z</time>
      </trkpt>
      <trkpt lat="44.2594" lon="1.94778">
        <ele>503.977148</ele>
        <time>2022-08-07T08:31:06.828Z</time>
      </trkpt>
      <trkpt lat="44.25938" lon="1.94794">
        <ele>504.441365</ele>
        <time>2022-08-07T08:31:10.820Z</time>
      </trkpt>
      <trkpt lat="44.25937" lon="1.94809">
        <ele>504.879388</ele>
        <time>2022-08-07T08:31:14.824Z</time>
      </trkpt>
      <trkpt lat="44.25936" lon="1.94823">
        <ele>505.258385</ele>
        <time>2022-08-07T08:31:18.825Z</time>
      </trkpt>
      <trkpt lat="44.25934" lon="1.94838">
        <ele>505.695911</ele>
        <time>2022-08-07T08:31:22.828Z</time>
      </trkpt>
      <trkpt lat="44.25933" lon="1.94851">
        <ele>506.09524</ele>
        <time>2022-08-07T08:31:26.817Z</time>
      </trkpt>
      <trkpt lat="44.25933" lon="1.94866">
        <ele>506.518303</ele>
        <time>2022-08-07T08:31:31.826Z</time>
      </trkpt>
      <trkpt lat="44.25932" lon="1.94879">
        <ele>506.891579</ele>
        <time>2022-08-07T08:31:36.827Z</time>
      </trkpt>
      <trkpt lat="44.25932" lon="1.94894">
        <ele>507.315157</ele>
        <time>2022-08-07T08:31:42.827Z</time>
      </trkpt>
      <trkpt lat="44.25932" lon="1.94907">
        <ele>507.686462</ele>
        <time>2022-08-07T08:31:47.826Z</time>
      </trkpt>
      <trkpt lat="44.25933" lon="1.94919">
        <ele>508.056752</ele>
        <time>2022-08-07T08:31:52.830Z</time>
      </trkpt>
      <trkpt lat="44.25935" lon="1.94933">
        <ele>508.45898</ele>
        <time>2022-08-07T08:31:57.824Z</time>
      </trkpt>
      <trkpt lat="44.25937" lon="1.94947">
        <ele>508.864645</ele>
        <time>2022-08-07T08:32:02.832Z</time>
      </trkpt>
      <trkpt lat="44.25938" lon="1.9496">
        <ele>509.253533</ele>
        <time>2022-08-07T08:32:06.824Z</time>
      </trkpt>
      <trkpt lat="44.2594" lon="1.94974">
        <ele>509.655761</ele>
        <time>2022-08-07T08:32:10.826Z</time>
      </trkpt>
      <trkpt lat="44.25943" lon="1.94987">
        <ele>510.054048</ele>
        <time>2022-08-07T08:32:15.830Z</time>
      </trkpt>
      <trkpt lat="44.25952" lon="1.94987">
        <ele>510.419591</ele>
        <time>2022-08-07T08:32:19.827Z</time>
      </trkpt>
      <trkpt lat="44.25963" lon="1.94982">
        <ele>510.218467</ele>
        <time>2022-08-07T08:32:23.145Z</time>
      </trkpt>
      <trkpt lat="44.25971" lon="1.94977">
        <ele>509.932406</ele>
        <time>2022-08-07T08:32:24.827Z</time>
      </trkpt>
      <trkpt lat="44.25983" lon="1.94969">
        <ele>509.508069</ele>
        <time>2022-08-07T08:32:27.823Z</time>
      </trkpt>
      <trkpt lat="44.25992" lon="1.94962">
        <ele>509.187543</ele>
        <time>2022-08-07T08:32:29.817Z</time>
      </trkpt>
      <trkpt lat="44.26001" lon="1.94954">
        <ele>508.842246</ele>
        <time>2022-08-07T08:32:31.822Z</time>
      </trkpt>
      <trkpt lat="44.26011" lon="1.94944">
        <ele>508.468977</ele>
        <time>2022-08-07T08:32:33.824Z</time>
      </trkpt>
      <trkpt lat="44.26021" lon="1.94932">
        <ele>508.038254</ele>
        <time>2022-08-07T08:32:35.831Z</time>
      </trkpt>
      <trkpt lat="44.26032" lon="1.9492">
        <ele>507.61321</ele>
        <time>2022-08-07T08:32:37.815Z</time>
      </trkpt>
      <trkpt lat="44.26043" lon="1.94909">
        <ele>507.181345</ele>
        <time>2022-08-07T08:32:39.823Z</time>
      </trkpt>
      <trkpt lat="44.26054" lon="1.94898">
        <ele>506.757429</ele>
        <time>2022-08-07T08:32:41.821Z</time>
      </trkpt>
      <trkpt lat="44.26065" lon="1.94886">
        <ele>506.298621</ele>
        <time>2022-08-07T08:32:43.824Z</time>
      </trkpt>
      <trkpt lat="44.26078" lon="1.94875">
        <ele>505.828563</ele>
        <time>2022-08-07T08:32:45.822Z</time>
      </trkpt>
      <trkpt lat="44.2609" lon="1.94863">
        <ele>505.352929</ele>
        <time>2022-08-07T08:32:47.821Z</time>
      </trkpt>
      <trkpt lat="44.26103" lon="1.94851">
        <ele>504.879897</ele>
        <time>2022-08-07T08:32:49.827Z</time>
      </trkpt>
      <trkpt lat="44.26115" lon="1.94839">
        <ele>504.420168</ele>
        <time>2022-08-07T08:32:51.825Z</time>
      </trkpt>
      <trkpt lat="44.26128" lon="1.94825">
        <ele>503.889556</ele>
        <time>2022-08-07T08:32:53.821Z</time>
      </trkpt>
      <trkpt lat="44.26139" lon="1.9481">
        <ele>503.399547</ele>
        <time>2022-08-07T08:32:55.826Z</time>
      </trkpt>
      <trkpt lat="44.26149" lon="1.94795">
        <ele>502.934309</ele>
        <time>2022-08-07T08:32:57.824Z</time>
      </trkpt>
      <trkpt lat="44.2616" lon="1.94779">
        <ele>502.451754</ele>
        <time>2022-08-07T08:32:59.818Z</time>
      </trkpt>
      <trkpt lat="44.26169" lon="1.9476">
        <ele>501.932629</ele>
        <time>2022-08-07T08:33:01.821Z</time>
      </trkpt>
      <trkpt lat="44.26176" lon="1.94742">
        <ele>501.472436</ele>
        <time>2022-08-07T08:33:03.822Z</time>
      </trkpt>
      <trkpt lat="44.26181" lon="1.94727">
        <ele>501.08769</ele>
        <time>2022-08-07T08:33:05.827Z</time>
      </trkpt>
      <trkpt lat="44.26186" lon="1.94713">
        <ele>500.747956</ele>
        <time>2022-08-07T08:33:07.823Z</time>
      </trkpt>
      <trkpt lat="44.2619" lon="1.94698">
        <ele>500.387027</ele>
        <time>2022-08-07T08:33:09.825Z</time>
      </trkpt>
      <trkpt lat="44.26195" lon="1.94681">
        <ele>499.95337</ele>
        <time>2022-08-07T08:33:11.823Z</time>
      </trkpt>
      <trkpt lat="44.262" lon="1.94662">
        <ele>499.502421</ele>
        <time>2022-08-07T08:33:13.821Z</time>
      </trkpt>
      <trkpt lat="44.26206" lon="1.94646">
        <ele>499.111181</ele>
        <time>2022-08-07T08:33:15.827Z</time>
      </trkpt>
      <trkpt lat="44.26212" lon="1.94632">
        <ele>498.859626</ele>
        <time>2022-08-07T08:33:17.821Z</time>
      </trkpt>
      <trkpt lat="44.26222" lon="1.94618">
        <ele>498.556763</ele>
        <time>2022-08-07T08:33:19.823Z</time>
      </trkpt>
      <trkpt lat="44.26231" lon="1.94604">
        <ele>498.2689</ele>
        <time>2022-08-07T08:33:21.824Z</time>
      </trkpt>
      <trkpt lat="44.26235" lon="1.94589">
        <ele>498.009001</ele>
        <time>2022-08-07T08:33:23.824Z</time>
      </trkpt>
      <trkpt lat="44.26239" lon="1.94575">
        <ele>497.780912</ele>
        <time>2022-08-07T08:33:25.818Z</time>
      </trkpt>
      <trkpt lat="44.26244" lon="1.94561">
        <ele>497.529488</ele>
        <time>2022-08-07T08:33:27.828Z</time>
      </trkpt>
      <trkpt lat="44.26247" lon="1.94548">
        <ele>497.315691</ele>
        <time>2022-08-07T08:33:29.827Z</time>
      </trkpt>
      <trkpt lat="44.2625" lon="1.94534">
        <ele>497.095914</ele>
        <time>2022-08-07T08:33:31.831Z</time>
      </trkpt>
      <trkpt lat="44.26255" lon="1.94521">
        <ele>496.86279</ele>
        <time>2022-08-07T08:33:33.821Z</time>
      </trkpt>
      <trkpt lat="44.2626" lon="1.9451">
        <ele>496.652312</ele>
        <time>2022-08-07T08:33:35.824Z</time>
      </trkpt>
      <trkpt lat="44.26266" lon="1.94493">
        <ele>496.360526</ele>
        <time>2022-08-07T08:33:38.830Z</time>
      </trkpt>
      <trkpt lat="44.2627" lon="1.94481">
        <ele>496.157413</ele>
        <time>2022-08-07T08:33:40.819Z</time>
      </trkpt>
      <trkpt lat="44.26273" lon="1.94468">
        <ele>495.936345</ele>
        <time>2022-08-07T08:33:42.820Z</time>
      </trkpt>
      <trkpt lat="44.26275" lon="1.94449">
        <ele>495.648886</ele>
        <time>2022-08-07T08:33:45.823Z</time>
      </trkpt>
      <trkpt lat="44.26277" lon="1.94437">
        <ele>495.445049</ele>
        <time>2022-08-07T08:33:47.824Z</time>
      </trkpt>
      <trkpt lat="44.2628" lon="1.94424">
        <ele>495.216331</ele>
        <time>2022-08-07T08:33:49.820Z</time>
      </trkpt>
      <trkpt lat="44.26284" lon="1.94406">
        <ele>494.194987</ele>
        <time>2022-08-07T08:33:52.825Z</time>
      </trkpt>
      <trkpt lat="44.26288" lon="1.94393">
        <ele>493.446066</ele>
        <time>2022-08-07T08:33:54.823Z</time>
      </trkpt>
      <trkpt lat="44.26292" lon="1.9438">
        <ele>492.643996</ele>
        <time>2022-08-07T08:33:56.818Z</time>
      </trkpt>
      <trkpt lat="44.26297" lon="1.94365">
        <ele>491.765776</ele>
        <time>2022-08-07T08:33:58.822Z</time>
      </trkpt>
      <trkpt lat="44.26302" lon="1.9435">
        <ele>490.855031</ele>
        <time>2022-08-07T08:34:00.825Z</time>
      </trkpt>
      <trkpt lat="44.26305" lon="1.94336">
        <ele>490.031463</ele>
        <time>2022-08-07T08:34:02.821Z</time>
      </trkpt>
      <trkpt lat="44.26308" lon="1.94322">
        <ele>489.275422</ele>
        <time>2022-08-07T08:34:04.820Z</time>
      </trkpt>
      <trkpt lat="44.26311" lon="1.94306">
        <ele>488.336786</ele>
        <time>2022-08-07T08:34:06.829Z</time>
      </trkpt>
      <trkpt lat="44.26314" lon="1.94289">
        <ele>487.421178</ele>
        <time>2022-08-07T08:34:08.825Z</time>
      </trkpt>
      <trkpt lat="44.26318" lon="1.94273">
        <ele>486.466893</ele>
        <time>2022-08-07T08:34:10.826Z</time>
      </trkpt>
      <trkpt lat="44.26323" lon="1.94256">
        <ele>485.439083</ele>
        <time>2022-08-07T08:34:12.821Z</time>
      </trkpt>
      <trkpt lat="44.2633" lon="1.9424">
        <ele>484.443933</ele>
        <time>2022-08-07T08:34:14.819Z</time>
      </trkpt>
      <trkpt lat="44.26337" lon="1.94224">
        <ele>483.410509</ele>
        <time>2022-08-07T08:34:16.826Z</time>
      </trkpt>
      <trkpt lat="44.26343" lon="1.94209">
        <ele>482.471474</ele>
        <time>2022-08-07T08:34:18.823Z</time>
      </trkpt>
      <trkpt lat="44.26349" lon="1.94195">
        <ele>481.579259</ele>
        <time>2022-08-07T08:34:20.824Z</time>
      </trkpt>
      <trkpt lat="44.26354" lon="1.94181">
        <ele>480.416701</ele>
        <time>2022-08-07T08:34:22.826Z</time>
      </trkpt>
      <trkpt lat="44.26358" lon="1.94169">
        <ele>479.335434</ele>
        <time>2022-08-07T08:34:24.828Z</time>
      </trkpt>
      <trkpt lat="44.26364" lon="1.94157">
        <ele>478.215743</ele>
        <time>2022-08-07T08:34:26.825Z</time>
      </trkpt>
      <trkpt lat="44.26371" lon="1.94143">
        <ele>476.84998</ele>
        <time>2022-08-07T08:34:28.824Z</time>
      </trkpt>
      <trkpt lat="44.26379" lon="1.94128">
        <ele>475.388943</ele>
        <time>2022-08-07T08:34:30.827Z</time>
      </trkpt>
      <trkpt lat="44.26391" lon="1.94116">
        <ele>473.798437</ele>
        <time>2022-08-07T08:34:32.821Z</time>
      </trkpt>
      <trkpt lat="44.26404" lon="1.94107">
        <ele>472.138424</ele>
        <time>2022-08-07T08:34:34.834Z</time>
      </trkpt>
      <trkpt lat="44.26416" lon="1.94101">
        <ele>470.756247</ele>
        <time>2022-08-07T08:34:36.819Z</time>
      </trkpt>
      <trkpt lat="44.26427" lon="1.94093">
        <ele>469.446076</ele>
        <time>2022-08-07T08:34:38.827Z</time>
      </trkpt>
      <trkpt lat="44.26436" lon="1.94085">
        <ele>468.236842</ele>
        <time>2022-08-07T08:34:40.819Z</time>
      </trkpt>
      <trkpt lat="44.26446" lon="1.94076">
        <ele>466.921677</ele>
        <time>2022-08-07T08:34:42.824Z</time>
      </trkpt>
      <trkpt lat="44.26454" lon="1.94066">
        <ele>465.693821</ele>
        <time>2022-08-07T08:34:44.825Z</time>
      </trkpt>
      <trkpt lat="44.26466" lon="1.94057">
        <ele>464.251388</ele>
        <time>2022-08-07T08:34:47.822Z</time>
      </trkpt>
      <trkpt lat="44.26477" lon="1.94054">
        <ele>463.002892</ele>
        <time>2022-08-07T08:34:49.820Z</time>
      </trkpt>
      <trkpt lat="44.2649" lon="1.9405">
        <ele>461.523753</ele>
        <time>2022-08-07T08:34:51.825Z</time>
      </trkpt>
      <trkpt lat="44.26504" lon="1.94048">
        <ele>459.735801</ele>
        <time>2022-08-07T08:34:53.828Z</time>
      </trkpt>
      <trkpt lat="44.26519" lon="1.94046">
        <ele>457.88558</ele>
        <time>2022-08-07T08:34:55.820Z</time>
      </trkpt>
      <trkpt lat="44.26536" lon="1.94044">
        <ele>455.69798</ele>
        <time>2022-08-07T08:34:57.822Z</time>
      </trkpt>
      <trkpt lat="44.26552" lon="1.94043">
        <ele>453.705819</ele>
        <time>2022-08-07T08:34:59.826Z</time>
      </trkpt>
      <trkpt lat="44.26565" lon="1.94043">
        <ele>452.153088</ele>
        <time>2022-08-07T08:35:01.822Z</time>
      </trkpt>
      <trkpt lat="44.26573" lon="1.94049">
        <ele>450.953587</ele>
        <time>2022-08-07T08:35:02.846Z</time>
      </trkpt>
      <trkpt lat="44.26585" lon="1.94055">
        <ele>449.321769</ele>
        <time>2022-08-07T08:35:04.820Z</time>
      </trkpt>
      <trkpt lat="44.26594" lon="1.94061">
        <ele>448.087606</ele>
        <time>2022-08-07T08:35:06.823Z</time>
      </trkpt>
      <trkpt lat="44.26607" lon="1.94072">
        <ele>446.262467</ele>
        <time>2022-08-07T08:35:09.824Z</time>
      </trkpt>
      <trkpt lat="44.26614" lon="1.9408">
        <ele>445.103074</ele>
        <time>2022-08-07T08:35:11.823Z</time>
      </trkpt>
      <trkpt lat="44.26621" lon="1.94093">
        <ele>443.657686</ele>
        <time>2022-08-07T08:35:14.820Z</time>
      </trkpt>
      <trkpt lat="44.26627" lon="1.94105">
        <ele>442.367256</ele>
        <time>2022-08-07T08:35:18.820Z</time>
      </trkpt>
      <trkpt lat="44.26636" lon="1.94099">
        <ele>441.104551</ele>
        <time>2022-08-07T08:35:22.811Z</time>
      </trkpt>
      <trkpt lat="44.26643" lon="1.94089">
        <ele>439.863416</ele>
        <time>2022-08-07T08:35:25.826Z</time>
      </trkpt>
      <trkpt lat="44.26649" lon="1.94072">
        <ele>438.533381</ele>
        <time>2022-08-07T08:35:28.821Z</time>
      </trkpt>
      <trkpt lat="44.26654" lon="1.9406">
        <ele>437.630795</ele>
        <time>2022-08-07T08:35:30.825Z</time>
      </trkpt>
      <trkpt lat="44.26659" lon="1.94044">
        <ele>436.612513</ele>
        <time>2022-08-07T08:35:33.823Z</time>
      </trkpt>
      <trkpt lat="44.26664" lon="1.94031">
        <ele>435.717263</ele>
        <time>2022-08-07T08:35:37.820Z</time>
      </trkpt>
      <trkpt lat="44.26663" lon="1.94016">
        <ele>434.753591</ele>
        <time>2022-08-07T08:35:41.821Z</time>
      </trkpt>
      <trkpt lat="44.26661" lon="1.94001">
        <ele>433.839549</ele>
        <time>2022-08-07T08:35:44.824Z</time>
      </trkpt>
      <trkpt lat="44.26657" lon="1.93986">
        <ele>432.838361</ele>
        <time>2022-08-07T08:35:47.819Z</time>
      </trkpt>
      <trkpt lat="44.2665" lon="1.9397">
        <ele>431.707969</ele>
        <time>2022-08-07T08:35:50.826Z</time>
      </trkpt>
      <trkpt lat="44.26642" lon="1.93955">
        <ele>430.586677</ele>
        <time>2022-08-07T08:35:53.820Z</time>
      </trkpt>
      <trkpt lat="44.26636" lon="1.93943">
        <ele>429.686544</ele>
        <time>2022-08-07T08:35:55.826Z</time>
      </trkpt>
      <trkpt lat="44.26628" lon="1.93931">
        <ele>428.69742</ele>
        <time>2022-08-07T08:35:57.817Z</time>
      </trkpt>
      <trkpt lat="44.2662" lon="1.93919">
        <ele>427.733195</ele>
        <time>2022-08-07T08:35:59.824Z</time>
      </trkpt>
      <trkpt lat="44.26613" lon="1.93907">
        <ele>426.797554</ele>
        <time>2022-08-07T08:36:01.827Z</time>
      </trkpt>
      <trkpt lat="44.26606" lon="1.93896">
        <ele>425.906822</ele>
        <time>2022-08-07T08:36:03.824Z</time>
      </trkpt>
      <trkpt lat="44.26601" lon="1.93883">
        <ele>424.994679</ele>
        <time>2022-08-07T08:36:05.825Z</time>
      </trkpt>
      <trkpt lat="44.26598" lon="1.93869">
        <ele>424.110078</ele>
        <time>2022-08-07T08:36:08.821Z</time>
      </trkpt>
      <trkpt lat="44.26595" lon="1.93857">
        <ele>423.67265</ele>
        <time>2022-08-07T08:36:11.819Z</time>
      </trkpt>
      <trkpt lat="44.26596" lon="1.93844">
        <ele>423.275275</ele>
        <time>2022-08-07T08:36:13.819Z</time>
      </trkpt>
      <trkpt lat="44.266" lon="1.93825">
        <ele>422.707874</ele>
        <time>2022-08-07T08:36:16.827Z</time>
      </trkpt>
      <trkpt lat="44.26603" lon="1.93812">
        <ele>422.328425</ele>
        <time>2022-08-07T08:36:18.825Z</time>
      </trkpt>
      <trkpt lat="44.26606" lon="1.93797">
        <ele>421.888101</ele>
        <time>2022-08-07T08:36:20.820Z</time>
      </trkpt>
      <trkpt lat="44.26607" lon="1.93782">
        <ele>421.442144</ele>
        <time>2022-08-07T08:36:22.820Z</time>
      </trkpt>
      <trkpt lat="44.2661" lon="1.93769">
        <ele>421.063473</ele>
        <time>2022-08-07T08:36:24.823Z</time>
      </trkpt>
      <trkpt lat="44.26613" lon="1.93754">
        <ele>420.585867</ele>
        <time>2022-08-07T08:36:27.820Z</time>
      </trkpt>
      <trkpt lat="44.26617" lon="1.93737">
        <ele>420.081047</ele>
        <time>2022-08-07T08:36:31.823Z</time>
      </trkpt>
      <trkpt lat="44.26621" lon="1.93725">
        <ele>419.699496</ele>
        <time>2022-08-07T08:36:33.820Z</time>
      </trkpt>
      <trkpt lat="44.26626" lon="1.93711">
        <ele>419.239629</ele>
        <time>2022-08-07T08:36:37.823Z</time>
      </trkpt>
      <trkpt lat="44.26629" lon="1.93695">
        <ele>418.77038</ele>
        <time>2022-08-07T08:36:41.819Z</time>
      </trkpt>
      <trkpt lat="44.26632" lon="1.93683">
        <ele>418.38548</ele>
        <time>2022-08-07T08:36:46.582Z</time>
      </trkpt>
      <trkpt lat="44.26632" lon="1.93668">
        <ele>417.955178</ele>
        <time>2022-08-07T08:37:44.573Z</time>
      </trkpt>
      <trkpt lat="44.26634" lon="1.93655">
        <ele>417.581252</ele>
        <time>2022-08-07T08:37:49.572Z</time>
      </trkpt>
      <trkpt lat="44.26637" lon="1.93642">
        <ele>417.189735</ele>
        <time>2022-08-07T08:37:56.568Z</time>
      </trkpt>
      <trkpt lat="44.26637" lon="1.93629">
        <ele>416.805572</ele>
        <time>2022-08-07T08:38:00.572Z</time>
      </trkpt>
      <trkpt lat="44.26632" lon="1.93617">
        <ele>415.671572</ele>
        <time>2022-08-07T08:38:04.574Z</time>
      </trkpt>
      <trkpt lat="44.26633" lon="1.93603">
        <ele>414.168127</ele>
        <time>2022-08-07T08:38:09.575Z</time>
      </trkpt>
      <trkpt lat="44.26635" lon="1.9359">
        <ele>412.808592</ele>
        <time>2022-08-07T08:38:13.576Z</time>
      </trkpt>
      <trkpt lat="44.26639" lon="1.93579">
        <ele>411.5085</ele>
        <time>2022-08-07T08:38:17.577Z</time>
      </trkpt>
      <trkpt lat="44.26642" lon="1.93566">
        <ele>410.159792</ele>
        <time>2022-08-07T08:38:22.570Z</time>
      </trkpt>
      <trkpt lat="44.26644" lon="1.93553">
        <ele>408.806402</ele>
        <time>2022-08-07T08:38:26.573Z</time>
      </trkpt>
      <trkpt lat="44.26639" lon="1.93541">
        <ele>407.296772</ele>
        <time>2022-08-07T08:38:32.569Z</time>
      </trkpt>
      <trkpt lat="44.26643" lon="1.93523">
        <ele>405.408959</ele>
        <time>2022-08-07T08:38:35.571Z</time>
      </trkpt>
      <trkpt lat="44.26646" lon="1.93511">
        <ele>404.079637</ele>
        <time>2022-08-07T08:38:37.572Z</time>
      </trkpt>
      <trkpt lat="44.26647" lon="1.93493">
        <ele>402.28727</ele>
        <time>2022-08-07T08:38:40.573Z</time>
      </trkpt>
      <trkpt lat="44.26647" lon="1.93478">
        <ele>400.741889</ele>
        <time>2022-08-07T08:38:43.579Z</time>
      </trkpt>
      <trkpt lat="44.26651" lon="1.93463">
        <ele>399.118929</ele>
        <time>2022-08-07T08:38:46.578Z</time>
      </trkpt>
      <trkpt lat="44.2665" lon="1.93451">
        <ele>397.824846</ele>
        <time>2022-08-07T08:38:49.576Z</time>
      </trkpt>
      <trkpt lat="44.2665" lon="1.93435">
        <ele>396.238881</ele>
        <time>2022-08-07T08:38:52.572Z</time>
      </trkpt>
      <trkpt lat="44.2665" lon="1.9342">
        <ele>394.700076</ele>
        <time>2022-08-07T08:38:56.577Z</time>
      </trkpt>
      <trkpt lat="44.26649" lon="1.93408">
        <ele>393.380865</ele>
        <time>2022-08-07T08:39:01.577Z</time>
      </trkpt>
      <trkpt lat="44.26648" lon="1.93394">
        <ele>391.960354</ele>
        <time>2022-08-07T08:39:05.573Z</time>
      </trkpt>
      <trkpt lat="44.26651" lon="1.9338">
        <ele>390.936565</ele>
        <time>2022-08-07T08:39:09.578Z</time>
      </trkpt>
      <trkpt lat="44.2665" lon="1.93365">
        <ele>390.674128</ele>
        <time>2022-08-07T08:39:14.573Z</time>
      </trkpt>
      <trkpt lat="44.26647" lon="1.9335">
        <ele>390.41163</ele>
        <time>2022-08-07T08:39:16.574Z</time>
      </trkpt>
      <trkpt lat="44.26645" lon="1.93333">
        <ele>390.115026</ele>
        <time>2022-08-07T08:39:18.574Z</time>
      </trkpt>
      <trkpt lat="44.26646" lon="1.93312">
        <ele>389.747364</ele>
        <time>2022-08-07T08:39:20.571Z</time>
      </trkpt>
      <trkpt lat="44.2665" lon="1.93293">
        <ele>389.414343</ele>
        <time>2022-08-07T08:39:22.570Z</time>
      </trkpt>
      <trkpt lat="44.26651" lon="1.93278">
        <ele>389.163737</ele>
        <time>2022-08-07T08:39:24.574Z</time>
      </trkpt>
      <trkpt lat="44.26654" lon="1.93265">
        <ele>388.924679</ele>
        <time>2022-08-07T08:39:27.575Z</time>
      </trkpt>
      <trkpt lat="44.26663" lon="1.93272">
        <ele>388.676698</ele>
        <time>2022-08-07T08:39:30.573Z</time>
      </trkpt>
      <trkpt lat="44.26668" lon="1.93283">
        <ele>388.443916</ele>
        <time>2022-08-07T08:39:32.572Z</time>
      </trkpt>
      <trkpt lat="44.26675" lon="1.93291">
        <ele>388.225505</ele>
        <time>2022-08-07T08:39:34.575Z</time>
      </trkpt>
      <trkpt lat="44.26684" lon="1.93287">
        <ele>387.997776</ele>
        <time>2022-08-07T08:39:42.574Z</time>
      </trkpt>
      <trkpt lat="44.26683" lon="1.93273">
        <ele>387.752912</ele>
        <time>2022-08-07T08:39:48.576Z</time>
      </trkpt>
      <trkpt lat="44.26687" lon="1.93261">
        <ele>387.530168</ele>
        <time>2022-08-07T08:39:53.569Z</time>
      </trkpt>
      <trkpt lat="44.26691" lon="1.93248">
        <ele>387.292425</ele>
        <time>2022-08-07T08:39:58.571Z</time>
      </trkpt>
      <trkpt lat="44.26696" lon="1.93237">
        <ele>387.06761</ele>
        <time>2022-08-07T08:40:03.571Z</time>
      </trkpt>
      <trkpt lat="44.26701" lon="1.93225">
        <ele>386.819175</ele>
        <time>2022-08-07T08:40:08.571Z</time>
      </trkpt>
      <trkpt lat="44.26708" lon="1.93213">
        <ele>387.308304</ele>
        <time>2022-08-07T08:40:13.587Z</time>
      </trkpt>
      <trkpt lat="44.26714" lon="1.93202">
        <ele>388.13645</ele>
        <time>2022-08-07T08:40:18.572Z</time>
      </trkpt>
      <trkpt lat="44.2672" lon="1.93191">
        <ele>388.995007</ele>
        <time>2022-08-07T08:40:24.581Z</time>
      </trkpt>
      <trkpt lat="44.26724" lon="1.93181">
        <ele>389.789069</ele>
        <time>2022-08-07T08:40:29.574Z</time>
      </trkpt>
      <trkpt lat="44.2673" lon="1.93171">
        <ele>390.578697</ele>
        <time>2022-08-07T08:40:34.575Z</time>
      </trkpt>
      <trkpt lat="44.26736" lon="1.93158">
        <ele>391.479324</ele>
        <time>2022-08-07T08:40:40.573Z</time>
      </trkpt>
      <trkpt lat="44.26741" lon="1.93147">
        <ele>392.294478</ele>
        <time>2022-08-07T08:40:45.575Z</time>
      </trkpt>
      <trkpt lat="44.26747" lon="1.93136">
        <ele>393.181945</ele>
        <time>2022-08-07T08:40:51.580Z</time>
      </trkpt>
      <trkpt lat="44.26754" lon="1.93127">
        <ele>394.041627</ele>
        <time>2022-08-07T08:40:56.579Z</time>
      </trkpt>
      <trkpt lat="44.26764" lon="1.93128">
        <ele>394.850164</ele>
        <time>2022-08-07T08:41:02.578Z</time>
      </trkpt>
      <trkpt lat="44.26772" lon="1.93136">
        <ele>395.736448</ele>
        <time>2022-08-07T08:41:09.575Z</time>
      </trkpt>
      <trkpt lat="44.26775" lon="1.9315">
        <ele>396.622619</ele>
        <time>2022-08-07T08:41:16.582Z</time>
      </trkpt>
      <trkpt lat="44.26777" lon="1.93163">
        <ele>397.455175</ele>
        <time>2022-08-07T08:41:22.574Z</time>
      </trkpt>
      <trkpt lat="44.2678" lon="1.93176">
        <ele>398.312053</ele>
        <time>2022-08-07T08:41:28.575Z</time>
      </trkpt>
      <trkpt lat="44.26783" lon="1.93188">
        <ele>399.134913</ele>
        <time>2022-08-07T08:41:34.581Z</time>
      </trkpt>
      <trkpt lat="44.26788" lon="1.93199">
        <ele>399.95091</ele>
        <time>2022-08-07T08:41:40.327Z</time>
      </trkpt>
      <trkpt lat="44.26794" lon="1.9321">
        <ele>400.759837</ele>
        <time>2022-08-07T08:41:46.331Z</time>
      </trkpt>
      <trkpt lat="44.26802" lon="1.93219">
        <ele>401.633885</ele>
        <time>2022-08-07T08:41:52.335Z</time>
      </trkpt>
      <trkpt lat="44.26808" lon="1.9323">
        <ele>402.574224</ele>
        <time>2022-08-07T08:41:59.332Z</time>
      </trkpt>
      <trkpt lat="44.26814" lon="1.93241">
        <ele>403.740492</ele>
        <time>2022-08-07T08:42:06.331Z</time>
      </trkpt>
      <trkpt lat="44.26821" lon="1.9325">
        <ele>404.882999</ele>
        <time>2022-08-07T08:42:12.339Z</time>
      </trkpt>
      <trkpt lat="44.26827" lon="1.9326">
        <ele>405.959152</ele>
        <time>2022-08-07T08:42:17.324Z</time>
      </trkpt>
      <trkpt lat="44.26834" lon="1.9327">
        <ele>407.041508</ele>
        <time>2022-08-07T08:42:23.327Z</time>
      </trkpt>
      <trkpt lat="44.26841" lon="1.93279">
        <ele>408.242405</ele>
        <time>2022-08-07T08:42:29.329Z</time>
      </trkpt>
      <trkpt lat="44.26845" lon="1.93292">
        <ele>409.347158</ele>
        <time>2022-08-07T08:42:35.333Z</time>
      </trkpt>
      <trkpt lat="44.26846" lon="1.93304">
        <ele>410.422862</ele>
        <time>2022-08-07T08:42:41.329Z</time>
      </trkpt>
      <trkpt lat="44.26849" lon="1.93318">
        <ele>411.587441</ele>
        <time>2022-08-07T08:42:48.333Z</time>
      </trkpt>
      <trkpt lat="44.26851" lon="1.93331">
        <ele>412.743895</ele>
        <time>2022-08-07T08:42:56.331Z</time>
      </trkpt>
      <trkpt lat="44.26854" lon="1.93345">
        <ele>413.916601</ele>
        <time>2022-08-07T08:43:04.333Z</time>
      </trkpt>
      <trkpt lat="44.26856" lon="1.93357">
        <ele>415.013475</ele>
        <time>2022-08-07T08:43:11.336Z</time>
      </trkpt>
      <trkpt lat="44.26858" lon="1.9337">
        <ele>416.075901</ele>
        <time>2022-08-07T08:43:18.330Z</time>
      </trkpt>
      <trkpt lat="44.26862" lon="1.93381">
        <ele>417.166469</ele>
        <time>2022-08-07T08:43:25.338Z</time>
      </trkpt>
      <trkpt lat="44.26867" lon="1.93393">
        <ele>418.341983</ele>
        <time>2022-08-07T08:43:32.337Z</time>
      </trkpt>
      <trkpt lat="44.26874" lon="1.93403">
        <ele>419.472701</ele>
        <time>2022-08-07T08:43:39.336Z</time>
      </trkpt>
      <trkpt lat="44.26881" lon="1.93413">
        <ele>420.685097</ele>
        <time>2022-08-07T08:43:46.331Z</time>
      </trkpt>
      <trkpt lat="44.2689" lon="1.93421">
        <ele>421.870565</ele>
        <time>2022-08-07T08:43:52.334Z</time>
      </trkpt>
      <trkpt lat="44.26897" lon="1.9343">
        <ele>422.991674</ele>
        <time>2022-08-07T08:43:58.334Z</time>
      </trkpt>
      <trkpt lat="44.26906" lon="1.93438">
        <ele>423.576765</ele>
        <time>2022-08-07T08:44:05.337Z</time>
      </trkpt>
      <trkpt lat="44.26915" lon="1.93444">
        <ele>423.891614</ele>
        <time>2022-08-07T08:44:11.336Z</time>
      </trkpt>
      <trkpt lat="44.26924" lon="1.93452">
        <ele>424.216944</ele>
        <time>2022-08-07T08:44:17.326Z</time>
      </trkpt>
      <trkpt lat="44.26932" lon="1.9346">
        <ele>424.514084</ele>
        <time>2022-08-07T08:44:22.334Z</time>
      </trkpt>
      <trkpt lat="44.26941" lon="1.93467">
        <ele>424.851648</ele>
        <time>2022-08-07T08:44:27.330Z</time>
      </trkpt>
      <trkpt lat="44.2695" lon="1.93475">
        <ele>425.180759</ele>
        <time>2022-08-07T08:44:33.331Z</time>
      </trkpt>
      <trkpt lat="44.26958" lon="1.93482">
        <ele>425.472742</ele>
        <time>2022-08-07T08:44:38.334Z</time>
      </trkpt>
      <trkpt lat="44.26968" lon="1.9349">
        <ele>425.81826</ele>
        <time>2022-08-07T08:44:43.333Z</time>
      </trkpt>
      <trkpt lat="44.26977" lon="1.93493">
        <ele>426.109462</ele>
        <time>2022-08-07T08:44:47.331Z</time>
      </trkpt>
      <trkpt lat="44.26987" lon="1.93495">
        <ele>426.405266</ele>
        <time>2022-08-07T08:44:51.337Z</time>
      </trkpt>
      <trkpt lat="44.26998" lon="1.93495">
        <ele>426.747468</ele>
        <time>2022-08-07T08:44:57.343Z</time>
      </trkpt>
      <trkpt lat="44.27009" lon="1.93498">
        <ele>427.089485</ele>
        <time>2022-08-07T08:45:01.329Z</time>
      </trkpt>
      <trkpt lat="44.27019" lon="1.93505">
        <ele>427.438824</ele>
        <time>2022-08-07T08:45:04.331Z</time>
      </trkpt>
      <trkpt lat="44.27029" lon="1.9351">
        <ele>427.771743</ele>
        <time>2022-08-07T08:45:07.335Z</time>
      </trkpt>
      <trkpt lat="44.27039" lon="1.93515">
        <ele>428.089687</ele>
        <time>2022-08-07T08:45:10.334Z</time>
      </trkpt>
      <trkpt lat="44.2705" lon="1.9352">
        <ele>428.451874</ele>
        <time>2022-08-07T08:45:14.331Z</time>
      </trkpt>
      <trkpt lat="44.27061" lon="1.93524">
        <ele>428.798641</ele>
        <time>2022-08-07T08:45:18.331Z</time>
      </trkpt>
      <trkpt lat="44.27071" lon="1.93527">
        <ele>428.664564</ele>
        <time>2022-08-07T08:45:22.330Z</time>
      </trkpt>
      <trkpt lat="44.2708" lon="1.93532">
        <ele>428.315494</ele>
        <time>2022-08-07T08:45:25.329Z</time>
      </trkpt>
      <trkpt lat="44.27091" lon="1.93538">
        <ele>427.93236</ele>
        <time>2022-08-07T08:45:28.333Z</time>
      </trkpt>
      <trkpt lat="44.27102" lon="1.93544">
        <ele>427.50636</ele>
        <time>2022-08-07T08:45:31.337Z</time>
      </trkpt>
      <trkpt lat="44.27115" lon="1.93551">
        <ele>427.049013</ele>
        <time>2022-08-07T08:45:34.330Z</time>
      </trkpt>
      <trkpt lat="44.27124" lon="1.93557">
        <ele>426.703539</ele>
        <time>2022-08-07T08:45:36.328Z</time>
      </trkpt>
      <trkpt lat="44.27133" lon="1.93566">
        <ele>426.331544</ele>
        <time>2022-08-07T08:45:38.330Z</time>
      </trkpt>
      <trkpt lat="44.27144" lon="1.93574">
        <ele>425.905912</ele>
        <time>2022-08-07T08:45:40.330Z</time>
      </trkpt>
      <trkpt lat="44.27156" lon="1.9358">
        <ele>425.488345</ele>
        <time>2022-08-07T08:45:42.332Z</time>
      </trkpt>
      <trkpt lat="44.27166" lon="1.93587">
        <ele>425.087432</ele>
        <time>2022-08-07T08:45:44.333Z</time>
      </trkpt>
      <trkpt lat="44.27176" lon="1.93593">
        <ele>424.714606</ele>
        <time>2022-08-07T08:45:46.330Z</time>
      </trkpt>
      <trkpt lat="44.27186" lon="1.936">
        <ele>424.343852</ele>
        <time>2022-08-07T08:45:48.331Z</time>
      </trkpt>
      <trkpt lat="44.27195" lon="1.93605">
        <ele>424.002778</ele>
        <time>2022-08-07T08:45:50.338Z</time>
      </trkpt>
      <trkpt lat="44.27204" lon="1.9361">
        <ele>423.694696</ele>
        <time>2022-08-07T08:45:52.331Z</time>
      </trkpt>
      <trkpt lat="44.27214" lon="1.93615">
        <ele>423.333488</ele>
        <time>2022-08-07T08:45:54.332Z</time>
      </trkpt>
      <trkpt lat="44.27222" lon="1.93623">
        <ele>422.984987</ele>
        <time>2022-08-07T08:45:56.335Z</time>
      </trkpt>
      <trkpt lat="44.27234" lon="1.93626">
        <ele>423.03248</ele>
        <time>2022-08-07T08:45:59.333Z</time>
      </trkpt>
      <trkpt lat="44.27245" lon="1.93616">
        <ele>423.52666</ele>
        <time>2022-08-07T08:46:02.333Z</time>
      </trkpt>
      <trkpt lat="44.2725" lon="1.93602">
        <ele>423.954794</ele>
        <time>2022-08-07T08:46:05.334Z</time>
      </trkpt>
      <trkpt lat="44.27252" lon="1.9359">
        <ele>424.312477</ele>
        <time>2022-08-07T08:46:09.331Z</time>
      </trkpt>
      <trkpt lat="44.27253" lon="1.93577">
        <ele>424.668888</ele>
        <time>2022-08-07T08:46:13.329Z</time>
      </trkpt>
      <trkpt lat="44.27255" lon="1.93564">
        <ele>425.02982</ele>
        <time>2022-08-07T08:46:16.335Z</time>
      </trkpt>
      <trkpt lat="44.27257" lon="1.93552">
        <ele>425.378626</ele>
        <time>2022-08-07T08:46:19.330Z</time>
      </trkpt>
      <trkpt lat="44.27259" lon="1.93539">
        <ele>425.730134</ele>
        <time>2022-08-07T08:46:22.339Z</time>
      </trkpt>
      <trkpt lat="44.27261" lon="1.93527">
        <ele>426.076054</ele>
        <time>2022-08-07T08:46:25.334Z</time>
      </trkpt>
      <trkpt lat="44.27265" lon="1.93514">
        <ele>426.454485</ele>
        <time>2022-08-07T08:46:29.333Z</time>
      </trkpt>
      <trkpt lat="44.27269" lon="1.93502">
        <ele>426.817771</ele>
        <time>2022-08-07T08:46:33.326Z</time>
      </trkpt>
      <trkpt lat="44.27274" lon="1.93492">
        <ele>427.167558</ele>
        <time>2022-08-07T08:46:37.331Z</time>
      </trkpt>
      <trkpt lat="44.2728" lon="1.9348">
        <ele>427.578002</ele>
        <time>2022-08-07T08:46:42.331Z</time>
      </trkpt>
      <trkpt lat="44.27285" lon="1.93465">
        <ele>428.008416</ele>
        <time>2022-08-07T08:46:47.329Z</time>
      </trkpt>
      <trkpt lat="44.27289" lon="1.93452">
        <ele>428.407615</ele>
        <time>2022-08-07T08:46:52.336Z</time>
      </trkpt>
      <trkpt lat="44.27291" lon="1.93438">
        <ele>428.797376</ele>
        <time>2022-08-07T08:46:57.326Z</time>
      </trkpt>
      <trkpt lat="44.27292" lon="1.93423">
        <ele>429.21987</ele>
        <time>2022-08-07T08:47:02.334Z</time>
      </trkpt>
      <trkpt lat="44.27292" lon="1.93409">
        <ele>429.600393</ele>
        <time>2022-08-07T08:47:07.329Z</time>
      </trkpt>
      <trkpt lat="44.27295" lon="1.93395">
        <ele>430.103517</ele>
        <time>2022-08-07T08:47:13.329Z</time>
      </trkpt>
      <trkpt lat="44.27296" lon="1.93381">
        <ele>430.613901</ele>
        <time>2022-08-07T08:47:18.331Z</time>
      </trkpt>
      <trkpt lat="44.27296" lon="1.93366">
        <ele>431.160038</ele>
        <time>2022-08-07T08:47:23.326Z</time>
      </trkpt>
      <trkpt lat="44.27297" lon="1.93353">
        <ele>431.672771</ele>
        <time>2022-08-07T08:47:28.338Z</time>
      </trkpt>
      <trkpt lat="44.27299" lon="1.9334">
        <ele>432.141935</ele>
        <time>2022-08-07T08:47:33.332Z</time>
      </trkpt>
      <trkpt lat="44.273" lon="1.93326">
        <ele>432.655054</ele>
        <time>2022-08-07T08:47:38.331Z</time>
      </trkpt>
      <trkpt lat="44.27301" lon="1.93313">
        <ele>433.131976</ele>
        <time>2022-08-07T08:47:43.336Z</time>
      </trkpt>
      <trkpt lat="44.27303" lon="1.93299">
        <ele>433.683178</ele>
        <time>2022-08-07T08:47:49.331Z</time>
      </trkpt>
      <trkpt lat="44.27307" lon="1.93286">
        <ele>434.178945</ele>
        <time>2022-08-07T08:47:54.335Z</time>
      </trkpt>
      <trkpt lat="44.27309" lon="1.93273">
        <ele>434.687006</ele>
        <time>2022-08-07T08:47:59.329Z</time>
      </trkpt>
      <trkpt lat="44.27314" lon="1.9326">
        <ele>435.230847</ele>
        <time>2022-08-07T08:48:04.337Z</time>
      </trkpt>
      <trkpt lat="44.27319" lon="1.93246">
        <ele>435.784496</ele>
        <time>2022-08-07T08:48:09.325Z</time>
      </trkpt>
      <trkpt lat="44.27323" lon="1.93235">
        <ele>436.256462</ele>
        <time>2022-08-07T08:48:13.335Z</time>
      </trkpt>
      <trkpt lat="44.27326" lon="1.93222">
        <ele>436.736341</ele>
        <time>2022-08-07T08:48:17.326Z</time>
      </trkpt>
      <trkpt lat="44.27329" lon="1.93209">
        <ele>437.263496</ele>
        <time>2022-08-07T08:48:21.327Z</time>
      </trkpt>
      <trkpt lat="44.27333" lon="1.93197">
        <ele>437.729631</ele>
        <time>2022-08-07T08:48:25.327Z</time>
      </trkpt>
      <trkpt lat="44.27337" lon="1.93184">
        <ele>438.250278</ele>
        <time>2022-08-07T08:48:29.329Z</time>
      </trkpt>
      <trkpt lat="44.27342" lon="1.9317">
        <ele>438.828409</ele>
        <time>2022-08-07T08:48:33.327Z</time>
      </trkpt>
      <trkpt lat="44.27346" lon="1.93157">
        <ele>438.831638</ele>
        <time>2022-08-07T08:48:37.332Z</time>
      </trkpt>
      <trkpt lat="44.2735" lon="1.93145">
        <ele>438.690426</ele>
        <time>2022-08-07T08:48:40.332Z</time>
      </trkpt>
      <trkpt lat="44.27356" lon="1.9313">
        <ele>438.50246</ele>
        <time>2022-08-07T08:48:43.343Z</time>
      </trkpt>
      <trkpt lat="44.27363" lon="1.93116">
        <ele>438.318529</ele>
        <time>2022-08-07T08:48:46.330Z</time>
      </trkpt>
      <trkpt lat="44.27369" lon="1.93103">
        <ele>438.145511</ele>
        <time>2022-08-07T08:48:49.327Z</time>
      </trkpt>
      <trkpt lat="44.27378" lon="1.93091">
        <ele>437.952295</ele>
        <time>2022-08-07T08:48:52.330Z</time>
      </trkpt>
      <trkpt lat="44.27387" lon="1.93077">
        <ele>437.751081</ele>
        <time>2022-08-07T08:48:55.332Z</time>
      </trkpt>
      <trkpt lat="44.27393" lon="1.93068">
        <ele>437.611367</ele>
        <time>2022-08-07T08:48:57.325Z</time>
      </trkpt>
      <trkpt lat="44.27403" lon="1.93053">
        <ele>437.39303</ele>
        <time>2022-08-07T08:49:00.335Z</time>
      </trkpt>
      <trkpt lat="44.27409" lon="1.93043">
        <ele>437.25151</ele>
        <time>2022-08-07T08:49:02.330Z</time>
      </trkpt>
      <trkpt lat="44.27415" lon="1.93032">
        <ele>437.095168</ele>
        <time>2022-08-07T08:49:04.331Z</time>
      </trkpt>
      <trkpt lat="44.27423" lon="1.93022">
        <ele>436.931809</ele>
        <time>2022-08-07T08:49:06.332Z</time>
      </trkpt>
      <trkpt lat="44.27432" lon="1.93013">
        <ele>436.765469</ele>
        <time>2022-08-07T08:49:08.330Z</time>
      </trkpt>
      <trkpt lat="44.27438" lon="1.93003">
        <ele>436.619033</ele>
        <time>2022-08-07T08:49:10.330Z</time>
      </trkpt>
      <trkpt lat="44.27444" lon="1.92992">
        <ele>436.469842</ele>
        <time>2022-08-07T08:49:12.333Z</time>
      </trkpt>
      <trkpt lat="44.2745" lon="1.92983">
        <ele>436.328646</ele>
        <time>2022-08-07T08:49:14.330Z</time>
      </trkpt>
      <trkpt lat="44.27455" lon="1.92971">
        <ele>436.187126</ele>
        <time>2022-08-07T08:49:16.329Z</time>
      </trkpt>
      <trkpt lat="44.27462" lon="1.92957">
        <ele>436.00957</ele>
        <time>2022-08-07T08:49:19.337Z</time>
      </trkpt>
      <trkpt lat="44.27469" lon="1.92947">
        <ele>435.871805</ele>
        <time>2022-08-07T08:49:21.324Z</time>
      </trkpt>
      <trkpt lat="44.27479" lon="1.92934">
        <ele>435.689966</ele>
        <time>2022-08-07T08:49:24.338Z</time>
      </trkpt>
      <trkpt lat="44.27489" lon="1.92925">
        <ele>435.521406</ele>
        <time>2022-08-07T08:49:27.330Z</time>
      </trkpt>
      <trkpt lat="44.27498" lon="1.92918">
        <ele>435.373321</ele>
        <time>2022-08-07T08:49:30.330Z</time>
      </trkpt>
      <trkpt lat="44.27508" lon="1.92912">
        <ele>435.219027</ele>
        <time>2022-08-07T08:49:33.330Z</time>
      </trkpt>
      <trkpt lat="44.27519" lon="1.92905">
        <ele>435.056561</ele>
        <time>2022-08-07T08:49:36.333Z</time>
      </trkpt>
      <trkpt lat="44.2753" lon="1.92898">
        <ele>434.887777</ele>
        <time>2022-08-07T08:49:39.331Z</time>
      </trkpt>
      <trkpt lat="44.2754" lon="1.92891">
        <ele>434.733744</ele>
        <time>2022-08-07T08:49:42.330Z</time>
      </trkpt>
      <trkpt lat="44.27549" lon="1.92882">
        <ele>434.574988</ele>
        <time>2022-08-07T08:49:46.332Z</time>
      </trkpt>
      <trkpt lat="44.27552" lon="1.9287">
        <ele>434.445667</ele>
        <time>2022-08-07T08:49:50.329Z</time>
      </trkpt>
      <trkpt lat="44.27547" lon="1.92856">
        <ele>434.292976</ele>
        <time>2022-08-07T08:49:54.332Z</time>
      </trkpt>
      <trkpt lat="44.27544" lon="1.9284">
        <ele>434.131301</ele>
        <time>2022-08-07T08:49:58.331Z</time>
      </trkpt>
      <trkpt lat="44.27542" lon="1.92827">
        <ele>433.998548</ele>
        <time>2022-08-07T08:50:01.327Z</time>
      </trkpt>
      <trkpt lat="44.2754" lon="1.92811">
        <ele>433.830932</ele>
        <time>2022-08-07T08:50:05.334Z</time>
      </trkpt>
      <trkpt lat="44.27538" lon="1.92795">
        <ele>433.774356</ele>
        <time>2022-08-07T08:50:09.324Z</time>
      </trkpt>
      <trkpt lat="44.27537" lon="1.92779">
        <ele>434.294887</ele>
        <time>2022-08-07T08:50:13.327Z</time>
      </trkpt>
      <trkpt lat="44.27536" lon="1.92764">
        <ele>434.814429</ele>
        <time>2022-08-07T08:50:17.326Z</time>
      </trkpt>
      <trkpt lat="44.27535" lon="1.92749">
        <ele>435.305304</ele>
        <time>2022-08-07T08:50:21.334Z</time>
      </trkpt>
      <trkpt lat="44.27534" lon="1.92735">
        <ele>435.779208</ele>
        <time>2022-08-07T08:50:25.325Z</time>
      </trkpt>
      <trkpt lat="44.2753" lon="1.92722">
        <ele>436.24885</ele>
        <time>2022-08-07T08:50:29.331Z</time>
      </trkpt>
      <trkpt lat="44.27525" lon="1.92709">
        <ele>436.717076</ele>
        <time>2022-08-07T08:50:33.328Z</time>
      </trkpt>
      <trkpt lat="44.27518" lon="1.92699">
        <ele>437.187753</ele>
        <time>2022-08-07T08:50:38.333Z</time>
      </trkpt>
      <trkpt lat="44.27509" lon="1.9269">
        <ele>437.686954</ele>
        <time>2022-08-07T08:50:44.337Z</time>
      </trkpt>
      <trkpt lat="44.27501" lon="1.92684">
        <ele>438.109716</ele>
        <time>2022-08-07T08:50:48.336Z</time>
      </trkpt>
      <trkpt lat="44.27493" lon="1.92676">
        <ele>438.595569</ele>
        <time>2022-08-07T08:50:53.334Z</time>
      </trkpt>
      <trkpt lat="44.27483" lon="1.92668">
        <ele>439.101703</ele>
        <time>2022-08-07T08:50:58.336Z</time>
      </trkpt>
      <trkpt lat="44.27475" lon="1.9266">
        <ele>439.572322</ele>
        <time>2022-08-07T08:51:04.334Z</time>
      </trkpt>
      <trkpt lat="44.27466" lon="1.92651">
        <ele>440.079317</ele>
        <time>2022-08-07T08:51:09.335Z</time>
      </trkpt>
      <trkpt lat="44.27457" lon="1.92643">
        <ele>440.586669</ele>
        <time>2022-08-07T08:51:14.338Z</time>
      </trkpt>
      <trkpt lat="44.27447" lon="1.92637">
        <ele>441.066592</ele>
        <time>2022-08-07T08:51:19.338Z</time>
      </trkpt>
      <trkpt lat="44.27438" lon="1.92628">
        <ele>441.586771</ele>
        <time>2022-08-07T08:51:24.337Z</time>
      </trkpt>
      <trkpt lat="44.27429" lon="1.9262">
        <ele>442.018033</ele>
        <time>2022-08-07T08:51:28.327Z</time>
      </trkpt>
      <trkpt lat="44.27421" lon="1.92612">
        <ele>441.95584</ele>
        <time>2022-08-07T08:51:32.337Z</time>
      </trkpt>
      <trkpt lat="44.27415" lon="1.92603">
        <ele>441.896411</ele>
        <time>2022-08-07T08:51:36.335Z</time>
      </trkpt>
      <trkpt lat="44.27406" lon="1.92596">
        <ele>441.834237</ele>
        <time>2022-08-07T08:51:39.331Z</time>
      </trkpt>
      <trkpt lat="44.27401" lon="1.92586">
        <ele>441.777779</ele>
        <time>2022-08-07T08:51:41.329Z</time>
      </trkpt>
      <trkpt lat="44.27397" lon="1.92571">
        <ele>441.706081</ele>
        <time>2022-08-07T08:51:43.334Z</time>
      </trkpt>
      <trkpt lat="44.27395" lon="1.92554">
        <ele>441.626688</ele>
        <time>2022-08-07T08:51:45.330Z</time>
      </trkpt>
      <trkpt lat="44.27395" lon="1.92538">
        <ele>441.558656</ele>
        <time>2022-08-07T08:51:47.335Z</time>
      </trkpt>
      <trkpt lat="44.27395" lon="1.92518">
        <ele>441.465861</ele>
        <time>2022-08-07T08:51:49.333Z</time>
      </trkpt>
      <trkpt lat="44.27396" lon="1.92498">
        <ele>441.3773</ele>
        <time>2022-08-07T08:51:51.331Z</time>
      </trkpt>
      <trkpt lat="44.27396" lon="1.92481">
        <ele>441.297896</ele>
        <time>2022-08-07T08:51:53.328Z</time>
      </trkpt>
      <trkpt lat="44.27393" lon="1.92463">
        <ele>441.215225</ele>
        <time>2022-08-07T08:51:55.330Z</time>
      </trkpt>
      <trkpt lat="44.27385" lon="1.92451">
        <ele>441.143058</ele>
        <time>2022-08-07T08:51:57.331Z</time>
      </trkpt>
      <trkpt lat="44.27377" lon="1.92445">
        <ele>441.083931</ele>
        <time>2022-08-07T08:51:59.334Z</time>
      </trkpt>
      <trkpt lat="44.27367" lon="1.9244">
        <ele>441.018401</ele>
        <time>2022-08-07T08:52:01.331Z</time>
      </trkpt>
      <trkpt lat="44.27355" lon="1.92437">
        <ele>440.941456</ele>
        <time>2022-08-07T08:52:04.333Z</time>
      </trkpt>
      <trkpt lat="44.27342" lon="1.92437">
        <ele>441.086173</ele>
        <time>2022-08-07T08:52:07.336Z</time>
      </trkpt>
      <trkpt lat="44.27332" lon="1.92431">
        <ele>441.501541</ele>
        <time>2022-08-07T08:52:11.335Z</time>
      </trkpt>
      <trkpt lat="44.27322" lon="1.92426">
        <ele>441.88038</ele>
        <time>2022-08-07T08:52:14.336Z</time>
      </trkpt>
      <trkpt lat="44.27316" lon="1.92416">
        <ele>442.235915</ele>
        <time>2022-08-07T08:52:17.322Z</time>
      </trkpt>
      <trkpt lat="44.27309" lon="1.92407">
        <ele>442.584258</ele>
        <time>2022-08-07T08:52:21.335Z</time>
      </trkpt>
      <trkpt lat="44.27304" lon="1.92394">
        <ele>442.996283</ele>
        <time>2022-08-07T08:52:26.332Z</time>
      </trkpt>
      <trkpt lat="44.27301" lon="1.92381">
        <ele>443.352311</ele>
        <time>2022-08-07T08:52:30.333Z</time>
      </trkpt>
      <trkpt lat="44.27296" lon="1.92367">
        <ele>443.779091</ele>
        <time>2022-08-07T08:52:35.329Z</time>
      </trkpt>
      <trkpt lat="44.27291" lon="1.92354">
        <ele>444.176064</ele>
        <time>2022-08-07T08:52:39.330Z</time>
      </trkpt>
      <trkpt lat="44.27286" lon="1.92341">
        <ele>444.575764</ele>
        <time>2022-08-07T08:52:43.334Z</time>
      </trkpt>
      <trkpt lat="44.27283" lon="1.92329">
        <ele>444.914713</ele>
        <time>2022-08-07T08:52:46.328Z</time>
      </trkpt>
      <trkpt lat="44.27278" lon="1.92315">
        <ele>445.34455</ele>
        <time>2022-08-07T08:52:50.337Z</time>
      </trkpt>
      <trkpt lat="44.27273" lon="1.92302">
        <ele>445.749051</ele>
        <time>2022-08-07T08:52:54.335Z</time>
      </trkpt>
      <trkpt lat="44.27267" lon="1.9229">
        <ele>446.133454</ele>
        <time>2022-08-07T08:52:58.335Z</time>
      </trkpt>
      <trkpt lat="44.2726" lon="1.92279">
        <ele>446.515294</ele>
        <time>2022-08-07T08:53:03.335Z</time>
      </trkpt>
      <trkpt lat="44.27252" lon="1.92273">
        <ele>446.86302</ele>
        <time>2022-08-07T08:53:09.332Z</time>
      </trkpt>
      <trkpt lat="44.27245" lon="1.92263">
        <ele>447.237516</ele>
        <time>2022-08-07T08:53:15.332Z</time>
      </trkpt>
      <trkpt lat="44.27238" lon="1.92254">
        <ele>447.611182</ele>
        <time>2022-08-07T08:53:21.330Z</time>
      </trkpt>
      <trkpt lat="44.27233" lon="1.92242">
        <ele>447.766556</ele>
        <time>2022-08-07T08:53:27.331Z</time>
      </trkpt>
      <trkpt lat="44.27227" lon="1.92232">
        <ele>447.875828</ele>
        <time>2022-08-07T08:53:32.332Z</time>
      </trkpt>
      <trkpt lat="44.27222" lon="1.92221">
        <ele>447.97847</ele>
        <time>2022-08-07T08:53:37.325Z</time>
      </trkpt>
      <trkpt lat="44.27216" lon="1.92212">
        <ele>448.081299</ele>
        <time>2022-08-07T08:53:41.329Z</time>
      </trkpt>
      <trkpt lat="44.27209" lon="1.92199">
        <ele>448.210426</ele>
        <time>2022-08-07T08:53:45.328Z</time>
      </trkpt>
      <trkpt lat="44.27203" lon="1.92189">
        <ele>448.316069</ele>
        <time>2022-08-07T08:53:48.334Z</time>
      </trkpt>
      <trkpt lat="44.27197" lon="1.92179">
        <ele>448.427277</ele>
        <time>2022-08-07T08:53:51.334Z</time>
      </trkpt>
      <trkpt lat="44.27191" lon="1.92166">
        <ele>448.553244</ele>
        <time>2022-08-07T08:53:54.330Z</time>
      </trkpt>
      <trkpt lat="44.27185" lon="1.92152">
        <ele>448.682432</ele>
        <time>2022-08-07T08:53:57.330Z</time>
      </trkpt>
      <trkpt lat="44.27178" lon="1.92138">
        <ele>448.822368</ele>
        <time>2022-08-07T08:54:00.329Z</time>
      </trkpt>
      <trkpt lat="44.27172" lon="1.92123">
        <ele>448.95947</ele>
        <time>2022-08-07T08:54:03.335Z</time>
      </trkpt>
      <trkpt lat="44.27167" lon="1.92112">
        <ele>449.06887</ele>
        <time>2022-08-07T08:54:05.329Z</time>
      </trkpt>
      <trkpt lat="44.27162" lon="1.92101">
        <ele>449.176178</ele>
        <time>2022-08-07T08:54:07.329Z</time>
      </trkpt>
      <trkpt lat="44.27156" lon="1.92085">
        <ele>449.320401</ele>
        <time>2022-08-07T08:54:10.331Z</time>
      </trkpt>
      <trkpt lat="44.2715" lon="1.92072">
        <ele>449.443963</ele>
        <time>2022-08-07T08:54:13.330Z</time>
      </trkpt>
      <trkpt lat="44.27146" lon="1.92058">
        <ele>449.572976</ele>
        <time>2022-08-07T08:54:16.329Z</time>
      </trkpt>
      <trkpt lat="44.27149" lon="1.92041">
        <ele>449.71172</ele>
        <time>2022-08-07T08:54:19.332Z</time>
      </trkpt>
      <trkpt lat="44.27156" lon="1.92027">
        <ele>449.521665</ele>
        <time>2022-08-07T08:54:22.332Z</time>
      </trkpt>
      <trkpt lat="44.27163" lon="1.92013">
        <ele>449.307243</ele>
        <time>2022-08-07T08:54:25.325Z</time>
      </trkpt>
      <trkpt lat="44.2717" lon="1.91999">
        <ele>449.091811</ele>
        <time>2022-08-07T08:54:28.334Z</time>
      </trkpt>
      <trkpt lat="44.27177" lon="1.91987">
        <ele>448.893426</ele>
        <time>2022-08-07T08:54:31.331Z</time>
      </trkpt>
      <trkpt lat="44.27184" lon="1.91974">
        <ele>448.702223</ele>
        <time>2022-08-07T08:54:34.332Z</time>
      </trkpt>
      <trkpt lat="44.27191" lon="1.91962">
        <ele>448.501568</ele>
        <time>2022-08-07T08:54:37.330Z</time>
      </trkpt>
      <trkpt lat="44.27199" lon="1.9195">
        <ele>448.301519</ele>
        <time>2022-08-07T08:54:40.331Z</time>
      </trkpt>
      <trkpt lat="44.27208" lon="1.91942">
        <ele>448.118977</ele>
        <time>2022-08-07T08:54:43.331Z</time>
      </trkpt>
      <trkpt lat="44.27217" lon="1.91934">
        <ele>447.940904</ele>
        <time>2022-08-07T08:54:46.330Z</time>
      </trkpt>
      <trkpt lat="44.27225" lon="1.91925">
        <ele>447.750736</ele>
        <time>2022-08-07T08:54:49.330Z</time>
      </trkpt>
      <trkpt lat="44.27236" lon="1.91917">
        <ele>447.532931</ele>
        <time>2022-08-07T08:54:52.334Z</time>
      </trkpt>
      <trkpt lat="44.27248" lon="1.91909">
        <ele>447.302399</ele>
        <time>2022-08-07T08:54:55.329Z</time>
      </trkpt>
      <trkpt lat="44.27257" lon="1.91905">
        <ele>447.137742</ele>
        <time>2022-08-07T08:54:57.331Z</time>
      </trkpt>
      <trkpt lat="44.27265" lon="1.91899">
        <ele>446.976949</ele>
        <time>2022-08-07T08:54:59.324Z</time>
      </trkpt>
      <trkpt lat="44.27273" lon="1.91893">
        <ele>446.821485</ele>
        <time>2022-08-07T08:55:01.330Z</time>
      </trkpt>
      <trkpt lat="44.27283" lon="1.91889">
        <ele>446.646338</ele>
        <time>2022-08-07T08:55:03.336Z</time>
      </trkpt>
      <trkpt lat="44.27292" lon="1.91882">
        <ele>446.24471</ele>
        <time>2022-08-07T08:55:05.342Z</time>
      </trkpt>
      <trkpt lat="44.273" lon="1.91876">
        <ele>445.801587</ele>
        <time>2022-08-07T08:55:07.333Z</time>
      </trkpt>
      <trkpt lat="44.27309" lon="1.91867">
        <ele>445.25728</ele>
        <time>2022-08-07T08:55:09.330Z</time>
      </trkpt>
      <trkpt lat="44.27317" lon="1.91858">
        <ele>444.770434</ele>
        <time>2022-08-07T08:55:11.335Z</time>
      </trkpt>
      <trkpt lat="44.27327" lon="1.91848">
        <ele>444.18622</ele>
        <time>2022-08-07T08:55:13.333Z</time>
      </trkpt>
      <trkpt lat="44.27336" lon="1.91839">
        <ele>443.624282</ele>
        <time>2022-08-07T08:55:15.332Z</time>
      </trkpt>
      <trkpt lat="44.27347" lon="1.91826">
        <ele>442.962449</ele>
        <time>2022-08-07T08:55:17.330Z</time>
      </trkpt>
      <trkpt lat="44.27357" lon="1.91813">
        <ele>442.28422</ele>
        <time>2022-08-07T08:55:19.329Z</time>
      </trkpt>
      <trkpt lat="44.27367" lon="1.91799">
        <ele>441.590113</ele>
        <time>2022-08-07T08:55:21.335Z</time>
      </trkpt>
      <trkpt lat="44.27378" lon="1.91783">
        <ele>440.824007</ele>
        <time>2022-08-07T08:55:23.331Z</time>
      </trkpt>
      <trkpt lat="44.27389" lon="1.91769">
        <ele>440.088776</ele>
        <time>2022-08-07T08:55:25.331Z</time>
      </trkpt>
      <trkpt lat="44.274" lon="1.91755">
        <ele>439.366687</ele>
        <time>2022-08-07T08:55:27.330Z</time>
      </trkpt>
      <trkpt lat="44.27409" lon="1.91741">
        <ele>438.706962</ele>
        <time>2022-08-07T08:55:29.328Z</time>
      </trkpt>
      <trkpt lat="44.27418" lon="1.91725">
        <ele>438.044054</ele>
        <time>2022-08-07T08:55:31.329Z</time>
      </trkpt>
      <trkpt lat="44.27427" lon="1.91712">
        <ele>437.816056</ele>
        <time>2022-08-07T08:55:33.336Z</time>
      </trkpt>
      <trkpt lat="44.27437" lon="1.91699">
        <ele>437.729282</ele>
        <time>2022-08-07T08:55:35.330Z</time>
      </trkpt>
      <trkpt lat="44.27447" lon="1.91688">
        <ele>437.647439</ele>
        <time>2022-08-07T08:55:37.326Z</time>
      </trkpt>
      <trkpt lat="44.27456" lon="1.91676">
        <ele>437.563829</ele>
        <time>2022-08-07T08:55:39.333Z</time>
      </trkpt>
      <trkpt lat="44.27466" lon="1.91667">
        <ele>437.485032</ele>
        <time>2022-08-07T08:55:41.328Z</time>
      </trkpt>
      <trkpt lat="44.27475" lon="1.91657">
        <ele>437.412883</ele>
        <time>2022-08-07T08:55:43.332Z</time>
      </trkpt>
      <trkpt lat="44.27483" lon="1.91645">
        <ele>437.337965</ele>
        <time>2022-08-07T08:55:45.326Z</time>
      </trkpt>
      <trkpt lat="44.2749" lon="1.91634">
        <ele>437.267939</ele>
        <time>2022-08-07T08:55:47.336Z</time>
      </trkpt>
      <trkpt lat="44.27496" lon="1.91624">
        <ele>437.205299</ele>
        <time>2022-08-07T08:55:49.329Z</time>
      </trkpt>
      <trkpt lat="44.27503" lon="1.91617">
        <ele>437.14624</ele>
        <time>2022-08-07T08:55:51.330Z</time>
      </trkpt>
      <trkpt lat="44.27512" lon="1.91605">
        <ele>437.068245</ele>
        <time>2022-08-07T08:55:54.330Z</time>
      </trkpt>
      <trkpt lat="44.2752" lon="1.91593">
        <ele>436.989914</ele>
        <time>2022-08-07T08:55:57.330Z</time>
      </trkpt>
      <trkpt lat="44.27529" lon="1.91584">
        <ele>436.918516</ele>
        <time>2022-08-07T08:56:00.333Z</time>
      </trkpt>
      <trkpt lat="44.27539" lon="1.9157">
        <ele>436.829178</ele>
        <time>2022-08-07T08:56:03.332Z</time>
      </trkpt>
      <trkpt lat="44.27546" lon="1.91563">
        <ele>436.768873</ele>
        <time>2022-08-07T08:56:05.331Z</time>
      </trkpt>
      <trkpt lat="44.27554" lon="1.91555">
        <ele>436.715013</ele>
        <time>2022-08-07T08:56:07.330Z</time>
      </trkpt>
      <trkpt lat="44.27565" lon="1.91545">
        <ele>436.890263</ele>
        <time>2022-08-07T08:56:10.332Z</time>
      </trkpt>
      <trkpt lat="44.27575" lon="1.91534">
        <ele>437.05566</ele>
        <time>2022-08-07T08:56:13.330Z</time>
      </trkpt>
      <trkpt lat="44.27583" lon="1.91523">
        <ele>437.197363</ele>
        <time>2022-08-07T08:56:16.329Z</time>
      </trkpt>
      <trkpt lat="44.27593" lon="1.9152">
        <ele>437.338687</ele>
        <time>2022-08-07T08:56:19.333Z</time>
      </trkpt>
      <trkpt lat="44.27603" lon="1.91519">
        <ele>437.467204</ele>
        <time>2022-08-07T08:56:22.332Z</time>
      </trkpt>
      <trkpt lat="44.27613" lon="1.91525">
        <ele>437.606473</ele>
        <time>2022-08-07T08:56:25.324Z</time>
      </trkpt>
      <trkpt lat="44.27621" lon="1.91534">
        <ele>437.745195</ele>
        <time>2022-08-07T08:56:28.329Z</time>
      </trkpt>
      <trkpt lat="44.27629" lon="1.91542">
        <ele>437.87078</ele>
        <time>2022-08-07T08:56:31.324Z</time>
      </trkpt>
      <trkpt lat="44.2764" lon="1.91545">
        <ele>438.02211</ele>
        <time>2022-08-07T08:56:35.336Z</time>
      </trkpt>
      <trkpt lat="44.27651" lon="1.91538">
        <ele>438.17443</ele>
        <time>2022-08-07T08:56:39.332Z</time>
      </trkpt>
      <trkpt lat="44.27659" lon="1.91532">
        <ele>438.292592</ele>
        <time>2022-08-07T08:56:42.331Z</time>
      </trkpt>
      <trkpt lat="44.27668" lon="1.91522">
        <ele>438.44775</ele>
        <time>2022-08-07T08:56:46.329Z</time>
      </trkpt>
      <trkpt lat="44.27679" lon="1.91514">
        <ele>438.603101</ele>
        <time>2022-08-07T08:56:50.332Z</time>
      </trkpt>
      <trkpt lat="44.27687" lon="1.91508">
        <ele>438.722426</ele>
        <time>2022-08-07T08:56:53.333Z</time>
      </trkpt>
      <trkpt lat="44.27695" lon="1.91501">
        <ele>438.849745</ele>
        <time>2022-08-07T08:56:56.332Z</time>
      </trkpt>
      <trkpt lat="44.27704" lon="1.91494">
        <ele>438.985998</ele>
        <time>2022-08-07T08:56:59.334Z</time>
      </trkpt>
      <trkpt lat="44.27713" lon="1.91485">
        <ele>439.169572</ele>
        <time>2022-08-07T08:57:02.328Z</time>
      </trkpt>
      <trkpt lat="44.27722" lon="1.91477">
        <ele>439.422102</ele>
        <time>2022-08-07T08:57:05.330Z</time>
      </trkpt>
      <trkpt lat="44.27732" lon="1.91469">
        <ele>439.692098</ele>
        <time>2022-08-07T08:57:08.330Z</time>
      </trkpt>
      <trkpt lat="44.27743" lon="1.91461">
        <ele>439.962911</ele>
        <time>2022-08-07T08:57:11.331Z</time>
      </trkpt>
      <trkpt lat="44.27753" lon="1.91454">
        <ele>440.239614</ele>
        <time>2022-08-07T08:57:14.332Z</time>
      </trkpt>
      <trkpt lat="44.27764" lon="1.91447">
        <ele>440.508604</ele>
        <time>2022-08-07T08:57:17.330Z</time>
      </trkpt>
      <trkpt lat="44.27773" lon="1.91439">
        <ele>440.754152</ele>
        <time>2022-08-07T08:57:20.327Z</time>
      </trkpt>
      <trkpt lat="44.27783" lon="1.91432">
        <ele>441.007715</ele>
        <time>2022-08-07T08:57:23.331Z</time>
      </trkpt>
      <trkpt lat="44.27793" lon="1.91424">
        <ele>441.266093</ele>
        <time>2022-08-07T08:57:26.331Z</time>
      </trkpt>
      <trkpt lat="44.27802" lon="1.91417">
        <ele>441.508834</ele>
        <time>2022-08-07T08:57:29.326Z</time>
      </trkpt>
      <trkpt lat="44.27811" lon="1.9141">
        <ele>441.742305</ele>
        <time>2022-08-07T08:57:32.331Z</time>
      </trkpt>
      <trkpt lat="44.27819" lon="1.91402">
        <ele>441.967326</ele>
        <time>2022-08-07T08:57:35.331Z</time>
      </trkpt>
      <trkpt lat="44.27827" lon="1.91396">
        <ele>442.177217</ele>
        <time>2022-08-07T08:57:38.332Z</time>
      </trkpt>
      <trkpt lat="44.27835" lon="1.91389">
        <ele>442.39797</ele>
        <time>2022-08-07T08:57:41.330Z</time>
      </trkpt>
      <trkpt lat="44.27844" lon="1.91383">
        <ele>442.615931</ele>
        <time>2022-08-07T08:57:44.328Z</time>
      </trkpt>
      <trkpt lat="44.27855" lon="1.91376">
        <ele>442.891905</ele>
        <time>2022-08-07T08:57:48.337Z</time>
      </trkpt>
      <trkpt lat="44.27865" lon="1.91368">
        <ele>443.165515</ele>
        <time>2022-08-07T08:57:52.327Z</time>
      </trkpt>
      <trkpt lat="44.27875" lon="1.9136">
        <ele>443.262119</ele>
        <time>2022-08-07T08:57:56.327Z</time>
      </trkpt>
      <trkpt lat="44.27884" lon="1.91353">
        <ele>443.339457</ele>
        <time>2022-08-07T08:58:00.323Z</time>
      </trkpt>
      <trkpt lat="44.27893" lon="1.91346">
        <ele>443.414259</ele>
        <time>2022-08-07T08:58:04.329Z</time>
      </trkpt>
      <trkpt lat="44.27903" lon="1.91338">
        <ele>443.493344</ele>
        <time>2022-08-07T08:58:08.328Z</time>
      </trkpt>
      <trkpt lat="44.27912" lon="1.91331">
        <ele>443.571917</ele>
        <time>2022-08-07T08:58:12.753Z</time>
      </trkpt>
      <trkpt lat="44.27922" lon="1.91323">
        <ele>443.653889</ele>
        <time>2022-08-07T08:58:16.752Z</time>
      </trkpt>
      <trkpt lat="44.27932" lon="1.91316">
        <ele>443.730834</ele>
        <time>2022-08-07T08:58:20.752Z</time>
      </trkpt>
      <trkpt lat="44.27941" lon="1.91309">
        <ele>443.809536</ele>
        <time>2022-08-07T08:58:24.753Z</time>
      </trkpt>
      <trkpt lat="44.27952" lon="1.91301">
        <ele>443.892534</ele>
        <time>2022-08-07T08:58:28.752Z</time>
      </trkpt>
      <trkpt lat="44.27959" lon="1.91296">
        <ele>443.957037</ele>
        <time>2022-08-07T08:58:31.755Z</time>
      </trkpt>
      <trkpt lat="44.27967" lon="1.91289">
        <ele>444.022357</ele>
        <time>2022-08-07T08:58:34.756Z</time>
      </trkpt>
      <trkpt lat="44.27976" lon="1.91279">
        <ele>444.106294</ele>
        <time>2022-08-07T08:58:38.754Z</time>
      </trkpt>
      <trkpt lat="44.27982" lon="1.91265">
        <ele>444.18714</ele>
        <time>2022-08-07T08:58:42.753Z</time>
      </trkpt>
      <trkpt lat="44.27982" lon="1.9125">
        <ele>444.263952</ele>
        <time>2022-08-07T08:58:46.758Z</time>
      </trkpt>
      <trkpt lat="44.27983" lon="1.91237">
        <ele>444.329815</ele>
        <time>2022-08-07T08:58:49.758Z</time>
      </trkpt>
      <trkpt lat="44.27983" lon="1.91221">
        <ele>444.415978</ele>
        <time>2022-08-07T08:58:53.752Z</time>
      </trkpt>
      <trkpt lat="44.27985" lon="1.91204">
        <ele>444.392428</ele>
        <time>2022-08-07T08:58:57.759Z</time>
      </trkpt>
      <trkpt lat="44.27987" lon="1.91192">
        <ele>444.041877</ele>
        <time>2022-08-07T08:59:00.759Z</time>
      </trkpt>
      <trkpt lat="44.27987" lon="1.91176">
        <ele>443.604421</ele>
        <time>2022-08-07T08:59:04.759Z</time>
      </trkpt>
      <trkpt lat="44.27989" lon="1.91161">
        <ele>443.181331</ele>
        <time>2022-08-07T08:59:08.754Z</time>
      </trkpt>
      <trkpt lat="44.2799" lon="1.91146">
        <ele>442.743796</ele>
        <time>2022-08-07T08:59:11.756Z</time>
      </trkpt>
      <trkpt lat="44.27989" lon="1.9113">
        <ele>442.29197</ele>
        <time>2022-08-07T08:59:14.754Z</time>
      </trkpt>
      <trkpt lat="44.27987" lon="1.91115">
        <ele>441.871636</ele>
        <time>2022-08-07T08:59:17.748Z</time>
      </trkpt>
      <trkpt lat="44.27983" lon="1.91097">
        <ele>441.36109</ele>
        <time>2022-08-07T08:59:20.758Z</time>
      </trkpt>
      <trkpt lat="44.27983" lon="1.91074">
        <ele>440.709188</ele>
        <time>2022-08-07T08:59:22.761Z</time>
      </trkpt>
      <trkpt lat="44.27984" lon="1.91055">
        <ele>440.177023</ele>
        <time>2022-08-07T08:59:24.755Z</time>
      </trkpt>
      <trkpt lat="44.27981" lon="1.91041">
        <ele>439.791245</ele>
        <time>2022-08-07T08:59:26.759Z</time>
      </trkpt>
      <trkpt lat="44.27983" lon="1.91026">
        <ele>439.353785</ele>
        <time>2022-08-07T08:59:28.757Z</time>
      </trkpt>
      <trkpt lat="44.27986" lon="1.91012">
        <ele>438.961639</ele>
        <time>2022-08-07T08:59:30.757Z</time>
      </trkpt>
      <trkpt lat="44.27991" lon="1.90996">
        <ele>438.468046</ele>
        <time>2022-08-07T08:59:33.752Z</time>
      </trkpt>
      <trkpt lat="44.27998" lon="1.90981">
        <ele>437.989362</ele>
        <time>2022-08-07T08:59:36.753Z</time>
      </trkpt>
      <trkpt lat="44.28007" lon="1.90971">
        <ele>437.507046</ele>
        <time>2022-08-07T08:59:39.759Z</time>
      </trkpt>
      <trkpt lat="44.28013" lon="1.9096">
        <ele>437.273543</ele>
        <time>2022-08-07T08:59:42.756Z</time>
      </trkpt>
      <trkpt lat="44.2802" lon="1.90945">
        <ele>436.985652</ele>
        <time>2022-08-07T08:59:46.758Z</time>
      </trkpt>
      <trkpt lat="44.28027" lon="1.90934">
        <ele>436.727055</ele>
        <time>2022-08-07T08:59:49.750Z</time>
      </trkpt>
      <trkpt lat="44.28034" lon="1.90921">
        <ele>436.460374</ele>
        <time>2022-08-07T08:59:52.757Z</time>
      </trkpt>
      <trkpt lat="44.2804" lon="1.90909">
        <ele>436.220146</ele>
        <time>2022-08-07T08:59:55.754Z</time>
      </trkpt>
      <trkpt lat="44.28046" lon="1.90897">
        <ele>435.965411</ele>
        <time>2022-08-07T08:59:59.055Z</time>
      </trkpt>
      <trkpt lat="44.28053" lon="1.90884">
        <ele>435.695797</ele>
        <time>2022-08-07T09:00:01.758Z</time>
      </trkpt>
      <trkpt lat="44.28062" lon="1.90871">
        <ele>435.388396</ele>
        <time>2022-08-07T09:00:04.749Z</time>
      </trkpt>
      <trkpt lat="44.28071" lon="1.90859">
        <ele>435.117952</ele>
        <time>2022-08-07T09:00:07.747Z</time>
      </trkpt>
      <trkpt lat="44.28078" lon="1.90847">
        <ele>434.852083</ele>
        <time>2022-08-07T09:00:10.756Z</time>
      </trkpt>
      <trkpt lat="44.28089" lon="1.90831">
        <ele>434.469831</ele>
        <time>2022-08-07T09:00:13.755Z</time>
      </trkpt>
      <trkpt lat="44.28099" lon="1.90819">
        <ele>434.175057</ele>
        <time>2022-08-07T09:00:16.756Z</time>
      </trkpt>
      <trkpt lat="44.28104" lon="1.90808">
        <ele>433.961611</ele>
        <time>2022-08-07T09:00:18.754Z</time>
      </trkpt>
      <trkpt lat="44.28107" lon="1.90794">
        <ele>433.719046</ele>
        <time>2022-08-07T09:00:20.755Z</time>
      </trkpt>
      <trkpt lat="44.28104" lon="1.90779">
        <ele>433.444807</ele>
        <time>2022-08-07T09:00:22.753Z</time>
      </trkpt>
      <trkpt lat="44.28101" lon="1.90763">
        <ele>433.053608</ele>
        <time>2022-08-07T09:00:24.753Z</time>
      </trkpt>
      <trkpt lat="44.28098" lon="1.90745">
        <ele>432.454364</ele>
        <time>2022-08-07T09:00:26.759Z</time>
      </trkpt>
      <trkpt lat="44.28095" lon="1.90729">
        <ele>431.921575</ele>
        <time>2022-08-07T09:00:28.758Z</time>
      </trkpt>
      <trkpt lat="44.28092" lon="1.90711">
        <ele>431.30861</ele>
        <time>2022-08-07T09:00:30.755Z</time>
      </trkpt>
      <trkpt lat="44.28088" lon="1.90691">
        <ele>430.640401</ele>
        <time>2022-08-07T09:00:32.753Z</time>
      </trkpt>
      <trkpt lat="44.28084" lon="1.9067">
        <ele>429.949705</ele>
        <time>2022-08-07T09:00:34.757Z</time>
      </trkpt>
      <trkpt lat="44.28079" lon="1.90647">
        <ele>429.152458</ele>
        <time>2022-08-07T09:00:36.753Z</time>
      </trkpt>
      <trkpt lat="44.28073" lon="1.90625">
        <ele>428.394116</ele>
        <time>2022-08-07T09:00:38.759Z</time>
      </trkpt>
      <trkpt lat="44.2807" lon="1.90613">
        <ele>427.974391</ele>
        <time>2022-08-07T09:00:39.755Z</time>
      </trkpt>
      <trkpt lat="44.28066" lon="1.90601">
        <ele>427.555774</ele>
        <time>2022-08-07T09:00:40.758Z</time>
      </trkpt>
      <trkpt lat="44.28063" lon="1.90589">
        <ele>427.142147</ele>
        <time>2022-08-07T09:00:41.760Z</time>
      </trkpt>
      <trkpt lat="44.2806" lon="1.90577">
        <ele>426.728519</ele>
        <time>2022-08-07T09:00:42.759Z</time>
      </trkpt>
      <trkpt lat="44.28054" lon="1.90554">
        <ele>425.905959</ele>
        <time>2022-08-07T09:00:44.747Z</time>
      </trkpt>
      <trkpt lat="44.28047" lon="1.90533">
        <ele>425.157067</ele>
        <time>2022-08-07T09:00:47.704Z</time>
      </trkpt>
      <trkpt lat="44.28046" lon="1.9052">
        <ele>424.613716</ele>
        <time>2022-08-07T09:00:47.760Z</time>
      </trkpt>
      <trkpt lat="44.28042" lon="1.90508">
        <ele>424.063335</ele>
        <time>2022-08-07T09:00:48.754Z</time>
      </trkpt>
      <trkpt lat="44.28038" lon="1.90483">
        <ele>423.000924</ele>
        <time>2022-08-07T09:00:50.757Z</time>
      </trkpt>
      <trkpt lat="44.28034" lon="1.9046">
        <ele>422.012027</ele>
        <time>2022-08-07T09:00:52.755Z</time>
      </trkpt>
      <trkpt lat="44.2803" lon="1.90438">
        <ele>421.033208</ele>
        <time>2022-08-07T09:00:54.753Z</time>
      </trkpt>
      <trkpt lat="44.28026" lon="1.90416">
        <ele>420.101672</ele>
        <time>2022-08-07T09:00:56.755Z</time>
      </trkpt>
      <trkpt lat="44.28022" lon="1.90396">
        <ele>419.213658</ele>
        <time>2022-08-07T09:00:58.756Z</time>
      </trkpt>
      <trkpt lat="44.28018" lon="1.90376">
        <ele>418.342223</ele>
        <time>2022-08-07T09:01:00.761Z</time>
      </trkpt>
      <trkpt lat="44.28015" lon="1.90358">
        <ele>417.584628</ele>
        <time>2022-08-07T09:01:02.748Z</time>
      </trkpt>
      <trkpt lat="44.2801" lon="1.90342">
        <ele>416.833591</ele>
        <time>2022-08-07T09:01:04.753Z</time>
      </trkpt>
      <trkpt lat="44.28004" lon="1.90326">
        <ele>416.082993</ele>
        <time>2022-08-07T09:01:06.752Z</time>
      </trkpt>
      <trkpt lat="44.27999" lon="1.90312">
        <ele>415.432596</ele>
        <time>2022-08-07T09:01:08.754Z</time>
      </trkpt>
      <trkpt lat="44.27993" lon="1.90299">
        <ele>414.786728</ele>
        <time>2022-08-07T09:01:10.782Z</time>
      </trkpt>
      <trkpt lat="44.27988" lon="1.90287">
        <ele>414.476854</ele>
        <time>2022-08-07T09:01:12.749Z</time>
      </trkpt>
      <trkpt lat="44.27983" lon="1.90275">
        <ele>414.316091</ele>
        <time>2022-08-07T09:01:14.756Z</time>
      </trkpt>
      <trkpt lat="44.27978" lon="1.90264">
        <ele>414.172684</ele>
        <time>2022-08-07T09:01:16.744Z</time>
      </trkpt>
      <trkpt lat="44.27973" lon="1.90253">
        <ele>414.029149</ele>
        <time>2022-08-07T09:01:18.753Z</time>
      </trkpt>
      <trkpt lat="44.27966" lon="1.90239">
        <ele>413.834227</ele>
        <time>2022-08-07T09:01:21.754Z</time>
      </trkpt>
      <trkpt lat="44.2796" lon="1.90224">
        <ele>413.649857</ele>
        <time>2022-08-07T09:01:24.755Z</time>
      </trkpt>
      <trkpt lat="44.27954" lon="1.9021">
        <ele>413.462773</ele>
        <time>2022-08-07T09:01:27.750Z</time>
      </trkpt>
      <trkpt lat="44.27947" lon="1.90194">
        <ele>413.259122</ele>
        <time>2022-08-07T09:01:30.755Z</time>
      </trkpt>
      <trkpt lat="44.2794" lon="1.9018">
        <ele>413.065242</ele>
        <time>2022-08-07T09:01:33.755Z</time>
      </trkpt>
      <trkpt lat="44.27933" lon="1.90166">
        <ele>412.870382</ele>
        <time>2022-08-07T09:01:36.752Z</time>
      </trkpt>
      <trkpt lat="44.27927" lon="1.90151">
        <ele>412.683154</ele>
        <time>2022-08-07T09:01:39.758Z</time>
      </trkpt>
      <trkpt lat="44.27921" lon="1.90139">
        <ele>412.518726</ele>
        <time>2022-08-07T09:01:42.757Z</time>
      </trkpt>
      <trkpt lat="44.27915" lon="1.90126">
        <ele>412.355472</ele>
        <time>2022-08-07T09:01:45.758Z</time>
      </trkpt>
      <trkpt lat="44.27912" lon="1.90111">
        <ele>412.1768</ele>
        <time>2022-08-07T09:01:48.749Z</time>
      </trkpt>
      <trkpt lat="44.27911" lon="1.90096">
        <ele>412.008043</ele>
        <time>2022-08-07T09:01:51.753Z</time>
      </trkpt>
      <trkpt lat="44.2791" lon="1.9008">
        <ele>411.830328</ele>
        <time>2022-08-07T09:01:54.753Z</time>
      </trkpt>
      <trkpt lat="44.2791" lon="1.90062">
        <ele>411.820493</ele>
        <time>2022-08-07T09:01:57.754Z</time>
      </trkpt>
      <trkpt lat="44.27913" lon="1.90043">
        <ele>411.891132</ele>
        <time>2022-08-07T09:02:00.753Z</time>
      </trkpt>
      <trkpt lat="44.27915" lon="1.90024">
        <ele>411.961244</ele>
        <time>2022-08-07T09:02:03.752Z</time>
      </trkpt>
      <trkpt lat="44.27916" lon="1.9001">
        <ele>412.012954</ele>
        <time>2022-08-07T09:02:05.752Z</time>
      </trkpt>
      <trkpt lat="44.27919" lon="1.89993">
        <ele>412.077262</ele>
        <time>2022-08-07T09:02:08.759Z</time>
      </trkpt>
      <trkpt lat="44.2792" lon="1.89976">
        <ele>412.142169</ele>
        <time>2022-08-07T09:02:11.752Z</time>
      </trkpt>
      <trkpt lat="44.27922" lon="1.89959">
        <ele>412.204094</ele>
        <time>2022-08-07T09:02:14.752Z</time>
      </trkpt>
      <trkpt lat="44.27922" lon="1.89942">
        <ele>412.267678</ele>
        <time>2022-08-07T09:02:17.751Z</time>
      </trkpt>
      <trkpt lat="44.2792" lon="1.89925">
        <ele>412.328641</ele>
        <time>2022-08-07T09:02:20.756Z</time>
      </trkpt>
      <trkpt lat="44.27918" lon="1.8991">
        <ele>412.384814</ele>
        <time>2022-08-07T09:02:23.759Z</time>
      </trkpt>
      <trkpt lat="44.27914" lon="1.89895">
        <ele>412.444044</ele>
        <time>2022-08-07T09:02:26.751Z</time>
      </trkpt>
      <trkpt lat="44.2791" lon="1.8988">
        <ele>412.504302</ele>
        <time>2022-08-07T09:02:29.744Z</time>
      </trkpt>
      <trkpt lat="44.27904" lon="1.89865">
        <ele>412.566666</ele>
        <time>2022-08-07T09:02:32.759Z</time>
      </trkpt>
      <trkpt lat="44.27899" lon="1.89849">
        <ele>412.62969</ele>
        <time>2022-08-07T09:02:35.763Z</time>
      </trkpt>
      <trkpt lat="44.27894" lon="1.89834">
        <ele>412.691605</ele>
        <time>2022-08-07T09:02:38.767Z</time>
      </trkpt>
      <trkpt lat="44.27889" lon="1.89818">
        <ele>412.971805</ele>
        <time>2022-08-07T09:02:41.755Z</time>
      </trkpt>
      <trkpt lat="44.27886" lon="1.89803">
        <ele>413.256188</ele>
        <time>2022-08-07T09:02:44.756Z</time>
      </trkpt>
      <trkpt lat="44.27883" lon="1.89788">
        <ele>413.525844</ele>
        <time>2022-08-07T09:02:47.756Z</time>
      </trkpt>
      <trkpt lat="44.27881" lon="1.89774">
        <ele>413.765597</ele>
        <time>2022-08-07T09:02:50.756Z</time>
      </trkpt>
      <trkpt lat="44.27879" lon="1.89759">
        <ele>414.033653</ele>
        <time>2022-08-07T09:02:54.754Z</time>
      </trkpt>
      <trkpt lat="44.27877" lon="1.89744">
        <ele>414.300352</ele>
        <time>2022-08-07T09:02:58.756Z</time>
      </trkpt>
      <trkpt lat="44.27876" lon="1.89728">
        <ele>414.567213</ele>
        <time>2022-08-07T09:03:02.754Z</time>
      </trkpt>
      <trkpt lat="44.27876" lon="1.89713">
        <ele>414.830436</ele>
        <time>2022-08-07T09:03:06.759Z</time>
      </trkpt>
      <trkpt lat="44.27875" lon="1.89697">
        <ele>415.116385</ele>
        <time>2022-08-07T09:03:10.756Z</time>
      </trkpt>
      <trkpt lat="44.27874" lon="1.89683">
        <ele>415.351677</ele>
        <time>2022-08-07T09:03:13.757Z</time>
      </trkpt>
      <trkpt lat="44.27873" lon="1.89668">
        <ele>415.617204</ele>
        <time>2022-08-07T09:03:16.763Z</time>
      </trkpt>
      <trkpt lat="44.27872" lon="1.89654">
        <ele>415.873852</ele>
        <time>2022-08-07T09:03:19.756Z</time>
      </trkpt>
      <trkpt lat="44.27872" lon="1.8964">
        <ele>416.112617</ele>
        <time>2022-08-07T09:03:22.758Z</time>
      </trkpt>
      <trkpt lat="44.27871" lon="1.89627">
        <ele>416.342867</ele>
        <time>2022-08-07T09:03:25.751Z</time>
      </trkpt>
      <trkpt lat="44.27871" lon="1.89612">
        <ele>416.590076</ele>
        <time>2022-08-07T09:03:28.755Z</time>
      </trkpt>
      <trkpt lat="44.27876" lon="1.89599">
        <ele>416.854924</ele>
        <time>2022-08-07T09:03:32.757Z</time>
      </trkpt>
      <trkpt lat="44.27884" lon="1.8959">
        <ele>417.090154</ele>
        <time>2022-08-07T09:03:36.755Z</time>
      </trkpt>
      <trkpt lat="44.27894" lon="1.89585">
        <ele>417.285664</ele>
        <time>2022-08-07T09:03:41.750Z</time>
      </trkpt>
      <trkpt lat="44.27902" lon="1.89574">
        <ele>417.472686</ele>
        <time>2022-08-07T09:03:45.753Z</time>
      </trkpt>
      <trkpt lat="44.27909" lon="1.89565">
        <ele>417.629478</ele>
        <time>2022-08-07T09:03:48.757Z</time>
      </trkpt>
      <trkpt lat="44.27915" lon="1.89555">
        <ele>417.789214</ele>
        <time>2022-08-07T09:03:51.755Z</time>
      </trkpt>
      <trkpt lat="44.27923" lon="1.89546">
        <ele>417.964612</ele>
        <time>2022-08-07T09:03:54.753Z</time>
      </trkpt>
      <trkpt lat="44.27931" lon="1.89537">
        <ele>418.138461</ele>
        <time>2022-08-07T09:03:57.750Z</time>
      </trkpt>
      <trkpt lat="44.27938" lon="1.89529">
        <ele>418.300316</ele>
        <time>2022-08-07T09:04:00.748Z</time>
      </trkpt>
      <trkpt lat="44.27946" lon="1.8952">
        <ele>418.471729</ele>
        <time>2022-08-07T09:04:03.756Z</time>
      </trkpt>
      <trkpt lat="44.27954" lon="1.89511">
        <ele>418.646922</ele>
        <time>2022-08-07T09:04:06.753Z</time>
      </trkpt>
      <trkpt lat="44.27963" lon="1.89503">
        <ele>418.834501</ele>
        <time>2022-08-07T09:04:09.761Z</time>
      </trkpt>
      <trkpt lat="44.27972" lon="1.89493">
        <ele>419.022806</ele>
        <time>2022-08-07T09:04:12.755Z</time>
      </trkpt>
      <trkpt lat="44.27982" lon="1.89484">
        <ele>419.226566</ele>
        <time>2022-08-07T09:04:15.764Z</time>
      </trkpt>
      <trkpt lat="44.27991" lon="1.89476">
        <ele>419.416983</ele>
        <time>2022-08-07T09:04:18.754Z</time>
      </trkpt>
      <trkpt lat="44.28002" lon="1.89467">
        <ele>419.623564</ele>
        <time>2022-08-07T09:04:21.750Z</time>
      </trkpt>
      <trkpt lat="44.28013" lon="1.89461">
        <ele>419.831095</ele>
        <time>2022-08-07T09:04:24.761Z</time>
      </trkpt>
      <trkpt lat="44.28023" lon="1.89454">
        <ele>420.023166</ele>
        <time>2022-08-07T09:04:27.749Z</time>
      </trkpt>
      <trkpt lat="44.28034" lon="1.89446">
        <ele>420.030996</ele>
        <time>2022-08-07T09:04:30.754Z</time>
      </trkpt>
      <trkpt lat="44.28045" lon="1.89439">
        <ele>419.804107</ele>
        <time>2022-08-07T09:04:33.760Z</time>
      </trkpt>
      <trkpt lat="44.28054" lon="1.89433">
        <ele>419.592618</ele>
        <time>2022-08-07T09:04:36.759Z</time>
      </trkpt>
      <trkpt lat="44.28063" lon="1.89426">
        <ele>419.391353</ele>
        <time>2022-08-07T09:04:39.760Z</time>
      </trkpt>
      <trkpt lat="44.28073" lon="1.8942">
        <ele>419.191103</ele>
        <time>2022-08-07T09:04:42.757Z</time>
      </trkpt>
      <trkpt lat="44.28083" lon="1.89412">
        <ele>418.951451</ele>
        <time>2022-08-07T09:04:45.750Z</time>
      </trkpt>
      <trkpt lat="44.28094" lon="1.89403">
        <ele>418.709717</ele>
        <time>2022-08-07T09:04:48.750Z</time>
      </trkpt>
      <trkpt lat="44.28103" lon="1.89394">
        <ele>418.487919</ele>
        <time>2022-08-07T09:04:51.758Z</time>
      </trkpt>
      <trkpt lat="44.28111" lon="1.89385">
        <ele>418.281718</ele>
        <time>2022-08-07T09:04:54.751Z</time>
      </trkpt>
      <trkpt lat="44.28119" lon="1.89374">
        <ele>418.066412</ele>
        <time>2022-08-07T09:04:57.761Z</time>
      </trkpt>
      <trkpt lat="44.28126" lon="1.89363">
        <ele>417.852511</ele>
        <time>2022-08-07T09:05:00.748Z</time>
      </trkpt>
      <trkpt lat="44.28133" lon="1.89353">
        <ele>417.668405</ele>
        <time>2022-08-07T09:05:03.751Z</time>
      </trkpt>
      <trkpt lat="44.28138" lon="1.89343">
        <ele>417.492423</ele>
        <time>2022-08-07T09:05:06.752Z</time>
      </trkpt>
      <trkpt lat="44.28144" lon="1.89332">
        <ele>417.29952</ele>
        <time>2022-08-07T09:05:09.749Z</time>
      </trkpt>
      <trkpt lat="44.28149" lon="1.89321">
        <ele>417.114636</ele>
        <time>2022-08-07T09:05:12.758Z</time>
      </trkpt>
      <trkpt lat="44.28153" lon="1.89309">
        <ele>416.927169</ele>
        <time>2022-08-07T09:05:15.753Z</time>
      </trkpt>
      <trkpt lat="44.28159" lon="1.89295">
        <ele>416.709406</ele>
        <time>2022-08-07T09:05:18.755Z</time>
      </trkpt>
      <trkpt lat="44.28164" lon="1.89282">
        <ele>416.480261</ele>
        <time>2022-08-07T09:05:21.756Z</time>
      </trkpt>
      <trkpt lat="44.28167" lon="1.8927">
        <ele>416.272609</ele>
        <time>2022-08-07T09:05:24.755Z</time>
      </trkpt>
      <trkpt lat="44.28171" lon="1.89256">
        <ele>416.035292</ele>
        <time>2022-08-07T09:05:27.752Z</time>
      </trkpt>
      <trkpt lat="44.28176" lon="1.89242">
        <ele>415.774973</ele>
        <time>2022-08-07T09:05:30.751Z</time>
      </trkpt>
      <trkpt lat="44.28183" lon="1.89227">
        <ele>415.485271</ele>
        <time>2022-08-07T09:05:33.753Z</time>
      </trkpt>
      <trkpt lat="44.28188" lon="1.89214">
        <ele>415.252658</ele>
        <time>2022-08-07T09:05:36.754Z</time>
      </trkpt>
      <trkpt lat="44.28195" lon="1.892">
        <ele>414.974289</ele>
        <time>2022-08-07T09:05:39.756Z</time>
      </trkpt>
      <trkpt lat="44.28201" lon="1.89189">
        <ele>414.748554</ele>
        <time>2022-08-07T09:05:42.752Z</time>
      </trkpt>
      <trkpt lat="44.28209" lon="1.89175">
        <ele>414.46525</ele>
        <time>2022-08-07T09:05:45.754Z</time>
      </trkpt>
      <trkpt lat="44.28215" lon="1.89164">
        <ele>414.234174</ele>
        <time>2022-08-07T09:05:48.752Z</time>
      </trkpt>
      <trkpt lat="44.28224" lon="1.89151">
        <ele>413.956279</ele>
        <time>2022-08-07T09:05:52.756Z</time>
      </trkpt>
      <trkpt lat="44.28231" lon="1.89139">
        <ele>413.693034</ele>
        <time>2022-08-07T09:05:55.755Z</time>
      </trkpt>
      <trkpt lat="44.2824" lon="1.89124">
        <ele>413.382508</ele>
        <time>2022-08-07T09:05:58.752Z</time>
      </trkpt>
      <trkpt lat="44.28247" lon="1.89114">
        <ele>413.157884</ele>
        <time>2022-08-07T09:06:00.752Z</time>
      </trkpt>
      <trkpt lat="44.28253" lon="1.89102">
        <ele>412.926809</ele>
        <time>2022-08-07T09:06:02.756Z</time>
      </trkpt>
      <trkpt lat="44.28259" lon="1.89091">
        <ele>412.692979</ele>
        <time>2022-08-07T09:06:04.753Z</time>
      </trkpt>
      <trkpt lat="44.28265" lon="1.89081">
        <ele>412.541192</ele>
        <time>2022-08-07T09:06:06.751Z</time>
      </trkpt>
      <trkpt lat="44.28271" lon="1.8907">
        <ele>412.501581</ele>
        <time>2022-08-07T09:06:08.752Z</time>
      </trkpt>
      <trkpt lat="44.28277" lon="1.89055">
        <ele>412.445532</ele>
        <time>2022-08-07T09:06:11.751Z</time>
      </trkpt>
      <trkpt lat="44.28284" lon="1.89042">
        <ele>412.39625</ele>
        <time>2022-08-07T09:06:14.754Z</time>
      </trkpt>
      <trkpt lat="44.2829" lon="1.89027">
        <ele>412.341763</ele>
        <time>2022-08-07T09:06:17.751Z</time>
      </trkpt>
      <trkpt lat="44.28297" lon="1.89013">
        <ele>412.287871</ele>
        <time>2022-08-07T09:06:20.750Z</time>
      </trkpt>
      <trkpt lat="44.28304" lon="1.88999">
        <ele>412.23397</ele>
        <time>2022-08-07T09:06:23.751Z</time>
      </trkpt>
      <trkpt lat="44.28312" lon="1.88986">
        <ele>412.181832</ele>
        <time>2022-08-07T09:06:26.742Z</time>
      </trkpt>
      <trkpt lat="44.28319" lon="1.88973">
        <ele>412.130536</ele>
        <time>2022-08-07T09:06:29.751Z</time>
      </trkpt>
      <trkpt lat="44.28325" lon="1.8896">
        <ele>412.082038</ele>
        <time>2022-08-07T09:06:32.747Z</time>
      </trkpt>
      <trkpt lat="44.28331" lon="1.88948">
        <ele>412.036841</ele>
        <time>2022-08-07T09:06:35.756Z</time>
      </trkpt>
      <trkpt lat="44.28337" lon="1.88936">
        <ele>411.99125</ele>
        <time>2022-08-07T09:06:38.751Z</time>
      </trkpt>
      <trkpt lat="44.28344" lon="1.88921">
        <ele>411.934836</ele>
        <time>2022-08-07T09:06:41.759Z</time>
      </trkpt>
      <trkpt lat="44.28352" lon="1.88906">
        <ele>411.877274</ele>
        <time>2022-08-07T09:06:44.752Z</time>
      </trkpt>
      <trkpt lat="44.2836" lon="1.88893">
        <ele>411.82386</ele>
        <time>2022-08-07T09:06:47.752Z</time>
      </trkpt>
      <trkpt lat="44.28367" lon="1.88879">
        <ele>411.780767</ele>
        <time>2022-08-07T09:06:50.761Z</time>
      </trkpt>
      <trkpt lat="44.28373" lon="1.88865">
        <ele>412.19988</ele>
        <time>2022-08-07T09:06:53.754Z</time>
      </trkpt>
      <trkpt lat="44.28377" lon="1.88851">
        <ele>412.581941</ele>
        <time>2022-08-07T09:06:56.759Z</time>
      </trkpt>
      <trkpt lat="44.28377" lon="1.88835">
        <ele>412.989405</ele>
        <time>2022-08-07T09:07:00.752Z</time>
      </trkpt>
      <trkpt lat="44.2837" lon="1.88823">
        <ele>413.373088</ele>
        <time>2022-08-07T09:07:03.742Z</time>
      </trkpt>
      <trkpt lat="44.28364" lon="1.88814">
        <ele>413.717627</ele>
        <time>2022-08-07T09:07:06.752Z</time>
      </trkpt>
      <trkpt lat="44.28355" lon="1.88804">
        <ele>414.116209</ele>
        <time>2022-08-07T09:07:09.756Z</time>
      </trkpt>
      <trkpt lat="44.28346" lon="1.88793">
        <ele>414.554565</ele>
        <time>2022-08-07T09:07:12.750Z</time>
      </trkpt>
      <trkpt lat="44.28339" lon="1.88782">
        <ele>414.920721</ele>
        <time>2022-08-07T09:07:15.753Z</time>
      </trkpt>
      <trkpt lat="44.28332" lon="1.8877">
        <ele>415.31063</ele>
        <time>2022-08-07T09:07:18.754Z</time>
      </trkpt>
      <trkpt lat="44.28325" lon="1.8876">
        <ele>415.67594</ele>
        <time>2022-08-07T09:07:21.753Z</time>
      </trkpt>
      <trkpt lat="44.28319" lon="1.88751">
        <ele>416.002399</ele>
        <time>2022-08-07T09:07:24.752Z</time>
      </trkpt>
      <trkpt lat="44.28313" lon="1.88741">
        <ele>416.329492</ele>
        <time>2022-08-07T09:07:27.751Z</time>
      </trkpt>
      <trkpt lat="44.28306" lon="1.88731">
        <ele>416.68618</ele>
        <time>2022-08-07T09:07:30.759Z</time>
      </trkpt>
      <trkpt lat="44.283" lon="1.88719">
        <ele>417.044381</ele>
        <time>2022-08-07T09:07:33.754Z</time>
      </trkpt>
      <trkpt lat="44.28295" lon="1.88707">
        <ele>417.41397</ele>
        <time>2022-08-07T09:07:36.758Z</time>
      </trkpt>
      <trkpt lat="44.28289" lon="1.88696">
        <ele>417.771883</ele>
        <time>2022-08-07T09:07:39.755Z</time>
      </trkpt>
      <trkpt lat="44.28282" lon="1.88683">
        <ele>418.1883</ele>
        <time>2022-08-07T09:07:43.752Z</time>
      </trkpt>
      <trkpt lat="44.28277" lon="1.88671">
        <ele>419.008929</ele>
        <time>2022-08-07T09:07:47.755Z</time>
      </trkpt>
      <trkpt lat="44.28272" lon="1.88659">
        <ele>419.835745</ele>
        <time>2022-08-07T09:07:52.755Z</time>
      </trkpt>
      <trkpt lat="44.28267" lon="1.88647">
        <ele>420.705335</ele>
        <time>2022-08-07T09:07:58.751Z</time>
      </trkpt>
      <trkpt lat="44.28261" lon="1.88636">
        <ele>421.549537</ele>
        <time>2022-08-07T09:08:03.753Z</time>
      </trkpt>
      <trkpt lat="44.28253" lon="1.88626">
        <ele>422.411286</ele>
        <time>2022-08-07T09:08:09.757Z</time>
      </trkpt>
      <trkpt lat="44.28247" lon="1.88616">
        <ele>423.21353</ele>
        <time>2022-08-07T09:08:14.754Z</time>
      </trkpt>
      <trkpt lat="44.28242" lon="1.88605">
        <ele>424.043156</ele>
        <time>2022-08-07T09:08:22.862Z</time>
      </trkpt>
      <trkpt lat="44.28234" lon="1.88595">
        <ele>424.914983</ele>
        <time>2022-08-07T09:08:29.865Z</time>
      </trkpt>
      <trkpt lat="44.28227" lon="1.88588">
        <ele>425.712439</ele>
        <time>2022-08-07T09:08:36.866Z</time>
      </trkpt>
      <trkpt lat="44.2822" lon="1.88578">
        <ele>426.573816</ele>
        <time>2022-08-07T09:08:42.864Z</time>
      </trkpt>
      <trkpt lat="44.28213" lon="1.88567">
        <ele>427.432708</ele>
        <time>2022-08-07T09:08:48.863Z</time>
      </trkpt>
      <trkpt lat="44.28207" lon="1.88556">
        <ele>428.286824</ele>
        <time>2022-08-07T09:08:55.862Z</time>
      </trkpt>
      <trkpt lat="44.28203" lon="1.88543">
        <ele>429.148998</ele>
        <time>2022-08-07T09:09:02.866Z</time>
      </trkpt>
      <trkpt lat="44.28195" lon="1.88533">
        <ele>430.015047</ele>
        <time>2022-08-07T09:09:09.862Z</time>
      </trkpt>
      <trkpt lat="44.28191" lon="1.88521">
        <ele>430.8123</ele>
        <time>2022-08-07T09:09:15.862Z</time>
      </trkpt>
      <trkpt lat="44.28189" lon="1.88508">
        <ele>431.676435</ele>
        <time>2022-08-07T09:09:21.866Z</time>
      </trkpt>
      <trkpt lat="44.28183" lon="1.88496">
        <ele>432.521364</ele>
        <time>2022-08-07T09:09:28.867Z</time>
      </trkpt>
      <trkpt lat="44.28177" lon="1.88487">
        <ele>433.30033</ele>
        <time>2022-08-07T09:09:36.865Z</time>
      </trkpt>
      <trkpt lat="44.28168" lon="1.8848">
        <ele>433.637295</ele>
        <time>2022-08-07T09:09:42.872Z</time>
      </trkpt>
      <trkpt lat="44.2816" lon="1.88473">
        <ele>433.764273</ele>
        <time>2022-08-07T09:09:47.862Z</time>
      </trkpt>
      <trkpt lat="44.28151" lon="1.88468">
        <ele>433.901482</ele>
        <time>2022-08-07T09:09:52.861Z</time>
      </trkpt>
      <trkpt lat="44.2814" lon="1.88462">
        <ele>434.053262</ele>
        <time>2022-08-07T09:09:56.864Z</time>
      </trkpt>
      <trkpt lat="44.28131" lon="1.88454">
        <ele>434.187707</ele>
        <time>2022-08-07T09:10:02.862Z</time>
      </trkpt>
      <trkpt lat="44.28123" lon="1.88446">
        <ele>434.315568</ele>
        <time>2022-08-07T09:10:07.862Z</time>
      </trkpt>
      <trkpt lat="44.28113" lon="1.88442">
        <ele>434.462182</ele>
        <time>2022-08-07T09:10:11.863Z</time>
      </trkpt>
      <trkpt lat="44.28104" lon="1.88435">
        <ele>434.597727</ele>
        <time>2022-08-07T09:10:16.863Z</time>
      </trkpt>
      <trkpt lat="44.28093" lon="1.88425">
        <ele>434.763843</ele>
        <time>2022-08-07T09:10:20.862Z</time>
      </trkpt>
      <trkpt lat="44.28081" lon="1.8842">
        <ele>434.937931</ele>
        <time>2022-08-07T09:10:23.863Z</time>
      </trkpt>
      <trkpt lat="44.28069" lon="1.88415">
        <ele>435.102043</ele>
        <time>2022-08-07T09:10:26.872Z</time>
      </trkpt>
      <trkpt lat="44.28059" lon="1.88414">
        <ele>435.236412</ele>
        <time>2022-08-07T09:10:29.864Z</time>
      </trkpt>
      <trkpt lat="44.28047" lon="1.88414">
        <ele>435.397031</ele>
        <time>2022-08-07T09:10:32.866Z</time>
      </trkpt>
      <trkpt lat="44.28038" lon="1.88402">
        <ele>435.562144</ele>
        <time>2022-08-07T09:10:35.869Z</time>
      </trkpt>
      <trkpt lat="44.28031" lon="1.88392">
        <ele>435.694342</ele>
        <time>2022-08-07T09:10:39.869Z</time>
      </trkpt>
      <trkpt lat="44.28021" lon="1.88384">
        <ele>435.847248</ele>
        <time>2022-08-07T09:10:43.863Z</time>
      </trkpt>
      <trkpt lat="44.28011" lon="1.88376">
        <ele>435.795681</ele>
        <time>2022-08-07T09:10:46.865Z</time>
      </trkpt>
      <trkpt lat="44.28002" lon="1.88366">
        <ele>435.490303</ele>
        <time>2022-08-07T09:10:50.865Z</time>
      </trkpt>
      <trkpt lat="44.27994" lon="1.88355">
        <ele>435.196264</ele>
        <time>2022-08-07T09:10:54.864Z</time>
      </trkpt>
      <trkpt lat="44.27986" lon="1.88344">
        <ele>434.897409</ele>
        <time>2022-08-07T09:10:58.866Z</time>
      </trkpt>
      <trkpt lat="44.27979" lon="1.88335">
        <ele>434.637453</ele>
        <time>2022-08-07T09:11:01.863Z</time>
      </trkpt>
      <trkpt lat="44.2797" lon="1.88325">
        <ele>434.355505</ele>
        <time>2022-08-07T09:11:04.865Z</time>
      </trkpt>
      <trkpt lat="44.27964" lon="1.88312">
        <ele>434.053753</ele>
        <time>2022-08-07T09:11:06.867Z</time>
      </trkpt>
      <trkpt lat="44.27951" lon="1.883">
        <ele>433.663321</ele>
        <time>2022-08-07T09:11:09.876Z</time>
      </trkpt>
      <trkpt lat="44.27942" lon="1.88292">
        <ele>433.375164</ele>
        <time>2022-08-07T09:11:11.865Z</time>
      </trkpt>
      <trkpt lat="44.27931" lon="1.88286">
        <ele>433.073354</ele>
        <time>2022-08-07T09:11:14.865Z</time>
      </trkpt>
      <trkpt lat="44.2792" lon="1.88288">
        <ele>432.767452</ele>
        <time>2022-08-07T09:11:17.862Z</time>
      </trkpt>
      <trkpt lat="44.27909" lon="1.8829">
        <ele>432.466138</ele>
        <time>2022-08-07T09:11:20.865Z</time>
      </trkpt>
      <trkpt lat="44.27897" lon="1.88289">
        <ele>432.170975</ele>
        <time>2022-08-07T09:11:23.860Z</time>
      </trkpt>
      <trkpt lat="44.27885" lon="1.88286">
        <ele>431.850218</ele>
        <time>2022-08-07T09:11:26.860Z</time>
      </trkpt>
      <trkpt lat="44.27875" lon="1.88278">
        <ele>431.551583</ele>
        <time>2022-08-07T09:11:29.865Z</time>
      </trkpt>
      <trkpt lat="44.27866" lon="1.8827">
        <ele>431.26032</ele>
        <time>2022-08-07T09:11:32.864Z</time>
      </trkpt>
      <trkpt lat="44.27858" lon="1.88264">
        <ele>431.277276</ele>
        <time>2022-08-07T09:11:34.861Z</time>
      </trkpt>
      <trkpt lat="44.27848" lon="1.88258">
        <ele>431.390995</ele>
        <time>2022-08-07T09:11:36.862Z</time>
      </trkpt>
      <trkpt lat="44.27839" lon="1.88253">
        <ele>431.501398</ele>
        <time>2022-08-07T09:11:38.862Z</time>
      </trkpt>
      <trkpt lat="44.27829" lon="1.88251">
        <ele>431.615471</ele>
        <time>2022-08-07T09:11:40.864Z</time>
      </trkpt>
      <trkpt lat="44.27819" lon="1.88248">
        <ele>431.725818</ele>
        <time>2022-08-07T09:11:42.866Z</time>
      </trkpt>
      <trkpt lat="44.27809" lon="1.88246">
        <ele>431.839368</ele>
        <time>2022-08-07T09:11:44.863Z</time>
      </trkpt>
      <trkpt lat="44.278" lon="1.88242">
        <ele>431.952936</ele>
        <time>2022-08-07T09:11:46.859Z</time>
      </trkpt>
      <trkpt lat="44.27788" lon="1.88236">
        <ele>432.093282</ele>
        <time>2022-08-07T09:11:49.862Z</time>
      </trkpt>
      <trkpt lat="44.27779" lon="1.88228">
        <ele>432.210838</ele>
        <time>2022-08-07T09:11:52.861Z</time>
      </trkpt>
      <trkpt lat="44.27769" lon="1.88222">
        <ele>432.330774</ele>
        <time>2022-08-07T09:11:55.867Z</time>
      </trkpt>
      <trkpt lat="44.27759" lon="1.88218">
        <ele>432.448995</ele>
        <time>2022-08-07T09:11:58.863Z</time>
      </trkpt>
      <trkpt lat="44.27751" lon="1.8821">
        <ele>432.55809</ele>
        <time>2022-08-07T09:12:01.865Z</time>
      </trkpt>
      <trkpt lat="44.27741" lon="1.88204">
        <ele>432.683714</ele>
        <time>2022-08-07T09:12:04.869Z</time>
      </trkpt>
      <trkpt lat="44.27731" lon="1.88198">
        <ele>432.809975</ele>
        <time>2022-08-07T09:12:07.860Z</time>
      </trkpt>
      <trkpt lat="44.2772" lon="1.8819">
        <ele>432.942909</ele>
        <time>2022-08-07T09:12:10.864Z</time>
      </trkpt>
      <trkpt lat="44.27712" lon="1.88181">
        <ele>433.058406</ele>
        <time>2022-08-07T09:12:13.864Z</time>
      </trkpt>
      <trkpt lat="44.27704" lon="1.88171">
        <ele>433.180792</ele>
        <time>2022-08-07T09:12:17.865Z</time>
      </trkpt>
      <trkpt lat="44.27695" lon="1.88164">
        <ele>433.107838</ele>
        <time>2022-08-07T09:12:20.865Z</time>
      </trkpt>
      <trkpt lat="44.27688" lon="1.88153">
        <ele>432.961611</ele>
        <time>2022-08-07T09:12:23.865Z</time>
      </trkpt>
      <trkpt lat="44.27681" lon="1.88143">
        <ele>432.807092</ele>
        <time>2022-08-07T09:12:28.866Z</time>
      </trkpt>
      <trkpt lat="44.27672" lon="1.88134">
        <ele>432.646362</ele>
        <time>2022-08-07T09:12:33.867Z</time>
      </trkpt>
      <trkpt lat="44.27664" lon="1.88124">
        <ele>432.487632</ele>
        <time>2022-08-07T09:12:38.863Z</time>
      </trkpt>
      <trkpt lat="44.27658" lon="1.88113">
        <ele>432.345287</ele>
        <time>2022-08-07T09:12:43.863Z</time>
      </trkpt>
      <trkpt lat="44.27647" lon="1.88115">
        <ele>432.188556</ele>
        <time>2022-08-07T09:12:49.864Z</time>
      </trkpt>
      <trkpt lat="44.27638" lon="1.8812">
        <ele>432.041393</ele>
        <time>2022-08-07T09:12:53.865Z</time>
      </trkpt>
      <trkpt lat="44.27627" lon="1.88127">
        <ele>431.863347</ele>
        <time>2022-08-07T09:12:57.862Z</time>
      </trkpt>
      <trkpt lat="44.27617" lon="1.88133">
        <ele>431.707512</ele>
        <time>2022-08-07T09:13:00.865Z</time>
      </trkpt>
      <trkpt lat="44.27607" lon="1.88138">
        <ele>431.549971</ele>
        <time>2022-08-07T09:13:03.687Z</time>
      </trkpt>
      <trkpt lat="44.27597" lon="1.88141">
        <ele>431.390668</ele>
        <time>2022-08-07T09:13:06.696Z</time>
      </trkpt>
      <trkpt lat="44.27587" lon="1.88141">
        <ele>431.241898</ele>
        <time>2022-08-07T09:13:08.690Z</time>
      </trkpt>
      <trkpt lat="44.27576" lon="1.88136">
        <ele>431.072936</ele>
        <time>2022-08-07T09:13:10.681Z</time>
      </trkpt>
      <trkpt lat="44.27568" lon="1.88126">
        <ele>430.918066</ele>
        <time>2022-08-07T09:13:12.703Z</time>
      </trkpt>
      <trkpt lat="44.27558" lon="1.88112">
        <ele>430.708568</ele>
        <time>2022-08-07T09:13:15.698Z</time>
      </trkpt>
      <trkpt lat="44.27551" lon="1.88103">
        <ele>430.56806</ele>
        <time>2022-08-07T09:13:19.691Z</time>
      </trkpt>
      <trkpt lat="44.27545" lon="1.8809">
        <ele>430.453019</ele>
        <time>2022-08-07T09:13:23.697Z</time>
      </trkpt>
      <trkpt lat="44.27538" lon="1.88077">
        <ele>430.337225</ele>
        <time>2022-08-07T09:13:26.694Z</time>
      </trkpt>
      <trkpt lat="44.2753" lon="1.88056">
        <ele>430.161936</ele>
        <time>2022-08-07T09:13:31.246Z</time>
      </trkpt>
      <trkpt lat="44.27525" lon="1.88046">
        <ele>430.068832</ele>
        <time>2022-08-07T09:13:32.689Z</time>
      </trkpt>
      <trkpt lat="44.27518" lon="1.88032">
        <ele>429.945793</ele>
        <time>2022-08-07T09:13:35.689Z</time>
      </trkpt>
      <trkpt lat="44.2751" lon="1.88015">
        <ele>429.799483</ele>
        <time>2022-08-07T09:13:38.692Z</time>
      </trkpt>
      <trkpt lat="44.27505" lon="1.88005">
        <ele>429.705741</ele>
        <time>2022-08-07T09:13:40.686Z</time>
      </trkpt>
      <trkpt lat="44.27498" lon="1.87994">
        <ele>429.600174</ele>
        <time>2022-08-07T09:13:42.691Z</time>
      </trkpt>
      <trkpt lat="44.27492" lon="1.87981">
        <ele>429.487919</ele>
        <time>2022-08-07T09:13:44.687Z</time>
      </trkpt>
      <trkpt lat="44.27487" lon="1.87969">
        <ele>429.387903</ele>
        <time>2022-08-07T09:13:46.691Z</time>
      </trkpt>
      <trkpt lat="44.27483" lon="1.87958">
        <ele>429.289925</ele>
        <time>2022-08-07T09:13:48.685Z</time>
      </trkpt>
      <trkpt lat="44.27478" lon="1.87942">
        <ele>429.162862</ele>
        <time>2022-08-07T09:13:51.688Z</time>
      </trkpt>
      <trkpt lat="44.27472" lon="1.87932">
        <ele>429.06793</ele>
        <time>2022-08-07T09:13:53.692Z</time>
      </trkpt>
      <trkpt lat="44.27466" lon="1.87922">
        <ele>428.971254</ele>
        <time>2022-08-07T09:13:55.688Z</time>
      </trkpt>
      <trkpt lat="44.27459" lon="1.87912">
        <ele>428.873197</ele>
        <time>2022-08-07T09:13:58.686Z</time>
      </trkpt>
      <trkpt lat="44.2745" lon="1.87905">
        <ele>428.760784</ele>
        <time>2022-08-07T09:14:01.690Z</time>
      </trkpt>
      <trkpt lat="44.27439" lon="1.87901">
        <ele>428.210266</ele>
        <time>2022-08-07T09:14:04.685Z</time>
      </trkpt>
      <trkpt lat="44.27427" lon="1.879">
        <ele>427.365653</ele>
        <time>2022-08-07T09:14:06.690Z</time>
      </trkpt>
      <trkpt lat="44.27416" lon="1.87899">
        <ele>426.628449</ele>
        <time>2022-08-07T09:14:10.690Z</time>
      </trkpt>
      <trkpt lat="44.27406" lon="1.87893">
        <ele>425.86224</ele>
        <time>2022-08-07T09:14:14.690Z</time>
      </trkpt>
      <trkpt lat="44.27395" lon="1.87888">
        <ele>425.057288</ele>
        <time>2022-08-07T09:14:18.695Z</time>
      </trkpt>
      <trkpt lat="44.27386" lon="1.87879">
        <ele>424.256755</ele>
        <time>2022-08-07T09:14:21.694Z</time>
      </trkpt>
      <trkpt lat="44.27377" lon="1.87865">
        <ele>423.346928</ele>
        <time>2022-08-07T09:14:24.689Z</time>
      </trkpt>
      <trkpt lat="44.27362" lon="1.87854">
        <ele>422.169168</ele>
        <time>2022-08-07T09:14:27.687Z</time>
      </trkpt>
      <trkpt lat="44.27354" lon="1.87842">
        <ele>421.376926</ele>
        <time>2022-08-07T09:14:29.689Z</time>
      </trkpt>
      <trkpt lat="44.27347" lon="1.8783">
        <ele>420.576899</ele>
        <time>2022-08-07T09:14:31.691Z</time>
      </trkpt>
      <trkpt lat="44.2734" lon="1.87818">
        <ele>419.792289</ele>
        <time>2022-08-07T09:14:33.689Z</time>
      </trkpt>
      <trkpt lat="44.27334" lon="1.87806">
        <ele>419.061247</ele>
        <time>2022-08-07T09:14:36.689Z</time>
      </trkpt>
      <trkpt lat="44.2733" lon="1.8779">
        <ele>418.207763</ele>
        <time>2022-08-07T09:14:38.693Z</time>
      </trkpt>
      <trkpt lat="44.27326" lon="1.87773">
        <ele>417.300269</ele>
        <time>2022-08-07T09:14:40.692Z</time>
      </trkpt>
      <trkpt lat="44.27325" lon="1.87759">
        <ele>416.623812</ele>
        <time>2022-08-07T09:14:42.694Z</time>
      </trkpt>
      <trkpt lat="44.27322" lon="1.87744">
        <ele>415.739696</ele>
        <time>2022-08-07T09:14:44.689Z</time>
      </trkpt>
      <trkpt lat="44.27319" lon="1.87728">
        <ele>414.71255</ele>
        <time>2022-08-07T09:14:46.691Z</time>
      </trkpt>
      <trkpt lat="44.27313" lon="1.87715">
        <ele>413.771226</ele>
        <time>2022-08-07T09:14:48.691Z</time>
      </trkpt>
      <trkpt lat="44.27307" lon="1.87702">
        <ele>412.837911</ele>
        <time>2022-08-07T09:14:50.686Z</time>
      </trkpt>
      <trkpt lat="44.27304" lon="1.87687">
        <ele>411.835683</ele>
        <time>2022-08-07T09:14:52.689Z</time>
      </trkpt>
      <trkpt lat="44.27301" lon="1.87674">
        <ele>410.979747</ele>
        <time>2022-08-07T09:14:54.693Z</time>
      </trkpt>
      <trkpt lat="44.27301" lon="1.87659">
        <ele>410.071839</ele>
        <time>2022-08-07T09:14:56.690Z</time>
      </trkpt>
      <trkpt lat="44.27296" lon="1.87641">
        <ele>408.843745</ele>
        <time>2022-08-07T09:14:58.692Z</time>
      </trkpt>
      <trkpt lat="44.2729" lon="1.87627">
        <ele>407.842757</ele>
        <time>2022-08-07T09:15:00.684Z</time>
      </trkpt>
      <trkpt lat="44.27282" lon="1.87617">
        <ele>406.872326</ele>
        <time>2022-08-07T09:15:02.693Z</time>
      </trkpt>
      <trkpt lat="44.27273" lon="1.87607">
        <ele>405.910504</ele>
        <time>2022-08-07T09:15:04.689Z</time>
      </trkpt>
      <trkpt lat="44.27266" lon="1.87594">
        <ele>404.925885</ele>
        <time>2022-08-07T09:15:06.693Z</time>
      </trkpt>
      <trkpt lat="44.27257" lon="1.87579">
        <ele>403.706035</ele>
        <time>2022-08-07T09:15:08.691Z</time>
      </trkpt>
      <trkpt lat="44.27249" lon="1.87567">
        <ele>402.69969</ele>
        <time>2022-08-07T09:15:10.694Z</time>
      </trkpt>
      <trkpt lat="44.27243" lon="1.87558">
        <ele>401.881122</ele>
        <time>2022-08-07T09:15:12.685Z</time>
      </trkpt>
      <trkpt lat="44.27235" lon="1.87545">
        <ele>400.855899</ele>
        <time>2022-08-07T09:15:15.693Z</time>
      </trkpt>
      <trkpt lat="44.27227" lon="1.87535">
        <ele>400.167738</ele>
        <time>2022-08-07T09:15:17.686Z</time>
      </trkpt>
      <trkpt lat="44.27213" lon="1.87526">
        <ele>399.311675</ele>
        <time>2022-08-07T09:15:20.690Z</time>
      </trkpt>
      <trkpt lat="44.27204" lon="1.8752">
        <ele>398.729652</ele>
        <time>2022-08-07T09:15:22.691Z</time>
      </trkpt>
      <trkpt lat="44.27191" lon="1.8751">
        <ele>397.920406</ele>
        <time>2022-08-07T09:15:25.690Z</time>
      </trkpt>
      <trkpt lat="44.27177" lon="1.87509">
        <ele>397.085978</ele>
        <time>2022-08-07T09:15:27.686Z</time>
      </trkpt>
      <trkpt lat="44.27166" lon="1.87509">
        <ele>396.500294</ele>
        <time>2022-08-07T09:15:29.692Z</time>
      </trkpt>
      <trkpt lat="44.27156" lon="1.87498">
        <ele>395.772539</ele>
        <time>2022-08-07T09:15:32.691Z</time>
      </trkpt>
      <trkpt lat="44.2715" lon="1.87487">
        <ele>395.201015</ele>
        <time>2022-08-07T09:15:34.692Z</time>
      </trkpt>
      <trkpt lat="44.27144" lon="1.87476">
        <ele>394.666388</ele>
        <time>2022-08-07T09:15:36.685Z</time>
      </trkpt>
      <trkpt lat="44.27137" lon="1.87465">
        <ele>394.064992</ele>
        <time>2022-08-07T09:15:38.689Z</time>
      </trkpt>
      <trkpt lat="44.27131" lon="1.87452">
        <ele>393.432222</ele>
        <time>2022-08-07T09:15:40.692Z</time>
      </trkpt>
      <trkpt lat="44.27122" lon="1.87439">
        <ele>392.714574</ele>
        <time>2022-08-07T09:15:42.691Z</time>
      </trkpt>
      <trkpt lat="44.27115" lon="1.87425">
        <ele>392.002093</ele>
        <time>2022-08-07T09:15:44.693Z</time>
      </trkpt>
      <trkpt lat="44.27106" lon="1.87408">
        <ele>391.162743</ele>
        <time>2022-08-07T09:15:46.689Z</time>
      </trkpt>
      <trkpt lat="44.27097" lon="1.8739">
        <ele>390.379421</ele>
        <time>2022-08-07T09:15:48.690Z</time>
      </trkpt>
      <trkpt lat="44.27087" lon="1.87374">
        <ele>390.009653</ele>
        <time>2022-08-07T09:15:50.691Z</time>
      </trkpt>
      <trkpt lat="44.27076" lon="1.87357">
        <ele>389.602222</ele>
        <time>2022-08-07T09:15:52.692Z</time>
      </trkpt>
      <trkpt lat="44.27066" lon="1.87339">
        <ele>389.191119</ele>
        <time>2022-08-07T09:15:54.691Z</time>
      </trkpt>
      <trkpt lat="44.2706" lon="1.87329">
        <ele>388.961644</ele>
        <time>2022-08-07T09:15:55.690Z</time>
      </trkpt>
      <trkpt lat="44.27054" lon="1.87319">
        <ele>388.732825</ele>
        <time>2022-08-07T09:15:56.697Z</time>
      </trkpt>
      <trkpt lat="44.27041" lon="1.87302">
        <ele>388.302171</ele>
        <time>2022-08-07T09:15:58.693Z</time>
      </trkpt>
      <trkpt lat="44.27029" lon="1.87287">
        <ele>387.90903</ele>
        <time>2022-08-07T09:16:00.689Z</time>
      </trkpt>
      <trkpt lat="44.27018" lon="1.87272">
        <ele>387.517968</ele>
        <time>2022-08-07T09:16:02.692Z</time>
      </trkpt>
      <trkpt lat="44.27009" lon="1.87259">
        <ele>387.200003</ele>
        <time>2022-08-07T09:16:04.691Z</time>
      </trkpt>
      <trkpt lat="44.27005" lon="1.87247">
        <ele>386.953271</ele>
        <time>2022-08-07T09:16:06.688Z</time>
      </trkpt>
      <trkpt lat="44.27007" lon="1.87231">
        <ele>386.666494</ele>
        <time>2022-08-07T09:16:09.692Z</time>
      </trkpt>
      <trkpt lat="44.27014" lon="1.87218">
        <ele>386.384035</ele>
        <time>2022-08-07T09:16:13.691Z</time>
      </trkpt>
      <trkpt lat="44.27022" lon="1.87207">
        <ele>386.108381</ele>
        <time>2022-08-07T09:16:16.692Z</time>
      </trkpt>
      <trkpt lat="44.2703" lon="1.87192">
        <ele>385.791546</ele>
        <time>2022-08-07T09:16:19.693Z</time>
      </trkpt>
      <trkpt lat="44.27037" lon="1.87181">
        <ele>385.571605</ele>
        <time>2022-08-07T09:16:21.691Z</time>
      </trkpt>
      <trkpt lat="44.27041" lon="1.87169">
        <ele>385.350507</ele>
        <time>2022-08-07T09:16:23.691Z</time>
      </trkpt>
      <trkpt lat="44.2704" lon="1.87154">
        <ele>385.10591</ele>
        <time>2022-08-07T09:16:26.690Z</time>
      </trkpt>
      <trkpt lat="44.27033" lon="1.87142">
        <ele>384.862335</ele>
        <time>2022-08-07T09:16:29.700Z</time>
      </trkpt>
      <trkpt lat="44.27026" lon="1.87132">
        <ele>384.622885</ele>
        <time>2022-08-07T09:16:33.691Z</time>
      </trkpt>
      <trkpt lat="44.27014" lon="1.87124">
        <ele>384.334443</ele>
        <time>2022-08-07T09:16:36.693Z</time>
      </trkpt>
      <trkpt lat="44.27003" lon="1.87116">
        <ele>384.057988</ele>
        <time>2022-08-07T09:16:39.688Z</time>
      </trkpt>
      <trkpt lat="44.26994" lon="1.87107">
        <ele>383.807493</ele>
        <time>2022-08-07T09:16:43.690Z</time>
      </trkpt>
      <trkpt lat="44.26985" lon="1.871">
        <ele>383.572122</ele>
        <time>2022-08-07T09:16:46.690Z</time>
      </trkpt>
      <trkpt lat="44.26974" lon="1.87093">
        <ele>383.294355</ele>
        <time>2022-08-07T09:16:49.692Z</time>
      </trkpt>
      <trkpt lat="44.26963" lon="1.87087">
        <ele>383.036187</ele>
        <time>2022-08-07T09:16:52.690Z</time>
      </trkpt>
      <trkpt lat="44.2695" lon="1.87083">
        <ele>382.740527</ele>
        <time>2022-08-07T09:16:55.688Z</time>
      </trkpt>
      <trkpt lat="44.26937" lon="1.8708">
        <ele>382.450417</ele>
        <time>2022-08-07T09:16:58.691Z</time>
      </trkpt>
      <trkpt lat="44.26924" lon="1.87077">
        <ele>382.158151</ele>
        <time>2022-08-07T09:17:01.690Z</time>
      </trkpt>
      <trkpt lat="44.26911" lon="1.87076">
        <ele>381.881873</ele>
        <time>2022-08-07T09:17:04.691Z</time>
      </trkpt>
      <trkpt lat="44.26899" lon="1.87074">
        <ele>381.645862</ele>
        <time>2022-08-07T09:17:07.691Z</time>
      </trkpt>
      <trkpt lat="44.26891" lon="1.87062">
        <ele>381.415437</ele>
        <time>2022-08-07T09:17:10.688Z</time>
      </trkpt>
      <trkpt lat="44.26891" lon="1.87044">
        <ele>381.176859</ele>
        <time>2022-08-07T09:17:13.688Z</time>
      </trkpt>
      <trkpt lat="44.26891" lon="1.87026">
        <ele>380.923347</ele>
        <time>2022-08-07T09:17:16.690Z</time>
      </trkpt>
      <trkpt lat="44.26891" lon="1.87009">
        <ele>380.678184</ele>
        <time>2022-08-07T09:17:19.689Z</time>
      </trkpt>
      <trkpt lat="44.26891" lon="1.86992">
        <ele>380.446885</ele>
        <time>2022-08-07T09:17:22.695Z</time>
      </trkpt>
      <trkpt lat="44.2689" lon="1.86975">
        <ele>380.205627</ele>
        <time>2022-08-07T09:17:25.692Z</time>
      </trkpt>
      <trkpt lat="44.2689" lon="1.86957">
        <ele>379.959049</ele>
        <time>2022-08-07T09:17:28.686Z</time>
      </trkpt>
      <trkpt lat="44.2689" lon="1.86941">
        <ele>379.731928</ele>
        <time>2022-08-07T09:17:31.689Z</time>
      </trkpt>
      <trkpt lat="44.2689" lon="1.86924">
        <ele>379.500629</ele>
        <time>2022-08-07T09:17:34.692Z</time>
      </trkpt>
      <trkpt lat="44.26889" lon="1.86907">
        <ele>379.265216</ele>
        <time>2022-08-07T09:17:37.688Z</time>
      </trkpt>
      <trkpt lat="44.2689" lon="1.86892">
        <ele>379.046216</ele>
        <time>2022-08-07T09:17:40.686Z</time>
      </trkpt>
      <trkpt lat="44.26894" lon="1.86877">
        <ele>378.830465</ele>
        <time>2022-08-07T09:17:43.686Z</time>
      </trkpt>
      <trkpt lat="44.26902" lon="1.86867">
        <ele>378.628746</ele>
        <time>2022-08-07T09:17:46.696Z</time>
      </trkpt>
      <trkpt lat="44.26911" lon="1.86857">
        <ele>378.479887</ele>
        <time>2022-08-07T09:17:49.685Z</time>
      </trkpt>
      <trkpt lat="44.26922" lon="1.8685">
        <ele>378.49697</ele>
        <time>2022-08-07T09:17:52.693Z</time>
      </trkpt>
      <trkpt lat="44.26934" lon="1.86845">
        <ele>378.513639</ele>
        <time>2022-08-07T09:17:55.692Z</time>
      </trkpt>
      <trkpt lat="44.26943" lon="1.86837">
        <ele>378.529704</ele>
        <time>2022-08-07T09:17:58.696Z</time>
      </trkpt>
      <trkpt lat="44.26953" lon="1.86832">
        <ele>378.543587</ele>
        <time>2022-08-07T09:18:01.696Z</time>
      </trkpt>
      <trkpt lat="44.26962" lon="1.86828">
        <ele>378.557754</ele>
        <time>2022-08-07T09:18:04.698Z</time>
      </trkpt>
      <trkpt lat="44.26971" lon="1.86824">
        <ele>378.571429</ele>
        <time>2022-08-07T09:18:07.691Z</time>
      </trkpt>
      <trkpt lat="44.26982" lon="1.86825">
        <ele>378.586261</ele>
        <time>2022-08-07T09:18:11.698Z</time>
      </trkpt>
      <trkpt lat="44.26992" lon="1.86832">
        <ele>378.602072</ele>
        <time>2022-08-07T09:18:15.692Z</time>
      </trkpt>
      <trkpt lat="44.27001" lon="1.86828">
        <ele>378.615699</ele>
        <time>2022-08-07T09:18:20.692Z</time>
      </trkpt>
      <trkpt lat="44.27011" lon="1.86818">
        <ele>378.632316</ele>
        <time>2022-08-07T09:18:24.689Z</time>
      </trkpt>
      <trkpt lat="44.27018" lon="1.8681">
        <ele>378.645883</ele>
        <time>2022-08-07T09:18:27.691Z</time>
      </trkpt>
      <trkpt lat="44.27027" lon="1.86801">
        <ele>378.660822</ele>
        <time>2022-08-07T09:18:31.693Z</time>
      </trkpt>
      <trkpt lat="44.27033" lon="1.86791">
        <ele>378.674369</ele>
        <time>2022-08-07T09:18:35.692Z</time>
      </trkpt>
      <trkpt lat="44.27036" lon="1.86778">
        <ele>378.68769</ele>
        <time>2022-08-07T09:18:39.692Z</time>
      </trkpt>
      <trkpt lat="44.27046" lon="1.86778">
        <ele>378.701761</ele>
        <time>2022-08-07T09:18:44.693Z</time>
      </trkpt>
      <trkpt lat="44.27037" lon="1.86782">
        <ele>378.71501</ele>
        <time>2022-08-07T09:40:37.685Z</time>
      </trkpt>
    </trkseg>
  </trk>
</gpx>